<?xml version="1.0" encoding="UTF-8" standalone="no" ?>
<gpx xmlns:xsi="http://www.w3.org/2001/XMLSchema-instance" version="1.1" xmlns:gpxtpx="http://www.garmin.com/xmlschemas/TrackPointExtension/v1" xmlns="http://www.topografix.com/GPX/1/1" xmlns:rmc="urn:net:trekbuddy:1.0:nmea:rmc" creator="QLandkarteGT 1.2.2 http://www.qlandkarte.org/" xsi:schemaLocation="http://www.topografix.com/GPX/1/1 http://www.topografix.com/GPX/1/1/gpx.xsd http://www.garmin.com/xmlschemas/GpxExtensions/v3 http://www.garmin.com/xmlschemas/GpxExtensionsv3.xsd http://www.garmin.com/xmlschemas/TrackPointExtension/v1 http://www.garmin.com/xmlschemas/TrackPointExtensionv1.xsd" xmlns:gpxx="http://www.garmin.com/xmlschemas/GpxExtensions/v3">
 <metadata>
  <time>2011-07-30T12:15:06Z</time>
 </metadata>
 <trk>
  <name>Radtour2011</name>
  <extensions>
   <gpxx:TrackExtension>
    <gpxx:DisplayColor>DarkBlue</gpxx:DisplayColor>
   </gpxx:TrackExtension>
  </extensions>
  <trkseg>
   <trkpt lon="7.12138796" lat="50.71776581">
    <ele>62.62</ele>
    <time>2011-05-29T04:30:21.000Z</time>
   </trkpt>
   <trkpt lon="7.12138796" lat="50.71776581">
    <ele>62.14</ele>
    <time>2011-05-29T04:30:34.000Z</time>
   </trkpt>
   <trkpt lon="7.12174082" lat="50.71723938">
    <ele>46.76</ele>
    <time>2011-05-29T07:52:59.000Z</time>
   </trkpt>
   <trkpt lon="7.12175703" lat="50.71720123">
    <ele>47.24</ele>
    <time>2011-05-29T07:53:00.000Z</time>
   </trkpt>
   <trkpt lon="7.12201405" lat="50.71700287">
    <ele>50.61</ele>
    <time>2011-05-29T07:53:07.000Z</time>
   </trkpt>
   <trkpt lon="7.12210608" lat="50.71691132">
    <ele>53.01</ele>
    <time>2011-05-29T07:53:10.000Z</time>
   </trkpt>
   <trkpt lon="7.12213421" lat="50.71688080">
    <ele>53.49</ele>
    <time>2011-05-29T07:53:11.000Z</time>
   </trkpt>
   <trkpt lon="7.12243414" lat="50.71692657">
    <ele>57.82</ele>
    <time>2011-05-29T07:53:17.000Z</time>
   </trkpt>
   <trkpt lon="7.12276983" lat="50.71702194">
    <ele>60.7</ele>
    <time>2011-05-29T07:53:24.000Z</time>
   </trkpt>
   <trkpt lon="7.12287712" lat="50.71695709">
    <ele>62.62</ele>
    <time>2011-05-29T07:53:29.000Z</time>
   </trkpt>
   <trkpt lon="7.12297487" lat="50.71688461">
    <ele>63.1</ele>
    <time>2011-05-29T07:53:33.000Z</time>
   </trkpt>
   <trkpt lon="7.12325096" lat="50.71696472">
    <ele>65.03</ele>
    <time>2011-05-29T07:53:43.000Z</time>
   </trkpt>
   <trkpt lon="7.12331295" lat="50.71692276">
    <ele>64.55</ele>
    <time>2011-05-29T07:54:01.000Z</time>
   </trkpt>
   <trkpt lon="7.12333488" lat="50.71691513">
    <ele>64.55</ele>
    <time>2011-05-29T07:54:13.000Z</time>
   </trkpt>
   <trkpt lon="7.12252378" lat="50.71661758">
    <ele>63.58</ele>
    <time>2011-05-29T07:56:29.000Z</time>
   </trkpt>
   <trkpt lon="7.12248802" lat="50.71660995">
    <ele>63.58</ele>
    <time>2011-05-29T07:56:30.000Z</time>
   </trkpt>
   <trkpt lon="7.12231302" lat="50.71667480">
    <ele>63.1</ele>
    <time>2011-05-29T07:56:36.000Z</time>
   </trkpt>
   <trkpt lon="7.12177992" lat="50.71714401">
    <ele>63.58</ele>
    <time>2011-05-29T07:56:52.000Z</time>
   </trkpt>
   <trkpt lon="7.12135887" lat="50.71751022">
    <ele>64.07</ele>
    <time>2011-05-29T07:57:06.000Z</time>
   </trkpt>
   <trkpt lon="7.12088490" lat="50.71780396">
    <ele>63.58</ele>
    <time>2011-05-29T07:57:21.000Z</time>
   </trkpt>
   <trkpt lon="7.12085104" lat="50.71781158">
    <ele>63.58</ele>
    <time>2011-05-29T07:57:22.000Z</time>
   </trkpt>
   <trkpt lon="7.12071800" lat="50.71780396">
    <ele>65.51</ele>
    <time>2011-05-29T07:57:26.000Z</time>
   </trkpt>
   <trkpt lon="7.12060308" lat="50.71777725">
    <ele>65.03</ele>
    <time>2011-05-29T07:57:29.000Z</time>
   </trkpt>
   <trkpt lon="7.12001991" lat="50.71766663">
    <ele>65.51</ele>
    <time>2011-05-29T07:57:42.000Z</time>
   </trkpt>
   <trkpt lon="7.11976004" lat="50.71759415">
    <ele>65.51</ele>
    <time>2011-05-29T07:57:50.000Z</time>
   </trkpt>
   <trkpt lon="7.11937714" lat="50.71795273">
    <ele>65.03</ele>
    <time>2011-05-29T07:58:01.000Z</time>
   </trkpt>
   <trkpt lon="7.11891794" lat="50.71832275">
    <ele>65.51</ele>
    <time>2011-05-29T07:58:13.000Z</time>
   </trkpt>
   <trkpt lon="7.11838102" lat="50.71868896">
    <ele>65.51</ele>
    <time>2011-05-29T07:58:25.000Z</time>
   </trkpt>
   <trkpt lon="7.11828804" lat="50.71875000">
    <ele>65.03</ele>
    <time>2011-05-29T07:58:27.000Z</time>
   </trkpt>
   <trkpt lon="7.11823606" lat="50.71877670">
    <ele>65.99</ele>
    <time>2011-05-29T07:58:28.000Z</time>
   </trkpt>
   <trkpt lon="7.11728811" lat="50.71910477">
    <ele>65.51</ele>
    <time>2011-05-29T07:58:44.000Z</time>
   </trkpt>
   <trkpt lon="7.11600018" lat="50.71931458">
    <ele>64.55</ele>
    <time>2011-05-29T07:59:01.000Z</time>
   </trkpt>
   <trkpt lon="7.11480904" lat="50.71952438">
    <ele>65.99</ele>
    <time>2011-05-29T07:59:18.000Z</time>
   </trkpt>
   <trkpt lon="7.11400223" lat="50.71964264">
    <ele>68.87</ele>
    <time>2011-05-29T07:59:35.000Z</time>
   </trkpt>
   <trkpt lon="7.11323118" lat="50.71977997">
    <ele>70.31</ele>
    <time>2011-05-29T07:59:51.000Z</time>
   </trkpt>
   <trkpt lon="7.11213398" lat="50.72000122">
    <ele>68.39</ele>
    <time>2011-05-29T08:00:09.000Z</time>
   </trkpt>
   <trkpt lon="7.11129522" lat="50.72014618">
    <ele>65.51</ele>
    <time>2011-05-29T08:00:18.000Z</time>
   </trkpt>
   <trkpt lon="7.10990095" lat="50.72042847">
    <ele>62.14</ele>
    <time>2011-05-29T08:00:31.000Z</time>
   </trkpt>
   <trkpt lon="7.10890913" lat="50.72058487">
    <ele>61.66</ele>
    <time>2011-05-29T08:00:41.000Z</time>
   </trkpt>
   <trkpt lon="7.10872698" lat="50.72063065">
    <ele>61.18</ele>
    <time>2011-05-29T08:00:43.000Z</time>
   </trkpt>
   <trkpt lon="7.10721493" lat="50.72090149">
    <ele>59.26</ele>
    <time>2011-05-29T08:00:59.000Z</time>
   </trkpt>
   <trkpt lon="7.10694408" lat="50.72095871">
    <ele>59.26</ele>
    <time>2011-05-29T08:01:02.000Z</time>
   </trkpt>
   <trkpt lon="7.10687685" lat="50.72098541">
    <ele>59.74</ele>
    <time>2011-05-29T08:01:03.000Z</time>
   </trkpt>
   <trkpt lon="7.10681391" lat="50.72100449">
    <ele>59.74</ele>
    <time>2011-05-29T08:01:04.000Z</time>
   </trkpt>
   <trkpt lon="7.10675001" lat="50.72101974">
    <ele>59.74</ele>
    <time>2011-05-29T08:01:05.000Z</time>
   </trkpt>
   <trkpt lon="7.10670519" lat="50.72104263">
    <ele>59.74</ele>
    <time>2011-05-29T08:01:06.000Z</time>
   </trkpt>
   <trkpt lon="7.10667706" lat="50.72106934">
    <ele>60.22</ele>
    <time>2011-05-29T08:01:07.000Z</time>
   </trkpt>
   <trkpt lon="7.10664511" lat="50.72108078">
    <ele>59.74</ele>
    <time>2011-05-29T08:01:08.000Z</time>
   </trkpt>
   <trkpt lon="7.10661602" lat="50.72108078">
    <ele>59.74</ele>
    <time>2011-05-29T08:01:09.000Z</time>
   </trkpt>
   <trkpt lon="7.10658407" lat="50.72107315">
    <ele>59.74</ele>
    <time>2011-05-29T08:01:10.000Z</time>
   </trkpt>
   <trkpt lon="7.10654783" lat="50.72107315">
    <ele>59.74</ele>
    <time>2011-05-29T08:01:11.000Z</time>
   </trkpt>
   <trkpt lon="7.10651302" lat="50.72107315">
    <ele>59.74</ele>
    <time>2011-05-29T08:01:12.000Z</time>
   </trkpt>
   <trkpt lon="7.10647392" lat="50.72107697">
    <ele>59.74</ele>
    <time>2011-05-29T08:01:13.000Z</time>
   </trkpt>
   <trkpt lon="7.10643196" lat="50.72108078">
    <ele>59.74</ele>
    <time>2011-05-29T08:01:14.000Z</time>
   </trkpt>
   <trkpt lon="7.10638714" lat="50.72108078">
    <ele>59.74</ele>
    <time>2011-05-29T08:01:15.000Z</time>
   </trkpt>
   <trkpt lon="7.10633898" lat="50.72107697">
    <ele>59.74</ele>
    <time>2011-05-29T08:01:16.000Z</time>
   </trkpt>
   <trkpt lon="7.10628986" lat="50.72108078">
    <ele>59.74</ele>
    <time>2011-05-29T08:01:17.000Z</time>
   </trkpt>
   <trkpt lon="7.10623980" lat="50.72108078">
    <ele>59.74</ele>
    <time>2011-05-29T08:01:18.000Z</time>
   </trkpt>
   <trkpt lon="7.10536718" lat="50.72115326">
    <ele>59.74</ele>
    <time>2011-05-29T08:01:33.000Z</time>
   </trkpt>
   <trkpt lon="7.10512781" lat="50.72117615">
    <ele>60.22</ele>
    <time>2011-05-29T08:01:37.000Z</time>
   </trkpt>
   <trkpt lon="7.10466385" lat="50.72119141">
    <ele>60.22</ele>
    <time>2011-05-29T08:01:48.000Z</time>
   </trkpt>
   <trkpt lon="7.10452986" lat="50.72120667">
    <ele>59.74</ele>
    <time>2011-05-29T08:02:07.000Z</time>
   </trkpt>
   <trkpt lon="7.10374689" lat="50.72134399">
    <ele>61.18</ele>
    <time>2011-05-29T08:02:22.000Z</time>
   </trkpt>
   <trkpt lon="7.10293722" lat="50.72148895">
    <ele>62.62</ele>
    <time>2011-05-29T08:02:38.000Z</time>
   </trkpt>
   <trkpt lon="7.10285902" lat="50.72151566">
    <ele>62.62</ele>
    <time>2011-05-29T08:02:48.000Z</time>
   </trkpt>
   <trkpt lon="7.10285902" lat="50.72151566">
    <ele>63.1</ele>
    <time>2011-05-29T08:03:08.000Z</time>
   </trkpt>
   <trkpt lon="7.10283279" lat="50.72151566">
    <ele>62.62</ele>
    <time>2011-05-29T08:03:09.000Z</time>
   </trkpt>
   <trkpt lon="7.10280991" lat="50.72151947">
    <ele>62.62</ele>
    <time>2011-05-29T08:03:10.000Z</time>
   </trkpt>
   <trkpt lon="7.10278082" lat="50.72152710">
    <ele>62.62</ele>
    <time>2011-05-29T08:03:11.000Z</time>
   </trkpt>
   <trkpt lon="7.10274220" lat="50.72153091">
    <ele>63.1</ele>
    <time>2011-05-29T08:03:12.000Z</time>
   </trkpt>
   <trkpt lon="7.10270119" lat="50.72154236">
    <ele>63.58</ele>
    <time>2011-05-29T08:03:13.000Z</time>
   </trkpt>
   <trkpt lon="7.10203981" lat="50.72167969">
    <ele>63.58</ele>
    <time>2011-05-29T08:03:26.000Z</time>
   </trkpt>
   <trkpt lon="7.10117483" lat="50.72187805">
    <ele>63.1</ele>
    <time>2011-05-29T08:03:41.000Z</time>
   </trkpt>
   <trkpt lon="7.10027695" lat="50.72206116">
    <ele>64.07</ele>
    <time>2011-05-29T08:03:56.000Z</time>
   </trkpt>
   <trkpt lon="7.09982300" lat="50.72214508">
    <ele>64.55</ele>
    <time>2011-05-29T08:04:03.000Z</time>
   </trkpt>
   <trkpt lon="7.09876013" lat="50.72229385">
    <ele>64.07</ele>
    <time>2011-05-29T08:04:19.000Z</time>
   </trkpt>
   <trkpt lon="7.09868717" lat="50.72230530">
    <ele>64.07</ele>
    <time>2011-05-29T08:04:20.000Z</time>
   </trkpt>
   <trkpt lon="7.09854603" lat="50.72232819">
    <ele>64.07</ele>
    <time>2011-05-29T08:04:22.000Z</time>
   </trkpt>
   <trkpt lon="7.09840202" lat="50.72235489">
    <ele>63.58</ele>
    <time>2011-05-29T08:04:24.000Z</time>
   </trkpt>
   <trkpt lon="7.09833479" lat="50.72237015">
    <ele>64.07</ele>
    <time>2011-05-29T08:04:25.000Z</time>
   </trkpt>
   <trkpt lon="7.09827185" lat="50.72238541">
    <ele>64.07</ele>
    <time>2011-05-29T08:04:26.000Z</time>
   </trkpt>
   <trkpt lon="7.09820795" lat="50.72239685">
    <ele>64.55</ele>
    <time>2011-05-29T08:04:27.000Z</time>
   </trkpt>
   <trkpt lon="7.09814119" lat="50.72240829">
    <ele>64.07</ele>
    <time>2011-05-29T08:04:28.000Z</time>
   </trkpt>
   <trkpt lon="7.09793711" lat="50.72243881">
    <ele>64.55</ele>
    <time>2011-05-29T08:04:31.000Z</time>
   </trkpt>
   <trkpt lon="7.09699821" lat="50.72257996">
    <ele>65.03</ele>
    <time>2011-05-29T08:04:45.000Z</time>
   </trkpt>
   <trkpt lon="7.09584808" lat="50.72278214">
    <ele>65.03</ele>
    <time>2011-05-29T08:05:03.000Z</time>
   </trkpt>
   <trkpt lon="7.09484100" lat="50.72294235">
    <ele>65.03</ele>
    <time>2011-05-29T08:05:18.000Z</time>
   </trkpt>
   <trkpt lon="7.09444094" lat="50.72301102">
    <ele>65.03</ele>
    <time>2011-05-29T08:05:24.000Z</time>
   </trkpt>
   <trkpt lon="7.09417009" lat="50.72304535">
    <ele>65.03</ele>
    <time>2011-05-29T08:05:28.000Z</time>
   </trkpt>
   <trkpt lon="7.09328604" lat="50.72319031">
    <ele>65.51</ele>
    <time>2011-05-29T08:05:41.000Z</time>
   </trkpt>
   <trkpt lon="7.09307289" lat="50.72321320">
    <ele>65.03</ele>
    <time>2011-05-29T08:05:44.000Z</time>
   </trkpt>
   <trkpt lon="7.09258604" lat="50.72320938">
    <ele>65.99</ele>
    <time>2011-05-29T08:05:51.000Z</time>
   </trkpt>
   <trkpt lon="7.09245491" lat="50.72318649">
    <ele>65.99</ele>
    <time>2011-05-29T08:05:53.000Z</time>
   </trkpt>
   <trkpt lon="7.09224796" lat="50.72317886">
    <ele>65.99</ele>
    <time>2011-05-29T08:05:56.000Z</time>
   </trkpt>
   <trkpt lon="7.09217787" lat="50.72318268">
    <ele>65.99</ele>
    <time>2011-05-29T08:05:57.000Z</time>
   </trkpt>
   <trkpt lon="7.09210920" lat="50.72319412">
    <ele>65.99</ele>
    <time>2011-05-29T08:05:58.000Z</time>
   </trkpt>
   <trkpt lon="7.09204006" lat="50.72320938">
    <ele>66.47</ele>
    <time>2011-05-29T08:05:59.000Z</time>
   </trkpt>
   <trkpt lon="7.09197521" lat="50.72322845">
    <ele>65.99</ele>
    <time>2011-05-29T08:06:00.000Z</time>
   </trkpt>
   <trkpt lon="7.09191513" lat="50.72325134">
    <ele>65.99</ele>
    <time>2011-05-29T08:06:01.000Z</time>
   </trkpt>
   <trkpt lon="7.09186220" lat="50.72328186">
    <ele>65.99</ele>
    <time>2011-05-29T08:06:02.000Z</time>
   </trkpt>
   <trkpt lon="7.09181213" lat="50.72330856">
    <ele>65.99</ele>
    <time>2011-05-29T08:06:03.000Z</time>
   </trkpt>
   <trkpt lon="7.09175682" lat="50.72333908">
    <ele>66.47</ele>
    <time>2011-05-29T08:06:04.000Z</time>
   </trkpt>
   <trkpt lon="7.09094095" lat="50.72376633">
    <ele>66.47</ele>
    <time>2011-05-29T08:06:19.000Z</time>
   </trkpt>
   <trkpt lon="7.09044504" lat="50.72399902">
    <ele>66.95</ele>
    <time>2011-05-29T08:06:28.000Z</time>
   </trkpt>
   <trkpt lon="7.08981419" lat="50.72434616">
    <ele>66.47</ele>
    <time>2011-05-29T08:06:41.000Z</time>
   </trkpt>
   <trkpt lon="7.08896303" lat="50.72474670">
    <ele>64.55</ele>
    <time>2011-05-29T08:06:53.000Z</time>
   </trkpt>
   <trkpt lon="7.08823586" lat="50.72508240">
    <ele>64.55</ele>
    <time>2011-05-29T08:07:03.000Z</time>
   </trkpt>
   <trkpt lon="7.08816385" lat="50.72508621">
    <ele>64.55</ele>
    <time>2011-05-29T08:07:04.000Z</time>
   </trkpt>
   <trkpt lon="7.08809900" lat="50.72507477">
    <ele>64.07</ele>
    <time>2011-05-29T08:07:05.000Z</time>
   </trkpt>
   <trkpt lon="7.08803988" lat="50.72505188">
    <ele>64.07</ele>
    <time>2011-05-29T08:07:06.000Z</time>
   </trkpt>
   <trkpt lon="7.08798409" lat="50.72502518">
    <ele>64.07</ele>
    <time>2011-05-29T08:07:07.000Z</time>
   </trkpt>
   <trkpt lon="7.08792877" lat="50.72499466">
    <ele>64.55</ele>
    <time>2011-05-29T08:07:08.000Z</time>
   </trkpt>
   <trkpt lon="7.08777285" lat="50.72489929">
    <ele>64.55</ele>
    <time>2011-05-29T08:07:11.000Z</time>
   </trkpt>
   <trkpt lon="7.08772421" lat="50.72486877">
    <ele>64.55</ele>
    <time>2011-05-29T08:07:12.000Z</time>
   </trkpt>
   <trkpt lon="7.08767414" lat="50.72483444">
    <ele>64.07</ele>
    <time>2011-05-29T08:07:13.000Z</time>
   </trkpt>
   <trkpt lon="7.08757877" lat="50.72477341">
    <ele>64.55</ele>
    <time>2011-05-29T08:07:15.000Z</time>
   </trkpt>
   <trkpt lon="7.08753204" lat="50.72474289">
    <ele>64.07</ele>
    <time>2011-05-29T08:07:16.000Z</time>
   </trkpt>
   <trkpt lon="7.08742809" lat="50.72467804">
    <ele>64.07</ele>
    <time>2011-05-29T08:07:18.000Z</time>
   </trkpt>
   <trkpt lon="7.08737612" lat="50.72464752">
    <ele>64.55</ele>
    <time>2011-05-29T08:07:19.000Z</time>
   </trkpt>
   <trkpt lon="7.08732080" lat="50.72461700">
    <ele>64.55</ele>
    <time>2011-05-29T08:07:20.000Z</time>
   </trkpt>
   <trkpt lon="7.08727121" lat="50.72458267">
    <ele>64.07</ele>
    <time>2011-05-29T08:07:21.000Z</time>
   </trkpt>
   <trkpt lon="7.08722115" lat="50.72454834">
    <ele>64.55</ele>
    <time>2011-05-29T08:07:22.000Z</time>
   </trkpt>
   <trkpt lon="7.08647823" lat="50.72407532">
    <ele>65.03</ele>
    <time>2011-05-29T08:07:37.000Z</time>
   </trkpt>
   <trkpt lon="7.08638191" lat="50.72400284">
    <ele>65.03</ele>
    <time>2011-05-29T08:07:39.000Z</time>
   </trkpt>
   <trkpt lon="7.08632612" lat="50.72397232">
    <ele>65.03</ele>
    <time>2011-05-29T08:07:40.000Z</time>
   </trkpt>
   <trkpt lon="7.08626699" lat="50.72394562">
    <ele>65.03</ele>
    <time>2011-05-29T08:07:41.000Z</time>
   </trkpt>
   <trkpt lon="7.08608198" lat="50.72386169">
    <ele>65.03</ele>
    <time>2011-05-29T08:07:44.000Z</time>
   </trkpt>
   <trkpt lon="7.08602619" lat="50.72382736">
    <ele>65.03</ele>
    <time>2011-05-29T08:07:45.000Z</time>
   </trkpt>
   <trkpt lon="7.08597279" lat="50.72379303">
    <ele>65.03</ele>
    <time>2011-05-29T08:07:46.000Z</time>
   </trkpt>
   <trkpt lon="7.08591795" lat="50.72376251">
    <ele>65.51</ele>
    <time>2011-05-29T08:07:47.000Z</time>
   </trkpt>
   <trkpt lon="7.08586216" lat="50.72373199">
    <ele>65.51</ele>
    <time>2011-05-29T08:07:48.000Z</time>
   </trkpt>
   <trkpt lon="7.08575487" lat="50.72366714">
    <ele>65.51</ele>
    <time>2011-05-29T08:07:50.000Z</time>
   </trkpt>
   <trkpt lon="7.08545208" lat="50.72345734">
    <ele>65.51</ele>
    <time>2011-05-29T08:07:56.000Z</time>
   </trkpt>
   <trkpt lon="7.08540392" lat="50.72341919">
    <ele>65.51</ele>
    <time>2011-05-29T08:07:57.000Z</time>
   </trkpt>
   <trkpt lon="7.08486986" lat="50.72307205">
    <ele>65.99</ele>
    <time>2011-05-29T08:08:07.000Z</time>
   </trkpt>
   <trkpt lon="7.08482981" lat="50.72303009">
    <ele>65.99</ele>
    <time>2011-05-29T08:08:08.000Z</time>
   </trkpt>
   <trkpt lon="7.08479309" lat="50.72298813">
    <ele>65.51</ele>
    <time>2011-05-29T08:08:09.000Z</time>
   </trkpt>
   <trkpt lon="7.08447790" lat="50.72264099">
    <ele>65.99</ele>
    <time>2011-05-29T08:08:17.000Z</time>
   </trkpt>
   <trkpt lon="7.08440590" lat="50.72255325">
    <ele>65.99</ele>
    <time>2011-05-29T08:08:19.000Z</time>
   </trkpt>
   <trkpt lon="7.08435392" lat="50.72251892">
    <ele>65.51</ele>
    <time>2011-05-29T08:08:20.000Z</time>
   </trkpt>
   <trkpt lon="7.08429098" lat="50.72249985">
    <ele>65.99</ele>
    <time>2011-05-29T08:08:21.000Z</time>
   </trkpt>
   <trkpt lon="7.08422422" lat="50.72249222">
    <ele>65.99</ele>
    <time>2011-05-29T08:08:22.000Z</time>
   </trkpt>
   <trkpt lon="7.08415508" lat="50.72249603">
    <ele>65.99</ele>
    <time>2011-05-29T08:08:23.000Z</time>
   </trkpt>
   <trkpt lon="7.08408594" lat="50.72251511">
    <ele>65.99</ele>
    <time>2011-05-29T08:08:24.000Z</time>
   </trkpt>
   <trkpt lon="7.08295298" lat="50.72270966">
    <ele>66.47</ele>
    <time>2011-05-29T08:08:40.000Z</time>
   </trkpt>
   <trkpt lon="7.08165979" lat="50.72288895">
    <ele>66.95</ele>
    <time>2011-05-29T08:08:59.000Z</time>
   </trkpt>
   <trkpt lon="7.08098507" lat="50.72299194">
    <ele>68.39</ele>
    <time>2011-05-29T08:09:10.000Z</time>
   </trkpt>
   <trkpt lon="7.08013487" lat="50.72311783">
    <ele>69.83</ele>
    <time>2011-05-29T08:09:26.000Z</time>
   </trkpt>
   <trkpt lon="7.07946682" lat="50.72317886">
    <ele>71.27</ele>
    <time>2011-05-29T08:09:42.000Z</time>
   </trkpt>
   <trkpt lon="7.07894993" lat="50.72327423">
    <ele>73.2</ele>
    <time>2011-05-29T08:09:57.000Z</time>
   </trkpt>
   <trkpt lon="7.07855177" lat="50.72307587">
    <ele>74.64</ele>
    <time>2011-05-29T08:10:08.000Z</time>
   </trkpt>
   <trkpt lon="7.07787609" lat="50.72288513">
    <ele>75.12</ele>
    <time>2011-05-29T08:10:23.000Z</time>
   </trkpt>
   <trkpt lon="7.07693195" lat="50.72257614">
    <ele>76.08</ele>
    <time>2011-05-29T08:10:42.000Z</time>
   </trkpt>
   <trkpt lon="7.07594395" lat="50.72225189">
    <ele>75.6</ele>
    <time>2011-05-29T08:11:00.000Z</time>
   </trkpt>
   <trkpt lon="7.07488298" lat="50.72191620">
    <ele>77.04</ele>
    <time>2011-05-29T08:11:17.000Z</time>
   </trkpt>
   <trkpt lon="7.07382202" lat="50.72158432">
    <ele>77.52</ele>
    <time>2011-05-29T08:11:34.000Z</time>
   </trkpt>
   <trkpt lon="7.07299519" lat="50.72134018">
    <ele>78</ele>
    <time>2011-05-29T08:11:49.000Z</time>
   </trkpt>
   <trkpt lon="7.07243395" lat="50.72121048">
    <ele>78</ele>
    <time>2011-05-29T08:12:00.000Z</time>
   </trkpt>
   <trkpt lon="7.07214499" lat="50.72111893">
    <ele>77.04</ele>
    <time>2011-05-29T08:12:04.000Z</time>
   </trkpt>
   <trkpt lon="7.07106686" lat="50.72074509">
    <ele>77.04</ele>
    <time>2011-05-29T08:12:19.000Z</time>
   </trkpt>
   <trkpt lon="7.07042885" lat="50.72056580">
    <ele>77.04</ele>
    <time>2011-05-29T08:12:28.000Z</time>
   </trkpt>
   <trkpt lon="7.06941414" lat="50.72042847">
    <ele>77.04</ele>
    <time>2011-05-29T08:12:41.000Z</time>
   </trkpt>
   <trkpt lon="7.06879091" lat="50.72042847">
    <ele>78.97</ele>
    <time>2011-05-29T08:12:53.000Z</time>
   </trkpt>
   <trkpt lon="7.06835079" lat="50.72028732">
    <ele>78.48</ele>
    <time>2011-05-29T08:13:06.000Z</time>
   </trkpt>
   <trkpt lon="7.06816006" lat="50.72026062">
    <ele>79.93</ele>
    <time>2011-05-29T08:13:11.000Z</time>
   </trkpt>
   <trkpt lon="7.06765413" lat="50.72018051">
    <ele>81.37</ele>
    <time>2011-05-29T08:13:24.000Z</time>
   </trkpt>
   <trkpt lon="7.06689596" lat="50.72007751">
    <ele>82.81</ele>
    <time>2011-05-29T08:13:42.000Z</time>
   </trkpt>
   <trkpt lon="7.06618118" lat="50.71997452">
    <ele>83.77</ele>
    <time>2011-05-29T08:13:58.000Z</time>
   </trkpt>
   <trkpt lon="7.06545019" lat="50.71985245">
    <ele>84.73</ele>
    <time>2011-05-29T08:14:12.000Z</time>
   </trkpt>
   <trkpt lon="7.06491899" lat="50.71977615">
    <ele>85.21</ele>
    <time>2011-05-29T08:14:24.000Z</time>
   </trkpt>
   <trkpt lon="7.06482077" lat="50.71973801">
    <ele>85.21</ele>
    <time>2011-05-29T08:14:29.000Z</time>
   </trkpt>
   <trkpt lon="7.06479502" lat="50.71976471">
    <ele>84.73</ele>
    <time>2011-05-29T08:14:30.000Z</time>
   </trkpt>
   <trkpt lon="7.06476688" lat="50.71979141">
    <ele>85.21</ele>
    <time>2011-05-29T08:14:31.000Z</time>
   </trkpt>
   <trkpt lon="7.06473398" lat="50.71981812">
    <ele>85.21</ele>
    <time>2011-05-29T08:14:32.000Z</time>
   </trkpt>
   <trkpt lon="7.06469917" lat="50.71985626">
    <ele>85.21</ele>
    <time>2011-05-29T08:14:33.000Z</time>
   </trkpt>
   <trkpt lon="7.06466198" lat="50.71989822">
    <ele>85.21</ele>
    <time>2011-05-29T08:14:34.000Z</time>
   </trkpt>
   <trkpt lon="7.06387901" lat="50.72058487">
    <ele>84.25</ele>
    <time>2011-05-29T08:14:52.000Z</time>
   </trkpt>
   <trkpt lon="7.06306219" lat="50.72130585">
    <ele>84.25</ele>
    <time>2011-05-29T08:15:10.000Z</time>
   </trkpt>
   <trkpt lon="7.06289005" lat="50.72150421">
    <ele>83.77</ele>
    <time>2011-05-29T08:15:15.000Z</time>
   </trkpt>
   <trkpt lon="7.06286812" lat="50.72154236">
    <ele>83.77</ele>
    <time>2011-05-29T08:15:16.000Z</time>
   </trkpt>
   <trkpt lon="7.06278086" lat="50.72183990">
    <ele>83.29</ele>
    <time>2011-05-29T08:15:26.000Z</time>
   </trkpt>
   <trkpt lon="7.06275177" lat="50.72185516">
    <ele>83.29</ele>
    <time>2011-05-29T08:15:27.000Z</time>
   </trkpt>
   <trkpt lon="7.06271219" lat="50.72186279">
    <ele>82.81</ele>
    <time>2011-05-29T08:15:28.000Z</time>
   </trkpt>
   <trkpt lon="7.06267118" lat="50.72185516">
    <ele>83.29</ele>
    <time>2011-05-29T08:15:29.000Z</time>
   </trkpt>
   <trkpt lon="7.06264019" lat="50.72183228">
    <ele>83.77</ele>
    <time>2011-05-29T08:15:30.000Z</time>
   </trkpt>
   <trkpt lon="7.06261301" lat="50.72181320">
    <ele>84.25</ele>
    <time>2011-05-29T08:15:31.000Z</time>
   </trkpt>
   <trkpt lon="7.06253719" lat="50.72174454">
    <ele>84.73</ele>
    <time>2011-05-29T08:15:41.000Z</time>
   </trkpt>
   <trkpt lon="7.06255102" lat="50.72174072">
    <ele>84.25</ele>
    <time>2011-05-29T08:15:51.000Z</time>
   </trkpt>
   <trkpt lon="7.06257296" lat="50.72174454">
    <ele>83.77</ele>
    <time>2011-05-29T08:15:52.000Z</time>
   </trkpt>
   <trkpt lon="7.06259680" lat="50.72175217">
    <ele>83.77</ele>
    <time>2011-05-29T08:15:53.000Z</time>
   </trkpt>
   <trkpt lon="7.06261492" lat="50.72175980">
    <ele>83.77</ele>
    <time>2011-05-29T08:15:54.000Z</time>
   </trkpt>
   <trkpt lon="7.06258392" lat="50.72179031">
    <ele>83.29</ele>
    <time>2011-05-29T08:16:02.000Z</time>
   </trkpt>
   <trkpt lon="7.06219387" lat="50.72178268">
    <ele>84.25</ele>
    <time>2011-05-29T08:16:11.000Z</time>
   </trkpt>
   <trkpt lon="7.06160879" lat="50.72143555">
    <ele>84.25</ele>
    <time>2011-05-29T08:16:26.000Z</time>
   </trkpt>
   <trkpt lon="7.06089401" lat="50.72108078">
    <ele>84.73</ele>
    <time>2011-05-29T08:16:42.000Z</time>
   </trkpt>
   <trkpt lon="7.05988503" lat="50.72059250">
    <ele>84.73</ele>
    <time>2011-05-29T08:17:00.000Z</time>
   </trkpt>
   <trkpt lon="7.05867481" lat="50.72009277">
    <ele>84.73</ele>
    <time>2011-05-29T08:17:19.000Z</time>
   </trkpt>
   <trkpt lon="7.05742311" lat="50.71955109">
    <ele>84.73</ele>
    <time>2011-05-29T08:17:39.000Z</time>
   </trkpt>
   <trkpt lon="7.05626011" lat="50.71902847">
    <ele>85.21</ele>
    <time>2011-05-29T08:17:58.000Z</time>
   </trkpt>
   <trkpt lon="7.05547523" lat="50.71864319">
    <ele>85.21</ele>
    <time>2011-05-29T08:18:12.000Z</time>
   </trkpt>
   <trkpt lon="7.05541897" lat="50.71862030">
    <ele>84.73</ele>
    <time>2011-05-29T08:18:13.000Z</time>
   </trkpt>
   <trkpt lon="7.05498314" lat="50.71839523">
    <ele>84.73</ele>
    <time>2011-05-29T08:18:21.000Z</time>
   </trkpt>
   <trkpt lon="7.05413389" lat="50.71798325">
    <ele>85.21</ele>
    <time>2011-05-29T08:18:37.000Z</time>
   </trkpt>
   <trkpt lon="7.05313301" lat="50.71748352">
    <ele>86.18</ele>
    <time>2011-05-29T08:18:56.000Z</time>
   </trkpt>
   <trkpt lon="7.05223894" lat="50.71703339">
    <ele>86.18</ele>
    <time>2011-05-29T08:19:13.000Z</time>
   </trkpt>
   <trkpt lon="7.05195189" lat="50.71688080">
    <ele>86.66</ele>
    <time>2011-05-29T08:19:19.000Z</time>
   </trkpt>
   <trkpt lon="7.05150890" lat="50.71665955">
    <ele>86.66</ele>
    <time>2011-05-29T08:19:28.000Z</time>
   </trkpt>
   <trkpt lon="7.05083609" lat="50.71647263">
    <ele>87.14</ele>
    <time>2011-05-29T08:19:41.000Z</time>
   </trkpt>
   <trkpt lon="7.05043983" lat="50.71645737">
    <ele>87.14</ele>
    <time>2011-05-29T08:19:47.000Z</time>
   </trkpt>
   <trkpt lon="7.05037022" lat="50.71646118">
    <ele>87.14</ele>
    <time>2011-05-29T08:19:48.000Z</time>
   </trkpt>
   <trkpt lon="7.04915905" lat="50.71641541">
    <ele>86.66</ele>
    <time>2011-05-29T08:20:06.000Z</time>
   </trkpt>
   <trkpt lon="7.04910707" lat="50.71641922">
    <ele>86.18</ele>
    <time>2011-05-29T08:20:19.000Z</time>
   </trkpt>
   <trkpt lon="7.04893589" lat="50.71640396">
    <ele>87.14</ele>
    <time>2011-05-29T08:20:44.000Z</time>
   </trkpt>
   <trkpt lon="7.04805708" lat="50.71624374">
    <ele>87.62</ele>
    <time>2011-05-29T08:20:59.000Z</time>
   </trkpt>
   <trkpt lon="7.04708815" lat="50.71593475">
    <ele>88.1</ele>
    <time>2011-05-29T08:21:16.000Z</time>
   </trkpt>
   <trkpt lon="7.04616117" lat="50.71556091">
    <ele>89.06</ele>
    <time>2011-05-29T08:21:34.000Z</time>
   </trkpt>
   <trkpt lon="7.04555511" lat="50.71520233">
    <ele>90.02</ele>
    <time>2011-05-29T08:21:49.000Z</time>
   </trkpt>
   <trkpt lon="7.04516602" lat="50.71487808">
    <ele>90.02</ele>
    <time>2011-05-29T08:21:59.000Z</time>
   </trkpt>
   <trkpt lon="7.04491901" lat="50.71473694">
    <ele>90.02</ele>
    <time>2011-05-29T08:22:04.000Z</time>
   </trkpt>
   <trkpt lon="7.04433584" lat="50.71456146">
    <ele>90.02</ele>
    <time>2011-05-29T08:22:14.000Z</time>
   </trkpt>
   <trkpt lon="7.04333305" lat="50.71442413">
    <ele>90.98</ele>
    <time>2011-05-29T08:22:30.000Z</time>
   </trkpt>
   <trkpt lon="7.04250622" lat="50.71419144">
    <ele>92.9</ele>
    <time>2011-05-29T08:22:46.000Z</time>
   </trkpt>
   <trkpt lon="7.04192686" lat="50.71408844">
    <ele>92.42</ele>
    <time>2011-05-29T08:22:58.000Z</time>
   </trkpt>
   <trkpt lon="7.04123402" lat="50.71421051">
    <ele>91.94</ele>
    <time>2011-05-29T08:23:07.000Z</time>
   </trkpt>
   <trkpt lon="7.04116201" lat="50.71422195">
    <ele>92.42</ele>
    <time>2011-05-29T08:23:08.000Z</time>
   </trkpt>
   <trkpt lon="7.04108715" lat="50.71422958">
    <ele>92.9</ele>
    <time>2011-05-29T08:23:09.000Z</time>
   </trkpt>
   <trkpt lon="7.04057503" lat="50.71428680">
    <ele>92.42</ele>
    <time>2011-05-29T08:23:16.000Z</time>
   </trkpt>
   <trkpt lon="7.03947783" lat="50.71440887">
    <ele>91.94</ele>
    <time>2011-05-29T08:23:31.000Z</time>
   </trkpt>
   <trkpt lon="7.03925705" lat="50.71442795">
    <ele>91.94</ele>
    <time>2011-05-29T08:23:34.000Z</time>
   </trkpt>
   <trkpt lon="7.03905392" lat="50.71444321">
    <ele>91.94</ele>
    <time>2011-05-29T08:23:37.000Z</time>
   </trkpt>
   <trkpt lon="7.03805399" lat="50.71461105">
    <ele>91.94</ele>
    <time>2011-05-29T08:23:54.000Z</time>
   </trkpt>
   <trkpt lon="7.03782320" lat="50.71467972">
    <ele>91.94</ele>
    <time>2011-05-29T08:23:58.000Z</time>
   </trkpt>
   <trkpt lon="7.03652620" lat="50.71494675">
    <ele>90.98</ele>
    <time>2011-05-29T08:24:16.000Z</time>
   </trkpt>
   <trkpt lon="7.03522205" lat="50.71517181">
    <ele>90.02</ele>
    <time>2011-05-29T08:24:33.000Z</time>
   </trkpt>
   <trkpt lon="7.03413105" lat="50.71518326">
    <ele>90.5</ele>
    <time>2011-05-29T08:24:48.000Z</time>
   </trkpt>
   <trkpt lon="7.03323221" lat="50.71508408">
    <ele>91.46</ele>
    <time>2011-05-29T08:25:03.000Z</time>
   </trkpt>
   <trkpt lon="7.03248405" lat="50.71495819">
    <ele>92.42</ele>
    <time>2011-05-29T08:25:16.000Z</time>
   </trkpt>
   <trkpt lon="7.03173685" lat="50.71478653">
    <ele>93.87</ele>
    <time>2011-05-29T08:25:30.000Z</time>
   </trkpt>
   <trkpt lon="7.03103018" lat="50.71456909">
    <ele>95.31</ele>
    <time>2011-05-29T08:25:44.000Z</time>
   </trkpt>
   <trkpt lon="7.03054619" lat="50.71438980">
    <ele>96.75</ele>
    <time>2011-05-29T08:25:56.000Z</time>
   </trkpt>
   <trkpt lon="7.02999496" lat="50.71414948">
    <ele>98.67</ele>
    <time>2011-05-29T08:26:11.000Z</time>
   </trkpt>
   <trkpt lon="7.02938080" lat="50.71387100">
    <ele>100.6</ele>
    <time>2011-05-29T08:26:29.000Z</time>
   </trkpt>
   <trkpt lon="7.02884817" lat="50.71358490">
    <ele>102.04</ele>
    <time>2011-05-29T08:26:44.000Z</time>
   </trkpt>
   <trkpt lon="7.02829123" lat="50.71336365">
    <ele>103.48</ele>
    <time>2011-05-29T08:26:58.000Z</time>
   </trkpt>
   <trkpt lon="7.02754021" lat="50.71306992">
    <ele>103.96</ele>
    <time>2011-05-29T08:27:17.000Z</time>
   </trkpt>
   <trkpt lon="7.02686119" lat="50.71280289">
    <ele>105.4</ele>
    <time>2011-05-29T08:27:34.000Z</time>
   </trkpt>
   <trkpt lon="7.02620983" lat="50.71256256">
    <ele>105.88</ele>
    <time>2011-05-29T08:27:49.000Z</time>
   </trkpt>
   <trkpt lon="7.02547598" lat="50.71226501">
    <ele>106.84</ele>
    <time>2011-05-29T08:28:05.000Z</time>
   </trkpt>
   <trkpt lon="7.02468300" lat="50.71187973">
    <ele>107.81</ele>
    <time>2011-05-29T08:28:22.000Z</time>
   </trkpt>
   <trkpt lon="7.02416897" lat="50.71144485">
    <ele>108.29</ele>
    <time>2011-05-29T08:28:36.000Z</time>
   </trkpt>
   <trkpt lon="7.02392721" lat="50.71111679">
    <ele>107.32</ele>
    <time>2011-05-29T08:28:45.000Z</time>
   </trkpt>
   <trkpt lon="7.02379608" lat="50.71055222">
    <ele>108.77</ele>
    <time>2011-05-29T08:29:00.000Z</time>
   </trkpt>
   <trkpt lon="7.02375603" lat="50.70985031">
    <ele>108.29</ele>
    <time>2011-05-29T08:29:19.000Z</time>
   </trkpt>
   <trkpt lon="7.02364206" lat="50.70921707">
    <ele>109.73</ele>
    <time>2011-05-29T08:29:35.000Z</time>
   </trkpt>
   <trkpt lon="7.02328205" lat="50.70867920">
    <ele>110.69</ele>
    <time>2011-05-29T08:29:50.000Z</time>
   </trkpt>
   <trkpt lon="7.02268791" lat="50.70816040">
    <ele>110.69</ele>
    <time>2011-05-29T08:30:06.000Z</time>
   </trkpt>
   <trkpt lon="7.02209520" lat="50.70771027">
    <ele>110.21</ele>
    <time>2011-05-29T08:30:21.000Z</time>
   </trkpt>
   <trkpt lon="7.02198696" lat="50.70759583">
    <ele>110.21</ele>
    <time>2011-05-29T08:30:24.000Z</time>
   </trkpt>
   <trkpt lon="7.02188206" lat="50.70746613">
    <ele>110.21</ele>
    <time>2011-05-29T08:30:27.000Z</time>
   </trkpt>
   <trkpt lon="7.02140093" lat="50.70665359">
    <ele>108.77</ele>
    <time>2011-05-29T08:30:44.000Z</time>
   </trkpt>
   <trkpt lon="7.02126217" lat="50.70641327">
    <ele>108.77</ele>
    <time>2011-05-29T08:30:49.000Z</time>
   </trkpt>
   <trkpt lon="7.02106524" lat="50.70595169">
    <ele>108.77</ele>
    <time>2011-05-29T08:30:59.000Z</time>
   </trkpt>
   <trkpt lon="7.02082109" lat="50.70548248">
    <ele>109.25</ele>
    <time>2011-05-29T08:31:12.000Z</time>
   </trkpt>
   <trkpt lon="7.02058792" lat="50.70513153">
    <ele>109.25</ele>
    <time>2011-05-29T08:31:24.000Z</time>
   </trkpt>
   <trkpt lon="7.02048016" lat="50.70492554">
    <ele>109.25</ele>
    <time>2011-05-29T08:31:30.000Z</time>
   </trkpt>
   <trkpt lon="7.02047586" lat="50.70487976">
    <ele>108.77</ele>
    <time>2011-05-29T08:31:31.000Z</time>
   </trkpt>
   <trkpt lon="7.02046108" lat="50.70478821">
    <ele>108.77</ele>
    <time>2011-05-29T08:31:33.000Z</time>
   </trkpt>
   <trkpt lon="7.02044201" lat="50.70473862">
    <ele>108.77</ele>
    <time>2011-05-29T08:31:34.000Z</time>
   </trkpt>
   <trkpt lon="7.02041578" lat="50.70468521">
    <ele>108.29</ele>
    <time>2011-05-29T08:31:35.000Z</time>
   </trkpt>
   <trkpt lon="7.01988411" lat="50.70391464">
    <ele>108.29</ele>
    <time>2011-05-29T08:31:49.000Z</time>
   </trkpt>
   <trkpt lon="7.01930618" lat="50.70322418">
    <ele>108.77</ele>
    <time>2011-05-29T08:32:06.000Z</time>
   </trkpt>
   <trkpt lon="7.01919603" lat="50.70311737">
    <ele>108.77</ele>
    <time>2011-05-29T08:32:09.000Z</time>
   </trkpt>
   <trkpt lon="7.01896715" lat="50.70291519">
    <ele>110.69</ele>
    <time>2011-05-29T08:32:16.000Z</time>
   </trkpt>
   <trkpt lon="7.01863718" lat="50.70257568">
    <ele>112.61</ele>
    <time>2011-05-29T08:32:31.000Z</time>
   </trkpt>
   <trkpt lon="7.01833916" lat="50.70231628">
    <ele>114.53</ele>
    <time>2011-05-29T08:32:46.000Z</time>
   </trkpt>
   <trkpt lon="7.01800299" lat="50.70203018">
    <ele>115.98</ele>
    <time>2011-05-29T08:33:03.000Z</time>
   </trkpt>
   <trkpt lon="7.01773596" lat="50.70179749">
    <ele>117.9</ele>
    <time>2011-05-29T08:33:19.000Z</time>
   </trkpt>
   <trkpt lon="7.01742077" lat="50.70157623">
    <ele>119.82</ele>
    <time>2011-05-29T08:33:36.000Z</time>
   </trkpt>
   <trkpt lon="7.01715899" lat="50.70137024">
    <ele>121.74</ele>
    <time>2011-05-29T08:33:51.000Z</time>
   </trkpt>
   <trkpt lon="7.01682520" lat="50.70115280">
    <ele>123.19</ele>
    <time>2011-05-29T08:34:08.000Z</time>
   </trkpt>
   <trkpt lon="7.01651907" lat="50.70094681">
    <ele>125.59</ele>
    <time>2011-05-29T08:34:25.000Z</time>
   </trkpt>
   <trkpt lon="7.01615810" lat="50.70072937">
    <ele>126.55</ele>
    <time>2011-05-29T08:34:43.000Z</time>
   </trkpt>
   <trkpt lon="7.01583099" lat="50.70053864">
    <ele>127.51</ele>
    <time>2011-05-29T08:34:57.000Z</time>
   </trkpt>
   <trkpt lon="7.01570797" lat="50.70046616">
    <ele>129.43</ele>
    <time>2011-05-29T08:35:02.000Z</time>
   </trkpt>
   <trkpt lon="7.01527405" lat="50.70022964">
    <ele>130.88</ele>
    <time>2011-05-29T08:35:18.000Z</time>
   </trkpt>
   <trkpt lon="7.01495218" lat="50.70003891">
    <ele>129.92</ele>
    <time>2011-05-29T08:35:31.000Z</time>
   </trkpt>
   <trkpt lon="7.01491880" lat="50.70003510">
    <ele>129.92</ele>
    <time>2011-05-29T08:35:32.000Z</time>
   </trkpt>
   <trkpt lon="7.01488781" lat="50.70003891">
    <ele>129.92</ele>
    <time>2011-05-29T08:35:33.000Z</time>
   </trkpt>
   <trkpt lon="7.01478195" lat="50.70004272">
    <ele>131.84</ele>
    <time>2011-05-29T08:35:36.000Z</time>
   </trkpt>
   <trkpt lon="7.01424980" lat="50.69991684">
    <ele>132.32</ele>
    <time>2011-05-29T08:35:51.000Z</time>
   </trkpt>
   <trkpt lon="7.01351881" lat="50.69979477">
    <ele>134.72</ele>
    <time>2011-05-29T08:36:10.000Z</time>
   </trkpt>
   <trkpt lon="7.01312923" lat="50.69972992">
    <ele>135.68</ele>
    <time>2011-05-29T08:36:20.000Z</time>
   </trkpt>
   <trkpt lon="7.01249123" lat="50.69960022">
    <ele>137.13</ele>
    <time>2011-05-29T08:36:37.000Z</time>
   </trkpt>
   <trkpt lon="7.01192999" lat="50.69939804">
    <ele>139.53</ele>
    <time>2011-05-29T08:36:55.000Z</time>
   </trkpt>
   <trkpt lon="7.01190519" lat="50.69938660">
    <ele>139.53</ele>
    <time>2011-05-29T08:36:56.000Z</time>
   </trkpt>
   <trkpt lon="7.01152182" lat="50.69915009">
    <ele>141.45</ele>
    <time>2011-05-29T08:37:13.000Z</time>
   </trkpt>
   <trkpt lon="7.01114607" lat="50.69888687">
    <ele>142.89</ele>
    <time>2011-05-29T08:37:30.000Z</time>
   </trkpt>
   <trkpt lon="7.01083612" lat="50.69866180">
    <ele>144.34</ele>
    <time>2011-05-29T08:37:45.000Z</time>
   </trkpt>
   <trkpt lon="7.01044798" lat="50.69838333">
    <ele>146.26</ele>
    <time>2011-05-29T08:38:03.000Z</time>
   </trkpt>
   <trkpt lon="7.01006699" lat="50.69812012">
    <ele>147.7</ele>
    <time>2011-05-29T08:38:21.000Z</time>
   </trkpt>
   <trkpt lon="7.00980377" lat="50.69792938">
    <ele>149.14</ele>
    <time>2011-05-29T08:38:34.000Z</time>
   </trkpt>
   <trkpt lon="7.00947380" lat="50.69767761">
    <ele>151.54</ele>
    <time>2011-05-29T08:38:51.000Z</time>
   </trkpt>
   <trkpt lon="7.00918579" lat="50.69739532">
    <ele>152.99</ele>
    <time>2011-05-29T08:39:09.000Z</time>
   </trkpt>
   <trkpt lon="7.00893211" lat="50.69709778">
    <ele>155.39</ele>
    <time>2011-05-29T08:39:27.000Z</time>
   </trkpt>
   <trkpt lon="7.00875616" lat="50.69684982">
    <ele>157.79</ele>
    <time>2011-05-29T08:39:42.000Z</time>
   </trkpt>
   <trkpt lon="7.00856304" lat="50.69659042">
    <ele>158.75</ele>
    <time>2011-05-29T08:39:57.000Z</time>
   </trkpt>
   <trkpt lon="7.00834417" lat="50.69629669">
    <ele>159.72</ele>
    <time>2011-05-29T08:40:13.000Z</time>
   </trkpt>
   <trkpt lon="7.00797987" lat="50.69589615">
    <ele>160.68</ele>
    <time>2011-05-29T08:40:30.000Z</time>
   </trkpt>
   <trkpt lon="7.00746012" lat="50.69539261">
    <ele>160.2</ele>
    <time>2011-05-29T08:40:48.000Z</time>
   </trkpt>
   <trkpt lon="7.00686502" lat="50.69490433">
    <ele>158.75</ele>
    <time>2011-05-29T08:41:04.000Z</time>
   </trkpt>
   <trkpt lon="7.00670624" lat="50.69479370">
    <ele>160.68</ele>
    <time>2011-05-29T08:41:08.000Z</time>
   </trkpt>
   <trkpt lon="7.00613594" lat="50.69436264">
    <ele>162.6</ele>
    <time>2011-05-29T08:41:25.000Z</time>
   </trkpt>
   <trkpt lon="7.00563622" lat="50.69396591">
    <ele>164.52</ele>
    <time>2011-05-29T08:41:42.000Z</time>
   </trkpt>
   <trkpt lon="7.00513077" lat="50.69364166">
    <ele>166.45</ele>
    <time>2011-05-29T08:41:58.000Z</time>
   </trkpt>
   <trkpt lon="7.00460386" lat="50.69333649">
    <ele>167.41</ele>
    <time>2011-05-29T08:42:13.000Z</time>
   </trkpt>
   <trkpt lon="7.00402498" lat="50.69304657">
    <ele>167.89</ele>
    <time>2011-05-29T08:42:27.000Z</time>
   </trkpt>
   <trkpt lon="7.00320578" lat="50.69271469">
    <ele>167.89</ele>
    <time>2011-05-29T08:42:43.000Z</time>
   </trkpt>
   <trkpt lon="7.00238800" lat="50.69239807">
    <ele>167.89</ele>
    <time>2011-05-29T08:42:58.000Z</time>
   </trkpt>
   <trkpt lon="7.00168419" lat="50.69210434">
    <ele>167.89</ele>
    <time>2011-05-29T08:43:10.000Z</time>
   </trkpt>
   <trkpt lon="7.00162077" lat="50.69208145">
    <ele>167.89</ele>
    <time>2011-05-29T08:43:11.000Z</time>
   </trkpt>
   <trkpt lon="7.00060701" lat="50.69170761">
    <ele>168.37</ele>
    <time>2011-05-29T08:43:28.000Z</time>
   </trkpt>
   <trkpt lon="6.99975204" lat="50.69141769">
    <ele>169.33</ele>
    <time>2011-05-29T08:43:43.000Z</time>
   </trkpt>
   <trkpt lon="6.99893093" lat="50.69113922">
    <ele>169.81</ele>
    <time>2011-05-29T08:43:58.000Z</time>
   </trkpt>
   <trkpt lon="6.99814796" lat="50.69080734">
    <ele>171.25</ele>
    <time>2011-05-29T08:44:13.000Z</time>
   </trkpt>
   <trkpt lon="6.99753523" lat="50.69034958">
    <ele>171.25</ele>
    <time>2011-05-29T08:44:29.000Z</time>
   </trkpt>
   <trkpt lon="6.99697781" lat="50.68983459">
    <ele>173.17</ele>
    <time>2011-05-29T08:44:48.000Z</time>
   </trkpt>
   <trkpt lon="6.99632597" lat="50.68947220">
    <ele>173.66</ele>
    <time>2011-05-29T08:45:06.000Z</time>
   </trkpt>
   <trkpt lon="6.99546814" lat="50.68917465">
    <ele>175.58</ele>
    <time>2011-05-29T08:45:26.000Z</time>
   </trkpt>
   <trkpt lon="6.99470282" lat="50.68897629">
    <ele>176.54</ele>
    <time>2011-05-29T08:45:43.000Z</time>
   </trkpt>
   <trkpt lon="6.99394083" lat="50.68879700">
    <ele>177.5</ele>
    <time>2011-05-29T08:46:00.000Z</time>
   </trkpt>
   <trkpt lon="6.99343777" lat="50.68863297">
    <ele>177.5</ele>
    <time>2011-05-29T08:46:11.000Z</time>
   </trkpt>
   <trkpt lon="6.99259186" lat="50.68843842">
    <ele>178.94</ele>
    <time>2011-05-29T08:46:27.000Z</time>
   </trkpt>
   <trkpt lon="6.99161720" lat="50.68815994">
    <ele>178.94</ele>
    <time>2011-05-29T08:46:44.000Z</time>
   </trkpt>
   <trkpt lon="6.99047184" lat="50.68782043">
    <ele>179.42</ele>
    <time>2011-05-29T08:47:02.000Z</time>
   </trkpt>
   <trkpt lon="6.98948288" lat="50.68752289">
    <ele>179.42</ele>
    <time>2011-05-29T08:47:17.000Z</time>
   </trkpt>
   <trkpt lon="6.98831892" lat="50.68716812">
    <ele>178.94</ele>
    <time>2011-05-29T08:47:34.000Z</time>
   </trkpt>
   <trkpt lon="6.98737097" lat="50.68686676">
    <ele>178.46</ele>
    <time>2011-05-29T08:47:48.000Z</time>
   </trkpt>
   <trkpt lon="6.98627377" lat="50.68650055">
    <ele>177.02</ele>
    <time>2011-05-29T08:48:03.000Z</time>
   </trkpt>
   <trkpt lon="6.98595095" lat="50.68639755">
    <ele>176.54</ele>
    <time>2011-05-29T08:48:07.000Z</time>
   </trkpt>
   <trkpt lon="6.98450899" lat="50.68596649">
    <ele>174.62</ele>
    <time>2011-05-29T08:48:24.000Z</time>
   </trkpt>
   <trkpt lon="6.98312378" lat="50.68568420">
    <ele>172.69</ele>
    <time>2011-05-29T08:48:39.000Z</time>
   </trkpt>
   <trkpt lon="6.98271608" lat="50.68560028">
    <ele>172.21</ele>
    <time>2011-05-29T08:48:44.000Z</time>
   </trkpt>
   <trkpt lon="6.98264217" lat="50.68559265">
    <ele>172.69</ele>
    <time>2011-05-29T08:48:45.000Z</time>
   </trkpt>
   <trkpt lon="6.98256779" lat="50.68559265">
    <ele>172.69</ele>
    <time>2011-05-29T08:48:46.000Z</time>
   </trkpt>
   <trkpt lon="6.98249817" lat="50.68558502">
    <ele>173.17</ele>
    <time>2011-05-29T08:48:47.000Z</time>
   </trkpt>
   <trkpt lon="6.98242807" lat="50.68556976">
    <ele>172.69</ele>
    <time>2011-05-29T08:48:48.000Z</time>
   </trkpt>
   <trkpt lon="6.98235703" lat="50.68555832">
    <ele>172.21</ele>
    <time>2011-05-29T08:48:49.000Z</time>
   </trkpt>
   <trkpt lon="6.98228598" lat="50.68554688">
    <ele>172.69</ele>
    <time>2011-05-29T08:48:50.000Z</time>
   </trkpt>
   <trkpt lon="6.98215818" lat="50.68552780">
    <ele>172.69</ele>
    <time>2011-05-29T08:48:52.000Z</time>
   </trkpt>
   <trkpt lon="6.98209906" lat="50.68550491">
    <ele>172.21</ele>
    <time>2011-05-29T08:48:53.000Z</time>
   </trkpt>
   <trkpt lon="6.98204613" lat="50.68547821">
    <ele>173.17</ele>
    <time>2011-05-29T08:48:54.000Z</time>
   </trkpt>
   <trkpt lon="6.98190784" lat="50.68539047">
    <ele>173.17</ele>
    <time>2011-05-29T08:48:57.000Z</time>
   </trkpt>
   <trkpt lon="6.98175812" lat="50.68531036">
    <ele>172.69</ele>
    <time>2011-05-29T08:49:00.000Z</time>
   </trkpt>
   <trkpt lon="6.98169899" lat="50.68529129">
    <ele>172.69</ele>
    <time>2011-05-29T08:49:01.000Z</time>
   </trkpt>
   <trkpt lon="6.98069191" lat="50.68485260">
    <ele>173.17</ele>
    <time>2011-05-29T08:49:17.000Z</time>
   </trkpt>
   <trkpt lon="6.97945595" lat="50.68423462">
    <ele>171.73</ele>
    <time>2011-05-29T08:49:37.000Z</time>
   </trkpt>
   <trkpt lon="6.97851181" lat="50.68373489">
    <ele>171.25</ele>
    <time>2011-05-29T08:49:52.000Z</time>
   </trkpt>
   <trkpt lon="6.97845507" lat="50.68369293">
    <ele>170.77</ele>
    <time>2011-05-29T08:49:53.000Z</time>
   </trkpt>
   <trkpt lon="6.97792292" lat="50.68324661">
    <ele>170.77</ele>
    <time>2011-05-29T08:50:03.000Z</time>
   </trkpt>
   <trkpt lon="6.97780609" lat="50.68317413">
    <ele>170.29</ele>
    <time>2011-05-29T08:50:05.000Z</time>
   </trkpt>
   <trkpt lon="6.97775221" lat="50.68313217">
    <ele>170.29</ele>
    <time>2011-05-29T08:50:06.000Z</time>
   </trkpt>
   <trkpt lon="6.97725201" lat="50.68271637">
    <ele>169.33</ele>
    <time>2011-05-29T08:50:16.000Z</time>
   </trkpt>
   <trkpt lon="6.97719002" lat="50.68268585">
    <ele>169.33</ele>
    <time>2011-05-29T08:50:17.000Z</time>
   </trkpt>
   <trkpt lon="6.97711802" lat="50.68266678">
    <ele>169.33</ele>
    <time>2011-05-29T08:50:18.000Z</time>
   </trkpt>
   <trkpt lon="6.97704601" lat="50.68267059">
    <ele>169.33</ele>
    <time>2011-05-29T08:50:19.000Z</time>
   </trkpt>
   <trkpt lon="6.97697115" lat="50.68268967">
    <ele>169.33</ele>
    <time>2011-05-29T08:50:20.000Z</time>
   </trkpt>
   <trkpt lon="6.97665596" lat="50.68273544">
    <ele>168.37</ele>
    <time>2011-05-29T08:50:24.000Z</time>
   </trkpt>
   <trkpt lon="6.97657585" lat="50.68273926">
    <ele>168.37</ele>
    <time>2011-05-29T08:50:25.000Z</time>
   </trkpt>
   <trkpt lon="6.97649097" lat="50.68273544">
    <ele>168.37</ele>
    <time>2011-05-29T08:50:26.000Z</time>
   </trkpt>
   <trkpt lon="6.97639990" lat="50.68272400">
    <ele>167.89</ele>
    <time>2011-05-29T08:50:27.000Z</time>
   </trkpt>
   <trkpt lon="6.97631502" lat="50.68270874">
    <ele>167.89</ele>
    <time>2011-05-29T08:50:28.000Z</time>
   </trkpt>
   <trkpt lon="6.97593307" lat="50.68264771">
    <ele>166.45</ele>
    <time>2011-05-29T08:50:32.000Z</time>
   </trkpt>
   <trkpt lon="6.97562885" lat="50.68257523">
    <ele>165.48</ele>
    <time>2011-05-29T08:50:35.000Z</time>
   </trkpt>
   <trkpt lon="6.97552013" lat="50.68256760">
    <ele>165.48</ele>
    <time>2011-05-29T08:50:36.000Z</time>
   </trkpt>
   <trkpt lon="6.97540808" lat="50.68257141">
    <ele>165.48</ele>
    <time>2011-05-29T08:50:37.000Z</time>
   </trkpt>
   <trkpt lon="6.97413778" lat="50.68268967">
    <ele>162.6</ele>
    <time>2011-05-29T08:50:49.000Z</time>
   </trkpt>
   <trkpt lon="6.97383213" lat="50.68268204">
    <ele>161.64</ele>
    <time>2011-05-29T08:50:52.000Z</time>
   </trkpt>
   <trkpt lon="6.97361803" lat="50.68267441">
    <ele>161.64</ele>
    <time>2011-05-29T08:50:54.000Z</time>
   </trkpt>
   <trkpt lon="6.97219086" lat="50.68257904">
    <ele>158.75</ele>
    <time>2011-05-29T08:51:08.000Z</time>
   </trkpt>
   <trkpt lon="6.97211790" lat="50.68256760">
    <ele>158.27</ele>
    <time>2011-05-29T08:51:09.000Z</time>
   </trkpt>
   <trkpt lon="6.97205782" lat="50.68253708">
    <ele>158.27</ele>
    <time>2011-05-29T08:51:10.000Z</time>
   </trkpt>
   <trkpt lon="6.97201777" lat="50.68249512">
    <ele>157.79</ele>
    <time>2011-05-29T08:51:11.000Z</time>
   </trkpt>
   <trkpt lon="6.97200203" lat="50.68244934">
    <ele>157.79</ele>
    <time>2011-05-29T08:51:12.000Z</time>
   </trkpt>
   <trkpt lon="6.97199297" lat="50.68239975">
    <ele>157.79</ele>
    <time>2011-05-29T08:51:13.000Z</time>
   </trkpt>
   <trkpt lon="6.97199011" lat="50.68234634">
    <ele>157.31</ele>
    <time>2011-05-29T08:51:14.000Z</time>
   </trkpt>
   <trkpt lon="6.97198677" lat="50.68229675">
    <ele>157.79</ele>
    <time>2011-05-29T08:51:15.000Z</time>
   </trkpt>
   <trkpt lon="6.97198105" lat="50.68224335">
    <ele>157.79</ele>
    <time>2011-05-29T08:51:16.000Z</time>
   </trkpt>
   <trkpt lon="6.97186613" lat="50.68193436">
    <ele>157.31</ele>
    <time>2011-05-29T08:51:22.000Z</time>
   </trkpt>
   <trkpt lon="6.97183084" lat="50.68188095">
    <ele>157.31</ele>
    <time>2011-05-29T08:51:23.000Z</time>
   </trkpt>
   <trkpt lon="6.97178602" lat="50.68183136">
    <ele>157.31</ele>
    <time>2011-05-29T08:51:24.000Z</time>
   </trkpt>
   <trkpt lon="6.97100496" lat="50.68117142">
    <ele>155.39</ele>
    <time>2011-05-29T08:51:38.000Z</time>
   </trkpt>
   <trkpt lon="6.97007704" lat="50.68022919">
    <ele>152.51</ele>
    <time>2011-05-29T08:51:56.000Z</time>
   </trkpt>
   <trkpt lon="6.96977520" lat="50.67992783">
    <ele>152.51</ele>
    <time>2011-05-29T08:52:02.000Z</time>
   </trkpt>
   <trkpt lon="6.96973085" lat="50.67987823">
    <ele>152.51</ele>
    <time>2011-05-29T08:52:03.000Z</time>
   </trkpt>
   <trkpt lon="6.96887207" lat="50.67915726">
    <ele>151.06</ele>
    <time>2011-05-29T08:52:19.000Z</time>
   </trkpt>
   <trkpt lon="6.96865511" lat="50.67903519">
    <ele>151.06</ele>
    <time>2011-05-29T08:52:24.000Z</time>
   </trkpt>
   <trkpt lon="6.96862507" lat="50.67900848">
    <ele>151.54</ele>
    <time>2011-05-29T08:52:25.000Z</time>
   </trkpt>
   <trkpt lon="6.96858788" lat="50.67898941">
    <ele>150.58</ele>
    <time>2011-05-29T08:52:26.000Z</time>
   </trkpt>
   <trkpt lon="6.96823120" lat="50.67877960">
    <ele>151.54</ele>
    <time>2011-05-29T08:52:34.000Z</time>
   </trkpt>
   <trkpt lon="6.96818018" lat="50.67875290">
    <ele>151.06</ele>
    <time>2011-05-29T08:52:35.000Z</time>
   </trkpt>
   <trkpt lon="6.96807194" lat="50.67869568">
    <ele>151.06</ele>
    <time>2011-05-29T08:52:37.000Z</time>
   </trkpt>
   <trkpt lon="6.96802092" lat="50.67866898">
    <ele>151.54</ele>
    <time>2011-05-29T08:52:38.000Z</time>
   </trkpt>
   <trkpt lon="6.96706915" lat="50.67827988">
    <ele>151.06</ele>
    <time>2011-05-29T08:52:53.000Z</time>
   </trkpt>
   <trkpt lon="6.96655893" lat="50.67809296">
    <ele>150.58</ele>
    <time>2011-05-29T08:53:00.000Z</time>
   </trkpt>
   <trkpt lon="6.96648693" lat="50.67807770">
    <ele>150.58</ele>
    <time>2011-05-29T08:53:01.000Z</time>
   </trkpt>
   <trkpt lon="6.96641493" lat="50.67807007">
    <ele>151.06</ele>
    <time>2011-05-29T08:53:02.000Z</time>
   </trkpt>
   <trkpt lon="6.96634483" lat="50.67806625">
    <ele>151.06</ele>
    <time>2011-05-29T08:53:03.000Z</time>
   </trkpt>
   <trkpt lon="6.96627998" lat="50.67806625">
    <ele>150.58</ele>
    <time>2011-05-29T08:53:04.000Z</time>
   </trkpt>
   <trkpt lon="6.96606398" lat="50.67799759">
    <ele>150.58</ele>
    <time>2011-05-29T08:53:08.000Z</time>
   </trkpt>
   <trkpt lon="6.96602201" lat="50.67795563">
    <ele>150.58</ele>
    <time>2011-05-29T08:53:09.000Z</time>
   </trkpt>
   <trkpt lon="6.96598291" lat="50.67790985">
    <ele>150.1</ele>
    <time>2011-05-29T08:53:10.000Z</time>
   </trkpt>
   <trkpt lon="6.96530008" lat="50.67703247">
    <ele>150.1</ele>
    <time>2011-05-29T08:53:29.000Z</time>
   </trkpt>
   <trkpt lon="6.96467018" lat="50.67627335">
    <ele>150.1</ele>
    <time>2011-05-29T08:53:46.000Z</time>
   </trkpt>
   <trkpt lon="6.96422386" lat="50.67572021">
    <ele>150.58</ele>
    <time>2011-05-29T08:53:58.000Z</time>
   </trkpt>
   <trkpt lon="6.96365023" lat="50.67494202">
    <ele>151.06</ele>
    <time>2011-05-29T08:54:15.000Z</time>
   </trkpt>
   <trkpt lon="6.96302986" lat="50.67414856">
    <ele>150.1</ele>
    <time>2011-05-29T08:54:33.000Z</time>
   </trkpt>
   <trkpt lon="6.96282911" lat="50.67384720">
    <ele>150.58</ele>
    <time>2011-05-29T08:54:40.000Z</time>
   </trkpt>
   <trkpt lon="6.96278000" lat="50.67375565">
    <ele>151.06</ele>
    <time>2011-05-29T08:54:42.000Z</time>
   </trkpt>
   <trkpt lon="6.96245289" lat="50.67306900">
    <ele>151.54</ele>
    <time>2011-05-29T08:54:57.000Z</time>
   </trkpt>
   <trkpt lon="6.96239996" lat="50.67283630">
    <ele>151.06</ele>
    <time>2011-05-29T08:55:02.000Z</time>
   </trkpt>
   <trkpt lon="6.96237087" lat="50.67265320">
    <ele>151.54</ele>
    <time>2011-05-29T08:55:06.000Z</time>
   </trkpt>
   <trkpt lon="6.96229219" lat="50.67179871">
    <ele>151.06</ele>
    <time>2011-05-29T08:55:23.000Z</time>
   </trkpt>
   <trkpt lon="6.96226501" lat="50.67145157">
    <ele>151.06</ele>
    <time>2011-05-29T08:55:30.000Z</time>
   </trkpt>
   <trkpt lon="6.96225500" lat="50.67134857">
    <ele>151.06</ele>
    <time>2011-05-29T08:55:32.000Z</time>
   </trkpt>
   <trkpt lon="6.96226597" lat="50.67086792">
    <ele>151.54</ele>
    <time>2011-05-29T08:55:42.000Z</time>
   </trkpt>
   <trkpt lon="6.96228504" lat="50.67082214">
    <ele>151.06</ele>
    <time>2011-05-29T08:55:43.000Z</time>
   </trkpt>
   <trkpt lon="6.96229696" lat="50.67077637">
    <ele>151.06</ele>
    <time>2011-05-29T08:55:44.000Z</time>
   </trkpt>
   <trkpt lon="6.96230602" lat="50.67073059">
    <ele>151.54</ele>
    <time>2011-05-29T08:55:45.000Z</time>
   </trkpt>
   <trkpt lon="6.96230888" lat="50.67068481">
    <ele>151.54</ele>
    <time>2011-05-29T08:55:46.000Z</time>
   </trkpt>
   <trkpt lon="6.96229601" lat="50.67049789">
    <ele>152.03</ele>
    <time>2011-05-29T08:55:50.000Z</time>
   </trkpt>
   <trkpt lon="6.96229410" lat="50.67045212">
    <ele>151.54</ele>
    <time>2011-05-29T08:55:51.000Z</time>
   </trkpt>
   <trkpt lon="6.96228695" lat="50.67040253">
    <ele>151.54</ele>
    <time>2011-05-29T08:55:52.000Z</time>
   </trkpt>
   <trkpt lon="6.96222687" lat="50.66949463">
    <ele>152.03</ele>
    <time>2011-05-29T08:56:11.000Z</time>
   </trkpt>
   <trkpt lon="6.96216917" lat="50.66889191">
    <ele>152.03</ele>
    <time>2011-05-29T08:56:24.000Z</time>
   </trkpt>
   <trkpt lon="6.96214104" lat="50.66861725">
    <ele>151.54</ele>
    <time>2011-05-29T08:56:30.000Z</time>
   </trkpt>
   <trkpt lon="6.96214199" lat="50.66856766">
    <ele>151.54</ele>
    <time>2011-05-29T08:56:31.000Z</time>
   </trkpt>
   <trkpt lon="6.96214485" lat="50.66847610">
    <ele>152.03</ele>
    <time>2011-05-29T08:56:33.000Z</time>
   </trkpt>
   <trkpt lon="6.96213913" lat="50.66843033">
    <ele>152.03</ele>
    <time>2011-05-29T08:56:34.000Z</time>
   </trkpt>
   <trkpt lon="6.96207380" lat="50.66820526">
    <ele>152.03</ele>
    <time>2011-05-29T08:56:39.000Z</time>
   </trkpt>
   <trkpt lon="6.96205091" lat="50.66816711">
    <ele>152.03</ele>
    <time>2011-05-29T08:56:40.000Z</time>
   </trkpt>
   <trkpt lon="6.96202421" lat="50.66812897">
    <ele>152.03</ele>
    <time>2011-05-29T08:56:41.000Z</time>
   </trkpt>
   <trkpt lon="6.96200323" lat="50.66808319">
    <ele>151.54</ele>
    <time>2011-05-29T08:56:42.000Z</time>
   </trkpt>
   <trkpt lon="6.96198177" lat="50.66804123">
    <ele>152.03</ele>
    <time>2011-05-29T08:56:43.000Z</time>
   </trkpt>
   <trkpt lon="6.96195889" lat="50.66799927">
    <ele>151.54</ele>
    <time>2011-05-29T08:56:44.000Z</time>
   </trkpt>
   <trkpt lon="6.96166277" lat="50.66765213">
    <ele>152.03</ele>
    <time>2011-05-29T08:56:53.000Z</time>
   </trkpt>
   <trkpt lon="6.96162319" lat="50.66762161">
    <ele>152.03</ele>
    <time>2011-05-29T08:56:54.000Z</time>
   </trkpt>
   <trkpt lon="6.96157885" lat="50.66759109">
    <ele>152.03</ele>
    <time>2011-05-29T08:56:55.000Z</time>
   </trkpt>
   <trkpt lon="6.96153402" lat="50.66755676">
    <ele>152.03</ele>
    <time>2011-05-29T08:56:56.000Z</time>
   </trkpt>
   <trkpt lon="6.96149015" lat="50.66752243">
    <ele>152.03</ele>
    <time>2011-05-29T08:56:57.000Z</time>
   </trkpt>
   <trkpt lon="6.96108198" lat="50.66720963">
    <ele>152.99</ele>
    <time>2011-05-29T08:57:07.000Z</time>
   </trkpt>
   <trkpt lon="6.96034384" lat="50.66665649">
    <ele>152.99</ele>
    <time>2011-05-29T08:57:25.000Z</time>
   </trkpt>
   <trkpt lon="6.95969582" lat="50.66614151">
    <ele>153.95</ele>
    <time>2011-05-29T08:57:41.000Z</time>
   </trkpt>
   <trkpt lon="6.95961809" lat="50.66607666">
    <ele>153.47</ele>
    <time>2011-05-29T08:57:43.000Z</time>
   </trkpt>
   <trkpt lon="6.95957422" lat="50.66604996">
    <ele>153.95</ele>
    <time>2011-05-29T08:57:44.000Z</time>
   </trkpt>
   <trkpt lon="6.95894289" lat="50.66556931">
    <ele>153.95</ele>
    <time>2011-05-29T08:57:59.000Z</time>
   </trkpt>
   <trkpt lon="6.95853090" lat="50.66530228">
    <ele>154.43</ele>
    <time>2011-05-29T08:58:08.000Z</time>
   </trkpt>
   <trkpt lon="6.95847321" lat="50.66528320">
    <ele>153.95</ele>
    <time>2011-05-29T08:58:09.000Z</time>
   </trkpt>
   <trkpt lon="6.95841312" lat="50.66526794">
    <ele>153.95</ele>
    <time>2011-05-29T08:58:10.000Z</time>
   </trkpt>
   <trkpt lon="6.95835114" lat="50.66526031">
    <ele>153.95</ele>
    <time>2011-05-29T08:58:11.000Z</time>
   </trkpt>
   <trkpt lon="6.95828390" lat="50.66526031">
    <ele>154.43</ele>
    <time>2011-05-29T08:58:12.000Z</time>
   </trkpt>
   <trkpt lon="6.95821714" lat="50.66527176">
    <ele>153.95</ele>
    <time>2011-05-29T08:58:13.000Z</time>
   </trkpt>
   <trkpt lon="6.95815516" lat="50.66528320">
    <ele>153.95</ele>
    <time>2011-05-29T08:58:14.000Z</time>
   </trkpt>
   <trkpt lon="6.95809412" lat="50.66529846">
    <ele>153.95</ele>
    <time>2011-05-29T08:58:15.000Z</time>
   </trkpt>
   <trkpt lon="6.95803595" lat="50.66531754">
    <ele>153.95</ele>
    <time>2011-05-29T08:58:16.000Z</time>
   </trkpt>
   <trkpt lon="6.95797920" lat="50.66534042">
    <ele>153.47</ele>
    <time>2011-05-29T08:58:17.000Z</time>
   </trkpt>
   <trkpt lon="6.95772791" lat="50.66540909">
    <ele>153.47</ele>
    <time>2011-05-29T08:58:21.000Z</time>
   </trkpt>
   <trkpt lon="6.95765877" lat="50.66541290">
    <ele>152.99</ele>
    <time>2011-05-29T08:58:22.000Z</time>
   </trkpt>
   <trkpt lon="6.95758820" lat="50.66541290">
    <ele>153.47</ele>
    <time>2011-05-29T08:58:23.000Z</time>
   </trkpt>
   <trkpt lon="6.95733118" lat="50.66538239">
    <ele>153.47</ele>
    <time>2011-05-29T08:58:27.000Z</time>
   </trkpt>
   <trkpt lon="6.95727682" lat="50.66535950">
    <ele>153.47</ele>
    <time>2011-05-29T08:58:28.000Z</time>
   </trkpt>
   <trkpt lon="6.95723391" lat="50.66532898">
    <ele>152.99</ele>
    <time>2011-05-29T08:58:29.000Z</time>
   </trkpt>
   <trkpt lon="6.95719385" lat="50.66529465">
    <ele>153.47</ele>
    <time>2011-05-29T08:58:30.000Z</time>
   </trkpt>
   <trkpt lon="6.95715904" lat="50.66525650">
    <ele>153.47</ele>
    <time>2011-05-29T08:58:31.000Z</time>
   </trkpt>
   <trkpt lon="6.95712805" lat="50.66521454">
    <ele>152.99</ele>
    <time>2011-05-29T08:58:32.000Z</time>
   </trkpt>
   <trkpt lon="6.95709991" lat="50.66517258">
    <ele>152.99</ele>
    <time>2011-05-29T08:58:33.000Z</time>
   </trkpt>
   <trkpt lon="6.95707083" lat="50.66513824">
    <ele>153.47</ele>
    <time>2011-05-29T08:58:34.000Z</time>
   </trkpt>
   <trkpt lon="6.95690012" lat="50.66486740">
    <ele>154.43</ele>
    <time>2011-05-29T08:58:41.000Z</time>
   </trkpt>
   <trkpt lon="6.95686388" lat="50.66482925">
    <ele>153.95</ele>
    <time>2011-05-29T08:58:42.000Z</time>
   </trkpt>
   <trkpt lon="6.95682096" lat="50.66479492">
    <ele>153.95</ele>
    <time>2011-05-29T08:58:43.000Z</time>
   </trkpt>
   <trkpt lon="6.95677423" lat="50.66476059">
    <ele>153.47</ele>
    <time>2011-05-29T08:58:44.000Z</time>
   </trkpt>
   <trkpt lon="6.95671606" lat="50.66473389">
    <ele>153.47</ele>
    <time>2011-05-29T08:58:45.000Z</time>
   </trkpt>
   <trkpt lon="6.95665216" lat="50.66470718">
    <ele>152.99</ele>
    <time>2011-05-29T08:58:46.000Z</time>
   </trkpt>
   <trkpt lon="6.95625401" lat="50.66453171">
    <ele>152.03</ele>
    <time>2011-05-29T08:58:52.000Z</time>
   </trkpt>
   <trkpt lon="6.95619202" lat="50.66449356">
    <ele>152.03</ele>
    <time>2011-05-29T08:58:53.000Z</time>
   </trkpt>
   <trkpt lon="6.95560789" lat="50.66397858">
    <ele>151.54</ele>
    <time>2011-05-29T08:59:05.000Z</time>
   </trkpt>
   <trkpt lon="6.95558596" lat="50.66395187">
    <ele>151.54</ele>
    <time>2011-05-29T08:59:06.000Z</time>
   </trkpt>
   <trkpt lon="6.95556498" lat="50.66394806">
    <ele>151.06</ele>
    <time>2011-05-29T08:59:07.000Z</time>
   </trkpt>
   <trkpt lon="6.95554399" lat="50.66395187">
    <ele>151.06</ele>
    <time>2011-05-29T08:59:08.000Z</time>
   </trkpt>
   <trkpt lon="6.95552111" lat="50.66396332">
    <ele>151.54</ele>
    <time>2011-05-29T08:59:09.000Z</time>
   </trkpt>
   <trkpt lon="6.95495415" lat="50.66412735">
    <ele>151.06</ele>
    <time>2011-05-29T08:59:21.000Z</time>
   </trkpt>
   <trkpt lon="6.95398998" lat="50.66440201">
    <ele>150.58</ele>
    <time>2011-05-29T08:59:36.000Z</time>
   </trkpt>
   <trkpt lon="6.95315218" lat="50.66463852">
    <ele>150.58</ele>
    <time>2011-05-29T08:59:50.000Z</time>
   </trkpt>
   <trkpt lon="6.95309210" lat="50.66465378">
    <ele>150.1</ele>
    <time>2011-05-29T08:59:51.000Z</time>
   </trkpt>
   <trkpt lon="6.95303392" lat="50.66467285">
    <ele>150.58</ele>
    <time>2011-05-29T08:59:52.000Z</time>
   </trkpt>
   <trkpt lon="6.95297718" lat="50.66469193">
    <ele>150.1</ele>
    <time>2011-05-29T08:59:53.000Z</time>
   </trkpt>
   <trkpt lon="6.95292187" lat="50.66471100">
    <ele>150.1</ele>
    <time>2011-05-29T08:59:54.000Z</time>
   </trkpt>
   <trkpt lon="6.95280790" lat="50.66474533">
    <ele>150.1</ele>
    <time>2011-05-29T08:59:56.000Z</time>
   </trkpt>
   <trkpt lon="6.95275116" lat="50.66476440">
    <ele>150.58</ele>
    <time>2011-05-29T08:59:57.000Z</time>
   </trkpt>
   <trkpt lon="6.95269203" lat="50.66478348">
    <ele>150.1</ele>
    <time>2011-05-29T08:59:58.000Z</time>
   </trkpt>
   <trkpt lon="6.95173311" lat="50.66505051">
    <ele>150.1</ele>
    <time>2011-05-29T09:00:14.000Z</time>
   </trkpt>
   <trkpt lon="6.95053005" lat="50.66545486">
    <ele>150.1</ele>
    <time>2011-05-29T09:00:34.000Z</time>
   </trkpt>
   <trkpt lon="6.95047188" lat="50.66547394">
    <ele>149.62</ele>
    <time>2011-05-29T09:00:35.000Z</time>
   </trkpt>
   <trkpt lon="6.95042610" lat="50.66550064">
    <ele>149.62</ele>
    <time>2011-05-29T09:00:36.000Z</time>
   </trkpt>
   <trkpt lon="6.95039177" lat="50.66553116">
    <ele>150.1</ele>
    <time>2011-05-29T09:00:37.000Z</time>
   </trkpt>
   <trkpt lon="6.95034409" lat="50.66558456">
    <ele>150.1</ele>
    <time>2011-05-29T09:00:46.000Z</time>
   </trkpt>
   <trkpt lon="6.95034409" lat="50.66558456">
    <ele>150.1</ele>
    <time>2011-05-29T09:01:18.000Z</time>
   </trkpt>
   <trkpt lon="6.95034790" lat="50.66558075">
    <ele>150.58</ele>
    <time>2011-05-29T09:01:48.000Z</time>
   </trkpt>
   <trkpt lon="6.95034790" lat="50.66558075">
    <ele>150.1</ele>
    <time>2011-05-29T09:01:59.000Z</time>
   </trkpt>
   <trkpt lon="6.95024586" lat="50.66555405">
    <ele>149.62</ele>
    <time>2011-05-29T09:10:04.000Z</time>
   </trkpt>
   <trkpt lon="6.95008421" lat="50.66559219">
    <ele>150.1</ele>
    <time>2011-05-29T09:10:09.000Z</time>
   </trkpt>
   <trkpt lon="6.94955206" lat="50.66577148">
    <ele>149.62</ele>
    <time>2011-05-29T09:10:22.000Z</time>
   </trkpt>
   <trkpt lon="6.94885206" lat="50.66603851">
    <ele>149.62</ele>
    <time>2011-05-29T09:10:35.000Z</time>
   </trkpt>
   <trkpt lon="6.94787788" lat="50.66622543">
    <ele>149.62</ele>
    <time>2011-05-29T09:10:50.000Z</time>
   </trkpt>
   <trkpt lon="6.94663620" lat="50.66646957">
    <ele>149.62</ele>
    <time>2011-05-29T09:11:08.000Z</time>
   </trkpt>
   <trkpt lon="6.94550800" lat="50.66676331">
    <ele>149.62</ele>
    <time>2011-05-29T09:11:25.000Z</time>
   </trkpt>
   <trkpt lon="6.94446087" lat="50.66672897">
    <ele>149.14</ele>
    <time>2011-05-29T09:11:40.000Z</time>
   </trkpt>
   <trkpt lon="6.94321012" lat="50.66663742">
    <ele>149.14</ele>
    <time>2011-05-29T09:12:00.000Z</time>
   </trkpt>
   <trkpt lon="6.94295502" lat="50.66666031">
    <ele>149.14</ele>
    <time>2011-05-29T09:12:04.000Z</time>
   </trkpt>
   <trkpt lon="6.94289494" lat="50.66667175">
    <ele>149.14</ele>
    <time>2011-05-29T09:12:05.000Z</time>
   </trkpt>
   <trkpt lon="6.94277906" lat="50.66670609">
    <ele>149.14</ele>
    <time>2011-05-29T09:12:07.000Z</time>
   </trkpt>
   <trkpt lon="6.94272184" lat="50.66672516">
    <ele>148.66</ele>
    <time>2011-05-29T09:12:08.000Z</time>
   </trkpt>
   <trkpt lon="6.94220781" lat="50.66696548">
    <ele>148.66</ele>
    <time>2011-05-29T09:12:18.000Z</time>
   </trkpt>
   <trkpt lon="6.94098091" lat="50.66732025">
    <ele>148.18</ele>
    <time>2011-05-29T09:12:39.000Z</time>
   </trkpt>
   <trkpt lon="6.94039297" lat="50.66770935">
    <ele>148.66</ele>
    <time>2011-05-29T09:12:52.000Z</time>
   </trkpt>
   <trkpt lon="6.94035006" lat="50.66773987">
    <ele>148.18</ele>
    <time>2011-05-29T09:12:53.000Z</time>
   </trkpt>
   <trkpt lon="6.93953609" lat="50.66817093">
    <ele>149.14</ele>
    <time>2011-05-29T09:13:08.000Z</time>
   </trkpt>
   <trkpt lon="6.93883705" lat="50.66847610">
    <ele>149.62</ele>
    <time>2011-05-29T09:13:24.000Z</time>
   </trkpt>
   <trkpt lon="6.93878889" lat="50.66834259">
    <ele>149.62</ele>
    <time>2011-05-29T09:13:32.000Z</time>
   </trkpt>
   <trkpt lon="6.93863392" lat="50.66817474">
    <ele>148.66</ele>
    <time>2011-05-29T09:13:37.000Z</time>
   </trkpt>
   <trkpt lon="6.93860722" lat="50.66812897">
    <ele>148.66</ele>
    <time>2011-05-29T09:13:38.000Z</time>
   </trkpt>
   <trkpt lon="6.93859482" lat="50.66808319">
    <ele>148.66</ele>
    <time>2011-05-29T09:13:39.000Z</time>
   </trkpt>
   <trkpt lon="6.93858910" lat="50.66803741">
    <ele>148.66</ele>
    <time>2011-05-29T09:13:40.000Z</time>
   </trkpt>
   <trkpt lon="6.93857718" lat="50.66798782">
    <ele>148.66</ele>
    <time>2011-05-29T09:13:41.000Z</time>
   </trkpt>
   <trkpt lon="6.93861485" lat="50.66724396">
    <ele>148.18</ele>
    <time>2011-05-29T09:13:55.000Z</time>
   </trkpt>
   <trkpt lon="6.93856621" lat="50.66648865">
    <ele>148.66</ele>
    <time>2011-05-29T09:14:10.000Z</time>
   </trkpt>
   <trkpt lon="6.93847799" lat="50.66588211">
    <ele>148.66</ele>
    <time>2011-05-29T09:14:22.000Z</time>
   </trkpt>
   <trkpt lon="6.93836212" lat="50.66554642">
    <ele>149.62</ele>
    <time>2011-05-29T09:14:30.000Z</time>
   </trkpt>
   <trkpt lon="6.93831301" lat="50.66553879">
    <ele>149.62</ele>
    <time>2011-05-29T09:14:31.000Z</time>
   </trkpt>
   <trkpt lon="6.93741417" lat="50.66550446">
    <ele>149.14</ele>
    <time>2011-05-29T09:14:46.000Z</time>
   </trkpt>
   <trkpt lon="6.93628883" lat="50.66546249">
    <ele>150.1</ele>
    <time>2011-05-29T09:15:04.000Z</time>
   </trkpt>
   <trkpt lon="6.93506479" lat="50.66544724">
    <ele>150.1</ele>
    <time>2011-05-29T09:15:23.000Z</time>
   </trkpt>
   <trkpt lon="6.93480778" lat="50.66547775">
    <ele>150.1</ele>
    <time>2011-05-29T09:15:27.000Z</time>
   </trkpt>
   <trkpt lon="6.93357611" lat="50.66585159">
    <ele>150.58</ele>
    <time>2011-05-29T09:15:47.000Z</time>
   </trkpt>
   <trkpt lon="6.93316412" lat="50.66597366">
    <ele>150.58</ele>
    <time>2011-05-29T09:15:54.000Z</time>
   </trkpt>
   <trkpt lon="6.93310308" lat="50.66599274">
    <ele>150.58</ele>
    <time>2011-05-29T09:15:55.000Z</time>
   </trkpt>
   <trkpt lon="6.93202782" lat="50.66628265">
    <ele>151.06</ele>
    <time>2011-05-29T09:16:13.000Z</time>
   </trkpt>
   <trkpt lon="6.93088818" lat="50.66654205">
    <ele>150.58</ele>
    <time>2011-05-29T09:16:33.000Z</time>
   </trkpt>
   <trkpt lon="6.92987299" lat="50.66687775">
    <ele>150.58</ele>
    <time>2011-05-29T09:16:52.000Z</time>
   </trkpt>
   <trkpt lon="6.92874718" lat="50.66731262">
    <ele>151.06</ele>
    <time>2011-05-29T09:17:14.000Z</time>
   </trkpt>
   <trkpt lon="6.92775822" lat="50.66768646">
    <ele>151.06</ele>
    <time>2011-05-29T09:17:35.000Z</time>
   </trkpt>
   <trkpt lon="6.92687798" lat="50.66794586">
    <ele>151.54</ele>
    <time>2011-05-29T09:17:54.000Z</time>
   </trkpt>
   <trkpt lon="6.92615509" lat="50.66803741">
    <ele>151.54</ele>
    <time>2011-05-29T09:18:08.000Z</time>
   </trkpt>
   <trkpt lon="6.92526579" lat="50.66810608">
    <ele>152.03</ele>
    <time>2011-05-29T09:18:25.000Z</time>
   </trkpt>
   <trkpt lon="6.92435789" lat="50.66816330">
    <ele>152.51</ele>
    <time>2011-05-29T09:18:42.000Z</time>
   </trkpt>
   <trkpt lon="6.92333698" lat="50.66821289">
    <ele>152.03</ele>
    <time>2011-05-29T09:19:01.000Z</time>
   </trkpt>
   <trkpt lon="6.92207289" lat="50.66826630">
    <ele>152.03</ele>
    <time>2011-05-29T09:19:21.000Z</time>
   </trkpt>
   <trkpt lon="6.92148876" lat="50.66827393">
    <ele>152.51</ele>
    <time>2011-05-29T09:19:31.000Z</time>
   </trkpt>
   <trkpt lon="6.92068720" lat="50.66825867">
    <ele>153.47</ele>
    <time>2011-05-29T09:19:47.000Z</time>
   </trkpt>
   <trkpt lon="6.91974592" lat="50.66820526">
    <ele>153.95</ele>
    <time>2011-05-29T09:20:04.000Z</time>
   </trkpt>
   <trkpt lon="6.91927481" lat="50.66814041">
    <ele>153.47</ele>
    <time>2011-05-29T09:20:12.000Z</time>
   </trkpt>
   <trkpt lon="6.91921186" lat="50.66815567">
    <ele>153.47</ele>
    <time>2011-05-29T09:20:13.000Z</time>
   </trkpt>
   <trkpt lon="6.91915083" lat="50.66817474">
    <ele>153.47</ele>
    <time>2011-05-29T09:20:14.000Z</time>
   </trkpt>
   <trkpt lon="6.91807699" lat="50.66862106">
    <ele>153.47</ele>
    <time>2011-05-29T09:20:32.000Z</time>
   </trkpt>
   <trkpt lon="6.91678476" lat="50.66913986">
    <ele>152.99</ele>
    <time>2011-05-29T09:20:52.000Z</time>
   </trkpt>
   <trkpt lon="6.91583395" lat="50.66959381">
    <ele>152.51</ele>
    <time>2011-05-29T09:21:08.000Z</time>
   </trkpt>
   <trkpt lon="6.91526413" lat="50.66980743">
    <ele>152.03</ele>
    <time>2011-05-29T09:21:17.000Z</time>
   </trkpt>
   <trkpt lon="6.91512918" lat="50.66984177">
    <ele>151.54</ele>
    <time>2011-05-29T09:21:19.000Z</time>
   </trkpt>
   <trkpt lon="6.91506910" lat="50.66986465">
    <ele>151.54</ele>
    <time>2011-05-29T09:21:20.000Z</time>
   </trkpt>
   <trkpt lon="6.91501617" lat="50.66988754">
    <ele>152.03</ele>
    <time>2011-05-29T09:21:21.000Z</time>
   </trkpt>
   <trkpt lon="6.91496992" lat="50.66991043">
    <ele>152.03</ele>
    <time>2011-05-29T09:21:22.000Z</time>
   </trkpt>
   <trkpt lon="6.91492605" lat="50.66992569">
    <ele>151.54</ele>
    <time>2011-05-29T09:21:23.000Z</time>
   </trkpt>
   <trkpt lon="6.91462183" lat="50.66971970">
    <ele>151.06</ele>
    <time>2011-05-29T09:21:31.000Z</time>
   </trkpt>
   <trkpt lon="6.91458178" lat="50.66968536">
    <ele>151.54</ele>
    <time>2011-05-29T09:21:32.000Z</time>
   </trkpt>
   <trkpt lon="6.91454411" lat="50.66964340">
    <ele>151.06</ele>
    <time>2011-05-29T09:21:33.000Z</time>
   </trkpt>
   <trkpt lon="6.91446304" lat="50.66957092">
    <ele>151.06</ele>
    <time>2011-05-29T09:21:35.000Z</time>
   </trkpt>
   <trkpt lon="6.91441202" lat="50.66953278">
    <ele>151.06</ele>
    <time>2011-05-29T09:21:36.000Z</time>
   </trkpt>
   <trkpt lon="6.91435814" lat="50.66949463">
    <ele>150.58</ele>
    <time>2011-05-29T09:21:37.000Z</time>
   </trkpt>
   <trkpt lon="6.91430712" lat="50.66946411">
    <ele>150.58</ele>
    <time>2011-05-29T09:21:38.000Z</time>
   </trkpt>
   <trkpt lon="6.91424990" lat="50.66944504">
    <ele>151.06</ele>
    <time>2011-05-29T09:21:39.000Z</time>
   </trkpt>
   <trkpt lon="6.91418219" lat="50.66944122">
    <ele>150.58</ele>
    <time>2011-05-29T09:21:40.000Z</time>
   </trkpt>
   <trkpt lon="6.91411209" lat="50.66944122">
    <ele>150.58</ele>
    <time>2011-05-29T09:21:41.000Z</time>
   </trkpt>
   <trkpt lon="6.91403913" lat="50.66944504">
    <ele>150.58</ele>
    <time>2011-05-29T09:21:42.000Z</time>
   </trkpt>
   <trkpt lon="6.91378784" lat="50.66943741">
    <ele>150.58</ele>
    <time>2011-05-29T09:21:45.000Z</time>
   </trkpt>
   <trkpt lon="6.91371298" lat="50.66942215">
    <ele>150.58</ele>
    <time>2011-05-29T09:21:46.000Z</time>
   </trkpt>
   <trkpt lon="6.91364622" lat="50.66940308">
    <ele>150.58</ele>
    <time>2011-05-29T09:21:47.000Z</time>
   </trkpt>
   <trkpt lon="6.91358519" lat="50.66938019">
    <ele>150.58</ele>
    <time>2011-05-29T09:21:48.000Z</time>
   </trkpt>
   <trkpt lon="6.91352797" lat="50.66934967">
    <ele>150.58</ele>
    <time>2011-05-29T09:21:49.000Z</time>
   </trkpt>
   <trkpt lon="6.91347599" lat="50.66931534">
    <ele>150.1</ele>
    <time>2011-05-29T09:21:50.000Z</time>
   </trkpt>
   <trkpt lon="6.91343117" lat="50.66928482">
    <ele>150.58</ele>
    <time>2011-05-29T09:21:51.000Z</time>
   </trkpt>
   <trkpt lon="6.91339111" lat="50.66925049">
    <ele>150.58</ele>
    <time>2011-05-29T09:21:52.000Z</time>
   </trkpt>
   <trkpt lon="6.91313887" lat="50.66909027">
    <ele>150.58</ele>
    <time>2011-05-29T09:21:57.000Z</time>
   </trkpt>
   <trkpt lon="6.91238117" lat="50.66855240">
    <ele>151.06</ele>
    <time>2011-05-29T09:22:14.000Z</time>
   </trkpt>
   <trkpt lon="6.91166019" lat="50.66802216">
    <ele>151.54</ele>
    <time>2011-05-29T09:22:31.000Z</time>
   </trkpt>
   <trkpt lon="6.91100121" lat="50.66753769">
    <ele>152.03</ele>
    <time>2011-05-29T09:22:47.000Z</time>
   </trkpt>
   <trkpt lon="6.91028786" lat="50.66708374">
    <ele>152.03</ele>
    <time>2011-05-29T09:23:03.000Z</time>
   </trkpt>
   <trkpt lon="6.90931177" lat="50.66652298">
    <ele>152.51</ele>
    <time>2011-05-29T09:23:24.000Z</time>
   </trkpt>
   <trkpt lon="6.90845680" lat="50.66603088">
    <ele>152.99</ele>
    <time>2011-05-29T09:23:42.000Z</time>
   </trkpt>
   <trkpt lon="6.90761423" lat="50.66553116">
    <ele>153.47</ele>
    <time>2011-05-29T09:24:00.000Z</time>
   </trkpt>
   <trkpt lon="6.90696001" lat="50.66516113">
    <ele>154.43</ele>
    <time>2011-05-29T09:24:15.000Z</time>
   </trkpt>
   <trkpt lon="6.90619183" lat="50.66471481">
    <ele>153.95</ele>
    <time>2011-05-29T09:24:33.000Z</time>
   </trkpt>
   <trkpt lon="6.90547705" lat="50.66428757">
    <ele>153.95</ele>
    <time>2011-05-29T09:24:50.000Z</time>
   </trkpt>
   <trkpt lon="6.90487194" lat="50.66422272">
    <ele>154.43</ele>
    <time>2011-05-29T09:25:02.000Z</time>
   </trkpt>
   <trkpt lon="6.90408707" lat="50.66459274">
    <ele>154.91</ele>
    <time>2011-05-29T09:25:18.000Z</time>
   </trkpt>
   <trkpt lon="6.90324497" lat="50.66495895">
    <ele>154.91</ele>
    <time>2011-05-29T09:25:36.000Z</time>
   </trkpt>
   <trkpt lon="6.90251923" lat="50.66521454">
    <ele>155.39</ele>
    <time>2011-05-29T09:25:50.000Z</time>
   </trkpt>
   <trkpt lon="6.90139389" lat="50.66560745">
    <ele>155.39</ele>
    <time>2011-05-29T09:26:11.000Z</time>
   </trkpt>
   <trkpt lon="6.90113401" lat="50.66541672">
    <ele>155.39</ele>
    <time>2011-05-29T09:26:17.000Z</time>
   </trkpt>
   <trkpt lon="6.90073109" lat="50.66498184">
    <ele>154.91</ele>
    <time>2011-05-29T09:26:27.000Z</time>
   </trkpt>
   <trkpt lon="6.90012121" lat="50.66449738">
    <ele>156.83</ele>
    <time>2011-05-29T09:26:42.000Z</time>
   </trkpt>
   <trkpt lon="6.89987803" lat="50.66412735">
    <ele>156.83</ele>
    <time>2011-05-29T09:26:54.000Z</time>
   </trkpt>
   <trkpt lon="6.89954805" lat="50.66335297">
    <ele>156.83</ele>
    <time>2011-05-29T09:27:11.000Z</time>
   </trkpt>
   <trkpt lon="6.89926720" lat="50.66271210">
    <ele>156.35</ele>
    <time>2011-05-29T09:27:25.000Z</time>
   </trkpt>
   <trkpt lon="6.89924288" lat="50.66267014">
    <ele>156.83</ele>
    <time>2011-05-29T09:27:26.000Z</time>
   </trkpt>
   <trkpt lon="6.89892912" lat="50.66191864">
    <ele>157.31</ele>
    <time>2011-05-29T09:27:43.000Z</time>
   </trkpt>
   <trkpt lon="6.89877176" lat="50.66138840">
    <ele>158.75</ele>
    <time>2011-05-29T09:27:56.000Z</time>
   </trkpt>
   <trkpt lon="6.89873791" lat="50.66122437">
    <ele>158.27</ele>
    <time>2011-05-29T09:28:00.000Z</time>
   </trkpt>
   <trkpt lon="6.89872122" lat="50.66118240">
    <ele>158.75</ele>
    <time>2011-05-29T09:28:01.000Z</time>
   </trkpt>
   <trkpt lon="6.89810085" lat="50.66055679">
    <ele>158.75</ele>
    <time>2011-05-29T09:28:17.000Z</time>
   </trkpt>
   <trkpt lon="6.89785480" lat="50.66034698">
    <ele>158.75</ele>
    <time>2011-05-29T09:28:23.000Z</time>
   </trkpt>
   <trkpt lon="6.89769506" lat="50.66021347">
    <ele>158.75</ele>
    <time>2011-05-29T09:28:27.000Z</time>
   </trkpt>
   <trkpt lon="6.89765882" lat="50.66018295">
    <ele>158.75</ele>
    <time>2011-05-29T09:28:28.000Z</time>
   </trkpt>
   <trkpt lon="6.89745092" lat="50.66001892">
    <ele>159.24</ele>
    <time>2011-05-29T09:28:39.000Z</time>
   </trkpt>
   <trkpt lon="6.89744377" lat="50.66001511">
    <ele>159.24</ele>
    <time>2011-05-29T09:29:02.000Z</time>
   </trkpt>
   <trkpt lon="6.89739704" lat="50.65997696">
    <ele>159.24</ele>
    <time>2011-05-29T09:29:06.000Z</time>
   </trkpt>
   <trkpt lon="6.89705992" lat="50.65969086">
    <ele>160.2</ele>
    <time>2011-05-29T09:29:21.000Z</time>
   </trkpt>
   <trkpt lon="6.89675713" lat="50.65925217">
    <ele>160.2</ele>
    <time>2011-05-29T09:29:35.000Z</time>
   </trkpt>
   <trkpt lon="6.89687109" lat="50.65859222">
    <ele>160.2</ele>
    <time>2011-05-29T09:29:52.000Z</time>
   </trkpt>
   <trkpt lon="6.89682293" lat="50.65790176">
    <ele>161.16</ele>
    <time>2011-05-29T09:30:10.000Z</time>
   </trkpt>
   <trkpt lon="6.89650679" lat="50.65720367">
    <ele>161.64</ele>
    <time>2011-05-29T09:30:29.000Z</time>
   </trkpt>
   <trkpt lon="6.89591408" lat="50.65655136">
    <ele>162.12</ele>
    <time>2011-05-29T09:30:50.000Z</time>
   </trkpt>
   <trkpt lon="6.89537287" lat="50.65613556">
    <ele>162.6</ele>
    <time>2011-05-29T09:31:06.000Z</time>
   </trkpt>
   <trkpt lon="6.89483213" lat="50.65571594">
    <ele>163.08</ele>
    <time>2011-05-29T09:31:23.000Z</time>
   </trkpt>
   <trkpt lon="6.89424801" lat="50.65528870">
    <ele>163.08</ele>
    <time>2011-05-29T09:31:41.000Z</time>
   </trkpt>
   <trkpt lon="6.89363098" lat="50.65480423">
    <ele>165</ele>
    <time>2011-05-29T09:32:02.000Z</time>
   </trkpt>
   <trkpt lon="6.89331722" lat="50.65458298">
    <ele>165.96</ele>
    <time>2011-05-29T09:32:16.000Z</time>
   </trkpt>
   <trkpt lon="6.89331722" lat="50.65458298">
    <ele>166.45</ele>
    <time>2011-05-29T09:32:38.000Z</time>
   </trkpt>
   <trkpt lon="6.89331722" lat="50.65458298">
    <ele>165.96</ele>
    <time>2011-05-29T09:32:39.000Z</time>
   </trkpt>
   <trkpt lon="6.89326191" lat="50.65455246">
    <ele>165.96</ele>
    <time>2011-05-29T09:32:42.000Z</time>
   </trkpt>
   <trkpt lon="6.89325714" lat="50.65453339">
    <ele>166.93</ele>
    <time>2011-05-29T09:32:43.000Z</time>
   </trkpt>
   <trkpt lon="6.89324999" lat="50.65451431">
    <ele>166.45</ele>
    <time>2011-05-29T09:32:44.000Z</time>
   </trkpt>
   <trkpt lon="6.89323616" lat="50.65449524">
    <ele>166.45</ele>
    <time>2011-05-29T09:32:45.000Z</time>
   </trkpt>
   <trkpt lon="6.89321518" lat="50.65446854">
    <ele>165.48</ele>
    <time>2011-05-29T09:32:46.000Z</time>
   </trkpt>
   <trkpt lon="6.89318800" lat="50.65443802">
    <ele>165</ele>
    <time>2011-05-29T09:32:47.000Z</time>
   </trkpt>
   <trkpt lon="6.89315891" lat="50.65441132">
    <ele>164.52</ele>
    <time>2011-05-29T09:32:48.000Z</time>
   </trkpt>
   <trkpt lon="6.89268398" lat="50.65394211">
    <ele>165.96</ele>
    <time>2011-05-29T09:33:05.000Z</time>
   </trkpt>
   <trkpt lon="6.89213896" lat="50.65339279">
    <ele>166.45</ele>
    <time>2011-05-29T09:33:26.000Z</time>
   </trkpt>
   <trkpt lon="6.89160824" lat="50.65283585">
    <ele>167.41</ele>
    <time>2011-05-29T09:33:46.000Z</time>
   </trkpt>
   <trkpt lon="6.89116192" lat="50.65238571">
    <ele>167.89</ele>
    <time>2011-05-29T09:34:02.000Z</time>
   </trkpt>
   <trkpt lon="6.89064884" lat="50.65185547">
    <ele>168.37</ele>
    <time>2011-05-29T09:34:19.000Z</time>
   </trkpt>
   <trkpt lon="6.89017582" lat="50.65134811">
    <ele>169.33</ele>
    <time>2011-05-29T09:34:35.000Z</time>
   </trkpt>
   <trkpt lon="6.88951397" lat="50.65068817">
    <ele>169.81</ele>
    <time>2011-05-29T09:34:56.000Z</time>
   </trkpt>
   <trkpt lon="6.88902903" lat="50.65019608">
    <ele>170.77</ele>
    <time>2011-05-29T09:35:12.000Z</time>
   </trkpt>
   <trkpt lon="6.88860321" lat="50.64973068">
    <ele>171.73</ele>
    <time>2011-05-29T09:35:27.000Z</time>
   </trkpt>
   <trkpt lon="6.88807678" lat="50.64958954">
    <ele>171.73</ele>
    <time>2011-05-29T09:35:43.000Z</time>
   </trkpt>
   <trkpt lon="6.88803005" lat="50.64962006">
    <ele>171.73</ele>
    <time>2011-05-29T09:35:44.000Z</time>
   </trkpt>
   <trkpt lon="6.88798618" lat="50.64963150">
    <ele>172.21</ele>
    <time>2011-05-29T09:35:45.000Z</time>
   </trkpt>
   <trkpt lon="6.88797283" lat="50.64962769">
    <ele>172.21</ele>
    <time>2011-05-29T09:35:49.000Z</time>
   </trkpt>
   <trkpt lon="6.88802719" lat="50.64962006">
    <ele>172.21</ele>
    <time>2011-05-29T09:35:51.000Z</time>
   </trkpt>
   <trkpt lon="6.88808489" lat="50.64960861">
    <ele>172.69</ele>
    <time>2011-05-29T09:35:52.000Z</time>
   </trkpt>
   <trkpt lon="6.88814783" lat="50.64958954">
    <ele>172.21</ele>
    <time>2011-05-29T09:35:53.000Z</time>
   </trkpt>
   <trkpt lon="6.88819695" lat="50.64956284">
    <ele>172.21</ele>
    <time>2011-05-29T09:35:54.000Z</time>
   </trkpt>
   <trkpt lon="6.88822508" lat="50.64952850">
    <ele>172.21</ele>
    <time>2011-05-29T09:35:55.000Z</time>
   </trkpt>
   <trkpt lon="6.88824177" lat="50.64949036">
    <ele>172.21</ele>
    <time>2011-05-29T09:35:56.000Z</time>
   </trkpt>
   <trkpt lon="6.88823509" lat="50.64945221">
    <ele>172.69</ele>
    <time>2011-05-29T09:35:57.000Z</time>
   </trkpt>
   <trkpt lon="6.88821983" lat="50.64941406">
    <ele>172.69</ele>
    <time>2011-05-29T09:35:58.000Z</time>
   </trkpt>
   <trkpt lon="6.88819408" lat="50.64937592">
    <ele>172.21</ele>
    <time>2011-05-29T09:35:59.000Z</time>
   </trkpt>
   <trkpt lon="6.88816500" lat="50.64934158">
    <ele>172.21</ele>
    <time>2011-05-29T09:36:00.000Z</time>
   </trkpt>
   <trkpt lon="6.88760519" lat="50.64911270">
    <ele>172.69</ele>
    <time>2011-05-29T09:36:14.000Z</time>
   </trkpt>
   <trkpt lon="6.88703680" lat="50.64937973">
    <ele>173.66</ele>
    <time>2011-05-29T09:36:24.000Z</time>
   </trkpt>
   <trkpt lon="6.88594294" lat="50.64979935">
    <ele>172.21</ele>
    <time>2011-05-29T09:36:43.000Z</time>
   </trkpt>
   <trkpt lon="6.88556194" lat="50.64995193">
    <ele>173.17</ele>
    <time>2011-05-29T09:36:50.000Z</time>
   </trkpt>
   <trkpt lon="6.88514280" lat="50.64979935">
    <ele>171.73</ele>
    <time>2011-05-29T09:37:02.000Z</time>
   </trkpt>
   <trkpt lon="6.88501883" lat="50.64953232">
    <ele>171.25</ele>
    <time>2011-05-29T09:37:08.000Z</time>
   </trkpt>
   <trkpt lon="6.88499784" lat="50.64948273">
    <ele>171.73</ele>
    <time>2011-05-29T09:37:09.000Z</time>
   </trkpt>
   <trkpt lon="6.88499308" lat="50.64941788">
    <ele>171.25</ele>
    <time>2011-05-29T09:37:10.000Z</time>
   </trkpt>
   <trkpt lon="6.88461399" lat="50.64859772">
    <ele>172.21</ele>
    <time>2011-05-29T09:37:28.000Z</time>
   </trkpt>
   <trkpt lon="6.88444090" lat="50.64837265">
    <ele>171.73</ele>
    <time>2011-05-29T09:37:34.000Z</time>
   </trkpt>
   <trkpt lon="6.88441801" lat="50.64833450">
    <ele>171.73</ele>
    <time>2011-05-29T09:37:35.000Z</time>
   </trkpt>
   <trkpt lon="6.88435793" lat="50.64826202">
    <ele>172.21</ele>
    <time>2011-05-29T09:37:37.000Z</time>
   </trkpt>
   <trkpt lon="6.88431978" lat="50.64823151">
    <ele>172.21</ele>
    <time>2011-05-29T09:37:38.000Z</time>
   </trkpt>
   <trkpt lon="6.88417006" lat="50.64810944">
    <ele>171.73</ele>
    <time>2011-05-29T09:37:42.000Z</time>
   </trkpt>
   <trkpt lon="6.88403606" lat="50.64801407">
    <ele>171.73</ele>
    <time>2011-05-29T09:37:45.000Z</time>
   </trkpt>
   <trkpt lon="6.88332987" lat="50.64757156">
    <ele>172.21</ele>
    <time>2011-05-29T09:38:02.000Z</time>
   </trkpt>
   <trkpt lon="6.88265896" lat="50.64717484">
    <ele>172.69</ele>
    <time>2011-05-29T09:38:19.000Z</time>
   </trkpt>
   <trkpt lon="6.88201380" lat="50.64682770">
    <ele>174.62</ele>
    <time>2011-05-29T09:38:37.000Z</time>
   </trkpt>
   <trkpt lon="6.88193893" lat="50.64678574">
    <ele>174.62</ele>
    <time>2011-05-29T09:38:40.000Z</time>
   </trkpt>
   <trkpt lon="6.88189602" lat="50.64677429">
    <ele>175.1</ele>
    <time>2011-05-29T09:38:43.000Z</time>
   </trkpt>
   <trkpt lon="6.88163614" lat="50.64646149">
    <ele>174.62</ele>
    <time>2011-05-29T09:38:54.000Z</time>
   </trkpt>
   <trkpt lon="6.88121414" lat="50.64605331">
    <ele>174.62</ele>
    <time>2011-05-29T09:39:09.000Z</time>
   </trkpt>
   <trkpt lon="6.88061905" lat="50.64603043">
    <ele>174.14</ele>
    <time>2011-05-29T09:39:19.000Z</time>
   </trkpt>
   <trkpt lon="6.87989998" lat="50.64584732">
    <ele>174.62</ele>
    <time>2011-05-29T09:39:32.000Z</time>
   </trkpt>
   <trkpt lon="6.87983990" lat="50.64576721">
    <ele>175.1</ele>
    <time>2011-05-29T09:39:37.000Z</time>
   </trkpt>
   <trkpt lon="6.87987709" lat="50.64575195">
    <ele>174.14</ele>
    <time>2011-05-29T09:39:42.000Z</time>
   </trkpt>
   <trkpt lon="6.87986612" lat="50.64574051">
    <ele>174.62</ele>
    <time>2011-05-29T09:39:43.000Z</time>
   </trkpt>
   <trkpt lon="6.87985277" lat="50.64572144">
    <ele>174.62</ele>
    <time>2011-05-29T09:39:44.000Z</time>
   </trkpt>
   <trkpt lon="6.87974405" lat="50.64532089">
    <ele>174.62</ele>
    <time>2011-05-29T09:39:59.000Z</time>
   </trkpt>
   <trkpt lon="6.87932014" lat="50.64515305">
    <ele>175.58</ele>
    <time>2011-05-29T09:40:12.000Z</time>
   </trkpt>
   <trkpt lon="6.87873983" lat="50.64500427">
    <ele>176.06</ele>
    <time>2011-05-29T09:40:25.000Z</time>
   </trkpt>
   <trkpt lon="6.87837315" lat="50.64481354">
    <ele>175.1</ele>
    <time>2011-05-29T09:40:36.000Z</time>
   </trkpt>
   <trkpt lon="6.87821913" lat="50.64446259">
    <ele>176.06</ele>
    <time>2011-05-29T09:40:49.000Z</time>
   </trkpt>
   <trkpt lon="6.87848186" lat="50.64431763">
    <ele>176.54</ele>
    <time>2011-05-29T09:40:58.000Z</time>
   </trkpt>
   <trkpt lon="6.87899685" lat="50.64419556">
    <ele>178.46</ele>
    <time>2011-05-29T09:41:11.000Z</time>
   </trkpt>
   <trkpt lon="6.87916899" lat="50.64413834">
    <ele>179.42</ele>
    <time>2011-05-29T09:41:17.000Z</time>
   </trkpt>
   <trkpt lon="6.87909603" lat="50.64403152">
    <ele>179.42</ele>
    <time>2011-05-29T09:41:23.000Z</time>
   </trkpt>
   <trkpt lon="6.87879515" lat="50.64358521">
    <ele>180.38</ele>
    <time>2011-05-29T09:41:42.000Z</time>
   </trkpt>
   <trkpt lon="6.87855482" lat="50.64322662">
    <ele>181.83</ele>
    <time>2011-05-29T09:41:58.000Z</time>
   </trkpt>
   <trkpt lon="6.87825584" lat="50.64275742">
    <ele>183.27</ele>
    <time>2011-05-29T09:42:16.000Z</time>
   </trkpt>
   <trkpt lon="6.87785816" lat="50.64215469">
    <ele>183.75</ele>
    <time>2011-05-29T09:42:37.000Z</time>
   </trkpt>
   <trkpt lon="6.87759018" lat="50.64178848">
    <ele>184.23</ele>
    <time>2011-05-29T09:42:50.000Z</time>
   </trkpt>
   <trkpt lon="6.87733793" lat="50.64139557">
    <ele>185.19</ele>
    <time>2011-05-29T09:43:04.000Z</time>
   </trkpt>
   <trkpt lon="6.87702513" lat="50.64094162">
    <ele>185.67</ele>
    <time>2011-05-29T09:43:21.000Z</time>
   </trkpt>
   <trkpt lon="6.87733221" lat="50.64073944">
    <ele>186.15</ele>
    <time>2011-05-29T09:43:31.000Z</time>
   </trkpt>
   <trkpt lon="6.87819910" lat="50.64036560">
    <ele>186.63</ele>
    <time>2011-05-29T09:43:49.000Z</time>
   </trkpt>
   <trkpt lon="6.87930202" lat="50.63988113">
    <ele>186.63</ele>
    <time>2011-05-29T09:44:09.000Z</time>
   </trkpt>
   <trkpt lon="6.88018990" lat="50.63949585">
    <ele>186.63</ele>
    <time>2011-05-29T09:44:25.000Z</time>
   </trkpt>
   <trkpt lon="6.88045692" lat="50.63936615">
    <ele>186.63</ele>
    <time>2011-05-29T09:44:36.000Z</time>
   </trkpt>
   <trkpt lon="6.88045216" lat="50.63936996">
    <ele>186.63</ele>
    <time>2011-05-29T09:44:39.000Z</time>
   </trkpt>
   <trkpt lon="6.87990284" lat="50.63961411">
    <ele>186.15</ele>
    <time>2011-05-29T09:44:51.000Z</time>
   </trkpt>
   <trkpt lon="6.87900400" lat="50.64000320">
    <ele>185.67</ele>
    <time>2011-05-29T09:45:09.000Z</time>
   </trkpt>
   <trkpt lon="6.87813282" lat="50.64038467">
    <ele>186.63</ele>
    <time>2011-05-29T09:45:27.000Z</time>
   </trkpt>
   <trkpt lon="6.87712812" lat="50.64081573">
    <ele>185.67</ele>
    <time>2011-05-29T09:45:45.000Z</time>
   </trkpt>
   <trkpt lon="6.87706614" lat="50.64083862">
    <ele>186.15</ele>
    <time>2011-05-29T09:45:46.000Z</time>
   </trkpt>
   <trkpt lon="6.87699890" lat="50.64085770">
    <ele>185.67</ele>
    <time>2011-05-29T09:45:47.000Z</time>
   </trkpt>
   <trkpt lon="6.87676811" lat="50.64063263">
    <ele>186.15</ele>
    <time>2011-05-29T09:45:56.000Z</time>
   </trkpt>
   <trkpt lon="6.87655210" lat="50.63990021">
    <ele>186.63</ele>
    <time>2011-05-29T09:46:16.000Z</time>
   </trkpt>
   <trkpt lon="6.87636900" lat="50.63941956">
    <ele>178.46</ele>
    <time>2011-05-29T09:46:30.000Z</time>
   </trkpt>
   <trkpt lon="6.87635422" lat="50.63938522">
    <ele>189.04</ele>
    <time>2011-05-29T09:46:31.000Z</time>
   </trkpt>
   <trkpt lon="6.87605381" lat="50.63868713">
    <ele>188.56</ele>
    <time>2011-05-29T09:46:51.000Z</time>
   </trkpt>
   <trkpt lon="6.87589693" lat="50.63828278">
    <ele>189.52</ele>
    <time>2011-05-29T09:47:03.000Z</time>
   </trkpt>
   <trkpt lon="6.87566423" lat="50.63773727">
    <ele>190</ele>
    <time>2011-05-29T09:47:20.000Z</time>
   </trkpt>
   <trkpt lon="6.87540388" lat="50.63715363">
    <ele>190.48</ele>
    <time>2011-05-29T09:47:39.000Z</time>
   </trkpt>
   <trkpt lon="6.87533522" lat="50.63669586">
    <ele>191.92</ele>
    <time>2011-05-29T09:47:54.000Z</time>
   </trkpt>
   <trkpt lon="6.87525606" lat="50.63618851">
    <ele>192.4</ele>
    <time>2011-05-29T09:48:10.000Z</time>
   </trkpt>
   <trkpt lon="6.87518597" lat="50.63562393">
    <ele>192.88</ele>
    <time>2011-05-29T09:48:26.000Z</time>
   </trkpt>
   <trkpt lon="6.87507582" lat="50.63499832">
    <ele>193.84</ele>
    <time>2011-05-29T09:48:43.000Z</time>
   </trkpt>
   <trkpt lon="6.87484217" lat="50.63437271">
    <ele>193.84</ele>
    <time>2011-05-29T09:49:02.000Z</time>
   </trkpt>
   <trkpt lon="6.87476921" lat="50.63376236">
    <ele>194.32</ele>
    <time>2011-05-29T09:49:20.000Z</time>
   </trkpt>
   <trkpt lon="6.87478685" lat="50.63308716">
    <ele>194.8</ele>
    <time>2011-05-29T09:49:39.000Z</time>
   </trkpt>
   <trkpt lon="6.87464380" lat="50.63259506">
    <ele>196.25</ele>
    <time>2011-05-29T09:49:55.000Z</time>
   </trkpt>
   <trkpt lon="6.87446499" lat="50.63207245">
    <ele>195.77</ele>
    <time>2011-05-29T09:50:10.000Z</time>
   </trkpt>
   <trkpt lon="6.87434387" lat="50.63157272">
    <ele>196.25</ele>
    <time>2011-05-29T09:50:24.000Z</time>
   </trkpt>
   <trkpt lon="6.87416887" lat="50.63090897">
    <ele>195.77</ele>
    <time>2011-05-29T09:50:42.000Z</time>
   </trkpt>
   <trkpt lon="6.87404394" lat="50.63039780">
    <ele>192.88</ele>
    <time>2011-05-29T09:50:57.000Z</time>
   </trkpt>
   <trkpt lon="6.87403393" lat="50.63036728">
    <ele>192.88</ele>
    <time>2011-05-29T09:50:58.000Z</time>
   </trkpt>
   <trkpt lon="6.87387514" lat="50.62981033">
    <ele>192.88</ele>
    <time>2011-05-29T09:51:17.000Z</time>
   </trkpt>
   <trkpt lon="6.87386703" lat="50.62969589">
    <ele>198.17</ele>
    <time>2011-05-29T09:51:21.000Z</time>
   </trkpt>
   <trkpt lon="6.87385798" lat="50.62966919">
    <ele>197.69</ele>
    <time>2011-05-29T09:51:22.000Z</time>
   </trkpt>
   <trkpt lon="6.87370014" lat="50.62908936">
    <ele>198.17</ele>
    <time>2011-05-29T09:51:40.000Z</time>
   </trkpt>
   <trkpt lon="6.87354898" lat="50.62849808">
    <ele>198.65</ele>
    <time>2011-05-29T09:51:59.000Z</time>
   </trkpt>
   <trkpt lon="6.87340212" lat="50.62793350">
    <ele>199.13</ele>
    <time>2011-05-29T09:52:16.000Z</time>
   </trkpt>
   <trkpt lon="6.87322187" lat="50.62722015">
    <ele>199.61</ele>
    <time>2011-05-29T09:52:37.000Z</time>
   </trkpt>
   <trkpt lon="6.87307596" lat="50.62664413">
    <ele>199.61</ele>
    <time>2011-05-29T09:52:54.000Z</time>
   </trkpt>
   <trkpt lon="6.87289381" lat="50.62594223">
    <ele>201.05</ele>
    <time>2011-05-29T09:53:15.000Z</time>
   </trkpt>
   <trkpt lon="6.87274599" lat="50.62537003">
    <ele>201.53</ele>
    <time>2011-05-29T09:53:34.000Z</time>
   </trkpt>
   <trkpt lon="6.87261391" lat="50.62483215">
    <ele>202.49</ele>
    <time>2011-05-29T09:53:53.000Z</time>
   </trkpt>
   <trkpt lon="6.87245989" lat="50.62422180">
    <ele>203.46</ele>
    <time>2011-05-29T09:54:13.000Z</time>
   </trkpt>
   <trkpt lon="6.87232780" lat="50.62372589">
    <ele>204.9</ele>
    <time>2011-05-29T09:54:29.000Z</time>
   </trkpt>
   <trkpt lon="6.87213707" lat="50.62319946">
    <ele>205.38</ele>
    <time>2011-05-29T09:54:46.000Z</time>
   </trkpt>
   <trkpt lon="6.87159491" lat="50.62315750">
    <ele>204.9</ele>
    <time>2011-05-29T09:54:57.000Z</time>
   </trkpt>
   <trkpt lon="6.87080908" lat="50.62316895">
    <ele>205.38</ele>
    <time>2011-05-29T09:55:13.000Z</time>
   </trkpt>
   <trkpt lon="6.86998320" lat="50.62288666">
    <ele>204.9</ele>
    <time>2011-05-29T09:55:29.000Z</time>
   </trkpt>
   <trkpt lon="6.86988878" lat="50.62283325">
    <ele>204.9</ele>
    <time>2011-05-29T09:55:31.000Z</time>
   </trkpt>
   <trkpt lon="6.86984921" lat="50.62279892">
    <ele>204.9</ele>
    <time>2011-05-29T09:55:32.000Z</time>
   </trkpt>
   <trkpt lon="6.86981487" lat="50.62276840">
    <ele>204.9</ele>
    <time>2011-05-29T09:55:33.000Z</time>
   </trkpt>
   <trkpt lon="6.86960220" lat="50.62224579">
    <ele>205.86</ele>
    <time>2011-05-29T09:55:47.000Z</time>
   </trkpt>
   <trkpt lon="6.86946821" lat="50.62165070">
    <ele>206.82</ele>
    <time>2011-05-29T09:56:03.000Z</time>
   </trkpt>
   <trkpt lon="6.86950684" lat="50.62107468">
    <ele>207.3</ele>
    <time>2011-05-29T09:56:21.000Z</time>
   </trkpt>
   <trkpt lon="6.87023783" lat="50.62099457">
    <ele>207.78</ele>
    <time>2011-05-29T09:56:34.000Z</time>
   </trkpt>
   <trkpt lon="6.87023497" lat="50.62095261">
    <ele>208.26</ele>
    <time>2011-05-29T09:56:36.000Z</time>
   </trkpt>
   <trkpt lon="6.87021399" lat="50.62092972">
    <ele>208.26</ele>
    <time>2011-05-29T09:56:37.000Z</time>
   </trkpt>
   <trkpt lon="6.87011099" lat="50.62080765">
    <ele>207.78</ele>
    <time>2011-05-29T09:56:44.000Z</time>
   </trkpt>
   <trkpt lon="6.87011290" lat="50.62079620">
    <ele>208.26</ele>
    <time>2011-05-29T09:56:45.000Z</time>
   </trkpt>
   <trkpt lon="6.87010384" lat="50.62078094">
    <ele>208.26</ele>
    <time>2011-05-29T09:56:46.000Z</time>
   </trkpt>
   <trkpt lon="6.86986399" lat="50.62051010">
    <ele>208.26</ele>
    <time>2011-05-29T09:56:56.000Z</time>
   </trkpt>
   <trkpt lon="6.86975384" lat="50.61993027">
    <ele>208.74</ele>
    <time>2011-05-29T09:57:12.000Z</time>
   </trkpt>
   <trkpt lon="6.86994123" lat="50.61928558">
    <ele>210.19</ele>
    <time>2011-05-29T09:57:29.000Z</time>
   </trkpt>
   <trkpt lon="6.87013006" lat="50.61857986">
    <ele>211.15</ele>
    <time>2011-05-29T09:57:48.000Z</time>
   </trkpt>
   <trkpt lon="6.87026691" lat="50.61805344">
    <ele>212.59</ele>
    <time>2011-05-29T09:58:04.000Z</time>
   </trkpt>
   <trkpt lon="6.87036991" lat="50.61762619">
    <ele>212.11</ele>
    <time>2011-05-29T09:58:17.000Z</time>
   </trkpt>
   <trkpt lon="6.87054777" lat="50.61700821">
    <ele>214.03</ele>
    <time>2011-05-29T09:58:35.000Z</time>
   </trkpt>
   <trkpt lon="6.87071609" lat="50.61639786">
    <ele>213.55</ele>
    <time>2011-05-29T09:58:53.000Z</time>
   </trkpt>
   <trkpt lon="6.87088108" lat="50.61580658">
    <ele>214.51</ele>
    <time>2011-05-29T09:59:11.000Z</time>
   </trkpt>
   <trkpt lon="6.87101316" lat="50.61522675">
    <ele>215.47</ele>
    <time>2011-05-29T09:59:28.000Z</time>
   </trkpt>
   <trkpt lon="6.87070990" lat="50.61472321">
    <ele>214.51</ele>
    <time>2011-05-29T09:59:42.000Z</time>
   </trkpt>
   <trkpt lon="6.87045193" lat="50.61447144">
    <ele>214.51</ele>
    <time>2011-05-29T09:59:53.000Z</time>
   </trkpt>
   <trkpt lon="6.87048483" lat="50.61418915">
    <ele>215.47</ele>
    <time>2011-05-29T10:00:04.000Z</time>
   </trkpt>
   <trkpt lon="6.87053585" lat="50.61376190">
    <ele>216.91</ele>
    <time>2011-05-29T10:00:19.000Z</time>
   </trkpt>
   <trkpt lon="6.87054205" lat="50.61370850">
    <ele>215.95</ele>
    <time>2011-05-29T10:00:21.000Z</time>
   </trkpt>
   <trkpt lon="6.87070084" lat="50.61330032">
    <ele>216.43</ele>
    <time>2011-05-29T10:00:35.000Z</time>
   </trkpt>
   <trkpt lon="6.87057400" lat="50.61294174">
    <ele>216.91</ele>
    <time>2011-05-29T10:00:49.000Z</time>
   </trkpt>
   <trkpt lon="6.87052107" lat="50.61282730">
    <ele>217.4</ele>
    <time>2011-05-29T10:01:00.000Z</time>
   </trkpt>
   <trkpt lon="6.87053013" lat="50.61281586">
    <ele>217.4</ele>
    <time>2011-05-29T10:01:17.000Z</time>
   </trkpt>
   <trkpt lon="6.87045908" lat="50.61283493">
    <ele>217.4</ele>
    <time>2011-05-29T10:01:29.000Z</time>
   </trkpt>
   <trkpt lon="6.87045908" lat="50.61283493">
    <ele>217.4</ele>
    <time>2011-05-29T10:01:50.000Z</time>
   </trkpt>
   <trkpt lon="6.87045383" lat="50.61283875">
    <ele>217.88</ele>
    <time>2011-05-29T10:02:20.000Z</time>
   </trkpt>
   <trkpt lon="6.87045002" lat="50.61283875">
    <ele>217.4</ele>
    <time>2011-05-29T10:02:51.000Z</time>
   </trkpt>
   <trkpt lon="6.87045383" lat="50.61285019">
    <ele>217.4</ele>
    <time>2011-05-29T10:03:12.000Z</time>
   </trkpt>
   <trkpt lon="6.87045383" lat="50.61285019">
    <ele>220.76</ele>
    <time>2011-05-29T10:03:13.000Z</time>
   </trkpt>
   <trkpt lon="6.87045383" lat="50.61285019">
    <ele>213.55</ele>
    <time>2011-05-29T10:03:14.000Z</time>
   </trkpt>
   <trkpt lon="6.87045383" lat="50.61285019">
    <ele>217.88</ele>
    <time>2011-05-29T10:03:15.000Z</time>
   </trkpt>
   <trkpt lon="6.87046099" lat="50.61282349">
    <ele>215.95</ele>
    <time>2011-05-29T10:03:31.000Z</time>
   </trkpt>
   <trkpt lon="6.87048578" lat="50.61280823">
    <ele>216.43</ele>
    <time>2011-05-29T10:03:53.000Z</time>
   </trkpt>
   <trkpt lon="6.87047577" lat="50.61273193">
    <ele>216.91</ele>
    <time>2011-05-29T10:04:17.000Z</time>
   </trkpt>
   <trkpt lon="6.87047100" lat="50.61270523">
    <ele>216.43</ele>
    <time>2011-05-29T10:04:41.000Z</time>
   </trkpt>
   <trkpt lon="6.87048388" lat="50.61271286">
    <ele>216.91</ele>
    <time>2011-05-29T10:04:54.000Z</time>
   </trkpt>
   <trkpt lon="6.87052917" lat="50.61273193">
    <ele>216.91</ele>
    <time>2011-05-29T10:04:57.000Z</time>
   </trkpt>
   <trkpt lon="6.87054300" lat="50.61273956">
    <ele>217.4</ele>
    <time>2011-05-29T10:04:58.000Z</time>
   </trkpt>
   <trkpt lon="6.87059402" lat="50.61278534">
    <ele>217.4</ele>
    <time>2011-05-29T10:05:12.000Z</time>
   </trkpt>
   <trkpt lon="6.87036610" lat="50.61281967">
    <ele>218.84</ele>
    <time>2011-05-29T10:58:45.000Z</time>
   </trkpt>
   <trkpt lon="6.87022400" lat="50.61286926">
    <ele>218.84</ele>
    <time>2011-05-29T10:58:52.000Z</time>
   </trkpt>
   <trkpt lon="6.87001801" lat="50.61289597">
    <ele>217.88</ele>
    <time>2011-05-29T10:58:59.000Z</time>
   </trkpt>
   <trkpt lon="6.86950922" lat="50.61287689">
    <ele>217.88</ele>
    <time>2011-05-29T10:59:15.000Z</time>
   </trkpt>
   <trkpt lon="6.86945105" lat="50.61288071">
    <ele>216.91</ele>
    <time>2011-05-29T10:59:17.000Z</time>
   </trkpt>
   <trkpt lon="6.86941910" lat="50.61293411">
    <ele>217.88</ele>
    <time>2011-05-29T10:59:30.000Z</time>
   </trkpt>
   <trkpt lon="6.86943007" lat="50.61294174">
    <ele>217.88</ele>
    <time>2011-05-29T10:59:58.000Z</time>
   </trkpt>
   <trkpt lon="6.86942482" lat="50.61294174">
    <ele>217.4</ele>
    <time>2011-05-29T11:00:09.000Z</time>
   </trkpt>
   <trkpt lon="6.86931896" lat="50.61295700">
    <ele>218.36</ele>
    <time>2011-05-29T11:00:14.000Z</time>
   </trkpt>
   <trkpt lon="6.86885405" lat="50.61314774">
    <ele>216.91</ele>
    <time>2011-05-29T11:00:31.000Z</time>
   </trkpt>
   <trkpt lon="6.86824703" lat="50.61334229">
    <ele>216.43</ele>
    <time>2011-05-29T11:00:45.000Z</time>
   </trkpt>
   <trkpt lon="6.86727905" lat="50.61358643">
    <ele>217.88</ele>
    <time>2011-05-29T11:01:02.000Z</time>
   </trkpt>
   <trkpt lon="6.86624622" lat="50.61380386">
    <ele>217.88</ele>
    <time>2011-05-29T11:01:21.000Z</time>
   </trkpt>
   <trkpt lon="6.86520195" lat="50.61402130">
    <ele>219.8</ele>
    <time>2011-05-29T11:01:40.000Z</time>
   </trkpt>
   <trkpt lon="6.86435223" lat="50.61428452">
    <ele>220.28</ele>
    <time>2011-05-29T11:01:57.000Z</time>
   </trkpt>
   <trkpt lon="6.86360502" lat="50.61461639">
    <ele>220.28</ele>
    <time>2011-05-29T11:02:15.000Z</time>
   </trkpt>
   <trkpt lon="6.86287117" lat="50.61503983">
    <ele>220.28</ele>
    <time>2011-05-29T11:02:32.000Z</time>
   </trkpt>
   <trkpt lon="6.86257505" lat="50.61521149">
    <ele>219.8</ele>
    <time>2011-05-29T11:02:38.000Z</time>
   </trkpt>
   <trkpt lon="6.86148024" lat="50.61584854">
    <ele>219.32</ele>
    <time>2011-05-29T11:02:59.000Z</time>
   </trkpt>
   <trkpt lon="6.86055994" lat="50.61639404">
    <ele>217.88</ele>
    <time>2011-05-29T11:03:16.000Z</time>
   </trkpt>
   <trkpt lon="6.85934877" lat="50.61709595">
    <ele>217.88</ele>
    <time>2011-05-29T11:03:37.000Z</time>
   </trkpt>
   <trkpt lon="6.85834789" lat="50.61768723">
    <ele>216.43</ele>
    <time>2011-05-29T11:03:54.000Z</time>
   </trkpt>
   <trkpt lon="6.85699701" lat="50.61849594">
    <ele>215.47</ele>
    <time>2011-05-29T11:04:16.000Z</time>
   </trkpt>
   <trkpt lon="6.85687494" lat="50.61857224">
    <ele>215.47</ele>
    <time>2011-05-29T11:04:18.000Z</time>
   </trkpt>
   <trkpt lon="6.85573101" lat="50.61928177">
    <ele>214.03</ele>
    <time>2011-05-29T11:04:37.000Z</time>
   </trkpt>
   <trkpt lon="6.85459900" lat="50.61990356">
    <ele>212.11</ele>
    <time>2011-05-29T11:04:54.000Z</time>
   </trkpt>
   <trkpt lon="6.85428286" lat="50.62005615">
    <ele>211.15</ele>
    <time>2011-05-29T11:04:58.000Z</time>
   </trkpt>
   <trkpt lon="6.85358620" lat="50.62047577">
    <ele>208.26</ele>
    <time>2011-05-29T11:05:09.000Z</time>
   </trkpt>
   <trkpt lon="6.85312796" lat="50.62081909">
    <ele>206.34</ele>
    <time>2011-05-29T11:05:17.000Z</time>
   </trkpt>
   <trkpt lon="6.85308790" lat="50.62087631">
    <ele>205.86</ele>
    <time>2011-05-29T11:05:18.000Z</time>
   </trkpt>
   <trkpt lon="6.85302305" lat="50.62100601">
    <ele>204.9</ele>
    <time>2011-05-29T11:05:20.000Z</time>
   </trkpt>
   <trkpt lon="6.85292482" lat="50.62119293">
    <ele>204.42</ele>
    <time>2011-05-29T11:05:23.000Z</time>
   </trkpt>
   <trkpt lon="6.85288715" lat="50.62124252">
    <ele>203.94</ele>
    <time>2011-05-29T11:05:24.000Z</time>
   </trkpt>
   <trkpt lon="6.85282421" lat="50.62128448">
    <ele>203.94</ele>
    <time>2011-05-29T11:05:25.000Z</time>
   </trkpt>
   <trkpt lon="6.85274506" lat="50.62130356">
    <ele>203.94</ele>
    <time>2011-05-29T11:05:26.000Z</time>
   </trkpt>
   <trkpt lon="6.85266209" lat="50.62129974">
    <ele>203.94</ele>
    <time>2011-05-29T11:05:27.000Z</time>
   </trkpt>
   <trkpt lon="6.85257912" lat="50.62129211">
    <ele>203.94</ele>
    <time>2011-05-29T11:05:28.000Z</time>
   </trkpt>
   <trkpt lon="6.85220194" lat="50.62127686">
    <ele>204.42</ele>
    <time>2011-05-29T11:05:33.000Z</time>
   </trkpt>
   <trkpt lon="6.85212994" lat="50.62129211">
    <ele>203.94</ele>
    <time>2011-05-29T11:05:34.000Z</time>
   </trkpt>
   <trkpt lon="6.85205698" lat="50.62130737">
    <ele>203.94</ele>
    <time>2011-05-29T11:05:35.000Z</time>
   </trkpt>
   <trkpt lon="6.85168600" lat="50.62142181">
    <ele>203.46</ele>
    <time>2011-05-29T11:05:40.000Z</time>
   </trkpt>
   <trkpt lon="6.85117388" lat="50.62160873">
    <ele>203.46</ele>
    <time>2011-05-29T11:05:47.000Z</time>
   </trkpt>
   <trkpt lon="6.85111189" lat="50.62163925">
    <ele>203.94</ele>
    <time>2011-05-29T11:05:48.000Z</time>
   </trkpt>
   <trkpt lon="6.85104704" lat="50.62166214">
    <ele>203.46</ele>
    <time>2011-05-29T11:05:49.000Z</time>
   </trkpt>
   <trkpt lon="6.85079384" lat="50.62174988">
    <ele>203.94</ele>
    <time>2011-05-29T11:05:53.000Z</time>
   </trkpt>
   <trkpt lon="6.85073423" lat="50.62177658">
    <ele>203.94</ele>
    <time>2011-05-29T11:05:54.000Z</time>
   </trkpt>
   <trkpt lon="6.85067415" lat="50.62180328">
    <ele>203.94</ele>
    <time>2011-05-29T11:05:55.000Z</time>
   </trkpt>
   <trkpt lon="6.85008287" lat="50.62199402">
    <ele>203.94</ele>
    <time>2011-05-29T11:06:06.000Z</time>
   </trkpt>
   <trkpt lon="6.85005999" lat="50.62198639">
    <ele>204.9</ele>
    <time>2011-05-29T11:06:07.000Z</time>
   </trkpt>
   <trkpt lon="6.85005283" lat="50.62197495">
    <ele>204.42</ele>
    <time>2011-05-29T11:06:08.000Z</time>
   </trkpt>
   <trkpt lon="6.85006094" lat="50.62195969">
    <ele>203.94</ele>
    <time>2011-05-29T11:06:09.000Z</time>
   </trkpt>
   <trkpt lon="6.85008097" lat="50.62195587">
    <ele>203.94</ele>
    <time>2011-05-29T11:06:10.000Z</time>
   </trkpt>
   <trkpt lon="6.85010290" lat="50.62195587">
    <ele>203.94</ele>
    <time>2011-05-29T11:06:11.000Z</time>
   </trkpt>
   <trkpt lon="6.85012579" lat="50.62195969">
    <ele>204.42</ele>
    <time>2011-05-29T11:06:12.000Z</time>
   </trkpt>
   <trkpt lon="6.85014915" lat="50.62195587">
    <ele>203.94</ele>
    <time>2011-05-29T11:06:13.000Z</time>
   </trkpt>
   <trkpt lon="6.85016489" lat="50.62194443">
    <ele>203.94</ele>
    <time>2011-05-29T11:06:14.000Z</time>
   </trkpt>
   <trkpt lon="6.85017300" lat="50.62193298">
    <ele>203.94</ele>
    <time>2011-05-29T11:06:15.000Z</time>
   </trkpt>
   <trkpt lon="6.85017920" lat="50.62192535">
    <ele>204.42</ele>
    <time>2011-05-29T11:06:16.000Z</time>
   </trkpt>
   <trkpt lon="6.85020685" lat="50.62191772">
    <ele>203.94</ele>
    <time>2011-05-29T11:06:18.000Z</time>
   </trkpt>
   <trkpt lon="6.85022783" lat="50.62191772">
    <ele>203.94</ele>
    <time>2011-05-29T11:06:19.000Z</time>
   </trkpt>
   <trkpt lon="6.85025215" lat="50.62191391">
    <ele>203.94</ele>
    <time>2011-05-29T11:06:20.000Z</time>
   </trkpt>
   <trkpt lon="6.85027981" lat="50.62191010">
    <ele>203.94</ele>
    <time>2011-05-29T11:06:21.000Z</time>
   </trkpt>
   <trkpt lon="6.85030890" lat="50.62190628">
    <ele>203.94</ele>
    <time>2011-05-29T11:06:22.000Z</time>
   </trkpt>
   <trkpt lon="6.85033894" lat="50.62190628">
    <ele>203.94</ele>
    <time>2011-05-29T11:06:23.000Z</time>
   </trkpt>
   <trkpt lon="6.85037184" lat="50.62190247">
    <ele>203.46</ele>
    <time>2011-05-29T11:06:24.000Z</time>
   </trkpt>
   <trkpt lon="6.85040998" lat="50.62189484">
    <ele>203.46</ele>
    <time>2011-05-29T11:06:25.000Z</time>
   </trkpt>
   <trkpt lon="6.85043001" lat="50.62187958">
    <ele>203.46</ele>
    <time>2011-05-29T11:06:26.000Z</time>
   </trkpt>
   <trkpt lon="6.85044813" lat="50.62186050">
    <ele>203.46</ele>
    <time>2011-05-29T11:06:27.000Z</time>
   </trkpt>
   <trkpt lon="6.85047102" lat="50.62186050">
    <ele>203.46</ele>
    <time>2011-05-29T11:06:28.000Z</time>
   </trkpt>
   <trkpt lon="6.85048723" lat="50.62186813">
    <ele>203.46</ele>
    <time>2011-05-29T11:06:29.000Z</time>
   </trkpt>
   <trkpt lon="6.85048389" lat="50.62188339">
    <ele>203.46</ele>
    <time>2011-05-29T11:06:30.000Z</time>
   </trkpt>
   <trkpt lon="6.85047293" lat="50.62189484">
    <ele>203.46</ele>
    <time>2011-05-29T11:06:31.000Z</time>
   </trkpt>
   <trkpt lon="6.85045481" lat="50.62190628">
    <ele>202.98</ele>
    <time>2011-05-29T11:06:32.000Z</time>
   </trkpt>
   <trkpt lon="6.85043001" lat="50.62191391">
    <ele>203.94</ele>
    <time>2011-05-29T11:06:33.000Z</time>
   </trkpt>
   <trkpt lon="6.85040617" lat="50.62192154">
    <ele>203.46</ele>
    <time>2011-05-29T11:06:34.000Z</time>
   </trkpt>
   <trkpt lon="6.85037899" lat="50.62192917">
    <ele>203.46</ele>
    <time>2011-05-29T11:06:35.000Z</time>
   </trkpt>
   <trkpt lon="6.85034323" lat="50.62194061">
    <ele>203.46</ele>
    <time>2011-05-29T11:06:36.000Z</time>
   </trkpt>
   <trkpt lon="6.84982395" lat="50.62220764">
    <ele>203.94</ele>
    <time>2011-05-29T11:06:50.000Z</time>
   </trkpt>
   <trkpt lon="6.84916782" lat="50.62244415">
    <ele>203.46</ele>
    <time>2011-05-29T11:07:03.000Z</time>
   </trkpt>
   <trkpt lon="6.84881210" lat="50.62216949">
    <ele>203.46</ele>
    <time>2011-05-29T11:07:14.000Z</time>
   </trkpt>
   <trkpt lon="6.84844494" lat="50.62191772">
    <ele>204.42</ele>
    <time>2011-05-29T11:07:26.000Z</time>
   </trkpt>
   <trkpt lon="6.84794283" lat="50.62209702">
    <ele>205.38</ele>
    <time>2011-05-29T11:07:39.000Z</time>
   </trkpt>
   <trkpt lon="6.84734297" lat="50.62227631">
    <ele>206.82</ele>
    <time>2011-05-29T11:07:57.000Z</time>
   </trkpt>
   <trkpt lon="6.84678507" lat="50.62244034">
    <ele>207.78</ele>
    <time>2011-05-29T11:08:13.000Z</time>
   </trkpt>
   <trkpt lon="6.84607506" lat="50.62265778">
    <ele>209.22</ele>
    <time>2011-05-29T11:08:31.000Z</time>
   </trkpt>
   <trkpt lon="6.84513712" lat="50.62291336">
    <ele>209.7</ele>
    <time>2011-05-29T11:08:53.000Z</time>
   </trkpt>
   <trkpt lon="6.84470081" lat="50.62280273">
    <ele>210.19</ele>
    <time>2011-05-29T11:09:05.000Z</time>
   </trkpt>
   <trkpt lon="6.84442091" lat="50.62237167">
    <ele>211.63</ele>
    <time>2011-05-29T11:09:22.000Z</time>
   </trkpt>
   <trkpt lon="6.84388685" lat="50.62224579">
    <ele>211.15</ele>
    <time>2011-05-29T11:09:35.000Z</time>
   </trkpt>
   <trkpt lon="6.84315205" lat="50.62223434">
    <ele>212.59</ele>
    <time>2011-05-29T11:09:51.000Z</time>
   </trkpt>
   <trkpt lon="6.84228516" lat="50.62226486">
    <ele>211.63</ele>
    <time>2011-05-29T11:10:10.000Z</time>
   </trkpt>
   <trkpt lon="6.84148598" lat="50.62228012">
    <ele>211.63</ele>
    <time>2011-05-29T11:10:25.000Z</time>
   </trkpt>
   <trkpt lon="6.84083986" lat="50.62230682">
    <ele>213.55</ele>
    <time>2011-05-29T11:10:39.000Z</time>
   </trkpt>
   <trkpt lon="6.84028101" lat="50.62231445">
    <ele>215.47</ele>
    <time>2011-05-29T11:10:53.000Z</time>
   </trkpt>
   <trkpt lon="6.83970022" lat="50.62232971">
    <ele>215.47</ele>
    <time>2011-05-29T11:11:07.000Z</time>
   </trkpt>
   <trkpt lon="6.83862877" lat="50.62234116">
    <ele>216.43</ele>
    <time>2011-05-29T11:11:31.000Z</time>
   </trkpt>
   <trkpt lon="6.83789301" lat="50.62236404">
    <ele>217.4</ele>
    <time>2011-05-29T11:11:47.000Z</time>
   </trkpt>
   <trkpt lon="6.83712292" lat="50.62238693">
    <ele>217.4</ele>
    <time>2011-05-29T11:12:02.000Z</time>
   </trkpt>
   <trkpt lon="6.83717299" lat="50.62241364">
    <ele>217.88</ele>
    <time>2011-05-29T11:12:13.000Z</time>
   </trkpt>
   <trkpt lon="6.83717299" lat="50.62241364">
    <ele>218.36</ele>
    <time>2011-05-29T11:12:37.000Z</time>
   </trkpt>
   <trkpt lon="6.83717299" lat="50.62241364">
    <ele>217.88</ele>
    <time>2011-05-29T11:12:45.000Z</time>
   </trkpt>
   <trkpt lon="6.83587217" lat="50.62231445">
    <ele>217.88</ele>
    <time>2011-05-29T11:13:31.000Z</time>
   </trkpt>
   <trkpt lon="6.83581305" lat="50.62231064">
    <ele>217.88</ele>
    <time>2011-05-29T11:13:32.000Z</time>
   </trkpt>
   <trkpt lon="6.83483601" lat="50.62214279">
    <ele>217.88</ele>
    <time>2011-05-29T11:13:50.000Z</time>
   </trkpt>
   <trkpt lon="6.83373117" lat="50.62221146">
    <ele>216.91</ele>
    <time>2011-05-29T11:14:08.000Z</time>
   </trkpt>
   <trkpt lon="6.83367682" lat="50.62219620">
    <ele>217.4</ele>
    <time>2011-05-29T11:14:09.000Z</time>
   </trkpt>
   <trkpt lon="6.83364105" lat="50.62216949">
    <ele>216.43</ele>
    <time>2011-05-29T11:14:10.000Z</time>
   </trkpt>
   <trkpt lon="6.83362198" lat="50.62214661">
    <ele>217.4</ele>
    <time>2011-05-29T11:14:11.000Z</time>
   </trkpt>
   <trkpt lon="6.83361721" lat="50.62211990">
    <ele>217.4</ele>
    <time>2011-05-29T11:14:12.000Z</time>
   </trkpt>
   <trkpt lon="6.83361197" lat="50.62209320">
    <ele>217.88</ele>
    <time>2011-05-29T11:14:13.000Z</time>
   </trkpt>
   <trkpt lon="6.83360100" lat="50.62206650">
    <ele>217.88</ele>
    <time>2011-05-29T11:14:14.000Z</time>
   </trkpt>
   <trkpt lon="6.83339882" lat="50.62180328">
    <ele>219.32</ele>
    <time>2011-05-29T11:14:27.000Z</time>
   </trkpt>
   <trkpt lon="6.83311319" lat="50.62153244">
    <ele>221.24</ele>
    <time>2011-05-29T11:14:42.000Z</time>
   </trkpt>
   <trkpt lon="6.83295202" lat="50.62127686">
    <ele>222.68</ele>
    <time>2011-05-29T11:14:56.000Z</time>
   </trkpt>
   <trkpt lon="6.83243799" lat="50.62135315">
    <ele>222.68</ele>
    <time>2011-05-29T11:15:08.000Z</time>
   </trkpt>
   <trkpt lon="6.83157206" lat="50.62147903">
    <ele>223.64</ele>
    <time>2011-05-29T11:15:26.000Z</time>
   </trkpt>
   <trkpt lon="6.83096695" lat="50.62152863">
    <ele>224.61</ele>
    <time>2011-05-29T11:15:41.000Z</time>
   </trkpt>
   <trkpt lon="6.83010101" lat="50.62155914">
    <ele>224.61</ele>
    <time>2011-05-29T11:15:59.000Z</time>
   </trkpt>
   <trkpt lon="6.82953215" lat="50.62159729">
    <ele>223.64</ele>
    <time>2011-05-29T11:16:15.000Z</time>
   </trkpt>
   <trkpt lon="6.82895184" lat="50.62161636">
    <ele>224.61</ele>
    <time>2011-05-29T11:16:30.000Z</time>
   </trkpt>
   <trkpt lon="6.82824087" lat="50.62164688">
    <ele>225.09</ele>
    <time>2011-05-29T11:16:46.000Z</time>
   </trkpt>
   <trkpt lon="6.82769585" lat="50.62156296">
    <ele>225.57</ele>
    <time>2011-05-29T11:16:59.000Z</time>
   </trkpt>
   <trkpt lon="6.82761288" lat="50.62126541">
    <ele>227.49</ele>
    <time>2011-05-29T11:17:16.000Z</time>
   </trkpt>
   <trkpt lon="6.82756519" lat="50.62113953">
    <ele>228.93</ele>
    <time>2011-05-29T11:17:24.000Z</time>
   </trkpt>
   <trkpt lon="6.82750082" lat="50.62093353">
    <ele>229.89</ele>
    <time>2011-05-29T11:17:38.000Z</time>
   </trkpt>
   <trkpt lon="6.82738495" lat="50.62066269">
    <ele>232.3</ele>
    <time>2011-05-29T11:17:56.000Z</time>
   </trkpt>
   <trkpt lon="6.82729101" lat="50.62038422">
    <ele>234.22</ele>
    <time>2011-05-29T11:18:15.000Z</time>
   </trkpt>
   <trkpt lon="6.82725000" lat="50.62015533">
    <ele>236.14</ele>
    <time>2011-05-29T11:18:31.000Z</time>
   </trkpt>
   <trkpt lon="6.82718992" lat="50.61992264">
    <ele>238.06</ele>
    <time>2011-05-29T11:18:47.000Z</time>
   </trkpt>
   <trkpt lon="6.82713604" lat="50.61965942">
    <ele>239.51</ele>
    <time>2011-05-29T11:19:05.000Z</time>
   </trkpt>
   <trkpt lon="6.82710314" lat="50.61942291">
    <ele>241.43</ele>
    <time>2011-05-29T11:19:21.000Z</time>
   </trkpt>
   <trkpt lon="6.82705021" lat="50.61914444">
    <ele>243.35</ele>
    <time>2011-05-29T11:19:40.000Z</time>
   </trkpt>
   <trkpt lon="6.82699299" lat="50.61890793">
    <ele>245.27</ele>
    <time>2011-05-29T11:19:57.000Z</time>
   </trkpt>
   <trkpt lon="6.82698298" lat="50.61889267">
    <ele>245.75</ele>
    <time>2011-05-29T11:19:58.000Z</time>
   </trkpt>
   <trkpt lon="6.82697296" lat="50.61888123">
    <ele>245.75</ele>
    <time>2011-05-29T11:19:59.000Z</time>
   </trkpt>
   <trkpt lon="6.82697010" lat="50.61886597">
    <ele>245.75</ele>
    <time>2011-05-29T11:20:00.000Z</time>
   </trkpt>
   <trkpt lon="6.82696199" lat="50.61870193">
    <ele>247.2</ele>
    <time>2011-05-29T11:20:11.000Z</time>
   </trkpt>
   <trkpt lon="6.82690001" lat="50.61841965">
    <ele>249.12</ele>
    <time>2011-05-29T11:20:31.000Z</time>
   </trkpt>
   <trkpt lon="6.82688284" lat="50.61816788">
    <ele>251.52</ele>
    <time>2011-05-29T11:20:48.000Z</time>
   </trkpt>
   <trkpt lon="6.82687807" lat="50.61800003">
    <ele>252.96</ele>
    <time>2011-05-29T11:21:00.000Z</time>
   </trkpt>
   <trkpt lon="6.82688522" lat="50.61798859">
    <ele>253.44</ele>
    <time>2011-05-29T11:21:01.000Z</time>
   </trkpt>
   <trkpt lon="6.82688713" lat="50.61775970">
    <ele>255.37</ele>
    <time>2011-05-29T11:21:18.000Z</time>
   </trkpt>
   <trkpt lon="6.82691622" lat="50.61754990">
    <ele>256.81</ele>
    <time>2011-05-29T11:21:33.000Z</time>
   </trkpt>
   <trkpt lon="6.82690477" lat="50.61743546">
    <ele>256.33</ele>
    <time>2011-05-29T11:21:41.000Z</time>
   </trkpt>
   <trkpt lon="6.82690620" lat="50.61742020">
    <ele>257.29</ele>
    <time>2011-05-29T11:21:42.000Z</time>
   </trkpt>
   <trkpt lon="6.82690811" lat="50.61740494">
    <ele>256.81</ele>
    <time>2011-05-29T11:21:43.000Z</time>
   </trkpt>
   <trkpt lon="6.82691193" lat="50.61738968">
    <ele>256.81</ele>
    <time>2011-05-29T11:21:44.000Z</time>
   </trkpt>
   <trkpt lon="6.82692003" lat="50.61737823">
    <ele>256.33</ele>
    <time>2011-05-29T11:21:45.000Z</time>
   </trkpt>
   <trkpt lon="6.82691002" lat="50.61718369">
    <ele>258.25</ele>
    <time>2011-05-29T11:21:58.000Z</time>
   </trkpt>
   <trkpt lon="6.82690811" lat="50.61693954">
    <ele>259.69</ele>
    <time>2011-05-29T11:22:15.000Z</time>
   </trkpt>
   <trkpt lon="6.82689381" lat="50.61664581">
    <ele>261.62</ele>
    <time>2011-05-29T11:22:35.000Z</time>
   </trkpt>
   <trkpt lon="6.82686996" lat="50.61663818">
    <ele>262.1</ele>
    <time>2011-05-29T11:22:36.000Z</time>
   </trkpt>
   <trkpt lon="6.82685184" lat="50.61663055">
    <ele>262.1</ele>
    <time>2011-05-29T11:22:37.000Z</time>
   </trkpt>
   <trkpt lon="6.82683611" lat="50.61662292">
    <ele>262.1</ele>
    <time>2011-05-29T11:22:38.000Z</time>
   </trkpt>
   <trkpt lon="6.82681799" lat="50.61661530">
    <ele>262.1</ele>
    <time>2011-05-29T11:22:39.000Z</time>
   </trkpt>
   <trkpt lon="6.82669020" lat="50.61655807">
    <ele>262.1</ele>
    <time>2011-05-29T11:22:46.000Z</time>
   </trkpt>
   <trkpt lon="6.82635784" lat="50.61640167">
    <ele>264.98</ele>
    <time>2011-05-29T11:23:03.000Z</time>
   </trkpt>
   <trkpt lon="6.82599020" lat="50.61619568">
    <ele>265.94</ele>
    <time>2011-05-29T11:23:21.000Z</time>
   </trkpt>
   <trkpt lon="6.82569408" lat="50.61604309">
    <ele>265.94</ele>
    <time>2011-05-29T11:23:34.000Z</time>
   </trkpt>
   <trkpt lon="6.82567120" lat="50.61603928">
    <ele>266.42</ele>
    <time>2011-05-29T11:23:35.000Z</time>
   </trkpt>
   <trkpt lon="6.82564402" lat="50.61602402">
    <ele>266.42</ele>
    <time>2011-05-29T11:23:46.000Z</time>
   </trkpt>
   <trkpt lon="6.82563877" lat="50.61602402">
    <ele>266.42</ele>
    <time>2011-05-29T11:24:32.000Z</time>
   </trkpt>
   <trkpt lon="6.82563877" lat="50.61602402">
    <ele>266.42</ele>
    <time>2011-05-29T11:24:40.000Z</time>
   </trkpt>
   <trkpt lon="6.82562017" lat="50.61601257">
    <ele>266.9</ele>
    <time>2011-05-29T11:24:41.000Z</time>
   </trkpt>
   <trkpt lon="6.82559395" lat="50.61600113">
    <ele>266.42</ele>
    <time>2011-05-29T11:24:42.000Z</time>
   </trkpt>
   <trkpt lon="6.82516909" lat="50.61579132">
    <ele>267.38</ele>
    <time>2011-05-29T11:24:58.000Z</time>
   </trkpt>
   <trkpt lon="6.82479620" lat="50.61558914">
    <ele>268.35</ele>
    <time>2011-05-29T11:25:15.000Z</time>
   </trkpt>
   <trkpt lon="6.82467794" lat="50.61552811">
    <ele>268.83</ele>
    <time>2011-05-29T11:25:21.000Z</time>
   </trkpt>
   <trkpt lon="6.82425499" lat="50.61537552">
    <ele>269.79</ele>
    <time>2011-05-29T11:25:39.000Z</time>
   </trkpt>
   <trkpt lon="6.82369900" lat="50.61519623">
    <ele>271.71</ele>
    <time>2011-05-29T11:25:57.000Z</time>
   </trkpt>
   <trkpt lon="6.82307196" lat="50.61498260">
    <ele>271.71</ele>
    <time>2011-05-29T11:26:14.000Z</time>
   </trkpt>
   <trkpt lon="6.82237101" lat="50.61484528">
    <ele>272.19</ele>
    <time>2011-05-29T11:26:29.000Z</time>
   </trkpt>
   <trkpt lon="6.82159901" lat="50.61486816">
    <ele>270.75</ele>
    <time>2011-05-29T11:26:44.000Z</time>
   </trkpt>
   <trkpt lon="6.82110786" lat="50.61489487">
    <ele>270.75</ele>
    <time>2011-05-29T11:26:52.000Z</time>
   </trkpt>
   <trkpt lon="6.82103777" lat="50.61489868">
    <ele>270.75</ele>
    <time>2011-05-29T11:26:53.000Z</time>
   </trkpt>
   <trkpt lon="6.82096386" lat="50.61489868">
    <ele>270.75</ele>
    <time>2011-05-29T11:26:54.000Z</time>
   </trkpt>
   <trkpt lon="6.81994009" lat="50.61496353">
    <ele>269.31</ele>
    <time>2011-05-29T11:27:07.000Z</time>
   </trkpt>
   <trkpt lon="6.81940794" lat="50.61499405">
    <ele>266.9</ele>
    <time>2011-05-29T11:27:13.000Z</time>
   </trkpt>
   <trkpt lon="6.81921482" lat="50.61501694">
    <ele>266.42</ele>
    <time>2011-05-29T11:27:15.000Z</time>
   </trkpt>
   <trkpt lon="6.81823206" lat="50.61506271">
    <ele>262.58</ele>
    <time>2011-05-29T11:27:23.000Z</time>
   </trkpt>
   <trkpt lon="6.81809616" lat="50.61507416">
    <ele>262.58</ele>
    <time>2011-05-29T11:27:24.000Z</time>
   </trkpt>
   <trkpt lon="6.81766081" lat="50.61510086">
    <ele>260.17</ele>
    <time>2011-05-29T11:27:27.000Z</time>
   </trkpt>
   <trkpt lon="6.81689501" lat="50.61512756">
    <ele>256.81</ele>
    <time>2011-05-29T11:27:32.000Z</time>
   </trkpt>
   <trkpt lon="6.81622791" lat="50.61515808">
    <ele>253.44</ele>
    <time>2011-05-29T11:27:36.000Z</time>
   </trkpt>
   <trkpt lon="6.81522894" lat="50.61520004">
    <ele>250.08</ele>
    <time>2011-05-29T11:27:42.000Z</time>
   </trkpt>
   <trkpt lon="6.81438303" lat="50.61523438">
    <ele>247.2</ele>
    <time>2011-05-29T11:27:49.000Z</time>
   </trkpt>
   <trkpt lon="6.81427097" lat="50.61521912">
    <ele>247.2</ele>
    <time>2011-05-29T11:27:50.000Z</time>
   </trkpt>
   <trkpt lon="6.81364107" lat="50.61514664">
    <ele>247.2</ele>
    <time>2011-05-29T11:27:56.000Z</time>
   </trkpt>
   <trkpt lon="6.81356001" lat="50.61513138">
    <ele>247.68</ele>
    <time>2011-05-29T11:27:57.000Z</time>
   </trkpt>
   <trkpt lon="6.81348515" lat="50.61511230">
    <ele>247.68</ele>
    <time>2011-05-29T11:27:58.000Z</time>
   </trkpt>
   <trkpt lon="6.81342506" lat="50.61508942">
    <ele>247.68</ele>
    <time>2011-05-29T11:27:59.000Z</time>
   </trkpt>
   <trkpt lon="6.81336212" lat="50.61506653">
    <ele>247.68</ele>
    <time>2011-05-29T11:28:00.000Z</time>
   </trkpt>
   <trkpt lon="6.81331110" lat="50.61504364">
    <ele>248.16</ele>
    <time>2011-05-29T11:28:01.000Z</time>
   </trkpt>
   <trkpt lon="6.81326485" lat="50.61502075">
    <ele>248.16</ele>
    <time>2011-05-29T11:28:02.000Z</time>
   </trkpt>
   <trkpt lon="6.81289291" lat="50.61481857">
    <ele>250.08</ele>
    <time>2011-05-29T11:28:14.000Z</time>
   </trkpt>
   <trkpt lon="6.81243896" lat="50.61458969">
    <ele>252</ele>
    <time>2011-05-29T11:28:31.000Z</time>
   </trkpt>
   <trkpt lon="6.81191587" lat="50.61443329">
    <ele>252.96</ele>
    <time>2011-05-29T11:28:46.000Z</time>
   </trkpt>
   <trkpt lon="6.81187105" lat="50.61442566">
    <ele>252.96</ele>
    <time>2011-05-29T11:28:47.000Z</time>
   </trkpt>
   <trkpt lon="6.81138182" lat="50.61432266">
    <ele>253.44</ele>
    <time>2011-05-29T11:28:59.000Z</time>
   </trkpt>
   <trkpt lon="6.81077290" lat="50.61418915">
    <ele>254.41</ele>
    <time>2011-05-29T11:29:12.000Z</time>
   </trkpt>
   <trkpt lon="6.81012392" lat="50.61405182">
    <ele>255.37</ele>
    <time>2011-05-29T11:29:25.000Z</time>
   </trkpt>
   <trkpt lon="6.80945683" lat="50.61390305">
    <ele>255.85</ele>
    <time>2011-05-29T11:29:39.000Z</time>
   </trkpt>
   <trkpt lon="6.80889797" lat="50.61380005">
    <ele>257.29</ele>
    <time>2011-05-29T11:29:53.000Z</time>
   </trkpt>
   <trkpt lon="6.80824423" lat="50.61368179">
    <ele>259.21</ele>
    <time>2011-05-29T11:30:08.000Z</time>
   </trkpt>
   <trkpt lon="6.80762291" lat="50.61360550">
    <ele>260.65</ele>
    <time>2011-05-29T11:30:22.000Z</time>
   </trkpt>
   <trkpt lon="6.80703497" lat="50.61352921">
    <ele>262.1</ele>
    <time>2011-05-29T11:30:37.000Z</time>
   </trkpt>
   <trkpt lon="6.80635786" lat="50.61343384">
    <ele>263.06</ele>
    <time>2011-05-29T11:30:53.000Z</time>
   </trkpt>
   <trkpt lon="6.80576181" lat="50.61334229">
    <ele>263.06</ele>
    <time>2011-05-29T11:31:07.000Z</time>
   </trkpt>
   <trkpt lon="6.80518293" lat="50.61326218">
    <ele>259.69</ele>
    <time>2011-05-29T11:31:18.000Z</time>
   </trkpt>
   <trkpt lon="6.80486202" lat="50.61330795">
    <ele>256.81</ele>
    <time>2011-05-29T11:31:23.000Z</time>
   </trkpt>
   <trkpt lon="6.80478907" lat="50.61332321">
    <ele>256.81</ele>
    <time>2011-05-29T11:31:24.000Z</time>
   </trkpt>
   <trkpt lon="6.80439520" lat="50.61338425">
    <ele>254.89</ele>
    <time>2011-05-29T11:31:29.000Z</time>
   </trkpt>
   <trkpt lon="6.80387497" lat="50.61344910">
    <ele>251.52</ele>
    <time>2011-05-29T11:31:36.000Z</time>
   </trkpt>
   <trkpt lon="6.80317497" lat="50.61359024">
    <ele>248.16</ele>
    <time>2011-05-29T11:31:44.000Z</time>
   </trkpt>
   <trkpt lon="6.80305195" lat="50.61360931">
    <ele>248.16</ele>
    <time>2011-05-29T11:31:45.000Z</time>
   </trkpt>
   <trkpt lon="6.80293989" lat="50.61362839">
    <ele>247.2</ele>
    <time>2011-05-29T11:31:46.000Z</time>
   </trkpt>
   <trkpt lon="6.80261993" lat="50.61368561">
    <ele>245.75</ele>
    <time>2011-05-29T11:31:49.000Z</time>
   </trkpt>
   <trkpt lon="6.80201101" lat="50.61380005">
    <ele>242.87</ele>
    <time>2011-05-29T11:31:57.000Z</time>
   </trkpt>
   <trkpt lon="6.80170012" lat="50.61388016">
    <ele>239.51</ele>
    <time>2011-05-29T11:32:03.000Z</time>
   </trkpt>
   <trkpt lon="6.80166721" lat="50.61388397">
    <ele>239.51</ele>
    <time>2011-05-29T11:32:04.000Z</time>
   </trkpt>
   <trkpt lon="6.80136490" lat="50.61390686">
    <ele>236.14</ele>
    <time>2011-05-29T11:32:11.000Z</time>
   </trkpt>
   <trkpt lon="6.80122423" lat="50.61389923">
    <ele>235.18</ele>
    <time>2011-05-29T11:32:13.000Z</time>
   </trkpt>
   <trkpt lon="6.80066919" lat="50.61386108">
    <ele>231.81</ele>
    <time>2011-05-29T11:32:18.000Z</time>
   </trkpt>
   <trkpt lon="6.80004406" lat="50.61381149">
    <ele>227.49</ele>
    <time>2011-05-29T11:32:22.000Z</time>
   </trkpt>
   <trkpt lon="6.79951382" lat="50.61376572">
    <ele>224.12</ele>
    <time>2011-05-29T11:32:25.000Z</time>
   </trkpt>
   <trkpt lon="6.79917002" lat="50.61371613">
    <ele>223.16</ele>
    <time>2011-05-29T11:32:27.000Z</time>
   </trkpt>
   <trkpt lon="6.79900408" lat="50.61367798">
    <ele>222.68</ele>
    <time>2011-05-29T11:32:28.000Z</time>
   </trkpt>
   <trkpt lon="6.79852104" lat="50.61355591">
    <ele>221.72</ele>
    <time>2011-05-29T11:32:31.000Z</time>
   </trkpt>
   <trkpt lon="6.79834986" lat="50.61352921">
    <ele>220.76</ele>
    <time>2011-05-29T11:32:32.000Z</time>
   </trkpt>
   <trkpt lon="6.79783821" lat="50.61344147">
    <ele>218.84</ele>
    <time>2011-05-29T11:32:35.000Z</time>
   </trkpt>
   <trkpt lon="6.79695892" lat="50.61320114">
    <ele>218.36</ele>
    <time>2011-05-29T11:32:41.000Z</time>
   </trkpt>
   <trkpt lon="6.79683590" lat="50.61315155">
    <ele>218.36</ele>
    <time>2011-05-29T11:32:42.000Z</time>
   </trkpt>
   <trkpt lon="6.79660892" lat="50.61305618">
    <ele>218.36</ele>
    <time>2011-05-29T11:32:44.000Z</time>
   </trkpt>
   <trkpt lon="6.79649401" lat="50.61302185">
    <ele>218.36</ele>
    <time>2011-05-29T11:32:45.000Z</time>
   </trkpt>
   <trkpt lon="6.79605913" lat="50.61291885">
    <ele>215.47</ele>
    <time>2011-05-29T11:32:49.000Z</time>
   </trkpt>
   <trkpt lon="6.79597092" lat="50.61289215">
    <ele>214.51</ele>
    <time>2011-05-29T11:32:50.000Z</time>
   </trkpt>
   <trkpt lon="6.79589415" lat="50.61286545">
    <ele>214.03</ele>
    <time>2011-05-29T11:32:51.000Z</time>
   </trkpt>
   <trkpt lon="6.79559898" lat="50.61272430">
    <ele>213.07</ele>
    <time>2011-05-29T11:32:58.000Z</time>
   </trkpt>
   <trkpt lon="6.79522705" lat="50.61243820">
    <ele>213.55</ele>
    <time>2011-05-29T11:33:12.000Z</time>
   </trkpt>
   <trkpt lon="6.79472923" lat="50.61201096">
    <ele>212.59</ele>
    <time>2011-05-29T11:33:27.000Z</time>
   </trkpt>
   <trkpt lon="6.79455423" lat="50.61167145">
    <ele>214.03</ele>
    <time>2011-05-29T11:33:39.000Z</time>
   </trkpt>
   <trkpt lon="6.79449892" lat="50.61121750">
    <ele>214.51</ele>
    <time>2011-05-29T11:33:53.000Z</time>
   </trkpt>
   <trkpt lon="6.79438686" lat="50.61087418">
    <ele>214.03</ele>
    <time>2011-05-29T11:34:01.000Z</time>
   </trkpt>
   <trkpt lon="6.79436398" lat="50.61060333">
    <ele>213.07</ele>
    <time>2011-05-29T11:34:06.000Z</time>
   </trkpt>
   <trkpt lon="6.79437685" lat="50.61055374">
    <ele>213.07</ele>
    <time>2011-05-29T11:34:07.000Z</time>
   </trkpt>
   <trkpt lon="6.79440784" lat="50.61050034">
    <ele>212.59</ele>
    <time>2011-05-29T11:34:08.000Z</time>
   </trkpt>
   <trkpt lon="6.79444599" lat="50.61045074">
    <ele>212.59</ele>
    <time>2011-05-29T11:34:09.000Z</time>
   </trkpt>
   <trkpt lon="6.79448414" lat="50.61040497">
    <ele>212.59</ele>
    <time>2011-05-29T11:34:10.000Z</time>
   </trkpt>
   <trkpt lon="6.79489803" lat="50.60992813">
    <ele>214.99</ele>
    <time>2011-05-29T11:34:23.000Z</time>
   </trkpt>
   <trkpt lon="6.79506779" lat="50.60964966">
    <ele>216.43</ele>
    <time>2011-05-29T11:34:36.000Z</time>
   </trkpt>
   <trkpt lon="6.79496717" lat="50.60924911">
    <ele>215.47</ele>
    <time>2011-05-29T11:34:47.000Z</time>
   </trkpt>
   <trkpt lon="6.79486418" lat="50.60879135">
    <ele>217.4</ele>
    <time>2011-05-29T11:35:02.000Z</time>
   </trkpt>
   <trkpt lon="6.79477882" lat="50.60833740">
    <ele>218.36</ele>
    <time>2011-05-29T11:35:18.000Z</time>
   </trkpt>
   <trkpt lon="6.79466820" lat="50.60779953">
    <ele>218.36</ele>
    <time>2011-05-29T11:35:34.000Z</time>
   </trkpt>
   <trkpt lon="6.79449177" lat="50.60726929">
    <ele>219.32</ele>
    <time>2011-05-29T11:35:51.000Z</time>
   </trkpt>
   <trkpt lon="6.79438210" lat="50.60678101">
    <ele>219.8</ele>
    <time>2011-05-29T11:36:05.000Z</time>
   </trkpt>
   <trkpt lon="6.79467392" lat="50.60643768">
    <ele>220.28</ele>
    <time>2011-05-29T11:36:17.000Z</time>
   </trkpt>
   <trkpt lon="6.79527283" lat="50.60616302">
    <ele>221.72</ele>
    <time>2011-05-29T11:36:31.000Z</time>
   </trkpt>
   <trkpt lon="6.79543018" lat="50.60588455">
    <ele>221.24</ele>
    <time>2011-05-29T11:36:41.000Z</time>
   </trkpt>
   <trkpt lon="6.79531908" lat="50.60554123">
    <ele>219.8</ele>
    <time>2011-05-29T11:36:48.000Z</time>
   </trkpt>
   <trkpt lon="6.79528904" lat="50.60549164">
    <ele>219.8</ele>
    <time>2011-05-29T11:36:49.000Z</time>
   </trkpt>
   <trkpt lon="6.79521704" lat="50.60539246">
    <ele>219.8</ele>
    <time>2011-05-29T11:36:51.000Z</time>
   </trkpt>
   <trkpt lon="6.79519415" lat="50.60533905">
    <ele>219.32</ele>
    <time>2011-05-29T11:36:52.000Z</time>
   </trkpt>
   <trkpt lon="6.79504108" lat="50.60472488">
    <ele>219.32</ele>
    <time>2011-05-29T11:37:03.000Z</time>
   </trkpt>
   <trkpt lon="6.79505014" lat="50.60467148">
    <ele>219.32</ele>
    <time>2011-05-29T11:37:04.000Z</time>
   </trkpt>
   <trkpt lon="6.79507494" lat="50.60462189">
    <ele>219.32</ele>
    <time>2011-05-29T11:37:05.000Z</time>
   </trkpt>
   <trkpt lon="6.79510880" lat="50.60457230">
    <ele>218.84</ele>
    <time>2011-05-29T11:37:06.000Z</time>
   </trkpt>
   <trkpt lon="6.79514980" lat="50.60452271">
    <ele>218.84</ele>
    <time>2011-05-29T11:37:07.000Z</time>
   </trkpt>
   <trkpt lon="6.79519510" lat="50.60447311">
    <ele>218.36</ele>
    <time>2011-05-29T11:37:08.000Z</time>
   </trkpt>
   <trkpt lon="6.79552317" lat="50.60417938">
    <ele>217.88</ele>
    <time>2011-05-29T11:37:14.000Z</time>
   </trkpt>
   <trkpt lon="6.79563999" lat="50.60402298">
    <ele>217.88</ele>
    <time>2011-05-29T11:37:17.000Z</time>
   </trkpt>
   <trkpt lon="6.79587412" lat="50.60351562">
    <ele>219.32</ele>
    <time>2011-05-29T11:37:28.000Z</time>
   </trkpt>
   <trkpt lon="6.79610586" lat="50.60301971">
    <ele>220.28</ele>
    <time>2011-05-29T11:37:43.000Z</time>
   </trkpt>
   <trkpt lon="6.79613876" lat="50.60253525">
    <ele>219.8</ele>
    <time>2011-05-29T11:37:56.000Z</time>
   </trkpt>
   <trkpt lon="6.79617214" lat="50.60241318">
    <ele>218.84</ele>
    <time>2011-05-29T11:37:59.000Z</time>
   </trkpt>
   <trkpt lon="6.79621506" lat="50.60237122">
    <ele>218.84</ele>
    <time>2011-05-29T11:38:00.000Z</time>
   </trkpt>
   <trkpt lon="6.79627895" lat="50.60234451">
    <ele>219.32</ele>
    <time>2011-05-29T11:38:01.000Z</time>
   </trkpt>
   <trkpt lon="6.79638481" lat="50.60231781">
    <ele>220.28</ele>
    <time>2011-05-29T11:38:03.000Z</time>
   </trkpt>
   <trkpt lon="6.79683781" lat="50.60204315">
    <ele>220.76</ele>
    <time>2011-05-29T11:38:15.000Z</time>
   </trkpt>
   <trkpt lon="6.79694080" lat="50.60165787">
    <ele>220.76</ele>
    <time>2011-05-29T11:38:27.000Z</time>
   </trkpt>
   <trkpt lon="6.79670620" lat="50.60131073">
    <ele>221.24</ele>
    <time>2011-05-29T11:38:38.000Z</time>
   </trkpt>
   <trkpt lon="6.79640818" lat="50.60094833">
    <ele>221.24</ele>
    <time>2011-05-29T11:38:50.000Z</time>
   </trkpt>
   <trkpt lon="6.79642582" lat="50.60057068">
    <ele>222.68</ele>
    <time>2011-05-29T11:39:03.000Z</time>
   </trkpt>
   <trkpt lon="6.79644585" lat="50.60053635">
    <ele>222.68</ele>
    <time>2011-05-29T11:39:05.000Z</time>
   </trkpt>
   <trkpt lon="6.79645777" lat="50.60052109">
    <ele>223.16</ele>
    <time>2011-05-29T11:39:06.000Z</time>
   </trkpt>
   <trkpt lon="6.79646397" lat="50.60050201">
    <ele>223.16</ele>
    <time>2011-05-29T11:39:07.000Z</time>
   </trkpt>
   <trkpt lon="6.79646015" lat="50.60048676">
    <ele>222.68</ele>
    <time>2011-05-29T11:39:08.000Z</time>
   </trkpt>
   <trkpt lon="6.79644918" lat="50.60046768">
    <ele>222.68</ele>
    <time>2011-05-29T11:39:09.000Z</time>
   </trkpt>
   <trkpt lon="6.79643583" lat="50.60045624">
    <ele>222.68</ele>
    <time>2011-05-29T11:39:10.000Z</time>
   </trkpt>
   <trkpt lon="6.79642677" lat="50.60043716">
    <ele>222.68</ele>
    <time>2011-05-29T11:39:11.000Z</time>
   </trkpt>
   <trkpt lon="6.79642200" lat="50.60041046">
    <ele>222.68</ele>
    <time>2011-05-29T11:39:12.000Z</time>
   </trkpt>
   <trkpt lon="6.79642200" lat="50.60038757">
    <ele>222.2</ele>
    <time>2011-05-29T11:39:13.000Z</time>
   </trkpt>
   <trkpt lon="6.79642820" lat="50.60036087">
    <ele>222.2</ele>
    <time>2011-05-29T11:39:14.000Z</time>
   </trkpt>
   <trkpt lon="6.79643917" lat="50.60033035">
    <ele>222.68</ele>
    <time>2011-05-29T11:39:15.000Z</time>
   </trkpt>
   <trkpt lon="6.79644918" lat="50.60029602">
    <ele>222.2</ele>
    <time>2011-05-29T11:39:16.000Z</time>
   </trkpt>
   <trkpt lon="6.79654503" lat="50.59988022">
    <ele>221.72</ele>
    <time>2011-05-29T11:39:29.000Z</time>
   </trkpt>
   <trkpt lon="6.79616404" lat="50.59947586">
    <ele>222.2</ele>
    <time>2011-05-29T11:39:43.000Z</time>
   </trkpt>
   <trkpt lon="6.79556608" lat="50.59910583">
    <ele>223.16</ele>
    <time>2011-05-29T11:39:58.000Z</time>
   </trkpt>
   <trkpt lon="6.79517698" lat="50.59860229">
    <ele>223.16</ele>
    <time>2011-05-29T11:40:14.000Z</time>
   </trkpt>
   <trkpt lon="6.79487991" lat="50.59808350">
    <ele>224.61</ele>
    <time>2011-05-29T11:40:30.000Z</time>
   </trkpt>
   <trkpt lon="6.79459715" lat="50.59767151">
    <ele>223.64</ele>
    <time>2011-05-29T11:40:45.000Z</time>
   </trkpt>
   <trkpt lon="6.79458714" lat="50.59762955">
    <ele>225.09</ele>
    <time>2011-05-29T11:40:47.000Z</time>
   </trkpt>
   <trkpt lon="6.79451418" lat="50.59740448">
    <ele>224.61</ele>
    <time>2011-05-29T11:40:59.000Z</time>
   </trkpt>
   <trkpt lon="6.79401684" lat="50.59714127">
    <ele>224.61</ele>
    <time>2011-05-29T11:41:11.000Z</time>
   </trkpt>
   <trkpt lon="6.79340219" lat="50.59675598">
    <ele>225.57</ele>
    <time>2011-05-29T11:41:25.000Z</time>
   </trkpt>
   <trkpt lon="6.79303885" lat="50.59640884">
    <ele>226.05</ele>
    <time>2011-05-29T11:41:36.000Z</time>
   </trkpt>
   <trkpt lon="6.79300499" lat="50.59637451">
    <ele>226.05</ele>
    <time>2011-05-29T11:41:37.000Z</time>
   </trkpt>
   <trkpt lon="6.79297209" lat="50.59634399">
    <ele>226.05</ele>
    <time>2011-05-29T11:41:38.000Z</time>
   </trkpt>
   <trkpt lon="6.79294300" lat="50.59630585">
    <ele>226.05</ele>
    <time>2011-05-29T11:41:39.000Z</time>
   </trkpt>
   <trkpt lon="6.79292011" lat="50.59627151">
    <ele>226.05</ele>
    <time>2011-05-29T11:41:40.000Z</time>
   </trkpt>
   <trkpt lon="6.79247618" lat="50.59568024">
    <ele>225.57</ele>
    <time>2011-05-29T11:41:57.000Z</time>
   </trkpt>
   <trkpt lon="6.79201698" lat="50.59512711">
    <ele>226.53</ele>
    <time>2011-05-29T11:42:14.000Z</time>
   </trkpt>
   <trkpt lon="6.79155779" lat="50.59451675">
    <ele>227.97</ele>
    <time>2011-05-29T11:42:33.000Z</time>
   </trkpt>
   <trkpt lon="6.79110909" lat="50.59445572">
    <ele>227.01</ele>
    <time>2011-05-29T11:42:45.000Z</time>
   </trkpt>
   <trkpt lon="6.79051685" lat="50.59477997">
    <ele>226.53</ele>
    <time>2011-05-29T11:42:57.000Z</time>
   </trkpt>
   <trkpt lon="6.78982878" lat="50.59526825">
    <ele>227.49</ele>
    <time>2011-05-29T11:43:13.000Z</time>
   </trkpt>
   <trkpt lon="6.78887415" lat="50.59587860">
    <ele>227.49</ele>
    <time>2011-05-29T11:43:34.000Z</time>
   </trkpt>
   <trkpt lon="6.78777218" lat="50.59654617">
    <ele>227.97</ele>
    <time>2011-05-29T11:43:57.000Z</time>
   </trkpt>
   <trkpt lon="6.78724289" lat="50.59652710">
    <ele>227.97</ele>
    <time>2011-05-29T11:44:07.000Z</time>
   </trkpt>
   <trkpt lon="6.78661394" lat="50.59610748">
    <ele>227.97</ele>
    <time>2011-05-29T11:44:21.000Z</time>
   </trkpt>
   <trkpt lon="6.78606701" lat="50.59566116">
    <ele>228.93</ele>
    <time>2011-05-29T11:44:35.000Z</time>
   </trkpt>
   <trkpt lon="6.78542089" lat="50.59516144">
    <ele>228.93</ele>
    <time>2011-05-29T11:44:52.000Z</time>
   </trkpt>
   <trkpt lon="6.78477812" lat="50.59471512">
    <ele>229.41</ele>
    <time>2011-05-29T11:45:08.000Z</time>
   </trkpt>
   <trkpt lon="6.78423500" lat="50.59427261">
    <ele>230.37</ele>
    <time>2011-05-29T11:45:26.000Z</time>
   </trkpt>
   <trkpt lon="6.78406811" lat="50.59405136">
    <ele>231.33</ele>
    <time>2011-05-29T11:45:41.000Z</time>
   </trkpt>
   <trkpt lon="6.78409576" lat="50.59403992">
    <ele>231.33</ele>
    <time>2011-05-29T11:45:42.000Z</time>
   </trkpt>
   <trkpt lon="6.78413105" lat="50.59402084">
    <ele>230.85</ele>
    <time>2011-05-29T11:45:43.000Z</time>
   </trkpt>
   <trkpt lon="6.78415012" lat="50.59400177">
    <ele>230.85</ele>
    <time>2011-05-29T11:45:44.000Z</time>
   </trkpt>
   <trkpt lon="6.78415585" lat="50.59396744">
    <ele>230.85</ele>
    <time>2011-05-29T11:45:45.000Z</time>
   </trkpt>
   <trkpt lon="6.78415203" lat="50.59392929">
    <ele>230.85</ele>
    <time>2011-05-29T11:45:46.000Z</time>
   </trkpt>
   <trkpt lon="6.78413486" lat="50.59388733">
    <ele>230.37</ele>
    <time>2011-05-29T11:45:47.000Z</time>
   </trkpt>
   <trkpt lon="6.78411722" lat="50.59384918">
    <ele>230.85</ele>
    <time>2011-05-29T11:45:48.000Z</time>
   </trkpt>
   <trkpt lon="6.78380919" lat="50.59315491">
    <ele>231.33</ele>
    <time>2011-05-29T11:46:06.000Z</time>
   </trkpt>
   <trkpt lon="6.78342915" lat="50.59257507">
    <ele>232.3</ele>
    <time>2011-05-29T11:46:23.000Z</time>
   </trkpt>
   <trkpt lon="6.78304291" lat="50.59193039">
    <ele>232.78</ele>
    <time>2011-05-29T11:46:41.000Z</time>
   </trkpt>
   <trkpt lon="6.78300714" lat="50.59189987">
    <ele>233.26</ele>
    <time>2011-05-29T11:46:42.000Z</time>
   </trkpt>
   <trkpt lon="6.78296614" lat="50.59186554">
    <ele>233.74</ele>
    <time>2011-05-29T11:46:43.000Z</time>
   </trkpt>
   <trkpt lon="6.78291893" lat="50.59183884">
    <ele>232.78</ele>
    <time>2011-05-29T11:46:44.000Z</time>
   </trkpt>
   <trkpt lon="6.78287220" lat="50.59181213">
    <ele>233.26</ele>
    <time>2011-05-29T11:46:45.000Z</time>
   </trkpt>
   <trkpt lon="6.78179216" lat="50.59126282">
    <ele>234.22</ele>
    <time>2011-05-29T11:47:08.000Z</time>
   </trkpt>
   <trkpt lon="6.78111792" lat="50.59092331">
    <ele>234.7</ele>
    <time>2011-05-29T11:47:23.000Z</time>
   </trkpt>
   <trkpt lon="6.78043413" lat="50.59054947">
    <ele>235.66</ele>
    <time>2011-05-29T11:47:39.000Z</time>
   </trkpt>
   <trkpt lon="6.77969885" lat="50.59016037">
    <ele>236.14</ele>
    <time>2011-05-29T11:47:56.000Z</time>
   </trkpt>
   <trkpt lon="6.77892113" lat="50.58998489">
    <ele>237.1</ele>
    <time>2011-05-29T11:48:10.000Z</time>
   </trkpt>
   <trkpt lon="6.77797699" lat="50.58981323">
    <ele>237.58</ele>
    <time>2011-05-29T11:48:27.000Z</time>
   </trkpt>
   <trkpt lon="6.77749920" lat="50.58948898">
    <ele>238.06</ele>
    <time>2011-05-29T11:48:39.000Z</time>
   </trkpt>
   <trkpt lon="6.77715492" lat="50.58888626">
    <ele>238.54</ele>
    <time>2011-05-29T11:48:56.000Z</time>
   </trkpt>
   <trkpt lon="6.77677917" lat="50.58842087">
    <ele>239.02</ele>
    <time>2011-05-29T11:49:11.000Z</time>
   </trkpt>
   <trkpt lon="6.77618504" lat="50.58780670">
    <ele>240.47</ele>
    <time>2011-05-29T11:49:32.000Z</time>
   </trkpt>
   <trkpt lon="6.77565098" lat="50.58730316">
    <ele>240.47</ele>
    <time>2011-05-29T11:49:49.000Z</time>
   </trkpt>
   <trkpt lon="6.77507782" lat="50.58684921">
    <ele>241.43</ele>
    <time>2011-05-29T11:50:06.000Z</time>
   </trkpt>
   <trkpt lon="6.77439785" lat="50.58641434">
    <ele>242.39</ele>
    <time>2011-05-29T11:50:24.000Z</time>
   </trkpt>
   <trkpt lon="6.77381802" lat="50.58606339">
    <ele>243.35</ele>
    <time>2011-05-29T11:50:41.000Z</time>
   </trkpt>
   <trkpt lon="6.77323103" lat="50.58569717">
    <ele>243.83</ele>
    <time>2011-05-29T11:50:59.000Z</time>
   </trkpt>
   <trkpt lon="6.77270412" lat="50.58534241">
    <ele>244.31</ele>
    <time>2011-05-29T11:51:16.000Z</time>
   </trkpt>
   <trkpt lon="6.77215576" lat="50.58501053">
    <ele>244.31</ele>
    <time>2011-05-29T11:51:30.000Z</time>
   </trkpt>
   <trkpt lon="6.77165604" lat="50.58457184">
    <ele>244.31</ele>
    <time>2011-05-29T11:51:46.000Z</time>
   </trkpt>
   <trkpt lon="6.77123308" lat="50.58423615">
    <ele>244.31</ele>
    <time>2011-05-29T11:51:59.000Z</time>
   </trkpt>
   <trkpt lon="6.77072287" lat="50.58374786">
    <ele>244.31</ele>
    <time>2011-05-29T11:52:17.000Z</time>
   </trkpt>
   <trkpt lon="6.77040577" lat="50.58336639">
    <ele>245.27</ele>
    <time>2011-05-29T11:52:31.000Z</time>
   </trkpt>
   <trkpt lon="6.77023411" lat="50.58287811">
    <ele>245.75</ele>
    <time>2011-05-29T11:52:47.000Z</time>
   </trkpt>
   <trkpt lon="6.77012587" lat="50.58236694">
    <ele>246.23</ele>
    <time>2011-05-29T11:53:03.000Z</time>
   </trkpt>
   <trkpt lon="6.77021694" lat="50.58185959">
    <ele>246.72</ele>
    <time>2011-05-29T11:53:19.000Z</time>
   </trkpt>
   <trkpt lon="6.77039719" lat="50.58163834">
    <ele>246.72</ele>
    <time>2011-05-29T11:53:31.000Z</time>
   </trkpt>
   <trkpt lon="6.77039909" lat="50.58163834">
    <ele>247.2</ele>
    <time>2011-05-29T11:53:51.000Z</time>
   </trkpt>
   <trkpt lon="6.77038002" lat="50.58160782">
    <ele>247.2</ele>
    <time>2011-05-29T11:54:19.000Z</time>
   </trkpt>
   <trkpt lon="6.77037621" lat="50.58159637">
    <ele>247.2</ele>
    <time>2011-05-29T11:54:20.000Z</time>
   </trkpt>
   <trkpt lon="6.77029610" lat="50.58144379">
    <ele>246.72</ele>
    <time>2011-05-29T11:54:26.000Z</time>
   </trkpt>
   <trkpt lon="6.77023220" lat="50.58098602">
    <ele>247.2</ele>
    <time>2011-05-29T11:54:39.000Z</time>
   </trkpt>
   <trkpt lon="6.77075911" lat="50.58058167">
    <ele>247.68</ele>
    <time>2011-05-29T11:54:53.000Z</time>
   </trkpt>
   <trkpt lon="6.77069712" lat="50.58022690">
    <ele>248.64</ele>
    <time>2011-05-29T11:55:04.000Z</time>
   </trkpt>
   <trkpt lon="6.77048397" lat="50.57976913">
    <ele>250.08</ele>
    <time>2011-05-29T11:55:21.000Z</time>
   </trkpt>
   <trkpt lon="6.77037477" lat="50.57933807">
    <ele>251.04</ele>
    <time>2011-05-29T11:55:38.000Z</time>
   </trkpt>
   <trkpt lon="6.77034616" lat="50.57889938">
    <ele>251.52</ele>
    <time>2011-05-29T11:55:54.000Z</time>
   </trkpt>
   <trkpt lon="6.77032089" lat="50.57848358">
    <ele>252.48</ele>
    <time>2011-05-29T11:56:10.000Z</time>
   </trkpt>
   <trkpt lon="6.77025223" lat="50.57807922">
    <ele>254.89</ele>
    <time>2011-05-29T11:56:28.000Z</time>
   </trkpt>
   <trkpt lon="6.77025318" lat="50.57803726">
    <ele>254.41</ele>
    <time>2011-05-29T11:56:42.000Z</time>
   </trkpt>
   <trkpt lon="6.77023220" lat="50.57793427">
    <ele>254.41</ele>
    <time>2011-05-29T11:56:58.000Z</time>
   </trkpt>
   <trkpt lon="6.77014685" lat="50.57751846">
    <ele>256.33</ele>
    <time>2011-05-29T11:57:16.000Z</time>
   </trkpt>
   <trkpt lon="6.77010107" lat="50.57730484">
    <ele>258.25</ele>
    <time>2011-05-29T11:57:28.000Z</time>
   </trkpt>
   <trkpt lon="6.77003002" lat="50.57697296">
    <ele>260.17</ele>
    <time>2011-05-29T11:57:47.000Z</time>
   </trkpt>
   <trkpt lon="6.76983309" lat="50.57669067">
    <ele>261.62</ele>
    <time>2011-05-29T11:58:02.000Z</time>
   </trkpt>
   <trkpt lon="6.76945400" lat="50.57627869">
    <ele>263.06</ele>
    <time>2011-05-29T11:58:21.000Z</time>
   </trkpt>
   <trkpt lon="6.76907110" lat="50.57582855">
    <ele>264.98</ele>
    <time>2011-05-29T11:58:40.000Z</time>
   </trkpt>
   <trkpt lon="6.76890993" lat="50.57552338">
    <ele>265.94</ele>
    <time>2011-05-29T11:58:55.000Z</time>
   </trkpt>
   <trkpt lon="6.76874208" lat="50.57519913">
    <ele>268.35</ele>
    <time>2011-05-29T11:59:12.000Z</time>
   </trkpt>
   <trkpt lon="6.76859713" lat="50.57495880">
    <ele>270.27</ele>
    <time>2011-05-29T11:59:27.000Z</time>
   </trkpt>
   <trkpt lon="6.76846313" lat="50.57469559">
    <ele>271.23</ele>
    <time>2011-05-29T11:59:43.000Z</time>
   </trkpt>
   <trkpt lon="6.76834488" lat="50.57446671">
    <ele>272.19</ele>
    <time>2011-05-29T11:59:57.000Z</time>
   </trkpt>
   <trkpt lon="6.76817608" lat="50.57419205">
    <ele>273.63</ele>
    <time>2011-05-29T12:00:13.000Z</time>
   </trkpt>
   <trkpt lon="6.76792383" lat="50.57375336">
    <ele>274.11</ele>
    <time>2011-05-29T12:00:34.000Z</time>
   </trkpt>
   <trkpt lon="6.76768780" lat="50.57337952">
    <ele>272.67</ele>
    <time>2011-05-29T12:00:46.000Z</time>
   </trkpt>
   <trkpt lon="6.76726484" lat="50.57294083">
    <ele>272.67</ele>
    <time>2011-05-29T12:01:00.000Z</time>
   </trkpt>
   <trkpt lon="6.76716518" lat="50.57289505">
    <ele>270.27</ele>
    <time>2011-05-29T12:01:02.000Z</time>
   </trkpt>
   <trkpt lon="6.76696205" lat="50.57280731">
    <ele>273.15</ele>
    <time>2011-05-29T12:01:06.000Z</time>
   </trkpt>
   <trkpt lon="6.76635218" lat="50.57256699">
    <ele>270.75</ele>
    <time>2011-05-29T12:01:15.000Z</time>
   </trkpt>
   <trkpt lon="6.76627779" lat="50.57252121">
    <ele>270.27</ele>
    <time>2011-05-29T12:01:16.000Z</time>
   </trkpt>
   <trkpt lon="6.76620722" lat="50.57247162">
    <ele>269.79</ele>
    <time>2011-05-29T12:01:17.000Z</time>
   </trkpt>
   <trkpt lon="6.76613998" lat="50.57241440">
    <ele>269.31</ele>
    <time>2011-05-29T12:01:18.000Z</time>
   </trkpt>
   <trkpt lon="6.76607323" lat="50.57235718">
    <ele>268.83</ele>
    <time>2011-05-29T12:01:19.000Z</time>
   </trkpt>
   <trkpt lon="6.76577806" lat="50.57207108">
    <ele>265.46</ele>
    <time>2011-05-29T12:01:23.000Z</time>
   </trkpt>
   <trkpt lon="6.76562977" lat="50.57191849">
    <ele>264.5</ele>
    <time>2011-05-29T12:01:25.000Z</time>
   </trkpt>
   <trkpt lon="6.76551294" lat="50.57172775">
    <ele>263.54</ele>
    <time>2011-05-29T12:01:27.000Z</time>
   </trkpt>
   <trkpt lon="6.76514196" lat="50.57086945">
    <ele>262.58</ele>
    <time>2011-05-29T12:01:39.000Z</time>
   </trkpt>
   <trkpt lon="6.76514101" lat="50.57081223">
    <ele>263.06</ele>
    <time>2011-05-29T12:01:40.000Z</time>
   </trkpt>
   <trkpt lon="6.76515722" lat="50.57075500">
    <ele>263.54</ele>
    <time>2011-05-29T12:01:41.000Z</time>
   </trkpt>
   <trkpt lon="6.76517677" lat="50.57069778">
    <ele>262.58</ele>
    <time>2011-05-29T12:01:42.000Z</time>
   </trkpt>
   <trkpt lon="6.76519203" lat="50.57058334">
    <ele>262.58</ele>
    <time>2011-05-29T12:01:44.000Z</time>
   </trkpt>
   <trkpt lon="6.76520586" lat="50.57016373">
    <ele>263.06</ele>
    <time>2011-05-29T12:01:52.000Z</time>
   </trkpt>
   <trkpt lon="6.76521206" lat="50.57011032">
    <ele>263.06</ele>
    <time>2011-05-29T12:01:53.000Z</time>
   </trkpt>
   <trkpt lon="6.76520777" lat="50.56995392">
    <ele>263.54</ele>
    <time>2011-05-29T12:01:56.000Z</time>
   </trkpt>
   <trkpt lon="6.76519299" lat="50.56990433">
    <ele>263.54</ele>
    <time>2011-05-29T12:01:57.000Z</time>
   </trkpt>
   <trkpt lon="6.76508188" lat="50.56966019">
    <ele>263.54</ele>
    <time>2011-05-29T12:02:02.000Z</time>
   </trkpt>
   <trkpt lon="6.76505184" lat="50.56961441">
    <ele>263.06</ele>
    <time>2011-05-29T12:02:03.000Z</time>
   </trkpt>
   <trkpt lon="6.76496696" lat="50.56946564">
    <ele>263.06</ele>
    <time>2011-05-29T12:02:06.000Z</time>
   </trkpt>
   <trkpt lon="6.76474905" lat="50.56886673">
    <ele>263.54</ele>
    <time>2011-05-29T12:02:18.000Z</time>
   </trkpt>
   <trkpt lon="6.76467800" lat="50.56856155">
    <ele>264.98</ele>
    <time>2011-05-29T12:02:27.000Z</time>
   </trkpt>
   <trkpt lon="6.76464987" lat="50.56853867">
    <ele>264.5</ele>
    <time>2011-05-29T12:02:28.000Z</time>
   </trkpt>
   <trkpt lon="6.76460695" lat="50.56853485">
    <ele>264.98</ele>
    <time>2011-05-29T12:02:29.000Z</time>
   </trkpt>
   <trkpt lon="6.76456118" lat="50.56853485">
    <ele>264.5</ele>
    <time>2011-05-29T12:02:30.000Z</time>
   </trkpt>
   <trkpt lon="6.76451302" lat="50.56853104">
    <ele>264.98</ele>
    <time>2011-05-29T12:02:31.000Z</time>
   </trkpt>
   <trkpt lon="6.76437998" lat="50.56852722">
    <ele>264.5</ele>
    <time>2011-05-29T12:02:34.000Z</time>
   </trkpt>
   <trkpt lon="6.76436090" lat="50.56850815">
    <ele>264.5</ele>
    <time>2011-05-29T12:02:35.000Z</time>
   </trkpt>
   <trkpt lon="6.76448202" lat="50.56821060">
    <ele>264.98</ele>
    <time>2011-05-29T12:02:47.000Z</time>
   </trkpt>
   <trkpt lon="6.76443386" lat="50.56792068">
    <ele>265.46</ele>
    <time>2011-05-29T12:02:58.000Z</time>
   </trkpt>
   <trkpt lon="6.76408100" lat="50.56753540">
    <ele>265.46</ele>
    <time>2011-05-29T12:03:11.000Z</time>
   </trkpt>
   <trkpt lon="6.76392508" lat="50.56683731">
    <ele>265.94</ele>
    <time>2011-05-29T12:03:28.000Z</time>
   </trkpt>
   <trkpt lon="6.76403522" lat="50.56618881">
    <ele>266.9</ele>
    <time>2011-05-29T12:03:45.000Z</time>
   </trkpt>
   <trkpt lon="6.76421022" lat="50.56556320">
    <ele>266.42</ele>
    <time>2011-05-29T12:04:02.000Z</time>
   </trkpt>
   <trkpt lon="6.76427889" lat="50.56497574">
    <ele>267.38</ele>
    <time>2011-05-29T12:04:19.000Z</time>
   </trkpt>
   <trkpt lon="6.76427984" lat="50.56452179">
    <ele>267.86</ele>
    <time>2011-05-29T12:04:32.000Z</time>
   </trkpt>
   <trkpt lon="6.76429176" lat="50.56406403">
    <ele>268.35</ele>
    <time>2011-05-29T12:04:45.000Z</time>
   </trkpt>
   <trkpt lon="6.76407099" lat="50.56360245">
    <ele>269.31</ele>
    <time>2011-05-29T12:05:00.000Z</time>
   </trkpt>
   <trkpt lon="6.76385498" lat="50.56314087">
    <ele>270.27</ele>
    <time>2011-05-29T12:05:17.000Z</time>
   </trkpt>
   <trkpt lon="6.76371193" lat="50.56290054">
    <ele>271.23</ele>
    <time>2011-05-29T12:05:30.000Z</time>
   </trkpt>
   <trkpt lon="6.76366091" lat="50.56289673">
    <ele>271.71</ele>
    <time>2011-05-29T12:05:31.000Z</time>
   </trkpt>
   <trkpt lon="6.76361895" lat="50.56289673">
    <ele>271.23</ele>
    <time>2011-05-29T12:05:32.000Z</time>
   </trkpt>
   <trkpt lon="6.76334476" lat="50.56275558">
    <ele>273.15</ele>
    <time>2011-05-29T12:05:46.000Z</time>
   </trkpt>
   <trkpt lon="6.76314020" lat="50.56240082">
    <ele>273.63</ele>
    <time>2011-05-29T12:06:01.000Z</time>
   </trkpt>
   <trkpt lon="6.76300716" lat="50.56193542">
    <ele>275.07</ele>
    <time>2011-05-29T12:06:20.000Z</time>
   </trkpt>
   <trkpt lon="6.76315689" lat="50.56159973">
    <ele>274.11</ele>
    <time>2011-05-29T12:06:30.000Z</time>
   </trkpt>
   <trkpt lon="6.76319408" lat="50.56156540">
    <ele>274.11</ele>
    <time>2011-05-29T12:06:31.000Z</time>
   </trkpt>
   <trkpt lon="6.76330614" lat="50.56145477">
    <ele>274.59</ele>
    <time>2011-05-29T12:06:34.000Z</time>
   </trkpt>
   <trkpt lon="6.76389217" lat="50.56084442">
    <ele>273.15</ele>
    <time>2011-05-29T12:06:48.000Z</time>
   </trkpt>
   <trkpt lon="6.76451921" lat="50.56021118">
    <ele>273.15</ele>
    <time>2011-05-29T12:07:04.000Z</time>
   </trkpt>
   <trkpt lon="6.76496696" lat="50.55975723">
    <ele>273.63</ele>
    <time>2011-05-29T12:07:17.000Z</time>
   </trkpt>
   <trkpt lon="6.76502895" lat="50.55967712">
    <ele>273.63</ele>
    <time>2011-05-29T12:07:19.000Z</time>
   </trkpt>
   <trkpt lon="6.76505184" lat="50.55963516">
    <ele>273.63</ele>
    <time>2011-05-29T12:07:20.000Z</time>
   </trkpt>
   <trkpt lon="6.76506901" lat="50.55959320">
    <ele>273.63</ele>
    <time>2011-05-29T12:07:21.000Z</time>
   </trkpt>
   <trkpt lon="6.76508999" lat="50.55951691">
    <ele>273.15</ele>
    <time>2011-05-29T12:07:23.000Z</time>
   </trkpt>
   <trkpt lon="6.76509523" lat="50.55947495">
    <ele>273.15</ele>
    <time>2011-05-29T12:07:24.000Z</time>
   </trkpt>
   <trkpt lon="6.76509523" lat="50.55943298">
    <ele>273.63</ele>
    <time>2011-05-29T12:07:25.000Z</time>
   </trkpt>
   <trkpt lon="6.76510191" lat="50.55885315">
    <ele>274.59</ele>
    <time>2011-05-29T12:07:42.000Z</time>
   </trkpt>
   <trkpt lon="6.76507807" lat="50.55835724">
    <ele>276.04</ele>
    <time>2011-05-29T12:07:59.000Z</time>
   </trkpt>
   <trkpt lon="6.76510096" lat="50.55787659">
    <ele>276.52</ele>
    <time>2011-05-29T12:08:18.000Z</time>
   </trkpt>
   <trkpt lon="6.76509905" lat="50.55749130">
    <ele>277.96</ele>
    <time>2011-05-29T12:08:34.000Z</time>
   </trkpt>
   <trkpt lon="6.76485395" lat="50.55735016">
    <ele>279.4</ele>
    <time>2011-05-29T12:08:46.000Z</time>
   </trkpt>
   <trkpt lon="6.76438808" lat="50.55740738">
    <ele>280.36</ele>
    <time>2011-05-29T12:09:02.000Z</time>
   </trkpt>
   <trkpt lon="6.76390791" lat="50.55740738">
    <ele>281.8</ele>
    <time>2011-05-29T12:09:20.000Z</time>
   </trkpt>
   <trkpt lon="6.76341295" lat="50.55740738">
    <ele>283.25</ele>
    <time>2011-05-29T12:09:38.000Z</time>
   </trkpt>
   <trkpt lon="6.76308012" lat="50.55737686">
    <ele>285.17</ele>
    <time>2011-05-29T12:09:51.000Z</time>
   </trkpt>
   <trkpt lon="6.76306677" lat="50.55736160">
    <ele>285.17</ele>
    <time>2011-05-29T12:09:52.000Z</time>
   </trkpt>
   <trkpt lon="6.76306200" lat="50.55734634">
    <ele>285.17</ele>
    <time>2011-05-29T12:09:53.000Z</time>
   </trkpt>
   <trkpt lon="6.76305819" lat="50.55732727">
    <ele>284.69</ele>
    <time>2011-05-29T12:09:54.000Z</time>
   </trkpt>
   <trkpt lon="6.76305723" lat="50.55730820">
    <ele>285.17</ele>
    <time>2011-05-29T12:09:55.000Z</time>
   </trkpt>
   <trkpt lon="6.76302910" lat="50.55691147">
    <ele>283.25</ele>
    <time>2011-05-29T12:10:10.000Z</time>
   </trkpt>
   <trkpt lon="6.76289082" lat="50.55633163">
    <ele>282.77</ele>
    <time>2011-05-29T12:10:26.000Z</time>
   </trkpt>
   <trkpt lon="6.76269722" lat="50.55586624">
    <ele>283.73</ele>
    <time>2011-05-29T12:10:42.000Z</time>
   </trkpt>
   <trkpt lon="6.76259089" lat="50.55553055">
    <ele>284.21</ele>
    <time>2011-05-29T12:10:57.000Z</time>
   </trkpt>
   <trkpt lon="6.76245022" lat="50.55525970">
    <ele>284.69</ele>
    <time>2011-05-29T12:11:13.000Z</time>
   </trkpt>
   <trkpt lon="6.76244402" lat="50.55525589">
    <ele>284.69</ele>
    <time>2011-05-29T12:11:30.000Z</time>
   </trkpt>
   <trkpt lon="6.76244402" lat="50.55525970">
    <ele>284.69</ele>
    <time>2011-05-29T12:11:56.000Z</time>
   </trkpt>
   <trkpt lon="6.76233482" lat="50.55477905">
    <ele>285.17</ele>
    <time>2011-05-29T12:20:33.000Z</time>
   </trkpt>
   <trkpt lon="6.76239681" lat="50.55459595">
    <ele>284.69</ele>
    <time>2011-05-29T12:20:38.000Z</time>
   </trkpt>
   <trkpt lon="6.76241589" lat="50.55449677">
    <ele>284.69</ele>
    <time>2011-05-29T12:20:40.000Z</time>
   </trkpt>
   <trkpt lon="6.76234007" lat="50.55429459">
    <ele>284.69</ele>
    <time>2011-05-29T12:20:45.000Z</time>
   </trkpt>
   <trkpt lon="6.76217222" lat="50.55428314">
    <ele>285.17</ele>
    <time>2011-05-29T12:20:49.000Z</time>
   </trkpt>
   <trkpt lon="6.76213980" lat="50.55429459">
    <ele>285.17</ele>
    <time>2011-05-29T12:20:50.000Z</time>
   </trkpt>
   <trkpt lon="6.76211023" lat="50.55430984">
    <ele>285.65</ele>
    <time>2011-05-29T12:20:51.000Z</time>
   </trkpt>
   <trkpt lon="6.76207781" lat="50.55432129">
    <ele>285.65</ele>
    <time>2011-05-29T12:20:52.000Z</time>
   </trkpt>
   <trkpt lon="6.76183319" lat="50.55436707">
    <ele>287.09</ele>
    <time>2011-05-29T12:21:00.000Z</time>
   </trkpt>
   <trkpt lon="6.76164722" lat="50.55403137">
    <ele>288.53</ele>
    <time>2011-05-29T12:21:13.000Z</time>
   </trkpt>
   <trkpt lon="6.76140308" lat="50.55373764">
    <ele>288.53</ele>
    <time>2011-05-29T12:21:27.000Z</time>
   </trkpt>
   <trkpt lon="6.76124191" lat="50.55348587">
    <ele>289.01</ele>
    <time>2011-05-29T12:21:41.000Z</time>
   </trkpt>
   <trkpt lon="6.76110411" lat="50.55333328">
    <ele>287.57</ele>
    <time>2011-05-29T12:21:49.000Z</time>
   </trkpt>
   <trkpt lon="6.76101303" lat="50.55328369">
    <ele>290.94</ele>
    <time>2011-05-29T12:21:53.000Z</time>
   </trkpt>
   <trkpt lon="6.76099586" lat="50.55327225">
    <ele>290.46</ele>
    <time>2011-05-29T12:21:54.000Z</time>
   </trkpt>
   <trkpt lon="6.76094580" lat="50.55322266">
    <ele>290.94</ele>
    <time>2011-05-29T12:21:58.000Z</time>
   </trkpt>
   <trkpt lon="6.76093102" lat="50.55321884">
    <ele>290.94</ele>
    <time>2011-05-29T12:21:59.000Z</time>
   </trkpt>
   <trkpt lon="6.76092100" lat="50.55324936">
    <ele>289.49</ele>
    <time>2011-05-29T12:22:05.000Z</time>
   </trkpt>
   <trkpt lon="6.76096582" lat="50.55330276">
    <ele>290.46</ele>
    <time>2011-05-29T12:22:22.000Z</time>
   </trkpt>
   <trkpt lon="6.76096582" lat="50.55330276">
    <ele>291.42</ele>
    <time>2011-05-29T12:22:45.000Z</time>
   </trkpt>
   <trkpt lon="6.76094723" lat="50.55326843">
    <ele>290.46</ele>
    <time>2011-05-29T12:23:08.000Z</time>
   </trkpt>
   <trkpt lon="6.76095009" lat="50.55324936">
    <ele>290.94</ele>
    <time>2011-05-29T12:23:27.000Z</time>
   </trkpt>
   <trkpt lon="6.76094818" lat="50.55322266">
    <ele>290.94</ele>
    <time>2011-05-29T12:23:30.000Z</time>
   </trkpt>
   <trkpt lon="6.76093388" lat="50.55321121">
    <ele>291.42</ele>
    <time>2011-05-29T12:23:31.000Z</time>
   </trkpt>
   <trkpt lon="6.76080894" lat="50.55303955">
    <ele>292.38</ele>
    <time>2011-05-29T12:23:45.000Z</time>
   </trkpt>
   <trkpt lon="6.76071405" lat="50.55279160">
    <ele>294.78</ele>
    <time>2011-05-29T12:24:03.000Z</time>
   </trkpt>
   <trkpt lon="6.76057720" lat="50.55260086">
    <ele>297.18</ele>
    <time>2011-05-29T12:24:19.000Z</time>
   </trkpt>
   <trkpt lon="6.76051521" lat="50.55240250">
    <ele>299.11</ele>
    <time>2011-05-29T12:24:33.000Z</time>
   </trkpt>
   <trkpt lon="6.76046181" lat="50.55216217">
    <ele>301.51</ele>
    <time>2011-05-29T12:24:50.000Z</time>
   </trkpt>
   <trkpt lon="6.76032782" lat="50.55185318">
    <ele>301.03</ele>
    <time>2011-05-29T12:25:04.000Z</time>
   </trkpt>
   <trkpt lon="6.76011515" lat="50.55142975">
    <ele>300.07</ele>
    <time>2011-05-29T12:25:17.000Z</time>
   </trkpt>
   <trkpt lon="6.76007700" lat="50.55129623">
    <ele>299.59</ele>
    <time>2011-05-29T12:25:20.000Z</time>
   </trkpt>
   <trkpt lon="6.76006603" lat="50.55125046">
    <ele>299.59</ele>
    <time>2011-05-29T12:25:21.000Z</time>
   </trkpt>
   <trkpt lon="6.76005316" lat="50.55120468">
    <ele>299.11</ele>
    <time>2011-05-29T12:25:22.000Z</time>
   </trkpt>
   <trkpt lon="6.76002216" lat="50.55100250">
    <ele>298.63</ele>
    <time>2011-05-29T12:25:26.000Z</time>
   </trkpt>
   <trkpt lon="6.76005220" lat="50.55033112">
    <ele>297.18</ele>
    <time>2011-05-29T12:25:40.000Z</time>
   </trkpt>
   <trkpt lon="6.76014090" lat="50.54983902">
    <ele>296.22</ele>
    <time>2011-05-29T12:25:54.000Z</time>
   </trkpt>
   <trkpt lon="6.76047182" lat="50.54924011">
    <ele>295.74</ele>
    <time>2011-05-29T12:26:07.000Z</time>
   </trkpt>
   <trkpt lon="6.76062298" lat="50.54892731">
    <ele>295.26</ele>
    <time>2011-05-29T12:26:14.000Z</time>
   </trkpt>
   <trkpt lon="6.76103020" lat="50.54846954">
    <ele>295.74</ele>
    <time>2011-05-29T12:26:27.000Z</time>
   </trkpt>
   <trkpt lon="6.76143122" lat="50.54788971">
    <ele>295.26</ele>
    <time>2011-05-29T12:26:42.000Z</time>
   </trkpt>
   <trkpt lon="6.76145887" lat="50.54747772">
    <ele>295.74</ele>
    <time>2011-05-29T12:26:54.000Z</time>
   </trkpt>
   <trkpt lon="6.76154089" lat="50.54711533">
    <ele>296.7</ele>
    <time>2011-05-29T12:27:07.000Z</time>
   </trkpt>
   <trkpt lon="6.76169109" lat="50.54671478">
    <ele>298.15</ele>
    <time>2011-05-29T12:27:24.000Z</time>
   </trkpt>
   <trkpt lon="6.76184082" lat="50.54638672">
    <ele>300.07</ele>
    <time>2011-05-29T12:27:41.000Z</time>
   </trkpt>
   <trkpt lon="6.76186991" lat="50.54632187">
    <ele>302.47</ele>
    <time>2011-05-29T12:27:45.000Z</time>
   </trkpt>
   <trkpt lon="6.76188803" lat="50.54622650">
    <ele>301.99</ele>
    <time>2011-05-29T12:27:51.000Z</time>
   </trkpt>
   <trkpt lon="6.76189995" lat="50.54621124">
    <ele>303.43</ele>
    <time>2011-05-29T12:27:52.000Z</time>
   </trkpt>
   <trkpt lon="6.76191282" lat="50.54619980">
    <ele>302.95</ele>
    <time>2011-05-29T12:27:53.000Z</time>
   </trkpt>
   <trkpt lon="6.76191902" lat="50.54618835">
    <ele>303.43</ele>
    <time>2011-05-29T12:27:54.000Z</time>
   </trkpt>
   <trkpt lon="6.76192093" lat="50.54617310">
    <ele>302.95</ele>
    <time>2011-05-29T12:27:55.000Z</time>
   </trkpt>
   <trkpt lon="6.76192522" lat="50.54616165">
    <ele>303.43</ele>
    <time>2011-05-29T12:27:56.000Z</time>
   </trkpt>
   <trkpt lon="6.76197577" lat="50.54600525">
    <ele>304.88</ele>
    <time>2011-05-29T12:28:10.000Z</time>
   </trkpt>
   <trkpt lon="6.76200485" lat="50.54595184">
    <ele>305.84</ele>
    <time>2011-05-29T12:28:15.000Z</time>
   </trkpt>
   <trkpt lon="6.76203299" lat="50.54593277">
    <ele>306.32</ele>
    <time>2011-05-29T12:28:17.000Z</time>
   </trkpt>
   <trkpt lon="6.76203585" lat="50.54591751">
    <ele>305.84</ele>
    <time>2011-05-29T12:28:18.000Z</time>
   </trkpt>
   <trkpt lon="6.76203394" lat="50.54590607">
    <ele>306.32</ele>
    <time>2011-05-29T12:28:19.000Z</time>
   </trkpt>
   <trkpt lon="6.76203012" lat="50.54589081">
    <ele>306.8</ele>
    <time>2011-05-29T12:28:20.000Z</time>
   </trkpt>
   <trkpt lon="6.76202297" lat="50.54587936">
    <ele>306.32</ele>
    <time>2011-05-29T12:28:21.000Z</time>
   </trkpt>
   <trkpt lon="6.76201677" lat="50.54586029">
    <ele>306.32</ele>
    <time>2011-05-29T12:28:23.000Z</time>
   </trkpt>
   <trkpt lon="6.76201916" lat="50.54584885">
    <ele>306.8</ele>
    <time>2011-05-29T12:28:24.000Z</time>
   </trkpt>
   <trkpt lon="6.76202583" lat="50.54583740">
    <ele>306.8</ele>
    <time>2011-05-29T12:28:25.000Z</time>
   </trkpt>
   <trkpt lon="6.76204014" lat="50.54581070">
    <ele>307.28</ele>
    <time>2011-05-29T12:28:27.000Z</time>
   </trkpt>
   <trkpt lon="6.76204205" lat="50.54579544">
    <ele>307.28</ele>
    <time>2011-05-29T12:28:28.000Z</time>
   </trkpt>
   <trkpt lon="6.76205111" lat="50.54578018">
    <ele>307.28</ele>
    <time>2011-05-29T12:28:29.000Z</time>
   </trkpt>
   <trkpt lon="6.76205778" lat="50.54576111">
    <ele>307.76</ele>
    <time>2011-05-29T12:28:30.000Z</time>
   </trkpt>
   <trkpt lon="6.76206303" lat="50.54574203">
    <ele>307.76</ele>
    <time>2011-05-29T12:28:31.000Z</time>
   </trkpt>
   <trkpt lon="6.76213789" lat="50.54552460">
    <ele>309.68</ele>
    <time>2011-05-29T12:28:48.000Z</time>
   </trkpt>
   <trkpt lon="6.76221514" lat="50.54528809">
    <ele>312.57</ele>
    <time>2011-05-29T12:29:02.000Z</time>
   </trkpt>
   <trkpt lon="6.76233578" lat="50.54507065">
    <ele>313.53</ele>
    <time>2011-05-29T12:29:19.000Z</time>
   </trkpt>
   <trkpt lon="6.76250076" lat="50.54490280">
    <ele>314.97</ele>
    <time>2011-05-29T12:29:34.000Z</time>
   </trkpt>
   <trkpt lon="6.76268578" lat="50.54467773">
    <ele>317.37</ele>
    <time>2011-05-29T12:29:50.000Z</time>
   </trkpt>
   <trkpt lon="6.76290703" lat="50.54446411">
    <ele>319.3</ele>
    <time>2011-05-29T12:30:08.000Z</time>
   </trkpt>
   <trkpt lon="6.76312208" lat="50.54423141">
    <ele>320.74</ele>
    <time>2011-05-29T12:30:25.000Z</time>
   </trkpt>
   <trkpt lon="6.76330280" lat="50.54397964">
    <ele>322.18</ele>
    <time>2011-05-29T12:30:43.000Z</time>
   </trkpt>
   <trkpt lon="6.76335287" lat="50.54389572">
    <ele>322.66</ele>
    <time>2011-05-29T12:30:48.000Z</time>
   </trkpt>
   <trkpt lon="6.76354504" lat="50.54365158">
    <ele>325.54</ele>
    <time>2011-05-29T12:31:04.000Z</time>
   </trkpt>
   <trkpt lon="6.76374102" lat="50.54343796">
    <ele>327.47</ele>
    <time>2011-05-29T12:31:21.000Z</time>
   </trkpt>
   <trkpt lon="6.76395988" lat="50.54320145">
    <ele>328.91</ele>
    <time>2011-05-29T12:31:39.000Z</time>
   </trkpt>
   <trkpt lon="6.76403809" lat="50.54299927">
    <ele>330.83</ele>
    <time>2011-05-29T12:31:53.000Z</time>
   </trkpt>
   <trkpt lon="6.76419497" lat="50.54272842">
    <ele>332.27</ele>
    <time>2011-05-29T12:32:10.000Z</time>
   </trkpt>
   <trkpt lon="6.76420784" lat="50.54271317">
    <ele>331.79</ele>
    <time>2011-05-29T12:32:11.000Z</time>
   </trkpt>
   <trkpt lon="6.76422310" lat="50.54270172">
    <ele>332.27</ele>
    <time>2011-05-29T12:32:12.000Z</time>
   </trkpt>
   <trkpt lon="6.76423693" lat="50.54269028">
    <ele>332.27</ele>
    <time>2011-05-29T12:32:13.000Z</time>
   </trkpt>
   <trkpt lon="6.76425505" lat="50.54268265">
    <ele>332.75</ele>
    <time>2011-05-29T12:32:14.000Z</time>
   </trkpt>
   <trkpt lon="6.76427412" lat="50.54267120">
    <ele>332.27</ele>
    <time>2011-05-29T12:32:15.000Z</time>
   </trkpt>
   <trkpt lon="6.76429319" lat="50.54266357">
    <ele>332.75</ele>
    <time>2011-05-29T12:32:16.000Z</time>
   </trkpt>
   <trkpt lon="6.76452923" lat="50.54248810">
    <ele>334.2</ele>
    <time>2011-05-29T12:32:31.000Z</time>
   </trkpt>
   <trkpt lon="6.76454210" lat="50.54247284">
    <ele>334.2</ele>
    <time>2011-05-29T12:32:32.000Z</time>
   </trkpt>
   <trkpt lon="6.76455116" lat="50.54246140">
    <ele>334.68</ele>
    <time>2011-05-29T12:32:33.000Z</time>
   </trkpt>
   <trkpt lon="6.76455498" lat="50.54244614">
    <ele>334.2</ele>
    <time>2011-05-29T12:32:34.000Z</time>
   </trkpt>
   <trkpt lon="6.76456404" lat="50.54243088">
    <ele>334.2</ele>
    <time>2011-05-29T12:32:35.000Z</time>
   </trkpt>
   <trkpt lon="6.76457691" lat="50.54241943">
    <ele>334.68</ele>
    <time>2011-05-29T12:32:36.000Z</time>
   </trkpt>
   <trkpt lon="6.76459312" lat="50.54240799">
    <ele>335.16</ele>
    <time>2011-05-29T12:32:37.000Z</time>
   </trkpt>
   <trkpt lon="6.76460886" lat="50.54239273">
    <ele>334.68</ele>
    <time>2011-05-29T12:32:38.000Z</time>
   </trkpt>
   <trkpt lon="6.76481819" lat="50.54220963">
    <ele>336.6</ele>
    <time>2011-05-29T12:32:53.000Z</time>
   </trkpt>
   <trkpt lon="6.76499701" lat="50.54195786">
    <ele>338.04</ele>
    <time>2011-05-29T12:33:12.000Z</time>
   </trkpt>
   <trkpt lon="6.76500988" lat="50.54169464">
    <ele>339.48</ele>
    <time>2011-05-29T12:33:27.000Z</time>
   </trkpt>
   <trkpt lon="6.76493311" lat="50.54138947">
    <ele>339</ele>
    <time>2011-05-29T12:33:42.000Z</time>
   </trkpt>
   <trkpt lon="6.76504707" lat="50.54093170">
    <ele>337.56</ele>
    <time>2011-05-29T12:33:56.000Z</time>
   </trkpt>
   <trkpt lon="6.76520395" lat="50.54075241">
    <ele>335.64</ele>
    <time>2011-05-29T12:34:00.000Z</time>
   </trkpt>
   <trkpt lon="6.76526690" lat="50.54040146">
    <ele>332.27</ele>
    <time>2011-05-29T12:34:08.000Z</time>
   </trkpt>
   <trkpt lon="6.76527500" lat="50.54025269">
    <ele>328.91</ele>
    <time>2011-05-29T12:34:12.000Z</time>
   </trkpt>
   <trkpt lon="6.76528311" lat="50.54022217">
    <ele>328.91</ele>
    <time>2011-05-29T12:34:13.000Z</time>
   </trkpt>
   <trkpt lon="6.76534510" lat="50.54013824">
    <ele>326.99</ele>
    <time>2011-05-29T12:34:16.000Z</time>
   </trkpt>
   <trkpt lon="6.76585197" lat="50.53968811">
    <ele>324.1</ele>
    <time>2011-05-29T12:34:28.000Z</time>
   </trkpt>
   <trkpt lon="6.76605177" lat="50.53947449">
    <ele>321.7</ele>
    <time>2011-05-29T12:34:35.000Z</time>
   </trkpt>
   <trkpt lon="6.76638412" lat="50.53908920">
    <ele>319.78</ele>
    <time>2011-05-29T12:34:44.000Z</time>
   </trkpt>
   <trkpt lon="6.76646614" lat="50.53892899">
    <ele>319.78</ele>
    <time>2011-05-29T12:34:48.000Z</time>
   </trkpt>
   <trkpt lon="6.76678705" lat="50.53840256">
    <ele>316.89</ele>
    <time>2011-05-29T12:35:01.000Z</time>
   </trkpt>
   <trkpt lon="6.76683807" lat="50.53826523">
    <ele>316.41</ele>
    <time>2011-05-29T12:35:04.000Z</time>
   </trkpt>
   <trkpt lon="6.76684284" lat="50.53821945">
    <ele>316.41</ele>
    <time>2011-05-29T12:35:05.000Z</time>
   </trkpt>
   <trkpt lon="6.76684999" lat="50.53806305">
    <ele>315.45</ele>
    <time>2011-05-29T12:35:08.000Z</time>
   </trkpt>
   <trkpt lon="6.76684380" lat="50.53800964">
    <ele>315.93</ele>
    <time>2011-05-29T12:35:09.000Z</time>
   </trkpt>
   <trkpt lon="6.76683712" lat="50.53795624">
    <ele>315.45</ele>
    <time>2011-05-29T12:35:10.000Z</time>
   </trkpt>
   <trkpt lon="6.76682377" lat="50.53790665">
    <ele>314.97</ele>
    <time>2011-05-29T12:35:11.000Z</time>
   </trkpt>
   <trkpt lon="6.76680803" lat="50.53786850">
    <ele>315.45</ele>
    <time>2011-05-29T12:35:12.000Z</time>
   </trkpt>
   <trkpt lon="6.76679182" lat="50.53782654">
    <ele>314.49</ele>
    <time>2011-05-29T12:35:13.000Z</time>
   </trkpt>
   <trkpt lon="6.76677513" lat="50.53778458">
    <ele>314.49</ele>
    <time>2011-05-29T12:35:14.000Z</time>
   </trkpt>
   <trkpt lon="6.76674795" lat="50.53773880">
    <ele>314.01</ele>
    <time>2011-05-29T12:35:15.000Z</time>
   </trkpt>
   <trkpt lon="6.76671219" lat="50.53768539">
    <ele>313.53</ele>
    <time>2011-05-29T12:35:16.000Z</time>
   </trkpt>
   <trkpt lon="6.76633120" lat="50.53726196">
    <ele>310.16</ele>
    <time>2011-05-29T12:35:23.000Z</time>
   </trkpt>
   <trkpt lon="6.76604414" lat="50.53691864">
    <ele>309.2</ele>
    <time>2011-05-29T12:35:29.000Z</time>
   </trkpt>
   <trkpt lon="6.76602697" lat="50.53684998">
    <ele>308.72</ele>
    <time>2011-05-29T12:35:30.000Z</time>
   </trkpt>
   <trkpt lon="6.76600122" lat="50.53666687">
    <ele>309.2</ele>
    <time>2011-05-29T12:35:33.000Z</time>
   </trkpt>
   <trkpt lon="6.76601124" lat="50.53662491">
    <ele>308.72</ele>
    <time>2011-05-29T12:35:34.000Z</time>
   </trkpt>
   <trkpt lon="6.76604080" lat="50.53658676">
    <ele>308.72</ele>
    <time>2011-05-29T12:35:35.000Z</time>
   </trkpt>
   <trkpt lon="6.76609898" lat="50.53655624">
    <ele>307.76</ele>
    <time>2011-05-29T12:35:36.000Z</time>
   </trkpt>
   <trkpt lon="6.76617813" lat="50.53654099">
    <ele>307.76</ele>
    <time>2011-05-29T12:35:37.000Z</time>
   </trkpt>
   <trkpt lon="6.76626015" lat="50.53653717">
    <ele>308.24</ele>
    <time>2011-05-29T12:35:38.000Z</time>
   </trkpt>
   <trkpt lon="6.76656199" lat="50.53650665">
    <ele>307.76</ele>
    <time>2011-05-29T12:35:42.000Z</time>
   </trkpt>
   <trkpt lon="6.76663685" lat="50.53648758">
    <ele>307.76</ele>
    <time>2011-05-29T12:35:43.000Z</time>
   </trkpt>
   <trkpt lon="6.76670980" lat="50.53646469">
    <ele>307.76</ele>
    <time>2011-05-29T12:35:44.000Z</time>
   </trkpt>
   <trkpt lon="6.76677799" lat="50.53643417">
    <ele>307.76</ele>
    <time>2011-05-29T12:35:45.000Z</time>
   </trkpt>
   <trkpt lon="6.76683521" lat="50.53639984">
    <ele>307.76</ele>
    <time>2011-05-29T12:35:46.000Z</time>
   </trkpt>
   <trkpt lon="6.76688194" lat="50.53636169">
    <ele>307.76</ele>
    <time>2011-05-29T12:35:47.000Z</time>
   </trkpt>
   <trkpt lon="6.76692200" lat="50.53631973">
    <ele>307.76</ele>
    <time>2011-05-29T12:35:48.000Z</time>
   </trkpt>
   <trkpt lon="6.76696014" lat="50.53627777">
    <ele>307.76</ele>
    <time>2011-05-29T12:35:49.000Z</time>
   </trkpt>
   <trkpt lon="6.76710796" lat="50.53604889">
    <ele>307.76</ele>
    <time>2011-05-29T12:35:54.000Z</time>
   </trkpt>
   <trkpt lon="6.76714420" lat="50.53600693">
    <ele>307.76</ele>
    <time>2011-05-29T12:35:55.000Z</time>
   </trkpt>
   <trkpt lon="6.76717520" lat="50.53596115">
    <ele>307.76</ele>
    <time>2011-05-29T12:35:56.000Z</time>
   </trkpt>
   <trkpt lon="6.76733589" lat="50.53570557">
    <ele>307.76</ele>
    <time>2011-05-29T12:36:02.000Z</time>
   </trkpt>
   <trkpt lon="6.76764584" lat="50.53512192">
    <ele>308.24</ele>
    <time>2011-05-29T12:36:18.000Z</time>
   </trkpt>
   <trkpt lon="6.76804876" lat="50.53456497">
    <ele>308.72</ele>
    <time>2011-05-29T12:36:35.000Z</time>
   </trkpt>
   <trkpt lon="6.76848221" lat="50.53408051">
    <ele>309.2</ele>
    <time>2011-05-29T12:36:52.000Z</time>
   </trkpt>
   <trkpt lon="6.76901102" lat="50.53371429">
    <ele>310.64</ele>
    <time>2011-05-29T12:37:08.000Z</time>
   </trkpt>
   <trkpt lon="6.76938391" lat="50.53334427">
    <ele>310.64</ele>
    <time>2011-05-29T12:37:23.000Z</time>
   </trkpt>
   <trkpt lon="6.76972198" lat="50.53323746">
    <ele>310.64</ele>
    <time>2011-05-29T12:37:33.000Z</time>
   </trkpt>
   <trkpt lon="6.77018404" lat="50.53290939">
    <ele>311.12</ele>
    <time>2011-05-29T12:37:47.000Z</time>
   </trkpt>
   <trkpt lon="6.77101183" lat="50.53256989">
    <ele>311.12</ele>
    <time>2011-05-29T12:38:07.000Z</time>
   </trkpt>
   <trkpt lon="6.77178907" lat="50.53244019">
    <ele>311.6</ele>
    <time>2011-05-29T12:38:24.000Z</time>
   </trkpt>
   <trkpt lon="6.77265882" lat="50.53232193">
    <ele>313.05</ele>
    <time>2011-05-29T12:38:44.000Z</time>
   </trkpt>
   <trkpt lon="6.77343512" lat="50.53219223">
    <ele>313.53</ele>
    <time>2011-05-29T12:39:02.000Z</time>
   </trkpt>
   <trkpt lon="6.77424097" lat="50.53204727">
    <ele>314.97</ele>
    <time>2011-05-29T12:39:20.000Z</time>
   </trkpt>
   <trkpt lon="6.77495289" lat="50.53178787">
    <ele>315.93</ele>
    <time>2011-05-29T12:39:38.000Z</time>
   </trkpt>
   <trkpt lon="6.77559423" lat="50.53155899">
    <ele>316.89</ele>
    <time>2011-05-29T12:39:55.000Z</time>
   </trkpt>
   <trkpt lon="6.77626801" lat="50.53134155">
    <ele>318.81</ele>
    <time>2011-05-29T12:40:13.000Z</time>
   </trkpt>
   <trkpt lon="6.77684593" lat="50.53116608">
    <ele>320.26</ele>
    <time>2011-05-29T12:40:30.000Z</time>
   </trkpt>
   <trkpt lon="6.77725983" lat="50.53094482">
    <ele>322.18</ele>
    <time>2011-05-29T12:40:46.000Z</time>
   </trkpt>
   <trkpt lon="6.77772522" lat="50.53072357">
    <ele>321.7</ele>
    <time>2011-05-29T12:41:01.000Z</time>
   </trkpt>
   <trkpt lon="6.77826691" lat="50.53035355">
    <ele>322.66</ele>
    <time>2011-05-29T12:41:17.000Z</time>
   </trkpt>
   <trkpt lon="6.77876806" lat="50.52993393">
    <ele>322.66</ele>
    <time>2011-05-29T12:41:32.000Z</time>
   </trkpt>
   <trkpt lon="6.77931499" lat="50.52949524">
    <ele>324.1</ele>
    <time>2011-05-29T12:41:49.000Z</time>
   </trkpt>
   <trkpt lon="6.77975988" lat="50.52912140">
    <ele>325.54</ele>
    <time>2011-05-29T12:42:06.000Z</time>
   </trkpt>
   <trkpt lon="6.78017807" lat="50.52879715">
    <ele>327.47</ele>
    <time>2011-05-29T12:42:25.000Z</time>
   </trkpt>
   <trkpt lon="6.78035307" lat="50.52867508">
    <ele>328.91</ele>
    <time>2011-05-29T12:42:33.000Z</time>
   </trkpt>
   <trkpt lon="6.78072500" lat="50.52843475">
    <ele>330.35</ele>
    <time>2011-05-29T12:42:50.000Z</time>
   </trkpt>
   <trkpt lon="6.78103590" lat="50.52827072">
    <ele>331.79</ele>
    <time>2011-05-29T12:43:06.000Z</time>
   </trkpt>
   <trkpt lon="6.78119707" lat="50.52818680">
    <ele>332.75</ele>
    <time>2011-05-29T12:43:14.000Z</time>
   </trkpt>
   <trkpt lon="6.78158522" lat="50.52802277">
    <ele>335.16</ele>
    <time>2011-05-29T12:43:32.000Z</time>
   </trkpt>
   <trkpt lon="6.78191900" lat="50.52788544">
    <ele>336.12</ele>
    <time>2011-05-29T12:43:48.000Z</time>
   </trkpt>
   <trkpt lon="6.78227091" lat="50.52774048">
    <ele>338.04</ele>
    <time>2011-05-29T12:44:04.000Z</time>
   </trkpt>
   <trkpt lon="6.78266191" lat="50.52756500">
    <ele>338.52</ele>
    <time>2011-05-29T12:44:22.000Z</time>
   </trkpt>
   <trkpt lon="6.78303719" lat="50.52740097">
    <ele>339.96</ele>
    <time>2011-05-29T12:44:39.000Z</time>
   </trkpt>
   <trkpt lon="6.78332376" lat="50.52726746">
    <ele>341.41</ele>
    <time>2011-05-29T12:44:52.000Z</time>
   </trkpt>
   <trkpt lon="6.78336620" lat="50.52725220">
    <ele>341.89</ele>
    <time>2011-05-29T12:44:54.000Z</time>
   </trkpt>
   <trkpt lon="6.78338909" lat="50.52723694">
    <ele>341.41</ele>
    <time>2011-05-29T12:44:55.000Z</time>
   </trkpt>
   <trkpt lon="6.78341579" lat="50.52722168">
    <ele>341.41</ele>
    <time>2011-05-29T12:44:56.000Z</time>
   </trkpt>
   <trkpt lon="6.78385401" lat="50.52698135">
    <ele>342.37</ele>
    <time>2011-05-29T12:45:15.000Z</time>
   </trkpt>
   <trkpt lon="6.78430796" lat="50.52669907">
    <ele>343.33</ele>
    <time>2011-05-29T12:45:34.000Z</time>
   </trkpt>
   <trkpt lon="6.78469992" lat="50.52640915">
    <ele>343.81</ele>
    <time>2011-05-29T12:45:49.000Z</time>
   </trkpt>
   <trkpt lon="6.78520918" lat="50.52589035">
    <ele>344.29</ele>
    <time>2011-05-29T12:46:07.000Z</time>
   </trkpt>
   <trkpt lon="6.78533792" lat="50.52569580">
    <ele>341.41</ele>
    <time>2011-05-29T12:46:13.000Z</time>
   </trkpt>
   <trkpt lon="6.78552914" lat="50.52504730">
    <ele>343.33</ele>
    <time>2011-05-29T12:46:32.000Z</time>
   </trkpt>
   <trkpt lon="6.78543520" lat="50.52447510">
    <ele>343.81</ele>
    <time>2011-05-29T12:46:48.000Z</time>
   </trkpt>
   <trkpt lon="6.78505802" lat="50.52376938">
    <ele>345.73</ele>
    <time>2011-05-29T12:47:09.000Z</time>
   </trkpt>
   <trkpt lon="6.78457880" lat="50.52318573">
    <ele>346.21</ele>
    <time>2011-05-29T12:47:28.000Z</time>
   </trkpt>
   <trkpt lon="6.78402376" lat="50.52252960">
    <ele>347.17</ele>
    <time>2011-05-29T12:47:48.000Z</time>
   </trkpt>
   <trkpt lon="6.78372478" lat="50.52190018">
    <ele>347.17</ele>
    <time>2011-05-29T12:48:06.000Z</time>
   </trkpt>
   <trkpt lon="6.78375483" lat="50.52130127">
    <ele>347.65</ele>
    <time>2011-05-29T12:48:22.000Z</time>
   </trkpt>
   <trkpt lon="6.78400421" lat="50.52069855">
    <ele>347.17</ele>
    <time>2011-05-29T12:48:38.000Z</time>
   </trkpt>
   <trkpt lon="6.78433895" lat="50.52000046">
    <ele>346.21</ele>
    <time>2011-05-29T12:48:56.000Z</time>
   </trkpt>
   <trkpt lon="6.78463888" lat="50.51918030">
    <ele>345.25</ele>
    <time>2011-05-29T12:49:13.000Z</time>
   </trkpt>
   <trkpt lon="6.78474903" lat="50.51826477">
    <ele>344.29</ele>
    <time>2011-05-29T12:49:30.000Z</time>
   </trkpt>
   <trkpt lon="6.78465223" lat="50.51739120">
    <ele>344.77</ele>
    <time>2011-05-29T12:49:49.000Z</time>
   </trkpt>
   <trkpt lon="6.78438282" lat="50.51670456">
    <ele>345.25</ele>
    <time>2011-05-29T12:50:08.000Z</time>
   </trkpt>
   <trkpt lon="6.78402090" lat="50.51607132">
    <ele>346.21</ele>
    <time>2011-05-29T12:50:27.000Z</time>
   </trkpt>
   <trkpt lon="6.78367901" lat="50.51562119">
    <ele>347.65</ele>
    <time>2011-05-29T12:50:44.000Z</time>
   </trkpt>
   <trkpt lon="6.78322601" lat="50.51517487">
    <ele>348.13</ele>
    <time>2011-05-29T12:51:03.000Z</time>
   </trkpt>
   <trkpt lon="6.78282595" lat="50.51483536">
    <ele>349.1</ele>
    <time>2011-05-29T12:51:18.000Z</time>
   </trkpt>
   <trkpt lon="6.78243208" lat="50.51452637">
    <ele>350.06</ele>
    <time>2011-05-29T12:51:33.000Z</time>
   </trkpt>
   <trkpt lon="6.78195906" lat="50.51442719">
    <ele>350.06</ele>
    <time>2011-05-29T12:51:44.000Z</time>
   </trkpt>
   <trkpt lon="6.78179598" lat="50.51438141">
    <ele>350.06</ele>
    <time>2011-05-29T12:51:47.000Z</time>
   </trkpt>
   <trkpt lon="6.78107691" lat="50.51398849">
    <ele>349.1</ele>
    <time>2011-05-29T12:52:01.000Z</time>
   </trkpt>
   <trkpt lon="6.78102684" lat="50.51396561">
    <ele>350.06</ele>
    <time>2011-05-29T12:52:02.000Z</time>
   </trkpt>
   <trkpt lon="6.78097820" lat="50.51394653">
    <ele>350.06</ele>
    <time>2011-05-29T12:52:03.000Z</time>
   </trkpt>
   <trkpt lon="6.78093100" lat="50.51392746">
    <ele>349.58</ele>
    <time>2011-05-29T12:52:04.000Z</time>
   </trkpt>
   <trkpt lon="6.78088808" lat="50.51390457">
    <ele>350.06</ele>
    <time>2011-05-29T12:52:05.000Z</time>
   </trkpt>
   <trkpt lon="6.78039312" lat="50.51357269">
    <ele>350.06</ele>
    <time>2011-05-29T12:52:19.000Z</time>
   </trkpt>
   <trkpt lon="6.77995300" lat="50.51328278">
    <ele>350.06</ele>
    <time>2011-05-29T12:52:32.000Z</time>
   </trkpt>
   <trkpt lon="6.77946520" lat="50.51295853">
    <ele>351.02</ele>
    <time>2011-05-29T12:52:47.000Z</time>
   </trkpt>
   <trkpt lon="6.77885580" lat="50.51253891">
    <ele>351.5</ele>
    <time>2011-05-29T12:53:05.000Z</time>
   </trkpt>
   <trkpt lon="6.77826691" lat="50.51217651">
    <ele>351.98</ele>
    <time>2011-05-29T12:53:21.000Z</time>
   </trkpt>
   <trkpt lon="6.77760601" lat="50.51179123">
    <ele>352.46</ele>
    <time>2011-05-29T12:53:38.000Z</time>
   </trkpt>
   <trkpt lon="6.77704000" lat="50.51149750">
    <ele>352.94</ele>
    <time>2011-05-29T12:53:53.000Z</time>
   </trkpt>
   <trkpt lon="6.77653217" lat="50.51120377">
    <ele>353.42</ele>
    <time>2011-05-29T12:54:07.000Z</time>
   </trkpt>
   <trkpt lon="6.77589512" lat="50.51095963">
    <ele>353.9</ele>
    <time>2011-05-29T12:54:22.000Z</time>
   </trkpt>
   <trkpt lon="6.77510977" lat="50.51069260">
    <ele>353.9</ele>
    <time>2011-05-29T12:54:39.000Z</time>
   </trkpt>
   <trkpt lon="6.77453995" lat="50.51036072">
    <ele>354.38</ele>
    <time>2011-05-29T12:54:54.000Z</time>
   </trkpt>
   <trkpt lon="6.77394581" lat="50.51004410">
    <ele>354.38</ele>
    <time>2011-05-29T12:55:10.000Z</time>
   </trkpt>
   <trkpt lon="6.77326202" lat="50.50990295">
    <ele>354.86</ele>
    <time>2011-05-29T12:55:26.000Z</time>
   </trkpt>
   <trkpt lon="6.77269793" lat="50.50980377">
    <ele>355.83</ele>
    <time>2011-05-29T12:55:40.000Z</time>
   </trkpt>
   <trkpt lon="6.77205420" lat="50.50964355">
    <ele>357.75</ele>
    <time>2011-05-29T12:55:56.000Z</time>
   </trkpt>
   <trkpt lon="6.77140522" lat="50.50950241">
    <ele>357.75</ele>
    <time>2011-05-29T12:56:11.000Z</time>
   </trkpt>
   <trkpt lon="6.77089691" lat="50.50939560">
    <ele>358.23</ele>
    <time>2011-05-29T12:56:23.000Z</time>
   </trkpt>
   <trkpt lon="6.77033091" lat="50.50926971">
    <ele>359.19</ele>
    <time>2011-05-29T12:56:37.000Z</time>
   </trkpt>
   <trkpt lon="6.76967001" lat="50.50911713">
    <ele>359.19</ele>
    <time>2011-05-29T12:56:52.000Z</time>
   </trkpt>
   <trkpt lon="6.76901913" lat="50.50893402">
    <ele>360.15</ele>
    <time>2011-05-29T12:57:07.000Z</time>
   </trkpt>
   <trkpt lon="6.76835299" lat="50.50881195">
    <ele>360.15</ele>
    <time>2011-05-29T12:57:21.000Z</time>
   </trkpt>
   <trkpt lon="6.76763821" lat="50.50874329">
    <ele>361.11</ele>
    <time>2011-05-29T12:57:36.000Z</time>
   </trkpt>
   <trkpt lon="6.76698112" lat="50.50869751">
    <ele>362.55</ele>
    <time>2011-05-29T12:57:50.000Z</time>
   </trkpt>
   <trkpt lon="6.76606083" lat="50.50870895">
    <ele>362.55</ele>
    <time>2011-05-29T12:58:10.000Z</time>
   </trkpt>
   <trkpt lon="6.76526499" lat="50.50879288">
    <ele>363.52</ele>
    <time>2011-05-29T12:58:27.000Z</time>
   </trkpt>
   <trkpt lon="6.76449203" lat="50.50860214">
    <ele>364.96</ele>
    <time>2011-05-29T12:58:44.000Z</time>
   </trkpt>
   <trkpt lon="6.76373720" lat="50.50840378">
    <ele>366.4</ele>
    <time>2011-05-29T12:59:03.000Z</time>
   </trkpt>
   <trkpt lon="6.76311684" lat="50.50820541">
    <ele>368.32</ele>
    <time>2011-05-29T12:59:21.000Z</time>
   </trkpt>
   <trkpt lon="6.76255322" lat="50.50795364">
    <ele>369.76</ele>
    <time>2011-05-29T12:59:40.000Z</time>
   </trkpt>
   <trkpt lon="6.76208115" lat="50.50773621">
    <ele>372.65</ele>
    <time>2011-05-29T12:59:56.000Z</time>
   </trkpt>
   <trkpt lon="6.76164293" lat="50.50745392">
    <ele>373.61</ele>
    <time>2011-05-29T13:00:13.000Z</time>
   </trkpt>
   <trkpt lon="6.76110792" lat="50.50701904">
    <ele>374.09</ele>
    <time>2011-05-29T13:00:32.000Z</time>
   </trkpt>
   <trkpt lon="6.76071501" lat="50.50669479">
    <ele>375.05</ele>
    <time>2011-05-29T13:00:46.000Z</time>
   </trkpt>
   <trkpt lon="6.76025915" lat="50.50629425">
    <ele>376.01</ele>
    <time>2011-05-29T13:01:04.000Z</time>
   </trkpt>
   <trkpt lon="6.75998211" lat="50.50582886">
    <ele>376.97</ele>
    <time>2011-05-29T13:01:21.000Z</time>
   </trkpt>
   <trkpt lon="6.75979900" lat="50.50541687">
    <ele>377.45</ele>
    <time>2011-05-29T13:01:37.000Z</time>
   </trkpt>
   <trkpt lon="6.75956297" lat="50.50502777">
    <ele>378.42</ele>
    <time>2011-05-29T13:01:52.000Z</time>
   </trkpt>
   <trkpt lon="6.75927591" lat="50.50466537">
    <ele>379.86</ele>
    <time>2011-05-29T13:02:07.000Z</time>
   </trkpt>
   <trkpt lon="6.75897789" lat="50.50437927">
    <ele>381.78</ele>
    <time>2011-05-29T13:02:21.000Z</time>
   </trkpt>
   <trkpt lon="6.75864792" lat="50.50415802">
    <ele>382.74</ele>
    <time>2011-05-29T13:02:37.000Z</time>
   </trkpt>
   <trkpt lon="6.75827503" lat="50.50395203">
    <ele>383.7</ele>
    <time>2011-05-29T13:02:53.000Z</time>
   </trkpt>
   <trkpt lon="6.75789213" lat="50.50379181">
    <ele>385.63</ele>
    <time>2011-05-29T13:03:08.000Z</time>
   </trkpt>
   <trkpt lon="6.75748205" lat="50.50365829">
    <ele>385.63</ele>
    <time>2011-05-29T13:03:23.000Z</time>
   </trkpt>
   <trkpt lon="6.75707197" lat="50.50354385">
    <ele>386.59</ele>
    <time>2011-05-29T13:03:36.000Z</time>
   </trkpt>
   <trkpt lon="6.75636911" lat="50.50339890">
    <ele>387.55</ele>
    <time>2011-05-29T13:03:58.000Z</time>
   </trkpt>
   <trkpt lon="6.75583696" lat="50.50333023">
    <ele>388.51</ele>
    <time>2011-05-29T13:04:15.000Z</time>
   </trkpt>
   <trkpt lon="6.75522614" lat="50.50322342">
    <ele>389.95</ele>
    <time>2011-05-29T13:04:35.000Z</time>
   </trkpt>
   <trkpt lon="6.75454378" lat="50.50304031">
    <ele>389.95</ele>
    <time>2011-05-29T13:04:54.000Z</time>
   </trkpt>
   <trkpt lon="6.75404692" lat="50.50287247">
    <ele>389.95</ele>
    <time>2011-05-29T13:05:09.000Z</time>
   </trkpt>
   <trkpt lon="6.75348997" lat="50.50270844">
    <ele>390.43</ele>
    <time>2011-05-29T13:05:23.000Z</time>
   </trkpt>
   <trkpt lon="6.75259876" lat="50.50246429">
    <ele>390.43</ele>
    <time>2011-05-29T13:05:43.000Z</time>
   </trkpt>
   <trkpt lon="6.75177717" lat="50.50219345">
    <ele>390.91</ele>
    <time>2011-05-29T13:06:01.000Z</time>
   </trkpt>
   <trkpt lon="6.75092888" lat="50.50178528">
    <ele>390.91</ele>
    <time>2011-05-29T13:06:21.000Z</time>
   </trkpt>
   <trkpt lon="6.75027323" lat="50.50143433">
    <ele>391.39</ele>
    <time>2011-05-29T13:06:37.000Z</time>
   </trkpt>
   <trkpt lon="6.74968386" lat="50.50120926">
    <ele>391.87</ele>
    <time>2011-05-29T13:06:50.000Z</time>
   </trkpt>
   <trkpt lon="6.74901915" lat="50.50101852">
    <ele>391.39</ele>
    <time>2011-05-29T13:07:06.000Z</time>
   </trkpt>
   <trkpt lon="6.74854517" lat="50.50089264">
    <ele>392.84</ele>
    <time>2011-05-29T13:07:19.000Z</time>
   </trkpt>
   <trkpt lon="6.74809790" lat="50.50075150">
    <ele>394.28</ele>
    <time>2011-05-29T13:07:33.000Z</time>
   </trkpt>
   <trkpt lon="6.74774122" lat="50.50062561">
    <ele>394.28</ele>
    <time>2011-05-29T13:07:47.000Z</time>
   </trkpt>
   <trkpt lon="6.74731398" lat="50.50048447">
    <ele>395.24</ele>
    <time>2011-05-29T13:08:05.000Z</time>
   </trkpt>
   <trkpt lon="6.74725819" lat="50.50046921">
    <ele>395.72</ele>
    <time>2011-05-29T13:08:08.000Z</time>
   </trkpt>
   <trkpt lon="6.74723291" lat="50.50045776">
    <ele>396.2</ele>
    <time>2011-05-29T13:08:09.000Z</time>
   </trkpt>
   <trkpt lon="6.74721193" lat="50.50045013">
    <ele>396.2</ele>
    <time>2011-05-29T13:08:10.000Z</time>
   </trkpt>
   <trkpt lon="6.74689484" lat="50.50032425">
    <ele>396.68</ele>
    <time>2011-05-29T13:08:24.000Z</time>
   </trkpt>
   <trkpt lon="6.74654722" lat="50.50017929">
    <ele>398.12</ele>
    <time>2011-05-29T13:08:38.000Z</time>
   </trkpt>
   <trkpt lon="6.74615812" lat="50.50003815">
    <ele>400.05</ele>
    <time>2011-05-29T13:08:54.000Z</time>
   </trkpt>
   <trkpt lon="6.74575901" lat="50.49989319">
    <ele>401.01</ele>
    <time>2011-05-29T13:09:09.000Z</time>
   </trkpt>
   <trkpt lon="6.74538422" lat="50.49978256">
    <ele>401.49</ele>
    <time>2011-05-29T13:09:24.000Z</time>
   </trkpt>
   <trkpt lon="6.74503279" lat="50.49964142">
    <ele>402.93</ele>
    <time>2011-05-29T13:09:39.000Z</time>
   </trkpt>
   <trkpt lon="6.74465609" lat="50.49938965">
    <ele>402.93</ele>
    <time>2011-05-29T13:09:54.000Z</time>
   </trkpt>
   <trkpt lon="6.74422884" lat="50.49891281">
    <ele>402.93</ele>
    <time>2011-05-29T13:10:11.000Z</time>
   </trkpt>
   <trkpt lon="6.74365807" lat="50.49839020">
    <ele>402.45</ele>
    <time>2011-05-29T13:10:28.000Z</time>
   </trkpt>
   <trkpt lon="6.74291897" lat="50.49810028">
    <ele>402.93</ele>
    <time>2011-05-29T13:10:43.000Z</time>
   </trkpt>
   <trkpt lon="6.74222183" lat="50.49797058">
    <ele>402.93</ele>
    <time>2011-05-29T13:10:55.000Z</time>
   </trkpt>
   <trkpt lon="6.74217176" lat="50.49794769">
    <ele>402.93</ele>
    <time>2011-05-29T13:10:56.000Z</time>
   </trkpt>
   <trkpt lon="6.74213123" lat="50.49791718">
    <ele>402.45</ele>
    <time>2011-05-29T13:10:57.000Z</time>
   </trkpt>
   <trkpt lon="6.74186516" lat="50.49773788">
    <ele>402.93</ele>
    <time>2011-05-29T13:11:08.000Z</time>
   </trkpt>
   <trkpt lon="6.74191999" lat="50.49772644">
    <ele>402.93</ele>
    <time>2011-05-29T13:11:10.000Z</time>
   </trkpt>
   <trkpt lon="6.74195910" lat="50.49771118">
    <ele>403.41</ele>
    <time>2011-05-29T13:11:26.000Z</time>
   </trkpt>
   <trkpt lon="6.74196005" lat="50.49770737">
    <ele>403.41</ele>
    <time>2011-05-29T13:12:03.000Z</time>
   </trkpt>
   <trkpt lon="6.74196386" lat="50.49771500">
    <ele>403.89</ele>
    <time>2011-05-29T13:12:35.000Z</time>
   </trkpt>
   <trkpt lon="6.74196386" lat="50.49771500">
    <ele>402.93</ele>
    <time>2011-05-29T13:13:08.000Z</time>
   </trkpt>
   <trkpt lon="6.74197102" lat="50.49771500">
    <ele>403.41</ele>
    <time>2011-05-29T13:13:44.000Z</time>
   </trkpt>
   <trkpt lon="6.74197483" lat="50.49771500">
    <ele>403.41</ele>
    <time>2011-05-29T13:14:16.000Z</time>
   </trkpt>
   <trkpt lon="6.74199200" lat="50.49770737">
    <ele>403.41</ele>
    <time>2011-05-29T13:14:47.000Z</time>
   </trkpt>
   <trkpt lon="6.74198008" lat="50.49770355">
    <ele>403.89</ele>
    <time>2011-05-29T13:15:24.000Z</time>
   </trkpt>
   <trkpt lon="6.74198294" lat="50.49770355">
    <ele>403.89</ele>
    <time>2011-05-29T13:15:55.000Z</time>
   </trkpt>
   <trkpt lon="6.74198294" lat="50.49770355">
    <ele>403.89</ele>
    <time>2011-05-29T13:16:30.000Z</time>
   </trkpt>
   <trkpt lon="6.74195480" lat="50.49772644">
    <ele>403.89</ele>
    <time>2011-05-29T13:16:57.000Z</time>
   </trkpt>
   <trkpt lon="6.74195719" lat="50.49773026">
    <ele>403.89</ele>
    <time>2011-05-29T13:17:12.000Z</time>
   </trkpt>
   <trkpt lon="6.74194717" lat="50.49773788">
    <ele>404.37</ele>
    <time>2011-05-29T13:17:26.000Z</time>
   </trkpt>
   <trkpt lon="6.74193287" lat="50.49775314">
    <ele>403.89</ele>
    <time>2011-05-29T13:17:27.000Z</time>
   </trkpt>
   <trkpt lon="6.74190903" lat="50.49776077">
    <ele>403.89</ele>
    <time>2011-05-29T13:17:28.000Z</time>
   </trkpt>
   <trkpt lon="6.74187708" lat="50.49776459">
    <ele>403.89</ele>
    <time>2011-05-29T13:17:29.000Z</time>
   </trkpt>
   <trkpt lon="6.74184799" lat="50.49776459">
    <ele>403.89</ele>
    <time>2011-05-29T13:17:30.000Z</time>
   </trkpt>
   <trkpt lon="6.74181700" lat="50.49776077">
    <ele>403.89</ele>
    <time>2011-05-29T13:17:31.000Z</time>
   </trkpt>
   <trkpt lon="6.74132395" lat="50.49785233">
    <ele>404.85</ele>
    <time>2011-05-29T13:17:45.000Z</time>
   </trkpt>
   <trkpt lon="6.74077988" lat="50.49798584">
    <ele>405.33</ele>
    <time>2011-05-29T13:18:02.000Z</time>
   </trkpt>
   <trkpt lon="6.74017715" lat="50.49819183">
    <ele>406.29</ele>
    <time>2011-05-29T13:18:23.000Z</time>
   </trkpt>
   <trkpt lon="6.73959112" lat="50.49836349">
    <ele>406.77</ele>
    <time>2011-05-29T13:18:42.000Z</time>
   </trkpt>
   <trkpt lon="6.73906517" lat="50.49848938">
    <ele>408.7</ele>
    <time>2011-05-29T13:18:59.000Z</time>
   </trkpt>
   <trkpt lon="6.73853397" lat="50.49856186">
    <ele>409.66</ele>
    <time>2011-05-29T13:19:15.000Z</time>
   </trkpt>
   <trkpt lon="6.73827124" lat="50.49855804">
    <ele>411.1</ele>
    <time>2011-05-29T13:19:23.000Z</time>
   </trkpt>
   <trkpt lon="6.73774481" lat="50.49859619">
    <ele>411.1</ele>
    <time>2011-05-29T13:19:38.000Z</time>
   </trkpt>
   <trkpt lon="6.73711920" lat="50.49883270">
    <ele>410.62</ele>
    <time>2011-05-29T13:19:51.000Z</time>
   </trkpt>
   <trkpt lon="6.73635721" lat="50.49920273">
    <ele>410.62</ele>
    <time>2011-05-29T13:20:08.000Z</time>
   </trkpt>
   <trkpt lon="6.73564482" lat="50.49929047">
    <ele>411.58</ele>
    <time>2011-05-29T13:20:25.000Z</time>
   </trkpt>
   <trkpt lon="6.73501301" lat="50.49923325">
    <ele>413.02</ele>
    <time>2011-05-29T13:20:43.000Z</time>
   </trkpt>
   <trkpt lon="6.73447084" lat="50.49925613">
    <ele>413.5</ele>
    <time>2011-05-29T13:20:59.000Z</time>
   </trkpt>
   <trkpt lon="6.73437309" lat="50.49925613">
    <ele>414.95</ele>
    <time>2011-05-29T13:21:02.000Z</time>
   </trkpt>
   <trkpt lon="6.73383713" lat="50.49929810">
    <ele>414.95</ele>
    <time>2011-05-29T13:21:18.000Z</time>
   </trkpt>
   <trkpt lon="6.73332691" lat="50.49932098">
    <ele>416.87</ele>
    <time>2011-05-29T13:21:37.000Z</time>
   </trkpt>
   <trkpt lon="6.73321486" lat="50.49936676">
    <ele>417.35</ele>
    <time>2011-05-29T13:21:49.000Z</time>
   </trkpt>
   <trkpt lon="6.73321486" lat="50.49936676">
    <ele>417.35</ele>
    <time>2011-05-29T13:22:12.000Z</time>
   </trkpt>
   <trkpt lon="6.73321581" lat="50.49936295">
    <ele>417.35</ele>
    <time>2011-05-29T13:22:42.000Z</time>
   </trkpt>
   <trkpt lon="6.73321581" lat="50.49936295">
    <ele>416.87</ele>
    <time>2011-05-29T13:23:12.000Z</time>
   </trkpt>
   <trkpt lon="6.73321581" lat="50.49936295">
    <ele>417.35</ele>
    <time>2011-05-29T13:23:41.000Z</time>
   </trkpt>
   <trkpt lon="6.73320389" lat="50.49935913">
    <ele>417.35</ele>
    <time>2011-05-29T13:24:11.000Z</time>
   </trkpt>
   <trkpt lon="6.73317909" lat="50.49932480">
    <ele>417.83</ele>
    <time>2011-05-29T13:24:25.000Z</time>
   </trkpt>
   <trkpt lon="6.73315716" lat="50.49932861">
    <ele>417.83</ele>
    <time>2011-05-29T13:24:30.000Z</time>
   </trkpt>
   <trkpt lon="6.73287296" lat="50.49933243">
    <ele>418.79</ele>
    <time>2011-05-29T13:24:42.000Z</time>
   </trkpt>
   <trkpt lon="6.73272419" lat="50.49935150">
    <ele>419.27</ele>
    <time>2011-05-29T13:24:49.000Z</time>
   </trkpt>
   <trkpt lon="6.73270178" lat="50.49935532">
    <ele>419.75</ele>
    <time>2011-05-29T13:24:50.000Z</time>
   </trkpt>
   <trkpt lon="6.73267698" lat="50.49935532">
    <ele>419.27</ele>
    <time>2011-05-29T13:24:51.000Z</time>
   </trkpt>
   <trkpt lon="6.73265505" lat="50.49936295">
    <ele>419.27</ele>
    <time>2011-05-29T13:24:52.000Z</time>
   </trkpt>
   <trkpt lon="6.73263311" lat="50.49936676">
    <ele>419.27</ele>
    <time>2011-05-29T13:24:53.000Z</time>
   </trkpt>
   <trkpt lon="6.73223877" lat="50.49940872">
    <ele>421.68</ele>
    <time>2011-05-29T13:25:10.000Z</time>
   </trkpt>
   <trkpt lon="6.73204422" lat="50.49946594">
    <ele>422.16</ele>
    <time>2011-05-29T13:25:19.000Z</time>
   </trkpt>
   <trkpt lon="6.73203802" lat="50.49947739">
    <ele>422.64</ele>
    <time>2011-05-29T13:25:20.000Z</time>
   </trkpt>
   <trkpt lon="6.73202801" lat="50.49948883">
    <ele>422.16</ele>
    <time>2011-05-29T13:25:21.000Z</time>
   </trkpt>
   <trkpt lon="6.73198080" lat="50.49954605">
    <ele>422.64</ele>
    <time>2011-05-29T13:25:28.000Z</time>
   </trkpt>
   <trkpt lon="6.73166513" lat="50.49956512">
    <ele>423.12</ele>
    <time>2011-05-29T13:25:42.000Z</time>
   </trkpt>
   <trkpt lon="6.73124981" lat="50.49946594">
    <ele>424.08</ele>
    <time>2011-05-29T13:25:56.000Z</time>
   </trkpt>
   <trkpt lon="6.73078203" lat="50.49946213">
    <ele>424.56</ele>
    <time>2011-05-29T13:26:10.000Z</time>
   </trkpt>
   <trkpt lon="6.73029709" lat="50.49943161">
    <ele>425.04</ele>
    <time>2011-05-29T13:26:24.000Z</time>
   </trkpt>
   <trkpt lon="6.72966290" lat="50.49938583">
    <ele>425.04</ele>
    <time>2011-05-29T13:26:41.000Z</time>
   </trkpt>
   <trkpt lon="6.72908306" lat="50.49926758">
    <ele>425.52</ele>
    <time>2011-05-29T13:26:57.000Z</time>
   </trkpt>
   <trkpt lon="6.72848988" lat="50.49915695">
    <ele>425.52</ele>
    <time>2011-05-29T13:27:13.000Z</time>
   </trkpt>
   <trkpt lon="6.72800684" lat="50.49907684">
    <ele>426</ele>
    <time>2011-05-29T13:27:27.000Z</time>
   </trkpt>
   <trkpt lon="6.72744417" lat="50.49897766">
    <ele>426.96</ele>
    <time>2011-05-29T13:27:43.000Z</time>
   </trkpt>
   <trkpt lon="6.72685099" lat="50.49890137">
    <ele>427.92</ele>
    <time>2011-05-29T13:28:00.000Z</time>
   </trkpt>
   <trkpt lon="6.72637177" lat="50.49884033">
    <ele>430.81</ele>
    <time>2011-05-29T13:28:15.000Z</time>
   </trkpt>
   <trkpt lon="6.72600794" lat="50.49879837">
    <ele>429.85</ele>
    <time>2011-05-29T13:28:27.000Z</time>
   </trkpt>
   <trkpt lon="6.72589016" lat="50.49877167">
    <ele>431.77</ele>
    <time>2011-05-29T13:28:31.000Z</time>
   </trkpt>
   <trkpt lon="6.72548199" lat="50.49870300">
    <ele>433.21</ele>
    <time>2011-05-29T13:28:45.000Z</time>
   </trkpt>
   <trkpt lon="6.72502184" lat="50.49865341">
    <ele>435.13</ele>
    <time>2011-05-29T13:29:02.000Z</time>
   </trkpt>
   <trkpt lon="6.72460079" lat="50.49860382">
    <ele>436.1</ele>
    <time>2011-05-29T13:29:18.000Z</time>
   </trkpt>
   <trkpt lon="6.72404194" lat="50.49853134">
    <ele>437.54</ele>
    <time>2011-05-29T13:29:38.000Z</time>
   </trkpt>
   <trkpt lon="6.72362995" lat="50.49850082">
    <ele>438.98</ele>
    <time>2011-05-29T13:29:54.000Z</time>
   </trkpt>
   <trkpt lon="6.72339678" lat="50.49848938">
    <ele>439.94</ele>
    <time>2011-05-29T13:30:04.000Z</time>
   </trkpt>
   <trkpt lon="6.72337484" lat="50.49848938">
    <ele>439.94</ele>
    <time>2011-05-29T13:30:05.000Z</time>
   </trkpt>
   <trkpt lon="6.72335386" lat="50.49848938">
    <ele>439.94</ele>
    <time>2011-05-29T13:30:06.000Z</time>
   </trkpt>
   <trkpt lon="6.72301912" lat="50.49848557">
    <ele>440.9</ele>
    <time>2011-05-29T13:30:20.000Z</time>
   </trkpt>
   <trkpt lon="6.72265005" lat="50.49843979">
    <ele>442.34</ele>
    <time>2011-05-29T13:30:35.000Z</time>
   </trkpt>
   <trkpt lon="6.72225523" lat="50.49839401">
    <ele>443.79</ele>
    <time>2011-05-29T13:30:52.000Z</time>
   </trkpt>
   <trkpt lon="6.72187996" lat="50.49835587">
    <ele>445.71</ele>
    <time>2011-05-29T13:31:08.000Z</time>
   </trkpt>
   <trkpt lon="6.72145987" lat="50.49833298">
    <ele>447.63</ele>
    <time>2011-05-29T13:31:25.000Z</time>
   </trkpt>
   <trkpt lon="6.72107697" lat="50.49830246">
    <ele>449.07</ele>
    <time>2011-05-29T13:31:40.000Z</time>
   </trkpt>
   <trkpt lon="6.72060299" lat="50.49824524">
    <ele>450.03</ele>
    <time>2011-05-29T13:31:58.000Z</time>
   </trkpt>
   <trkpt lon="6.72021723" lat="50.49821472">
    <ele>450.52</ele>
    <time>2011-05-29T13:32:14.000Z</time>
   </trkpt>
   <trkpt lon="6.72019815" lat="50.49821854">
    <ele>450.52</ele>
    <time>2011-05-29T13:32:15.000Z</time>
   </trkpt>
   <trkpt lon="6.71981001" lat="50.49816895">
    <ele>451</ele>
    <time>2011-05-29T13:32:30.000Z</time>
   </trkpt>
   <trkpt lon="6.71941710" lat="50.49813843">
    <ele>451.48</ele>
    <time>2011-05-29T13:32:46.000Z</time>
   </trkpt>
   <trkpt lon="6.71896076" lat="50.49809647">
    <ele>453.4</ele>
    <time>2011-05-29T13:33:02.000Z</time>
   </trkpt>
   <trkpt lon="6.71840715" lat="50.49803543">
    <ele>453.4</ele>
    <time>2011-05-29T13:33:17.000Z</time>
   </trkpt>
   <trkpt lon="6.71823120" lat="50.49802399">
    <ele>454.84</ele>
    <time>2011-05-29T13:33:22.000Z</time>
   </trkpt>
   <trkpt lon="6.71768713" lat="50.49792099">
    <ele>455.32</ele>
    <time>2011-05-29T13:33:38.000Z</time>
   </trkpt>
   <trkpt lon="6.71707296" lat="50.49784088">
    <ele>457.24</ele>
    <time>2011-05-29T13:33:56.000Z</time>
   </trkpt>
   <trkpt lon="6.71668005" lat="50.49790955">
    <ele>459.17</ele>
    <time>2011-05-29T13:34:13.000Z</time>
   </trkpt>
   <trkpt lon="6.71637678" lat="50.49780655">
    <ele>461.57</ele>
    <time>2011-05-29T13:34:28.000Z</time>
   </trkpt>
   <trkpt lon="6.71609592" lat="50.49768829">
    <ele>463.49</ele>
    <time>2011-05-29T13:34:43.000Z</time>
   </trkpt>
   <trkpt lon="6.71596098" lat="50.49762344">
    <ele>463.97</ele>
    <time>2011-05-29T13:34:51.000Z</time>
   </trkpt>
   <trkpt lon="6.71593904" lat="50.49761963">
    <ele>463.97</ele>
    <time>2011-05-29T13:34:52.000Z</time>
   </trkpt>
   <trkpt lon="6.71568823" lat="50.49752426">
    <ele>465.42</ele>
    <time>2011-05-29T13:35:06.000Z</time>
   </trkpt>
   <trkpt lon="6.71556616" lat="50.49747086">
    <ele>465.9</ele>
    <time>2011-05-29T13:35:14.000Z</time>
   </trkpt>
   <trkpt lon="6.71555185" lat="50.49746323">
    <ele>465.9</ele>
    <time>2011-05-29T13:35:15.000Z</time>
   </trkpt>
   <trkpt lon="6.71553898" lat="50.49745560">
    <ele>466.38</ele>
    <time>2011-05-29T13:35:16.000Z</time>
   </trkpt>
   <trkpt lon="6.71552610" lat="50.49744415">
    <ele>466.38</ele>
    <time>2011-05-29T13:35:17.000Z</time>
   </trkpt>
   <trkpt lon="6.71551180" lat="50.49743652">
    <ele>466.38</ele>
    <time>2011-05-29T13:35:18.000Z</time>
   </trkpt>
   <trkpt lon="6.71549606" lat="50.49742889">
    <ele>466.38</ele>
    <time>2011-05-29T13:35:19.000Z</time>
   </trkpt>
   <trkpt lon="6.71547699" lat="50.49742126">
    <ele>466.38</ele>
    <time>2011-05-29T13:35:20.000Z</time>
   </trkpt>
   <trkpt lon="6.71545792" lat="50.49742126">
    <ele>466.86</ele>
    <time>2011-05-29T13:35:21.000Z</time>
   </trkpt>
   <trkpt lon="6.71518898" lat="50.49729919">
    <ele>468.78</ele>
    <time>2011-05-29T13:35:38.000Z</time>
   </trkpt>
   <trkpt lon="6.71492100" lat="50.49719238">
    <ele>470.22</ele>
    <time>2011-05-29T13:35:54.000Z</time>
   </trkpt>
   <trkpt lon="6.71466780" lat="50.49708176">
    <ele>471.18</ele>
    <time>2011-05-29T13:36:09.000Z</time>
   </trkpt>
   <trkpt lon="6.71438885" lat="50.49696732">
    <ele>473.11</ele>
    <time>2011-05-29T13:36:25.000Z</time>
   </trkpt>
   <trkpt lon="6.71435881" lat="50.49695587">
    <ele>473.59</ele>
    <time>2011-05-29T13:36:27.000Z</time>
   </trkpt>
   <trkpt lon="6.71433783" lat="50.49694824">
    <ele>473.11</ele>
    <time>2011-05-29T13:36:28.000Z</time>
   </trkpt>
   <trkpt lon="6.71414185" lat="50.49684143">
    <ele>475.03</ele>
    <time>2011-05-29T13:36:40.000Z</time>
   </trkpt>
   <trkpt lon="6.71412611" lat="50.49683380">
    <ele>474.07</ele>
    <time>2011-05-29T13:36:41.000Z</time>
   </trkpt>
   <trkpt lon="6.71410894" lat="50.49682999">
    <ele>474.07</ele>
    <time>2011-05-29T13:36:42.000Z</time>
   </trkpt>
   <trkpt lon="6.71409607" lat="50.49682236">
    <ele>474.55</ele>
    <time>2011-05-29T13:36:43.000Z</time>
   </trkpt>
   <trkpt lon="6.71407795" lat="50.49681854">
    <ele>474.55</ele>
    <time>2011-05-29T13:36:44.000Z</time>
   </trkpt>
   <trkpt lon="6.71379614" lat="50.49669647">
    <ele>476.47</ele>
    <time>2011-05-29T13:37:00.000Z</time>
   </trkpt>
   <trkpt lon="6.71376514" lat="50.49668121">
    <ele>475.99</ele>
    <time>2011-05-29T13:37:02.000Z</time>
   </trkpt>
   <trkpt lon="6.71375322" lat="50.49667358">
    <ele>476.47</ele>
    <time>2011-05-29T13:37:03.000Z</time>
   </trkpt>
   <trkpt lon="6.71374083" lat="50.49666214">
    <ele>476.95</ele>
    <time>2011-05-29T13:37:04.000Z</time>
   </trkpt>
   <trkpt lon="6.71373081" lat="50.49665070">
    <ele>476.95</ele>
    <time>2011-05-29T13:37:05.000Z</time>
   </trkpt>
   <trkpt lon="6.71371508" lat="50.49664307">
    <ele>477.43</ele>
    <time>2011-05-29T13:37:06.000Z</time>
   </trkpt>
   <trkpt lon="6.71369505" lat="50.49663544">
    <ele>476.95</ele>
    <time>2011-05-29T13:37:07.000Z</time>
   </trkpt>
   <trkpt lon="6.71367693" lat="50.49663162">
    <ele>476.47</ele>
    <time>2011-05-29T13:37:08.000Z</time>
   </trkpt>
   <trkpt lon="6.71366501" lat="50.49662399">
    <ele>477.43</ele>
    <time>2011-05-29T13:37:09.000Z</time>
   </trkpt>
   <trkpt lon="6.71365023" lat="50.49661255">
    <ele>476.95</ele>
    <time>2011-05-29T13:37:10.000Z</time>
   </trkpt>
   <trkpt lon="6.71339703" lat="50.49648285">
    <ele>478.39</ele>
    <time>2011-05-29T13:37:25.000Z</time>
   </trkpt>
   <trkpt lon="6.71321201" lat="50.49638367">
    <ele>480.32</ele>
    <time>2011-05-29T13:37:37.000Z</time>
   </trkpt>
   <trkpt lon="6.71320295" lat="50.49637222">
    <ele>480.8</ele>
    <time>2011-05-29T13:37:38.000Z</time>
   </trkpt>
   <trkpt lon="6.71319389" lat="50.49636459">
    <ele>480.8</ele>
    <time>2011-05-29T13:37:39.000Z</time>
   </trkpt>
   <trkpt lon="6.71317387" lat="50.49634552">
    <ele>480.8</ele>
    <time>2011-05-29T13:37:41.000Z</time>
   </trkpt>
   <trkpt lon="6.71315718" lat="50.49633408">
    <ele>480.8</ele>
    <time>2011-05-29T13:37:42.000Z</time>
   </trkpt>
   <trkpt lon="6.71313620" lat="50.49632645">
    <ele>480.8</ele>
    <time>2011-05-29T13:37:43.000Z</time>
   </trkpt>
   <trkpt lon="6.71285105" lat="50.49620438">
    <ele>482.24</ele>
    <time>2011-05-29T13:37:59.000Z</time>
   </trkpt>
   <trkpt lon="6.71256495" lat="50.49608994">
    <ele>483.2</ele>
    <time>2011-05-29T13:38:14.000Z</time>
   </trkpt>
   <trkpt lon="6.71229315" lat="50.49599075">
    <ele>484.16</ele>
    <time>2011-05-29T13:38:29.000Z</time>
   </trkpt>
   <trkpt lon="6.71199179" lat="50.49587631">
    <ele>485.6</ele>
    <time>2011-05-29T13:38:46.000Z</time>
   </trkpt>
   <trkpt lon="6.71169901" lat="50.49574280">
    <ele>486.56</ele>
    <time>2011-05-29T13:39:04.000Z</time>
   </trkpt>
   <trkpt lon="6.71148014" lat="50.49563599">
    <ele>488.49</ele>
    <time>2011-05-29T13:39:18.000Z</time>
   </trkpt>
   <trkpt lon="6.71120691" lat="50.49549866">
    <ele>490.41</ele>
    <time>2011-05-29T13:39:35.000Z</time>
   </trkpt>
   <trkpt lon="6.71098089" lat="50.49535370">
    <ele>492.33</ele>
    <time>2011-05-29T13:39:51.000Z</time>
   </trkpt>
   <trkpt lon="6.71084499" lat="50.49529648">
    <ele>491.37</ele>
    <time>2011-05-29T13:39:59.000Z</time>
   </trkpt>
   <trkpt lon="6.71073198" lat="50.49526215">
    <ele>493.77</ele>
    <time>2011-05-29T13:40:05.000Z</time>
   </trkpt>
   <trkpt lon="6.71046877" lat="50.49520111">
    <ele>495.22</ele>
    <time>2011-05-29T13:40:20.000Z</time>
   </trkpt>
   <trkpt lon="6.71016598" lat="50.49513626">
    <ele>496.66</ele>
    <time>2011-05-29T13:40:35.000Z</time>
   </trkpt>
   <trkpt lon="6.70983982" lat="50.49508286">
    <ele>498.58</ele>
    <time>2011-05-29T13:40:51.000Z</time>
   </trkpt>
   <trkpt lon="6.70950222" lat="50.49505234">
    <ele>500.98</ele>
    <time>2011-05-29T13:41:06.000Z</time>
   </trkpt>
   <trkpt lon="6.70924187" lat="50.49517822">
    <ele>502.43</ele>
    <time>2011-05-29T13:41:23.000Z</time>
   </trkpt>
   <trkpt lon="6.70899010" lat="50.49533081">
    <ele>503.87</ele>
    <time>2011-05-29T13:41:40.000Z</time>
   </trkpt>
   <trkpt lon="6.70870590" lat="50.49550629">
    <ele>506.27</ele>
    <time>2011-05-29T13:41:59.000Z</time>
   </trkpt>
   <trkpt lon="6.70848179" lat="50.49563980">
    <ele>507.71</ele>
    <time>2011-05-29T13:42:15.000Z</time>
   </trkpt>
   <trkpt lon="6.70828819" lat="50.49574280">
    <ele>509.16</ele>
    <time>2011-05-29T13:42:27.000Z</time>
   </trkpt>
   <trkpt lon="6.70828199" lat="50.49575806">
    <ele>509.16</ele>
    <time>2011-05-29T13:42:28.000Z</time>
   </trkpt>
   <trkpt lon="6.70827198" lat="50.49576569">
    <ele>509.64</ele>
    <time>2011-05-29T13:42:29.000Z</time>
   </trkpt>
   <trkpt lon="6.70826101" lat="50.49577713">
    <ele>509.64</ele>
    <time>2011-05-29T13:42:30.000Z</time>
   </trkpt>
   <trkpt lon="6.70824814" lat="50.49578476">
    <ele>510.12</ele>
    <time>2011-05-29T13:42:31.000Z</time>
   </trkpt>
   <trkpt lon="6.70823097" lat="50.49578857">
    <ele>510.12</ele>
    <time>2011-05-29T13:42:32.000Z</time>
   </trkpt>
   <trkpt lon="6.70821190" lat="50.49579239">
    <ele>510.12</ele>
    <time>2011-05-29T13:42:33.000Z</time>
   </trkpt>
   <trkpt lon="6.70819616" lat="50.49580002">
    <ele>510.12</ele>
    <time>2011-05-29T13:42:34.000Z</time>
   </trkpt>
   <trkpt lon="6.70817900" lat="50.49580765">
    <ele>510.6</ele>
    <time>2011-05-29T13:42:35.000Z</time>
   </trkpt>
   <trkpt lon="6.70816278" lat="50.49581528">
    <ele>510.6</ele>
    <time>2011-05-29T13:42:36.000Z</time>
   </trkpt>
   <trkpt lon="6.70814800" lat="50.49582672">
    <ele>511.08</ele>
    <time>2011-05-29T13:42:37.000Z</time>
   </trkpt>
   <trkpt lon="6.70813322" lat="50.49583435">
    <ele>511.08</ele>
    <time>2011-05-29T13:42:38.000Z</time>
   </trkpt>
   <trkpt lon="6.70811701" lat="50.49584579">
    <ele>511.08</ele>
    <time>2011-05-29T13:42:39.000Z</time>
   </trkpt>
   <trkpt lon="6.70810318" lat="50.49585342">
    <ele>511.08</ele>
    <time>2011-05-29T13:42:40.000Z</time>
   </trkpt>
   <trkpt lon="6.70808601" lat="50.49586105">
    <ele>511.08</ele>
    <time>2011-05-29T13:42:41.000Z</time>
   </trkpt>
   <trkpt lon="6.70799017" lat="50.49592209">
    <ele>513</ele>
    <time>2011-05-29T13:42:48.000Z</time>
   </trkpt>
   <trkpt lon="6.70784283" lat="50.49609375">
    <ele>514.44</ele>
    <time>2011-05-29T13:43:03.000Z</time>
   </trkpt>
   <trkpt lon="6.70780182" lat="50.49618149">
    <ele>514.92</ele>
    <time>2011-05-29T13:43:10.000Z</time>
   </trkpt>
   <trkpt lon="6.70777607" lat="50.49618912">
    <ele>515.4</ele>
    <time>2011-05-29T13:43:11.000Z</time>
   </trkpt>
   <trkpt lon="6.70775223" lat="50.49619675">
    <ele>515.4</ele>
    <time>2011-05-29T13:43:12.000Z</time>
   </trkpt>
   <trkpt lon="6.70771503" lat="50.49619675">
    <ele>515.88</ele>
    <time>2011-05-29T13:43:14.000Z</time>
   </trkpt>
   <trkpt lon="6.70769215" lat="50.49618912">
    <ele>516.37</ele>
    <time>2011-05-29T13:43:15.000Z</time>
   </trkpt>
   <trkpt lon="6.70767498" lat="50.49617767">
    <ele>515.4</ele>
    <time>2011-05-29T13:43:16.000Z</time>
   </trkpt>
   <trkpt lon="6.70752287" lat="50.49597931">
    <ele>516.85</ele>
    <time>2011-05-29T13:43:30.000Z</time>
   </trkpt>
   <trkpt lon="6.70715809" lat="50.49587250">
    <ele>516.85</ele>
    <time>2011-05-29T13:43:44.000Z</time>
   </trkpt>
   <trkpt lon="6.70676613" lat="50.49589539">
    <ele>518.29</ele>
    <time>2011-05-29T13:43:59.000Z</time>
   </trkpt>
   <trkpt lon="6.70643520" lat="50.49595261">
    <ele>520.21</ele>
    <time>2011-05-29T13:44:15.000Z</time>
   </trkpt>
   <trkpt lon="6.70631218" lat="50.49597549">
    <ele>521.17</ele>
    <time>2011-05-29T13:44:21.000Z</time>
   </trkpt>
   <trkpt lon="6.70602703" lat="50.49603271">
    <ele>523.09</ele>
    <time>2011-05-29T13:44:35.000Z</time>
   </trkpt>
   <trkpt lon="6.70600319" lat="50.49603653">
    <ele>523.09</ele>
    <time>2011-05-29T13:44:36.000Z</time>
   </trkpt>
   <trkpt lon="6.70597982" lat="50.49603653">
    <ele>523.58</ele>
    <time>2011-05-29T13:44:37.000Z</time>
   </trkpt>
   <trkpt lon="6.70595789" lat="50.49604034">
    <ele>523.58</ele>
    <time>2011-05-29T13:44:38.000Z</time>
   </trkpt>
   <trkpt lon="6.70593309" lat="50.49604034">
    <ele>523.58</ele>
    <time>2011-05-29T13:44:39.000Z</time>
   </trkpt>
   <trkpt lon="6.70591021" lat="50.49604416">
    <ele>523.58</ele>
    <time>2011-05-29T13:44:40.000Z</time>
   </trkpt>
   <trkpt lon="6.70588779" lat="50.49604797">
    <ele>523.58</ele>
    <time>2011-05-29T13:44:41.000Z</time>
   </trkpt>
   <trkpt lon="6.70586777" lat="50.49605179">
    <ele>523.09</ele>
    <time>2011-05-29T13:44:42.000Z</time>
   </trkpt>
   <trkpt lon="6.70584822" lat="50.49605179">
    <ele>523.58</ele>
    <time>2011-05-29T13:44:43.000Z</time>
   </trkpt>
   <trkpt lon="6.70551777" lat="50.49597168">
    <ele>524.54</ele>
    <time>2011-05-29T13:44:59.000Z</time>
   </trkpt>
   <trkpt lon="6.70523310" lat="50.49582672">
    <ele>525.02</ele>
    <time>2011-05-29T13:45:15.000Z</time>
   </trkpt>
   <trkpt lon="6.70516777" lat="50.49578476">
    <ele>526.46</ele>
    <time>2011-05-29T13:45:19.000Z</time>
   </trkpt>
   <trkpt lon="6.70515013" lat="50.49577713">
    <ele>525.98</ele>
    <time>2011-05-29T13:45:20.000Z</time>
   </trkpt>
   <trkpt lon="6.70513582" lat="50.49576950">
    <ele>525.98</ele>
    <time>2011-05-29T13:45:21.000Z</time>
   </trkpt>
   <trkpt lon="6.70511913" lat="50.49576187">
    <ele>525.98</ele>
    <time>2011-05-29T13:45:22.000Z</time>
   </trkpt>
   <trkpt lon="6.70510006" lat="50.49575806">
    <ele>525.98</ele>
    <time>2011-05-29T13:45:23.000Z</time>
   </trkpt>
   <trkpt lon="6.70507908" lat="50.49575424">
    <ele>525.98</ele>
    <time>2011-05-29T13:45:24.000Z</time>
   </trkpt>
   <trkpt lon="6.70506001" lat="50.49575043">
    <ele>526.46</ele>
    <time>2011-05-29T13:45:25.000Z</time>
   </trkpt>
   <trkpt lon="6.70504189" lat="50.49574280">
    <ele>525.98</ele>
    <time>2011-05-29T13:45:26.000Z</time>
   </trkpt>
   <trkpt lon="6.70501995" lat="50.49573898">
    <ele>526.46</ele>
    <time>2011-05-29T13:45:27.000Z</time>
   </trkpt>
   <trkpt lon="6.70499611" lat="50.49573898">
    <ele>526.46</ele>
    <time>2011-05-29T13:45:28.000Z</time>
   </trkpt>
   <trkpt lon="6.70497417" lat="50.49573898">
    <ele>526.46</ele>
    <time>2011-05-29T13:45:29.000Z</time>
   </trkpt>
   <trkpt lon="6.70495415" lat="50.49573517">
    <ele>526.46</ele>
    <time>2011-05-29T13:45:30.000Z</time>
   </trkpt>
   <trkpt lon="6.70458698" lat="50.49568939">
    <ele>528.86</ele>
    <time>2011-05-29T13:45:48.000Z</time>
   </trkpt>
   <trkpt lon="6.70421410" lat="50.49565125">
    <ele>528.86</ele>
    <time>2011-05-29T13:46:04.000Z</time>
   </trkpt>
   <trkpt lon="6.70386791" lat="50.49560547">
    <ele>529.34</ele>
    <time>2011-05-29T13:46:17.000Z</time>
   </trkpt>
   <trkpt lon="6.70373106" lat="50.49559784">
    <ele>525.98</ele>
    <time>2011-05-29T13:46:21.000Z</time>
   </trkpt>
   <trkpt lon="6.70369196" lat="50.49559021">
    <ele>526.46</ele>
    <time>2011-05-29T13:46:22.000Z</time>
   </trkpt>
   <trkpt lon="6.70297623" lat="50.49548721">
    <ele>527.9</ele>
    <time>2011-05-29T13:46:37.000Z</time>
   </trkpt>
   <trkpt lon="6.70212984" lat="50.49530411">
    <ele>527.9</ele>
    <time>2011-05-29T13:46:54.000Z</time>
   </trkpt>
   <trkpt lon="6.70121193" lat="50.49501419">
    <ele>525.98</ele>
    <time>2011-05-29T13:47:08.000Z</time>
   </trkpt>
   <trkpt lon="6.70038700" lat="50.49471664">
    <ele>525.5</ele>
    <time>2011-05-29T13:47:22.000Z</time>
   </trkpt>
   <trkpt lon="6.69980288" lat="50.49465561">
    <ele>528.38</ele>
    <time>2011-05-29T13:47:36.000Z</time>
   </trkpt>
   <trkpt lon="6.69937086" lat="50.49459457">
    <ele>528.86</ele>
    <time>2011-05-29T13:47:50.000Z</time>
   </trkpt>
   <trkpt lon="6.69896984" lat="50.49451828">
    <ele>529.82</ele>
    <time>2011-05-29T13:48:04.000Z</time>
   </trkpt>
   <trkpt lon="6.69879913" lat="50.49448395">
    <ele>530.79</ele>
    <time>2011-05-29T13:48:11.000Z</time>
   </trkpt>
   <trkpt lon="6.69878101" lat="50.49447632">
    <ele>530.79</ele>
    <time>2011-05-29T13:48:12.000Z</time>
   </trkpt>
   <trkpt lon="6.69876003" lat="50.49447250">
    <ele>530.79</ele>
    <time>2011-05-29T13:48:13.000Z</time>
   </trkpt>
   <trkpt lon="6.69867420" lat="50.49444962">
    <ele>531.27</ele>
    <time>2011-05-29T13:48:17.000Z</time>
   </trkpt>
   <trkpt lon="6.69865179" lat="50.49444580">
    <ele>530.79</ele>
    <time>2011-05-29T13:48:18.000Z</time>
   </trkpt>
   <trkpt lon="6.69862700" lat="50.49444199">
    <ele>532.23</ele>
    <time>2011-05-29T13:48:19.000Z</time>
   </trkpt>
   <trkpt lon="6.69860601" lat="50.49443817">
    <ele>531.75</ele>
    <time>2011-05-29T13:48:20.000Z</time>
   </trkpt>
   <trkpt lon="6.69858408" lat="50.49443054">
    <ele>530.3</ele>
    <time>2011-05-29T13:48:21.000Z</time>
   </trkpt>
   <trkpt lon="6.69856501" lat="50.49442673">
    <ele>530.3</ele>
    <time>2011-05-29T13:48:22.000Z</time>
   </trkpt>
   <trkpt lon="6.69845581" lat="50.49440384">
    <ele>533.19</ele>
    <time>2011-05-29T13:48:27.000Z</time>
   </trkpt>
   <trkpt lon="6.69816208" lat="50.49433517">
    <ele>534.15</ele>
    <time>2011-05-29T13:48:42.000Z</time>
   </trkpt>
   <trkpt lon="6.69790220" lat="50.49426651">
    <ele>535.11</ele>
    <time>2011-05-29T13:48:56.000Z</time>
   </trkpt>
   <trkpt lon="6.69758701" lat="50.49419785">
    <ele>535.59</ele>
    <time>2011-05-29T13:49:12.000Z</time>
   </trkpt>
   <trkpt lon="6.69756603" lat="50.49419403">
    <ele>536.07</ele>
    <time>2011-05-29T13:49:13.000Z</time>
   </trkpt>
   <trkpt lon="6.69722223" lat="50.49412918">
    <ele>537.51</ele>
    <time>2011-05-29T13:49:29.000Z</time>
   </trkpt>
   <trkpt lon="6.69688082" lat="50.49405289">
    <ele>538.48</ele>
    <time>2011-05-29T13:49:44.000Z</time>
   </trkpt>
   <trkpt lon="6.69663477" lat="50.49402237">
    <ele>537.99</ele>
    <time>2011-05-29T13:49:57.000Z</time>
   </trkpt>
   <trkpt lon="6.69663286" lat="50.49402237">
    <ele>537.99</ele>
    <time>2011-05-29T13:50:11.000Z</time>
   </trkpt>
   <trkpt lon="6.69663382" lat="50.49402618">
    <ele>537.03</ele>
    <time>2011-05-29T13:50:42.000Z</time>
   </trkpt>
   <trkpt lon="6.69663382" lat="50.49402618">
    <ele>537.03</ele>
    <time>2011-05-29T13:51:19.000Z</time>
   </trkpt>
   <trkpt lon="6.69663620" lat="50.49402618">
    <ele>537.51</ele>
    <time>2011-05-29T13:51:53.000Z</time>
   </trkpt>
   <trkpt lon="6.69663906" lat="50.49402618">
    <ele>537.03</ele>
    <time>2011-05-29T13:52:24.000Z</time>
   </trkpt>
   <trkpt lon="6.69664001" lat="50.49402618">
    <ele>537.51</ele>
    <time>2011-05-29T13:52:52.000Z</time>
   </trkpt>
   <trkpt lon="6.69664001" lat="50.49402618">
    <ele>537.51</ele>
    <time>2011-05-29T13:53:18.000Z</time>
   </trkpt>
   <trkpt lon="6.69664001" lat="50.49402618">
    <ele>537.03</ele>
    <time>2011-05-29T13:53:59.000Z</time>
   </trkpt>
   <trkpt lon="6.69664001" lat="50.49402618">
    <ele>537.03</ele>
    <time>2011-05-29T13:54:38.000Z</time>
   </trkpt>
   <trkpt lon="6.69663620" lat="50.49402237">
    <ele>536.55</ele>
    <time>2011-05-29T13:55:17.000Z</time>
   </trkpt>
   <trkpt lon="6.69663382" lat="50.49402618">
    <ele>536.55</ele>
    <time>2011-05-29T13:55:49.000Z</time>
   </trkpt>
   <trkpt lon="6.69658518" lat="50.49399948">
    <ele>537.51</ele>
    <time>2011-05-29T13:56:20.000Z</time>
   </trkpt>
   <trkpt lon="6.69657087" lat="50.49399185">
    <ele>537.03</ele>
    <time>2011-05-29T13:56:21.000Z</time>
   </trkpt>
   <trkpt lon="6.69654989" lat="50.49398804">
    <ele>537.03</ele>
    <time>2011-05-29T13:56:22.000Z</time>
   </trkpt>
   <trkpt lon="6.69652605" lat="50.49398422">
    <ele>537.51</ele>
    <time>2011-05-29T13:56:23.000Z</time>
   </trkpt>
   <trkpt lon="6.69649792" lat="50.49397659">
    <ele>537.03</ele>
    <time>2011-05-29T13:56:24.000Z</time>
   </trkpt>
   <trkpt lon="6.69647312" lat="50.49396896">
    <ele>537.03</ele>
    <time>2011-05-29T13:56:25.000Z</time>
   </trkpt>
   <trkpt lon="6.69632387" lat="50.49392700">
    <ele>535.11</ele>
    <time>2011-05-29T13:56:30.000Z</time>
   </trkpt>
   <trkpt lon="6.69558620" lat="50.49375916">
    <ele>535.11</ele>
    <time>2011-05-29T13:56:46.000Z</time>
   </trkpt>
   <trkpt lon="6.69456816" lat="50.49356461">
    <ele>534.15</ele>
    <time>2011-05-29T13:57:03.000Z</time>
   </trkpt>
   <trkpt lon="6.69353914" lat="50.49336243">
    <ele>533.67</ele>
    <time>2011-05-29T13:57:20.000Z</time>
   </trkpt>
   <trkpt lon="6.69315386" lat="50.49327469">
    <ele>532.71</ele>
    <time>2011-05-29T13:57:26.000Z</time>
   </trkpt>
   <trkpt lon="6.69309282" lat="50.49325562">
    <ele>532.71</ele>
    <time>2011-05-29T13:57:27.000Z</time>
   </trkpt>
   <trkpt lon="6.69302988" lat="50.49323654">
    <ele>532.71</ele>
    <time>2011-05-29T13:57:28.000Z</time>
   </trkpt>
   <trkpt lon="6.69203901" lat="50.49296188">
    <ele>533.19</ele>
    <time>2011-05-29T13:57:43.000Z</time>
   </trkpt>
   <trkpt lon="6.69126320" lat="50.49289322">
    <ele>534.15</ele>
    <time>2011-05-29T13:57:57.000Z</time>
   </trkpt>
   <trkpt lon="6.69041681" lat="50.49274826">
    <ele>534.63</ele>
    <time>2011-05-29T13:58:12.000Z</time>
   </trkpt>
   <trkpt lon="6.68962622" lat="50.49260712">
    <ele>534.15</ele>
    <time>2011-05-29T13:58:26.000Z</time>
   </trkpt>
   <trkpt lon="6.68879223" lat="50.49246597">
    <ele>532.71</ele>
    <time>2011-05-29T13:58:40.000Z</time>
   </trkpt>
   <trkpt lon="6.68872499" lat="50.49245071">
    <ele>533.19</ele>
    <time>2011-05-29T13:58:41.000Z</time>
   </trkpt>
   <trkpt lon="6.68865681" lat="50.49243927">
    <ele>533.19</ele>
    <time>2011-05-29T13:58:42.000Z</time>
   </trkpt>
   <trkpt lon="6.68859100" lat="50.49242783">
    <ele>533.19</ele>
    <time>2011-05-29T13:58:43.000Z</time>
   </trkpt>
   <trkpt lon="6.68852901" lat="50.49241638">
    <ele>533.19</ele>
    <time>2011-05-29T13:58:44.000Z</time>
   </trkpt>
   <trkpt lon="6.68749714" lat="50.49221802">
    <ele>532.23</ele>
    <time>2011-05-29T13:58:59.000Z</time>
   </trkpt>
   <trkpt lon="6.68728590" lat="50.49217606">
    <ele>532.23</ele>
    <time>2011-05-29T13:59:02.000Z</time>
   </trkpt>
   <trkpt lon="6.68722010" lat="50.49215698">
    <ele>532.23</ele>
    <time>2011-05-29T13:59:03.000Z</time>
   </trkpt>
   <trkpt lon="6.68701982" lat="50.49211502">
    <ele>532.23</ele>
    <time>2011-05-29T13:59:06.000Z</time>
   </trkpt>
   <trkpt lon="6.68674421" lat="50.49207306">
    <ele>531.27</ele>
    <time>2011-05-29T13:59:10.000Z</time>
   </trkpt>
   <trkpt lon="6.68660688" lat="50.49204254">
    <ele>531.27</ele>
    <time>2011-05-29T13:59:12.000Z</time>
   </trkpt>
   <trkpt lon="6.68653488" lat="50.49202728">
    <ele>531.27</ele>
    <time>2011-05-29T13:59:13.000Z</time>
   </trkpt>
   <trkpt lon="6.68632603" lat="50.49198151">
    <ele>531.75</ele>
    <time>2011-05-29T13:59:16.000Z</time>
   </trkpt>
   <trkpt lon="6.68603182" lat="50.49195480">
    <ele>530.79</ele>
    <time>2011-05-29T13:59:20.000Z</time>
   </trkpt>
   <trkpt lon="6.68588877" lat="50.49195862">
    <ele>530.79</ele>
    <time>2011-05-29T13:59:22.000Z</time>
   </trkpt>
   <trkpt lon="6.68581915" lat="50.49196625">
    <ele>530.79</ele>
    <time>2011-05-29T13:59:23.000Z</time>
   </trkpt>
   <trkpt lon="6.68574619" lat="50.49197769">
    <ele>530.3</ele>
    <time>2011-05-29T13:59:24.000Z</time>
   </trkpt>
   <trkpt lon="6.68567514" lat="50.49198914">
    <ele>530.3</ele>
    <time>2011-05-29T13:59:25.000Z</time>
   </trkpt>
   <trkpt lon="6.68560505" lat="50.49200821">
    <ele>529.82</ele>
    <time>2011-05-29T13:59:26.000Z</time>
   </trkpt>
   <trkpt lon="6.68458080" lat="50.49240112">
    <ele>529.34</ele>
    <time>2011-05-29T13:59:42.000Z</time>
   </trkpt>
   <trkpt lon="6.68438196" lat="50.49254990">
    <ele>529.34</ele>
    <time>2011-05-29T13:59:46.000Z</time>
   </trkpt>
   <trkpt lon="6.68426323" lat="50.49261475">
    <ele>529.34</ele>
    <time>2011-05-29T13:59:48.000Z</time>
   </trkpt>
   <trkpt lon="6.68419600" lat="50.49263382">
    <ele>529.82</ele>
    <time>2011-05-29T13:59:49.000Z</time>
   </trkpt>
   <trkpt lon="6.68412924" lat="50.49264526">
    <ele>529.82</ele>
    <time>2011-05-29T13:59:50.000Z</time>
   </trkpt>
   <trkpt lon="6.68405581" lat="50.49264145">
    <ele>529.34</ele>
    <time>2011-05-29T13:59:51.000Z</time>
   </trkpt>
   <trkpt lon="6.68398094" lat="50.49263382">
    <ele>528.86</ele>
    <time>2011-05-29T13:59:52.000Z</time>
   </trkpt>
   <trkpt lon="6.68390512" lat="50.49262238">
    <ele>528.86</ele>
    <time>2011-05-29T13:59:53.000Z</time>
   </trkpt>
   <trkpt lon="6.68375397" lat="50.49260330">
    <ele>529.34</ele>
    <time>2011-05-29T13:59:55.000Z</time>
   </trkpt>
   <trkpt lon="6.68360901" lat="50.49257278">
    <ele>529.34</ele>
    <time>2011-05-29T13:59:57.000Z</time>
   </trkpt>
   <trkpt lon="6.68322086" lat="50.49250412">
    <ele>528.86</ele>
    <time>2011-05-29T14:00:02.000Z</time>
   </trkpt>
   <trkpt lon="6.68270683" lat="50.49240112">
    <ele>528.86</ele>
    <time>2011-05-29T14:00:09.000Z</time>
   </trkpt>
   <trkpt lon="6.68256998" lat="50.49237442">
    <ele>528.38</ele>
    <time>2011-05-29T14:00:11.000Z</time>
   </trkpt>
   <trkpt lon="6.68229485" lat="50.49232483">
    <ele>527.9</ele>
    <time>2011-05-29T14:00:17.000Z</time>
   </trkpt>
   <trkpt lon="6.68226194" lat="50.49232483">
    <ele>527.9</ele>
    <time>2011-05-29T14:00:18.000Z</time>
   </trkpt>
   <trkpt lon="6.68223619" lat="50.49232483">
    <ele>527.9</ele>
    <time>2011-05-29T14:00:19.000Z</time>
   </trkpt>
   <trkpt lon="6.68221521" lat="50.49233246">
    <ele>526.94</ele>
    <time>2011-05-29T14:00:20.000Z</time>
   </trkpt>
   <trkpt lon="6.68220091" lat="50.49234390">
    <ele>527.42</ele>
    <time>2011-05-29T14:00:21.000Z</time>
   </trkpt>
   <trkpt lon="6.68218422" lat="50.49235153">
    <ele>527.9</ele>
    <time>2011-05-29T14:00:22.000Z</time>
   </trkpt>
   <trkpt lon="6.68215799" lat="50.49235535">
    <ele>527.9</ele>
    <time>2011-05-29T14:00:23.000Z</time>
   </trkpt>
   <trkpt lon="6.68212891" lat="50.49235153">
    <ele>528.38</ele>
    <time>2011-05-29T14:00:24.000Z</time>
   </trkpt>
   <trkpt lon="6.68210888" lat="50.49233246">
    <ele>527.9</ele>
    <time>2011-05-29T14:00:25.000Z</time>
   </trkpt>
   <trkpt lon="6.68209887" lat="50.49230957">
    <ele>527.9</ele>
    <time>2011-05-29T14:00:26.000Z</time>
   </trkpt>
   <trkpt lon="6.68209410" lat="50.49228287">
    <ele>527.42</ele>
    <time>2011-05-29T14:00:27.000Z</time>
   </trkpt>
   <trkpt lon="6.68209696" lat="50.49225235">
    <ele>527.42</ele>
    <time>2011-05-29T14:00:28.000Z</time>
   </trkpt>
   <trkpt lon="6.68211222" lat="50.49222565">
    <ele>527.42</ele>
    <time>2011-05-29T14:00:29.000Z</time>
   </trkpt>
   <trkpt lon="6.68213081" lat="50.49220276">
    <ele>527.9</ele>
    <time>2011-05-29T14:00:30.000Z</time>
   </trkpt>
   <trkpt lon="6.68231010" lat="50.49179459">
    <ele>528.38</ele>
    <time>2011-05-29T14:00:47.000Z</time>
   </trkpt>
   <trkpt lon="6.68232584" lat="50.49180984">
    <ele>528.38</ele>
    <time>2011-05-29T14:00:50.000Z</time>
   </trkpt>
   <trkpt lon="6.68223476" lat="50.49201202">
    <ele>528.38</ele>
    <time>2011-05-29T14:01:01.000Z</time>
   </trkpt>
   <trkpt lon="6.68206501" lat="50.49226379">
    <ele>526.46</ele>
    <time>2011-05-29T14:01:12.000Z</time>
   </trkpt>
   <trkpt lon="6.68204117" lat="50.49227142">
    <ele>526.94</ele>
    <time>2011-05-29T14:01:13.000Z</time>
   </trkpt>
   <trkpt lon="6.68180513" lat="50.49241638">
    <ele>526.46</ele>
    <time>2011-05-29T14:01:23.000Z</time>
   </trkpt>
   <trkpt lon="6.68120003" lat="50.49260712">
    <ele>525.98</ele>
    <time>2011-05-29T14:01:38.000Z</time>
   </trkpt>
   <trkpt lon="6.68109798" lat="50.49255371">
    <ele>525.5</ele>
    <time>2011-05-29T14:01:42.000Z</time>
   </trkpt>
   <trkpt lon="6.68107891" lat="50.49252319">
    <ele>525.5</ele>
    <time>2011-05-29T14:01:43.000Z</time>
   </trkpt>
   <trkpt lon="6.68082285" lat="50.49214935">
    <ele>525.02</ele>
    <time>2011-05-29T14:01:54.000Z</time>
   </trkpt>
   <trkpt lon="6.68041515" lat="50.49150085">
    <ele>525.02</ele>
    <time>2011-05-29T14:02:12.000Z</time>
   </trkpt>
   <trkpt lon="6.68065119" lat="50.49108887">
    <ele>526.94</ele>
    <time>2011-05-29T14:02:28.000Z</time>
   </trkpt>
   <trkpt lon="6.68091202" lat="50.49060059">
    <ele>526.46</ele>
    <time>2011-05-29T14:02:46.000Z</time>
   </trkpt>
   <trkpt lon="6.68125296" lat="50.49018478">
    <ele>527.9</ele>
    <time>2011-05-29T14:03:03.000Z</time>
   </trkpt>
   <trkpt lon="6.68164015" lat="50.48971939">
    <ele>530.3</ele>
    <time>2011-05-29T14:03:24.000Z</time>
   </trkpt>
   <trkpt lon="6.68197393" lat="50.48931885">
    <ele>530.3</ele>
    <time>2011-05-29T14:03:44.000Z</time>
   </trkpt>
   <trkpt lon="6.68220186" lat="50.48902512">
    <ele>531.27</ele>
    <time>2011-05-29T14:03:59.000Z</time>
   </trkpt>
   <trkpt lon="6.68257093" lat="50.48858643">
    <ele>531.75</ele>
    <time>2011-05-29T14:04:20.000Z</time>
   </trkpt>
   <trkpt lon="6.68287897" lat="50.48817825">
    <ele>533.19</ele>
    <time>2011-05-29T14:04:37.000Z</time>
   </trkpt>
   <trkpt lon="6.68324423" lat="50.48773575">
    <ele>531.75</ele>
    <time>2011-05-29T14:04:54.000Z</time>
   </trkpt>
   <trkpt lon="6.68344784" lat="50.48749161">
    <ele>530.3</ele>
    <time>2011-05-29T14:05:02.000Z</time>
   </trkpt>
   <trkpt lon="6.68347692" lat="50.48744965">
    <ele>529.34</ele>
    <time>2011-05-29T14:05:03.000Z</time>
   </trkpt>
   <trkpt lon="6.68367815" lat="50.48719788">
    <ele>526.46</ele>
    <time>2011-05-29T14:05:08.000Z</time>
   </trkpt>
   <trkpt lon="6.68372202" lat="50.48714066">
    <ele>525.98</ele>
    <time>2011-05-29T14:05:09.000Z</time>
   </trkpt>
   <trkpt lon="6.68391180" lat="50.48690796">
    <ele>524.54</ele>
    <time>2011-05-29T14:05:13.000Z</time>
   </trkpt>
   <trkpt lon="6.68406677" lat="50.48672485">
    <ele>523.58</ele>
    <time>2011-05-29T14:05:16.000Z</time>
   </trkpt>
   <trkpt lon="6.68454123" lat="50.48614502">
    <ele>521.65</ele>
    <time>2011-05-29T14:05:26.000Z</time>
   </trkpt>
   <trkpt lon="6.68462181" lat="50.48605728">
    <ele>521.17</ele>
    <time>2011-05-29T14:05:28.000Z</time>
   </trkpt>
   <trkpt lon="6.68463087" lat="50.48601532">
    <ele>520.69</ele>
    <time>2011-05-29T14:05:29.000Z</time>
   </trkpt>
   <trkpt lon="6.68460798" lat="50.48597336">
    <ele>519.73</ele>
    <time>2011-05-29T14:05:30.000Z</time>
   </trkpt>
   <trkpt lon="6.68455315" lat="50.48593903">
    <ele>518.77</ele>
    <time>2011-05-29T14:05:31.000Z</time>
   </trkpt>
   <trkpt lon="6.68448114" lat="50.48591614">
    <ele>517.81</ele>
    <time>2011-05-29T14:05:32.000Z</time>
   </trkpt>
   <trkpt lon="6.68440390" lat="50.48588943">
    <ele>517.33</ele>
    <time>2011-05-29T14:05:33.000Z</time>
   </trkpt>
   <trkpt lon="6.68432283" lat="50.48586655">
    <ele>516.85</ele>
    <time>2011-05-29T14:05:34.000Z</time>
   </trkpt>
   <trkpt lon="6.68380404" lat="50.48573685">
    <ele>514.92</ele>
    <time>2011-05-29T14:05:40.000Z</time>
   </trkpt>
   <trkpt lon="6.68298388" lat="50.48550797">
    <ele>512.04</ele>
    <time>2011-05-29T14:05:51.000Z</time>
   </trkpt>
   <trkpt lon="6.68185091" lat="50.48519516">
    <ele>512.04</ele>
    <time>2011-05-29T14:06:10.000Z</time>
   </trkpt>
   <trkpt lon="6.68132591" lat="50.48503876">
    <ele>511.08</ele>
    <time>2011-05-29T14:06:19.000Z</time>
   </trkpt>
   <trkpt lon="6.68045998" lat="50.48480606">
    <ele>511.08</ele>
    <time>2011-05-29T14:06:32.000Z</time>
   </trkpt>
   <trkpt lon="6.68038702" lat="50.48479843">
    <ele>511.08</ele>
    <time>2011-05-29T14:06:33.000Z</time>
   </trkpt>
   <trkpt lon="6.68031406" lat="50.48479843">
    <ele>510.6</ele>
    <time>2011-05-29T14:06:34.000Z</time>
   </trkpt>
   <trkpt lon="6.68024206" lat="50.48480606">
    <ele>511.08</ele>
    <time>2011-05-29T14:06:35.000Z</time>
   </trkpt>
   <trkpt lon="6.68017387" lat="50.48481750">
    <ele>511.56</ele>
    <time>2011-05-29T14:06:36.000Z</time>
   </trkpt>
   <trkpt lon="6.68011284" lat="50.48483658">
    <ele>511.56</ele>
    <time>2011-05-29T14:06:37.000Z</time>
   </trkpt>
   <trkpt lon="6.68005991" lat="50.48486328">
    <ele>511.56</ele>
    <time>2011-05-29T14:06:38.000Z</time>
   </trkpt>
   <trkpt lon="6.68001223" lat="50.48488617">
    <ele>511.56</ele>
    <time>2011-05-29T14:06:39.000Z</time>
   </trkpt>
   <trkpt lon="6.67954779" lat="50.48514557">
    <ele>513.48</ele>
    <time>2011-05-29T14:06:53.000Z</time>
   </trkpt>
   <trkpt lon="6.67922783" lat="50.48510361">
    <ele>513.48</ele>
    <time>2011-05-29T14:07:03.000Z</time>
   </trkpt>
   <trkpt lon="6.67867088" lat="50.48479080">
    <ele>510.12</ele>
    <time>2011-05-29T14:07:17.000Z</time>
   </trkpt>
   <trkpt lon="6.67802906" lat="50.48443222">
    <ele>507.71</ele>
    <time>2011-05-29T14:07:26.000Z</time>
   </trkpt>
   <trkpt lon="6.67747784" lat="50.48413086">
    <ele>504.35</ele>
    <time>2011-05-29T14:07:32.000Z</time>
   </trkpt>
   <trkpt lon="6.67689323" lat="50.48381042">
    <ele>502.43</ele>
    <time>2011-05-29T14:07:38.000Z</time>
   </trkpt>
   <trkpt lon="6.67605209" lat="50.48335266">
    <ele>498.58</ele>
    <time>2011-05-29T14:07:47.000Z</time>
   </trkpt>
   <trkpt lon="6.67566919" lat="50.48318481">
    <ele>498.1</ele>
    <time>2011-05-29T14:07:51.000Z</time>
   </trkpt>
   <trkpt lon="6.67556715" lat="50.48315811">
    <ele>497.62</ele>
    <time>2011-05-29T14:07:52.000Z</time>
   </trkpt>
   <trkpt lon="6.67443323" lat="50.48292160">
    <ele>496.18</ele>
    <time>2011-05-29T14:08:03.000Z</time>
   </trkpt>
   <trkpt lon="6.67433882" lat="50.48289490">
    <ele>496.18</ele>
    <time>2011-05-29T14:08:04.000Z</time>
   </trkpt>
   <trkpt lon="6.67424679" lat="50.48286057">
    <ele>495.7</ele>
    <time>2011-05-29T14:08:05.000Z</time>
   </trkpt>
   <trkpt lon="6.67406702" lat="50.48278046">
    <ele>494.74</ele>
    <time>2011-05-29T14:08:07.000Z</time>
   </trkpt>
   <trkpt lon="6.67399883" lat="50.48273468">
    <ele>494.74</ele>
    <time>2011-05-29T14:08:08.000Z</time>
   </trkpt>
   <trkpt lon="6.67382097" lat="50.48259354">
    <ele>493.29</ele>
    <time>2011-05-29T14:08:11.000Z</time>
   </trkpt>
   <trkpt lon="6.67358398" lat="50.48241425">
    <ele>491.37</ele>
    <time>2011-05-29T14:08:16.000Z</time>
   </trkpt>
   <trkpt lon="6.67349386" lat="50.48234940">
    <ele>491.37</ele>
    <time>2011-05-29T14:08:18.000Z</time>
   </trkpt>
   <trkpt lon="6.67288494" lat="50.48197174">
    <ele>488.01</ele>
    <time>2011-05-29T14:08:28.000Z</time>
   </trkpt>
   <trkpt lon="6.67280006" lat="50.48193741">
    <ele>487.53</ele>
    <time>2011-05-29T14:08:29.000Z</time>
   </trkpt>
   <trkpt lon="6.67270899" lat="50.48191071">
    <ele>487.53</ele>
    <time>2011-05-29T14:08:30.000Z</time>
   </trkpt>
   <trkpt lon="6.67181921" lat="50.48175812">
    <ele>486.08</ele>
    <time>2011-05-29T14:08:39.000Z</time>
   </trkpt>
   <trkpt lon="6.67174292" lat="50.48172760">
    <ele>486.08</ele>
    <time>2011-05-29T14:08:40.000Z</time>
   </trkpt>
   <trkpt lon="6.67167997" lat="50.48169327">
    <ele>486.08</ele>
    <time>2011-05-29T14:08:41.000Z</time>
   </trkpt>
   <trkpt lon="6.67163420" lat="50.48165512">
    <ele>486.08</ele>
    <time>2011-05-29T14:08:42.000Z</time>
   </trkpt>
   <trkpt lon="6.67159414" lat="50.48161697">
    <ele>486.56</ele>
    <time>2011-05-29T14:08:43.000Z</time>
   </trkpt>
   <trkpt lon="6.67139578" lat="50.48145676">
    <ele>488.97</ele>
    <time>2011-05-29T14:08:52.000Z</time>
   </trkpt>
   <trkpt lon="6.67143393" lat="50.48125839">
    <ele>490.89</ele>
    <time>2011-05-29T14:09:06.000Z</time>
   </trkpt>
   <trkpt lon="6.67168188" lat="50.48107147">
    <ele>493.77</ele>
    <time>2011-05-29T14:09:22.000Z</time>
   </trkpt>
   <trkpt lon="6.67191792" lat="50.48087311">
    <ele>494.74</ele>
    <time>2011-05-29T14:09:38.000Z</time>
   </trkpt>
   <trkpt lon="6.67208385" lat="50.48065948">
    <ele>496.66</ele>
    <time>2011-05-29T14:09:52.000Z</time>
   </trkpt>
   <trkpt lon="6.67208910" lat="50.48043060">
    <ele>499.54</ele>
    <time>2011-05-29T14:10:07.000Z</time>
   </trkpt>
   <trkpt lon="6.67205191" lat="50.48017502">
    <ele>500.5</ele>
    <time>2011-05-29T14:10:26.000Z</time>
   </trkpt>
   <trkpt lon="6.67200184" lat="50.47993088">
    <ele>502.91</ele>
    <time>2011-05-29T14:10:44.000Z</time>
   </trkpt>
   <trkpt lon="6.67197800" lat="50.47966766">
    <ele>503.87</ele>
    <time>2011-05-29T14:11:02.000Z</time>
   </trkpt>
   <trkpt lon="6.67197800" lat="50.47943878">
    <ele>504.83</ele>
    <time>2011-05-29T14:11:17.000Z</time>
   </trkpt>
   <trkpt lon="6.67196894" lat="50.47917557">
    <ele>506.27</ele>
    <time>2011-05-29T14:11:33.000Z</time>
   </trkpt>
   <trkpt lon="6.67194223" lat="50.47884750">
    <ele>506.75</ele>
    <time>2011-05-29T14:11:50.000Z</time>
   </trkpt>
   <trkpt lon="6.67188215" lat="50.47860336">
    <ele>504.83</ele>
    <time>2011-05-29T14:12:00.000Z</time>
   </trkpt>
   <trkpt lon="6.67179918" lat="50.47804642">
    <ele>504.83</ele>
    <time>2011-05-29T14:12:18.000Z</time>
   </trkpt>
   <trkpt lon="6.67167187" lat="50.47721100">
    <ele>502.91</ele>
    <time>2011-05-29T14:12:38.000Z</time>
   </trkpt>
   <trkpt lon="6.67120504" lat="50.47645569">
    <ele>500.98</ele>
    <time>2011-05-29T14:12:55.000Z</time>
   </trkpt>
   <trkpt lon="6.67114115" lat="50.47638321">
    <ele>500.98</ele>
    <time>2011-05-29T14:12:57.000Z</time>
   </trkpt>
   <trkpt lon="6.67096806" lat="50.47580719">
    <ele>500.02</ele>
    <time>2011-05-29T14:13:13.000Z</time>
   </trkpt>
   <trkpt lon="6.67097807" lat="50.47544479">
    <ele>503.39</ele>
    <time>2011-05-29T14:13:28.000Z</time>
   </trkpt>
   <trkpt lon="6.67099094" lat="50.47520828">
    <ele>502.91</ele>
    <time>2011-05-29T14:13:42.000Z</time>
   </trkpt>
   <trkpt lon="6.67099619" lat="50.47494507">
    <ele>505.31</ele>
    <time>2011-05-29T14:13:59.000Z</time>
   </trkpt>
   <trkpt lon="6.67103815" lat="50.47466278">
    <ele>506.75</ele>
    <time>2011-05-29T14:14:19.000Z</time>
   </trkpt>
   <trkpt lon="6.67103481" lat="50.47443771">
    <ele>510.12</ele>
    <time>2011-05-29T14:14:36.000Z</time>
   </trkpt>
   <trkpt lon="6.67104006" lat="50.47439957">
    <ele>510.6</ele>
    <time>2011-05-29T14:14:39.000Z</time>
   </trkpt>
   <trkpt lon="6.67104292" lat="50.47438812">
    <ele>510.6</ele>
    <time>2011-05-29T14:14:40.000Z</time>
   </trkpt>
   <trkpt lon="6.67104483" lat="50.47437286">
    <ele>510.6</ele>
    <time>2011-05-29T14:14:41.000Z</time>
   </trkpt>
   <trkpt lon="6.67104816" lat="50.47436523">
    <ele>511.08</ele>
    <time>2011-05-29T14:14:42.000Z</time>
   </trkpt>
   <trkpt lon="6.67105103" lat="50.47435379">
    <ele>511.08</ele>
    <time>2011-05-29T14:14:43.000Z</time>
   </trkpt>
   <trkpt lon="6.67105198" lat="50.47433853">
    <ele>511.08</ele>
    <time>2011-05-29T14:14:44.000Z</time>
   </trkpt>
   <trkpt lon="6.67110205" lat="50.47409439">
    <ele>513</ele>
    <time>2011-05-29T14:15:03.000Z</time>
   </trkpt>
   <trkpt lon="6.67114878" lat="50.47391129">
    <ele>514.92</ele>
    <time>2011-05-29T14:15:18.000Z</time>
   </trkpt>
   <trkpt lon="6.67118788" lat="50.47370911">
    <ele>515.88</ele>
    <time>2011-05-29T14:15:35.000Z</time>
   </trkpt>
   <trkpt lon="6.67121410" lat="50.47354507">
    <ele>518.77</ele>
    <time>2011-05-29T14:15:48.000Z</time>
   </trkpt>
   <trkpt lon="6.67124510" lat="50.47345352">
    <ele>518.29</ele>
    <time>2011-05-29T14:15:56.000Z</time>
   </trkpt>
   <trkpt lon="6.67124605" lat="50.47344208">
    <ele>518.77</ele>
    <time>2011-05-29T14:15:57.000Z</time>
   </trkpt>
   <trkpt lon="6.67125416" lat="50.47343063">
    <ele>518.77</ele>
    <time>2011-05-29T14:15:58.000Z</time>
   </trkpt>
   <trkpt lon="6.67126608" lat="50.47341919">
    <ele>519.25</ele>
    <time>2011-05-29T14:15:59.000Z</time>
   </trkpt>
   <trkpt lon="6.67127609" lat="50.47340775">
    <ele>519.25</ele>
    <time>2011-05-29T14:16:00.000Z</time>
   </trkpt>
   <trkpt lon="6.67127800" lat="50.47339249">
    <ele>519.25</ele>
    <time>2011-05-29T14:16:01.000Z</time>
   </trkpt>
   <trkpt lon="6.67127705" lat="50.47337723">
    <ele>519.73</ele>
    <time>2011-05-29T14:16:02.000Z</time>
   </trkpt>
   <trkpt lon="6.67127705" lat="50.47336578">
    <ele>519.73</ele>
    <time>2011-05-29T14:16:03.000Z</time>
   </trkpt>
   <trkpt lon="6.67129278" lat="50.47316360">
    <ele>520.69</ele>
    <time>2011-05-29T14:16:19.000Z</time>
   </trkpt>
   <trkpt lon="6.67134714" lat="50.47299576">
    <ele>522.61</ele>
    <time>2011-05-29T14:16:33.000Z</time>
   </trkpt>
   <trkpt lon="6.67139816" lat="50.47276306">
    <ele>524.06</ele>
    <time>2011-05-29T14:16:51.000Z</time>
   </trkpt>
   <trkpt lon="6.67145205" lat="50.47256851">
    <ele>525.02</ele>
    <time>2011-05-29T14:17:06.000Z</time>
   </trkpt>
   <trkpt lon="6.67151022" lat="50.47234344">
    <ele>525.98</ele>
    <time>2011-05-29T14:17:23.000Z</time>
   </trkpt>
   <trkpt lon="6.67151403" lat="50.47227097">
    <ele>526.94</ele>
    <time>2011-05-29T14:17:29.000Z</time>
   </trkpt>
   <trkpt lon="6.67151308" lat="50.47225952">
    <ele>526.94</ele>
    <time>2011-05-29T14:17:30.000Z</time>
   </trkpt>
   <trkpt lon="6.67151499" lat="50.47224808">
    <ele>527.9</ele>
    <time>2011-05-29T14:17:31.000Z</time>
   </trkpt>
   <trkpt lon="6.67151880" lat="50.47223282">
    <ele>526.94</ele>
    <time>2011-05-29T14:17:32.000Z</time>
   </trkpt>
   <trkpt lon="6.67152023" lat="50.47222137">
    <ele>526.46</ele>
    <time>2011-05-29T14:17:33.000Z</time>
   </trkpt>
   <trkpt lon="6.67152309" lat="50.47220993">
    <ele>525.5</ele>
    <time>2011-05-29T14:17:34.000Z</time>
   </trkpt>
   <trkpt lon="6.67153502" lat="50.47219849">
    <ele>525.5</ele>
    <time>2011-05-29T14:17:35.000Z</time>
   </trkpt>
   <trkpt lon="6.67154980" lat="50.47219086">
    <ele>525.5</ele>
    <time>2011-05-29T14:17:36.000Z</time>
   </trkpt>
   <trkpt lon="6.67155695" lat="50.47217560">
    <ele>525.98</ele>
    <time>2011-05-29T14:17:37.000Z</time>
   </trkpt>
   <trkpt lon="6.67155695" lat="50.47216415">
    <ele>527.42</ele>
    <time>2011-05-29T14:17:38.000Z</time>
   </trkpt>
   <trkpt lon="6.67155790" lat="50.47214890">
    <ele>528.38</ele>
    <time>2011-05-29T14:17:39.000Z</time>
   </trkpt>
   <trkpt lon="6.67156506" lat="50.47213745">
    <ele>528.86</ele>
    <time>2011-05-29T14:17:40.000Z</time>
   </trkpt>
   <trkpt lon="6.67156982" lat="50.47212219">
    <ele>528.86</ele>
    <time>2011-05-29T14:17:41.000Z</time>
   </trkpt>
   <trkpt lon="6.67157078" lat="50.47210693">
    <ele>528.86</ele>
    <time>2011-05-29T14:17:42.000Z</time>
   </trkpt>
   <trkpt lon="6.67157078" lat="50.47208786">
    <ele>528.86</ele>
    <time>2011-05-29T14:17:43.000Z</time>
   </trkpt>
   <trkpt lon="6.67157221" lat="50.47207260">
    <ele>528.86</ele>
    <time>2011-05-29T14:17:44.000Z</time>
   </trkpt>
   <trkpt lon="6.67156887" lat="50.47205734">
    <ele>527.9</ele>
    <time>2011-05-29T14:17:45.000Z</time>
   </trkpt>
   <trkpt lon="6.67156601" lat="50.47204208">
    <ele>527.9</ele>
    <time>2011-05-29T14:17:46.000Z</time>
   </trkpt>
   <trkpt lon="6.67155790" lat="50.47202301">
    <ele>527.9</ele>
    <time>2011-05-29T14:17:47.000Z</time>
   </trkpt>
   <trkpt lon="6.67155409" lat="50.47197723">
    <ele>529.34</ele>
    <time>2011-05-29T14:17:50.000Z</time>
   </trkpt>
   <trkpt lon="6.67153502" lat="50.47166824">
    <ele>529.82</ele>
    <time>2011-05-29T14:18:04.000Z</time>
   </trkpt>
   <trkpt lon="6.67141104" lat="50.47137833">
    <ele>530.3</ele>
    <time>2011-05-29T14:18:16.000Z</time>
   </trkpt>
   <trkpt lon="6.67110491" lat="50.47101593">
    <ele>527.42</ele>
    <time>2011-05-29T14:18:30.000Z</time>
   </trkpt>
   <trkpt lon="6.67099714" lat="50.47088623">
    <ele>529.34</ele>
    <time>2011-05-29T14:18:35.000Z</time>
   </trkpt>
   <trkpt lon="6.67062378" lat="50.47048187">
    <ele>528.86</ele>
    <time>2011-05-29T14:18:50.000Z</time>
   </trkpt>
   <trkpt lon="6.67021179" lat="50.46996689">
    <ele>530.79</ele>
    <time>2011-05-29T14:19:10.000Z</time>
   </trkpt>
   <trkpt lon="6.66992998" lat="50.46961212">
    <ele>531.75</ele>
    <time>2011-05-29T14:19:27.000Z</time>
   </trkpt>
   <trkpt lon="6.66971397" lat="50.46925735">
    <ele>534.63</ele>
    <time>2011-05-29T14:19:48.000Z</time>
   </trkpt>
   <trkpt lon="6.66958618" lat="50.46902847">
    <ele>535.11</ele>
    <time>2011-05-29T14:20:03.000Z</time>
   </trkpt>
   <trkpt lon="6.66950083" lat="50.46880722">
    <ele>537.99</ele>
    <time>2011-05-29T14:20:20.000Z</time>
   </trkpt>
   <trkpt lon="6.66949177" lat="50.46879578">
    <ele>537.99</ele>
    <time>2011-05-29T14:20:21.000Z</time>
   </trkpt>
   <trkpt lon="6.66938019" lat="50.46857071">
    <ele>539.44</ele>
    <time>2011-05-29T14:20:40.000Z</time>
   </trkpt>
   <trkpt lon="6.66930580" lat="50.46838760">
    <ele>539.92</ele>
    <time>2011-05-29T14:20:55.000Z</time>
   </trkpt>
   <trkpt lon="6.66926003" lat="50.46832657">
    <ele>541.36</ele>
    <time>2011-05-29T14:21:00.000Z</time>
   </trkpt>
   <trkpt lon="6.66926003" lat="50.46831131">
    <ele>540.88</ele>
    <time>2011-05-29T14:21:01.000Z</time>
   </trkpt>
   <trkpt lon="6.66926003" lat="50.46829605">
    <ele>540.88</ele>
    <time>2011-05-29T14:21:02.000Z</time>
   </trkpt>
   <trkpt lon="6.66915798" lat="50.46806717">
    <ele>542.8</ele>
    <time>2011-05-29T14:21:20.000Z</time>
   </trkpt>
   <trkpt lon="6.66905594" lat="50.46785736">
    <ele>542.8</ele>
    <time>2011-05-29T14:21:36.000Z</time>
   </trkpt>
   <trkpt lon="6.66905499" lat="50.46784592">
    <ele>542.8</ele>
    <time>2011-05-29T14:21:37.000Z</time>
   </trkpt>
   <trkpt lon="6.66905308" lat="50.46783066">
    <ele>543.28</ele>
    <time>2011-05-29T14:21:38.000Z</time>
   </trkpt>
   <trkpt lon="6.66905117" lat="50.46781921">
    <ele>543.28</ele>
    <time>2011-05-29T14:21:39.000Z</time>
   </trkpt>
   <trkpt lon="6.66904783" lat="50.46780396">
    <ele>543.76</ele>
    <time>2011-05-29T14:21:40.000Z</time>
   </trkpt>
   <trkpt lon="6.66904402" lat="50.46779251">
    <ele>543.76</ele>
    <time>2011-05-29T14:21:41.000Z</time>
   </trkpt>
   <trkpt lon="6.66903877" lat="50.46778107">
    <ele>543.76</ele>
    <time>2011-05-29T14:21:42.000Z</time>
   </trkpt>
   <trkpt lon="6.66903400" lat="50.46776962">
    <ele>544.24</ele>
    <time>2011-05-29T14:21:43.000Z</time>
   </trkpt>
   <trkpt lon="6.66902924" lat="50.46775436">
    <ele>544.24</ele>
    <time>2011-05-29T14:21:44.000Z</time>
   </trkpt>
   <trkpt lon="6.66891384" lat="50.46757889">
    <ele>544.24</ele>
    <time>2011-05-29T14:21:58.000Z</time>
   </trkpt>
   <trkpt lon="6.66884708" lat="50.46738434">
    <ele>545.69</ele>
    <time>2011-05-29T14:22:13.000Z</time>
   </trkpt>
   <trkpt lon="6.66869402" lat="50.46715927">
    <ele>546.17</ele>
    <time>2011-05-29T14:22:30.000Z</time>
   </trkpt>
   <trkpt lon="6.66852999" lat="50.46690750">
    <ele>546.65</ele>
    <time>2011-05-29T14:22:48.000Z</time>
   </trkpt>
   <trkpt lon="6.66848898" lat="50.46684265">
    <ele>548.09</ele>
    <time>2011-05-29T14:22:53.000Z</time>
   </trkpt>
   <trkpt lon="6.66834116" lat="50.46664047">
    <ele>549.05</ele>
    <time>2011-05-29T14:23:07.000Z</time>
   </trkpt>
   <trkpt lon="6.66826200" lat="50.46652222">
    <ele>549.53</ele>
    <time>2011-05-29T14:23:16.000Z</time>
   </trkpt>
   <trkpt lon="6.66826296" lat="50.46651077">
    <ele>550.01</ele>
    <time>2011-05-29T14:23:17.000Z</time>
   </trkpt>
   <trkpt lon="6.66825914" lat="50.46649551">
    <ele>549.53</ele>
    <time>2011-05-29T14:23:18.000Z</time>
   </trkpt>
   <trkpt lon="6.66809893" lat="50.46625137">
    <ele>550.97</ele>
    <time>2011-05-29T14:23:34.000Z</time>
   </trkpt>
   <trkpt lon="6.66788912" lat="50.46601868">
    <ele>551.93</ele>
    <time>2011-05-29T14:23:50.000Z</time>
   </trkpt>
   <trkpt lon="6.66769600" lat="50.46579742">
    <ele>551.93</ele>
    <time>2011-05-29T14:24:04.000Z</time>
   </trkpt>
   <trkpt lon="6.66742992" lat="50.46548080">
    <ele>551.93</ele>
    <time>2011-05-29T14:24:21.000Z</time>
   </trkpt>
   <trkpt lon="6.66722202" lat="50.46522903">
    <ele>551.93</ele>
    <time>2011-05-29T14:24:34.000Z</time>
   </trkpt>
   <trkpt lon="6.66693878" lat="50.46486282">
    <ele>551.45</ele>
    <time>2011-05-29T14:24:52.000Z</time>
   </trkpt>
   <trkpt lon="6.66692114" lat="50.46481323">
    <ele>550.97</ele>
    <time>2011-05-29T14:24:56.000Z</time>
   </trkpt>
   <trkpt lon="6.66666508" lat="50.46453094">
    <ele>550.01</ele>
    <time>2011-05-29T14:25:11.000Z</time>
   </trkpt>
   <trkpt lon="6.66642904" lat="50.46419144">
    <ele>548.57</ele>
    <time>2011-05-29T14:25:24.000Z</time>
   </trkpt>
   <trkpt lon="6.66619396" lat="50.46389008">
    <ele>545.69</ele>
    <time>2011-05-29T14:25:30.000Z</time>
   </trkpt>
   <trkpt lon="6.66553116" lat="50.46300507">
    <ele>544.24</ele>
    <time>2011-05-29T14:25:46.000Z</time>
   </trkpt>
   <trkpt lon="6.66511822" lat="50.46241379">
    <ele>541.84</ele>
    <time>2011-05-29T14:25:57.000Z</time>
   </trkpt>
   <trkpt lon="6.66442394" lat="50.46148300">
    <ele>539.92</ele>
    <time>2011-05-29T14:26:15.000Z</time>
   </trkpt>
   <trkpt lon="6.66400909" lat="50.46088409">
    <ele>541.36</ele>
    <time>2011-05-29T14:26:30.000Z</time>
   </trkpt>
   <trkpt lon="6.66383123" lat="50.46066666">
    <ele>544.24</ele>
    <time>2011-05-29T14:26:43.000Z</time>
   </trkpt>
   <trkpt lon="6.66367579" lat="50.46044922">
    <ele>546.17</ele>
    <time>2011-05-29T14:27:00.000Z</time>
   </trkpt>
   <trkpt lon="6.66354513" lat="50.46025848">
    <ele>547.61</ele>
    <time>2011-05-29T14:27:17.000Z</time>
   </trkpt>
   <trkpt lon="6.66350794" lat="50.46021271">
    <ele>548.09</ele>
    <time>2011-05-29T14:27:21.000Z</time>
   </trkpt>
   <trkpt lon="6.66350222" lat="50.46020126">
    <ele>548.57</ele>
    <time>2011-05-29T14:27:22.000Z</time>
   </trkpt>
   <trkpt lon="6.66349506" lat="50.46018982">
    <ele>548.57</ele>
    <time>2011-05-29T14:27:23.000Z</time>
   </trkpt>
   <trkpt lon="6.66348505" lat="50.46018219">
    <ele>548.57</ele>
    <time>2011-05-29T14:27:24.000Z</time>
   </trkpt>
   <trkpt lon="6.66347599" lat="50.46017075">
    <ele>548.57</ele>
    <time>2011-05-29T14:27:25.000Z</time>
   </trkpt>
   <trkpt lon="6.66346788" lat="50.46016312">
    <ele>549.05</ele>
    <time>2011-05-29T14:27:26.000Z</time>
   </trkpt>
   <trkpt lon="6.66337204" lat="50.45999527">
    <ele>551.45</ele>
    <time>2011-05-29T14:27:42.000Z</time>
   </trkpt>
   <trkpt lon="6.66325521" lat="50.45983505">
    <ele>552.41</ele>
    <time>2011-05-29T14:28:02.000Z</time>
   </trkpt>
   <trkpt lon="6.66313410" lat="50.45965195">
    <ele>554.34</ele>
    <time>2011-05-29T14:28:23.000Z</time>
   </trkpt>
   <trkpt lon="6.66302776" lat="50.45949173">
    <ele>555.3</ele>
    <time>2011-05-29T14:28:42.000Z</time>
   </trkpt>
   <trkpt lon="6.66289711" lat="50.45928955">
    <ele>556.74</ele>
    <time>2011-05-29T14:29:04.000Z</time>
   </trkpt>
   <trkpt lon="6.66284180" lat="50.45919800">
    <ele>556.74</ele>
    <time>2011-05-29T14:29:20.000Z</time>
   </trkpt>
   <trkpt lon="6.66281080" lat="50.45915985">
    <ele>557.22</ele>
    <time>2011-05-29T14:29:24.000Z</time>
   </trkpt>
   <trkpt lon="6.66279793" lat="50.45914841">
    <ele>557.22</ele>
    <time>2011-05-29T14:29:25.000Z</time>
   </trkpt>
   <trkpt lon="6.66279078" lat="50.45913696">
    <ele>557.22</ele>
    <time>2011-05-29T14:29:26.000Z</time>
   </trkpt>
   <trkpt lon="6.66264296" lat="50.45887375">
    <ele>558.18</ele>
    <time>2011-05-29T14:29:44.000Z</time>
   </trkpt>
   <trkpt lon="6.66251278" lat="50.45861816">
    <ele>559.14</ele>
    <time>2011-05-29T14:30:00.000Z</time>
   </trkpt>
   <trkpt lon="6.66237020" lat="50.45840073">
    <ele>560.11</ele>
    <time>2011-05-29T14:30:16.000Z</time>
   </trkpt>
   <trkpt lon="6.66225195" lat="50.45815659">
    <ele>562.03</ele>
    <time>2011-05-29T14:30:35.000Z</time>
   </trkpt>
   <trkpt lon="6.66213322" lat="50.45793152">
    <ele>564.43</ele>
    <time>2011-05-29T14:30:54.000Z</time>
   </trkpt>
   <trkpt lon="6.66202879" lat="50.45771790">
    <ele>564.91</ele>
    <time>2011-05-29T14:31:10.000Z</time>
   </trkpt>
   <trkpt lon="6.66193914" lat="50.45756531">
    <ele>565.87</ele>
    <time>2011-05-29T14:31:22.000Z</time>
   </trkpt>
   <trkpt lon="6.66185379" lat="50.45736313">
    <ele>567.8</ele>
    <time>2011-05-29T14:31:37.000Z</time>
   </trkpt>
   <trkpt lon="6.66172409" lat="50.45713425">
    <ele>565.87</ele>
    <time>2011-05-29T14:31:51.000Z</time>
   </trkpt>
   <trkpt lon="6.66170979" lat="50.45711517">
    <ele>565.87</ele>
    <time>2011-05-29T14:31:52.000Z</time>
   </trkpt>
   <trkpt lon="6.66154385" lat="50.45679855">
    <ele>567.8</ele>
    <time>2011-05-29T14:32:07.000Z</time>
   </trkpt>
   <trkpt lon="6.66130018" lat="50.45638275">
    <ele>567.8</ele>
    <time>2011-05-29T14:32:23.000Z</time>
   </trkpt>
   <trkpt lon="6.66105986" lat="50.45587540">
    <ele>562.99</ele>
    <time>2011-05-29T14:32:39.000Z</time>
   </trkpt>
   <trkpt lon="6.66104317" lat="50.45584106">
    <ele>567.32</ele>
    <time>2011-05-29T14:32:40.000Z</time>
   </trkpt>
   <trkpt lon="6.66086721" lat="50.45549393">
    <ele>564.91</ele>
    <time>2011-05-29T14:32:49.000Z</time>
   </trkpt>
   <trkpt lon="6.66085386" lat="50.45545197">
    <ele>564.91</ele>
    <time>2011-05-29T14:32:50.000Z</time>
   </trkpt>
   <trkpt lon="6.66084099" lat="50.45541000">
    <ele>564.91</ele>
    <time>2011-05-29T14:32:51.000Z</time>
   </trkpt>
   <trkpt lon="6.66047716" lat="50.45471954">
    <ele>564.91</ele>
    <time>2011-05-29T14:33:08.000Z</time>
   </trkpt>
   <trkpt lon="6.65993977" lat="50.45462799">
    <ele>565.39</ele>
    <time>2011-05-29T14:33:18.000Z</time>
   </trkpt>
   <trkpt lon="6.65987492" lat="50.45461273">
    <ele>564.43</ele>
    <time>2011-05-29T14:33:19.000Z</time>
   </trkpt>
   <trkpt lon="6.65981197" lat="50.45459366">
    <ele>564.91</ele>
    <time>2011-05-29T14:33:20.000Z</time>
   </trkpt>
   <trkpt lon="6.65975523" lat="50.45457077">
    <ele>564.43</ele>
    <time>2011-05-29T14:33:21.000Z</time>
   </trkpt>
   <trkpt lon="6.65934420" lat="50.45429230">
    <ele>562.03</ele>
    <time>2011-05-29T14:33:28.000Z</time>
   </trkpt>
   <trkpt lon="6.65926504" lat="50.45425797">
    <ele>562.03</ele>
    <time>2011-05-29T14:33:29.000Z</time>
   </trkpt>
   <trkpt lon="6.65917397" lat="50.45422745">
    <ele>561.55</ele>
    <time>2011-05-29T14:33:30.000Z</time>
   </trkpt>
   <trkpt lon="6.65908098" lat="50.45420456">
    <ele>561.55</ele>
    <time>2011-05-29T14:33:31.000Z</time>
   </trkpt>
   <trkpt lon="6.65898514" lat="50.45418549">
    <ele>561.07</ele>
    <time>2011-05-29T14:33:32.000Z</time>
   </trkpt>
   <trkpt lon="6.65888691" lat="50.45417404">
    <ele>561.07</ele>
    <time>2011-05-29T14:33:33.000Z</time>
   </trkpt>
   <trkpt lon="6.65879107" lat="50.45416641">
    <ele>561.07</ele>
    <time>2011-05-29T14:33:34.000Z</time>
   </trkpt>
   <trkpt lon="6.65814209" lat="50.45408630">
    <ele>558.66</ele>
    <time>2011-05-29T14:33:41.000Z</time>
   </trkpt>
   <trkpt lon="6.65796709" lat="50.45402908">
    <ele>558.18</ele>
    <time>2011-05-29T14:33:43.000Z</time>
   </trkpt>
   <trkpt lon="6.65786600" lat="50.45398331">
    <ele>557.7</ele>
    <time>2011-05-29T14:33:44.000Z</time>
   </trkpt>
   <trkpt lon="6.65698385" lat="50.45362091">
    <ele>554.82</ele>
    <time>2011-05-29T14:33:52.000Z</time>
   </trkpt>
   <trkpt lon="6.65607595" lat="50.45344162">
    <ele>552.9</ele>
    <time>2011-05-29T14:34:00.000Z</time>
   </trkpt>
   <trkpt lon="6.65469313" lat="50.45315552">
    <ele>550.49</ele>
    <time>2011-05-29T14:34:13.000Z</time>
   </trkpt>
   <trkpt lon="6.65349579" lat="50.45289993">
    <ele>550.97</ele>
    <time>2011-05-29T14:34:27.000Z</time>
   </trkpt>
   <trkpt lon="6.65334415" lat="50.45286179">
    <ele>551.45</ele>
    <time>2011-05-29T14:34:29.000Z</time>
   </trkpt>
   <trkpt lon="6.65214586" lat="50.45262146">
    <ele>550.49</ele>
    <time>2011-05-29T14:34:45.000Z</time>
   </trkpt>
   <trkpt lon="6.65124321" lat="50.45243454">
    <ele>550.49</ele>
    <time>2011-05-29T14:35:00.000Z</time>
   </trkpt>
   <trkpt lon="6.65065622" lat="50.45226669">
    <ele>550.97</ele>
    <time>2011-05-29T14:35:14.000Z</time>
   </trkpt>
   <trkpt lon="6.64988089" lat="50.45203400">
    <ele>551.93</ele>
    <time>2011-05-29T14:35:32.000Z</time>
   </trkpt>
   <trkpt lon="6.64924288" lat="50.45184708">
    <ele>552.41</ele>
    <time>2011-05-29T14:35:47.000Z</time>
   </trkpt>
   <trkpt lon="6.64825678" lat="50.45158386">
    <ele>550.97</ele>
    <time>2011-05-29T14:36:06.000Z</time>
   </trkpt>
   <trkpt lon="6.64725924" lat="50.45132446">
    <ele>550.01</ele>
    <time>2011-05-29T14:36:23.000Z</time>
   </trkpt>
   <trkpt lon="6.64592981" lat="50.45096207">
    <ele>548.57</ele>
    <time>2011-05-29T14:36:45.000Z</time>
   </trkpt>
   <trkpt lon="6.64464378" lat="50.45060730">
    <ele>547.61</ele>
    <time>2011-05-29T14:37:05.000Z</time>
   </trkpt>
   <trkpt lon="6.64421988" lat="50.45048904">
    <ele>547.13</ele>
    <time>2011-05-29T14:37:12.000Z</time>
   </trkpt>
   <trkpt lon="6.64391613" lat="50.45040894">
    <ele>547.13</ele>
    <time>2011-05-29T14:37:17.000Z</time>
   </trkpt>
   <trkpt lon="6.64306307" lat="50.45015335">
    <ele>547.61</ele>
    <time>2011-05-29T14:37:33.000Z</time>
   </trkpt>
   <trkpt lon="6.64235878" lat="50.44988251">
    <ele>546.65</ele>
    <time>2011-05-29T14:37:49.000Z</time>
   </trkpt>
   <trkpt lon="6.64180803" lat="50.44966125">
    <ele>547.13</ele>
    <time>2011-05-29T14:38:03.000Z</time>
   </trkpt>
   <trkpt lon="6.64101601" lat="50.44935989">
    <ele>546.65</ele>
    <time>2011-05-29T14:38:23.000Z</time>
   </trkpt>
   <trkpt lon="6.64033794" lat="50.44918060">
    <ele>549.05</ele>
    <time>2011-05-29T14:38:40.000Z</time>
   </trkpt>
   <trkpt lon="6.63989019" lat="50.44908905">
    <ele>550.49</ele>
    <time>2011-05-29T14:38:56.000Z</time>
   </trkpt>
   <trkpt lon="6.63947201" lat="50.44898987">
    <ele>553.86</ele>
    <time>2011-05-29T14:39:12.000Z</time>
   </trkpt>
   <trkpt lon="6.63902807" lat="50.44888687">
    <ele>553.86</ele>
    <time>2011-05-29T14:39:30.000Z</time>
   </trkpt>
   <trkpt lon="6.63843203" lat="50.44873047">
    <ele>552.9</ele>
    <time>2011-05-29T14:39:48.000Z</time>
   </trkpt>
   <trkpt lon="6.63821602" lat="50.44865417">
    <ele>551.93</ele>
    <time>2011-05-29T14:39:52.000Z</time>
   </trkpt>
   <trkpt lon="6.63815880" lat="50.44862747">
    <ele>551.45</ele>
    <time>2011-05-29T14:39:53.000Z</time>
   </trkpt>
   <trkpt lon="6.63810301" lat="50.44860077">
    <ele>551.93</ele>
    <time>2011-05-29T14:39:54.000Z</time>
   </trkpt>
   <trkpt lon="6.63768816" lat="50.44842911">
    <ele>550.01</ele>
    <time>2011-05-29T14:40:00.000Z</time>
   </trkpt>
   <trkpt lon="6.63702297" lat="50.44815063">
    <ele>548.09</ele>
    <time>2011-05-29T14:40:08.000Z</time>
   </trkpt>
   <trkpt lon="6.63695478" lat="50.44811249">
    <ele>548.09</ele>
    <time>2011-05-29T14:40:09.000Z</time>
   </trkpt>
   <trkpt lon="6.63689899" lat="50.44807053">
    <ele>547.61</ele>
    <time>2011-05-29T14:40:10.000Z</time>
   </trkpt>
   <trkpt lon="6.63685417" lat="50.44803238">
    <ele>547.61</ele>
    <time>2011-05-29T14:40:11.000Z</time>
   </trkpt>
   <trkpt lon="6.63681602" lat="50.44799423">
    <ele>548.57</ele>
    <time>2011-05-29T14:40:12.000Z</time>
   </trkpt>
   <trkpt lon="6.63659000" lat="50.44763184">
    <ele>550.01</ele>
    <time>2011-05-29T14:40:26.000Z</time>
   </trkpt>
   <trkpt lon="6.63631105" lat="50.44720459">
    <ele>550.97</ele>
    <time>2011-05-29T14:40:45.000Z</time>
   </trkpt>
   <trkpt lon="6.63592386" lat="50.44678116">
    <ele>550.97</ele>
    <time>2011-05-29T14:41:02.000Z</time>
   </trkpt>
   <trkpt lon="6.63536501" lat="50.44630051">
    <ele>550.97</ele>
    <time>2011-05-29T14:41:20.000Z</time>
   </trkpt>
   <trkpt lon="6.63473511" lat="50.44574738">
    <ele>550.01</ele>
    <time>2011-05-29T14:41:37.000Z</time>
   </trkpt>
   <trkpt lon="6.63454199" lat="50.44552612">
    <ele>546.65</ele>
    <time>2011-05-29T14:41:42.000Z</time>
   </trkpt>
   <trkpt lon="6.63446283" lat="50.44543076">
    <ele>545.2</ele>
    <time>2011-05-29T14:41:44.000Z</time>
   </trkpt>
   <trkpt lon="6.63428497" lat="50.44524384">
    <ele>546.65</ele>
    <time>2011-05-29T14:41:48.000Z</time>
   </trkpt>
   <trkpt lon="6.63342094" lat="50.44435120">
    <ele>545.2</ele>
    <time>2011-05-29T14:42:07.000Z</time>
   </trkpt>
   <trkpt lon="6.63276911" lat="50.44362640">
    <ele>544.72</ele>
    <time>2011-05-29T14:42:25.000Z</time>
   </trkpt>
   <trkpt lon="6.63229418" lat="50.44311142">
    <ele>546.17</ele>
    <time>2011-05-29T14:42:43.000Z</time>
   </trkpt>
   <trkpt lon="6.63197517" lat="50.44277954">
    <ele>547.13</ele>
    <time>2011-05-29T14:42:58.000Z</time>
   </trkpt>
   <trkpt lon="6.63168192" lat="50.44244003">
    <ele>548.57</ele>
    <time>2011-05-29T14:43:16.000Z</time>
   </trkpt>
   <trkpt lon="6.63140821" lat="50.44209290">
    <ele>549.53</ele>
    <time>2011-05-29T14:43:33.000Z</time>
   </trkpt>
   <trkpt lon="6.63093996" lat="50.44170761">
    <ele>549.05</ele>
    <time>2011-05-29T14:43:49.000Z</time>
   </trkpt>
   <trkpt lon="6.63042593" lat="50.44130325">
    <ele>548.09</ele>
    <time>2011-05-29T14:44:05.000Z</time>
   </trkpt>
   <trkpt lon="6.62994480" lat="50.44089890">
    <ele>547.61</ele>
    <time>2011-05-29T14:44:21.000Z</time>
   </trkpt>
   <trkpt lon="6.62950897" lat="50.44076157">
    <ele>547.61</ele>
    <time>2011-05-29T14:44:33.000Z</time>
   </trkpt>
   <trkpt lon="6.62921095" lat="50.44078064">
    <ele>547.13</ele>
    <time>2011-05-29T14:44:40.000Z</time>
   </trkpt>
   <trkpt lon="6.62918997" lat="50.44078064">
    <ele>547.13</ele>
    <time>2011-05-29T14:44:41.000Z</time>
   </trkpt>
   <trkpt lon="6.62932587" lat="50.44079208">
    <ele>547.61</ele>
    <time>2011-05-29T14:44:48.000Z</time>
   </trkpt>
   <trkpt lon="6.62937212" lat="50.44079590">
    <ele>547.61</ele>
    <time>2011-05-29T14:44:49.000Z</time>
   </trkpt>
   <trkpt lon="6.62941885" lat="50.44079590">
    <ele>547.61</ele>
    <time>2011-05-29T14:44:50.000Z</time>
   </trkpt>
   <trkpt lon="6.62947321" lat="50.44079590">
    <ele>547.61</ele>
    <time>2011-05-29T14:44:51.000Z</time>
   </trkpt>
   <trkpt lon="6.62952995" lat="50.44079590">
    <ele>547.61</ele>
    <time>2011-05-29T14:44:52.000Z</time>
   </trkpt>
   <trkpt lon="6.62958908" lat="50.44078827">
    <ele>547.61</ele>
    <time>2011-05-29T14:44:53.000Z</time>
   </trkpt>
   <trkpt lon="6.62963390" lat="50.44076538">
    <ele>547.61</ele>
    <time>2011-05-29T14:44:54.000Z</time>
   </trkpt>
   <trkpt lon="6.62966490" lat="50.44073486">
    <ele>547.61</ele>
    <time>2011-05-29T14:44:55.000Z</time>
   </trkpt>
   <trkpt lon="6.62968588" lat="50.44071198">
    <ele>547.61</ele>
    <time>2011-05-29T14:44:56.000Z</time>
   </trkpt>
   <trkpt lon="6.62969208" lat="50.44068527">
    <ele>547.61</ele>
    <time>2011-05-29T14:44:57.000Z</time>
   </trkpt>
   <trkpt lon="6.62967777" lat="50.44064713">
    <ele>547.61</ele>
    <time>2011-05-29T14:44:58.000Z</time>
   </trkpt>
   <trkpt lon="6.62966394" lat="50.44061661">
    <ele>547.13</ele>
    <time>2011-05-29T14:44:59.000Z</time>
   </trkpt>
   <trkpt lon="6.62964201" lat="50.44058228">
    <ele>547.13</ele>
    <time>2011-05-29T14:45:00.000Z</time>
   </trkpt>
   <trkpt lon="6.62961721" lat="50.44054794">
    <ele>546.65</ele>
    <time>2011-05-29T14:45:01.000Z</time>
   </trkpt>
   <trkpt lon="6.62906599" lat="50.43994141">
    <ele>546.17</ele>
    <time>2011-05-29T14:45:19.000Z</time>
   </trkpt>
   <trkpt lon="6.62882614" lat="50.43991089">
    <ele>545.69</ele>
    <time>2011-05-29T14:45:23.000Z</time>
   </trkpt>
   <trkpt lon="6.62868690" lat="50.43992233">
    <ele>544.72</ele>
    <time>2011-05-29T14:45:25.000Z</time>
   </trkpt>
   <trkpt lon="6.62762308" lat="50.44007492">
    <ele>541.36</ele>
    <time>2011-05-29T14:45:37.000Z</time>
   </trkpt>
   <trkpt lon="6.62681913" lat="50.44018173">
    <ele>539.92</ele>
    <time>2011-05-29T14:45:45.000Z</time>
   </trkpt>
   <trkpt lon="6.62672377" lat="50.44020462">
    <ele>540.4</ele>
    <time>2011-05-29T14:45:46.000Z</time>
   </trkpt>
   <trkpt lon="6.62663412" lat="50.44023514">
    <ele>539.92</ele>
    <time>2011-05-29T14:45:47.000Z</time>
   </trkpt>
   <trkpt lon="6.62655115" lat="50.44026947">
    <ele>539.44</ele>
    <time>2011-05-29T14:45:48.000Z</time>
   </trkpt>
   <trkpt lon="6.62647676" lat="50.44030762">
    <ele>539.44</ele>
    <time>2011-05-29T14:45:49.000Z</time>
   </trkpt>
   <trkpt lon="6.62641478" lat="50.44034958">
    <ele>539.44</ele>
    <time>2011-05-29T14:45:50.000Z</time>
   </trkpt>
   <trkpt lon="6.62636089" lat="50.44039536">
    <ele>539.92</ele>
    <time>2011-05-29T14:45:51.000Z</time>
   </trkpt>
   <trkpt lon="6.62631321" lat="50.44044495">
    <ele>539.92</ele>
    <time>2011-05-29T14:45:52.000Z</time>
   </trkpt>
   <trkpt lon="6.62627077" lat="50.44049454">
    <ele>539.92</ele>
    <time>2011-05-29T14:45:53.000Z</time>
   </trkpt>
   <trkpt lon="6.62623596" lat="50.44054031">
    <ele>539.92</ele>
    <time>2011-05-29T14:45:54.000Z</time>
   </trkpt>
   <trkpt lon="6.62620783" lat="50.44059372">
    <ele>540.4</ele>
    <time>2011-05-29T14:45:55.000Z</time>
   </trkpt>
   <trkpt lon="6.62586880" lat="50.44105148">
    <ele>538.96</ele>
    <time>2011-05-29T14:46:05.000Z</time>
   </trkpt>
   <trkpt lon="6.62578297" lat="50.44114304">
    <ele>538.96</ele>
    <time>2011-05-29T14:46:07.000Z</time>
   </trkpt>
   <trkpt lon="6.62567806" lat="50.44129181">
    <ele>537.99</ele>
    <time>2011-05-29T14:46:10.000Z</time>
   </trkpt>
   <trkpt lon="6.62554502" lat="50.44144058">
    <ele>537.03</ele>
    <time>2011-05-29T14:46:13.000Z</time>
   </trkpt>
   <trkpt lon="6.62548685" lat="50.44148254">
    <ele>537.51</ele>
    <time>2011-05-29T14:46:14.000Z</time>
   </trkpt>
   <trkpt lon="6.62542200" lat="50.44152069">
    <ele>537.51</ele>
    <time>2011-05-29T14:46:15.000Z</time>
   </trkpt>
   <trkpt lon="6.62500095" lat="50.44174576">
    <ele>537.03</ele>
    <time>2011-05-29T14:46:22.000Z</time>
   </trkpt>
   <trkpt lon="6.62483883" lat="50.44192505">
    <ele>537.03</ele>
    <time>2011-05-29T14:46:29.000Z</time>
   </trkpt>
   <trkpt lon="6.62481594" lat="50.44192505">
    <ele>537.03</ele>
    <time>2011-05-29T14:46:30.000Z</time>
   </trkpt>
   <trkpt lon="6.62479591" lat="50.44191742">
    <ele>537.03</ele>
    <time>2011-05-29T14:46:31.000Z</time>
   </trkpt>
   <trkpt lon="6.62475491" lat="50.44188690">
    <ele>537.51</ele>
    <time>2011-05-29T14:46:42.000Z</time>
   </trkpt>
   <trkpt lon="6.62475491" lat="50.44188690">
    <ele>537.03</ele>
    <time>2011-05-29T14:47:11.000Z</time>
   </trkpt>
   <trkpt lon="6.62475014" lat="50.44188690">
    <ele>537.51</ele>
    <time>2011-05-29T14:47:53.000Z</time>
   </trkpt>
   <trkpt lon="6.62474585" lat="50.44188690">
    <ele>537.51</ele>
    <time>2011-05-29T14:48:32.000Z</time>
   </trkpt>
   <trkpt lon="6.62474108" lat="50.44188690">
    <ele>538.48</ele>
    <time>2011-05-29T14:49:10.000Z</time>
   </trkpt>
   <trkpt lon="6.62474108" lat="50.44188690">
    <ele>536.55</ele>
    <time>2011-05-29T14:49:12.000Z</time>
   </trkpt>
   <trkpt lon="6.62460899" lat="50.44183350">
    <ele>537.51</ele>
    <time>2011-05-29T14:58:14.000Z</time>
   </trkpt>
   <trkpt lon="6.62459993" lat="50.44183731">
    <ele>537.51</ele>
    <time>2011-05-29T14:58:15.000Z</time>
   </trkpt>
   <trkpt lon="6.62461710" lat="50.44184875">
    <ele>541.36</ele>
    <time>2011-05-29T14:58:23.000Z</time>
   </trkpt>
   <trkpt lon="6.62461710" lat="50.44185257">
    <ele>542.8</ele>
    <time>2011-05-29T14:58:25.000Z</time>
   </trkpt>
   <trkpt lon="6.62461996" lat="50.44185638">
    <ele>544.72</ele>
    <time>2011-05-29T14:58:29.000Z</time>
   </trkpt>
   <trkpt lon="6.62465811" lat="50.44187546">
    <ele>548.09</ele>
    <time>2011-05-29T14:58:42.000Z</time>
   </trkpt>
   <trkpt lon="6.62468815" lat="50.44187164">
    <ele>550.49</ele>
    <time>2011-05-29T14:59:17.000Z</time>
   </trkpt>
   <trkpt lon="6.62471199" lat="50.44185257">
    <ele>550.97</ele>
    <time>2011-05-29T14:59:46.000Z</time>
   </trkpt>
   <trkpt lon="6.62472105" lat="50.44185257">
    <ele>551.93</ele>
    <time>2011-05-29T15:00:22.000Z</time>
   </trkpt>
   <trkpt lon="6.62472105" lat="50.44185257">
    <ele>550.01</ele>
    <time>2011-05-29T15:00:28.000Z</time>
   </trkpt>
   <trkpt lon="6.62472486" lat="50.44185257">
    <ele>550.97</ele>
    <time>2011-05-29T15:00:58.000Z</time>
   </trkpt>
   <trkpt lon="6.62472391" lat="50.44185257">
    <ele>550.97</ele>
    <time>2011-05-29T15:01:23.000Z</time>
   </trkpt>
   <trkpt lon="6.62472391" lat="50.44185257">
    <ele>549.05</ele>
    <time>2011-05-29T15:01:36.000Z</time>
   </trkpt>
   <trkpt lon="6.62472391" lat="50.44185257">
    <ele>551.45</ele>
    <time>2011-05-29T15:01:40.000Z</time>
   </trkpt>
   <trkpt lon="6.62472486" lat="50.44185257">
    <ele>550.01</ele>
    <time>2011-05-29T15:02:13.000Z</time>
   </trkpt>
   <trkpt lon="6.62472200" lat="50.44185257">
    <ele>550.97</ele>
    <time>2011-05-29T15:02:40.000Z</time>
   </trkpt>
   <trkpt lon="6.62472200" lat="50.44185257">
    <ele>550.49</ele>
    <time>2011-05-29T15:02:52.000Z</time>
   </trkpt>
   <trkpt lon="6.62401915" lat="50.44192505">
    <ele>550.49</ele>
    <time>2011-05-29T15:16:45.000Z</time>
   </trkpt>
   <trkpt lon="6.62377310" lat="50.44203949">
    <ele>547.13</ele>
    <time>2011-05-29T15:16:51.000Z</time>
   </trkpt>
   <trkpt lon="6.62348986" lat="50.44224930">
    <ele>544.72</ele>
    <time>2011-05-29T15:16:58.000Z</time>
   </trkpt>
   <trkpt lon="6.62315178" lat="50.44254303">
    <ele>541.84</ele>
    <time>2011-05-29T15:17:05.000Z</time>
   </trkpt>
   <trkpt lon="6.62307978" lat="50.44258499">
    <ele>541.36</ele>
    <time>2011-05-29T15:17:06.000Z</time>
   </trkpt>
   <trkpt lon="6.62281179" lat="50.44271088">
    <ele>537.99</ele>
    <time>2011-05-29T15:17:09.000Z</time>
   </trkpt>
   <trkpt lon="6.62270498" lat="50.44274902">
    <ele>537.51</ele>
    <time>2011-05-29T15:17:10.000Z</time>
   </trkpt>
   <trkpt lon="6.62259007" lat="50.44277954">
    <ele>537.03</ele>
    <time>2011-05-29T15:17:11.000Z</time>
   </trkpt>
   <trkpt lon="6.62202597" lat="50.44287872">
    <ele>533.67</ele>
    <time>2011-05-29T15:17:16.000Z</time>
   </trkpt>
   <trkpt lon="6.62194586" lat="50.44289017">
    <ele>533.67</ele>
    <time>2011-05-29T15:17:17.000Z</time>
   </trkpt>
   <trkpt lon="6.62181377" lat="50.44289780">
    <ele>532.23</ele>
    <time>2011-05-29T15:17:19.000Z</time>
   </trkpt>
   <trkpt lon="6.62157917" lat="50.44284821">
    <ele>530.3</ele>
    <time>2011-05-29T15:17:27.000Z</time>
   </trkpt>
   <trkpt lon="6.62151480" lat="50.44282150">
    <ele>530.3</ele>
    <time>2011-05-29T15:17:42.000Z</time>
   </trkpt>
   <trkpt lon="6.62152386" lat="50.44281006">
    <ele>530.3</ele>
    <time>2011-05-29T15:17:43.000Z</time>
   </trkpt>
   <trkpt lon="6.62154293" lat="50.44280243">
    <ele>530.3</ele>
    <time>2011-05-29T15:17:44.000Z</time>
   </trkpt>
   <trkpt lon="6.62156916" lat="50.44279861">
    <ele>530.79</ele>
    <time>2011-05-29T15:17:45.000Z</time>
   </trkpt>
   <trkpt lon="6.62159920" lat="50.44279861">
    <ele>530.79</ele>
    <time>2011-05-29T15:17:46.000Z</time>
   </trkpt>
   <trkpt lon="6.62162685" lat="50.44279480">
    <ele>530.79</ele>
    <time>2011-05-29T15:17:47.000Z</time>
   </trkpt>
   <trkpt lon="6.62165213" lat="50.44279099">
    <ele>530.79</ele>
    <time>2011-05-29T15:17:48.000Z</time>
   </trkpt>
   <trkpt lon="6.62167788" lat="50.44278336">
    <ele>531.27</ele>
    <time>2011-05-29T15:17:49.000Z</time>
   </trkpt>
   <trkpt lon="6.62169886" lat="50.44277573">
    <ele>531.27</ele>
    <time>2011-05-29T15:17:50.000Z</time>
   </trkpt>
   <trkpt lon="6.62172318" lat="50.44276428">
    <ele>531.27</ele>
    <time>2011-05-29T15:17:51.000Z</time>
   </trkpt>
   <trkpt lon="6.62202597" lat="50.44265747">
    <ele>534.63</ele>
    <time>2011-05-29T15:18:05.000Z</time>
   </trkpt>
   <trkpt lon="6.62243223" lat="50.44250107">
    <ele>537.03</ele>
    <time>2011-05-29T15:18:23.000Z</time>
   </trkpt>
   <trkpt lon="6.62263298" lat="50.44232941">
    <ele>537.99</ele>
    <time>2011-05-29T15:18:36.000Z</time>
   </trkpt>
   <trkpt lon="6.62309599" lat="50.44225311">
    <ele>538.96</ele>
    <time>2011-05-29T15:18:54.000Z</time>
   </trkpt>
   <trkpt lon="6.62354088" lat="50.44213104">
    <ele>540.4</ele>
    <time>2011-05-29T15:19:10.000Z</time>
   </trkpt>
   <trkpt lon="6.62400007" lat="50.44193268">
    <ele>541.36</ele>
    <time>2011-05-29T15:19:25.000Z</time>
   </trkpt>
   <trkpt lon="6.62466717" lat="50.44175720">
    <ele>540.4</ele>
    <time>2011-05-29T15:19:40.000Z</time>
   </trkpt>
   <trkpt lon="6.62467194" lat="50.44163895">
    <ele>540.88</ele>
    <time>2011-05-29T15:19:44.000Z</time>
   </trkpt>
   <trkpt lon="6.62465286" lat="50.44161606">
    <ele>540.88</ele>
    <time>2011-05-29T15:19:45.000Z</time>
   </trkpt>
   <trkpt lon="6.62428713" lat="50.44139862">
    <ele>542.32</ele>
    <time>2011-05-29T15:19:59.000Z</time>
   </trkpt>
   <trkpt lon="6.62359190" lat="50.44138336">
    <ele>543.28</ele>
    <time>2011-05-29T15:20:16.000Z</time>
   </trkpt>
   <trkpt lon="6.62280703" lat="50.44112778">
    <ele>542.8</ele>
    <time>2011-05-29T15:20:33.000Z</time>
   </trkpt>
   <trkpt lon="6.62240505" lat="50.44095612">
    <ele>542.32</ele>
    <time>2011-05-29T15:20:41.000Z</time>
   </trkpt>
   <trkpt lon="6.62223721" lat="50.44085693">
    <ele>540.88</ele>
    <time>2011-05-29T15:20:44.000Z</time>
   </trkpt>
   <trkpt lon="6.62110901" lat="50.44025040">
    <ele>537.99</ele>
    <time>2011-05-29T15:21:01.000Z</time>
   </trkpt>
   <trkpt lon="6.62068319" lat="50.44006729">
    <ele>537.51</ele>
    <time>2011-05-29T15:21:07.000Z</time>
   </trkpt>
   <trkpt lon="6.62061405" lat="50.44003296">
    <ele>537.51</ele>
    <time>2011-05-29T15:21:08.000Z</time>
   </trkpt>
   <trkpt lon="6.62054205" lat="50.44000244">
    <ele>536.55</ele>
    <time>2011-05-29T15:21:09.000Z</time>
   </trkpt>
   <trkpt lon="6.62046909" lat="50.43997192">
    <ele>536.55</ele>
    <time>2011-05-29T15:21:10.000Z</time>
   </trkpt>
   <trkpt lon="6.62039900" lat="50.43993759">
    <ele>536.07</ele>
    <time>2011-05-29T15:21:11.000Z</time>
   </trkpt>
   <trkpt lon="6.62026501" lat="50.43987656">
    <ele>536.07</ele>
    <time>2011-05-29T15:21:13.000Z</time>
   </trkpt>
   <trkpt lon="6.62020493" lat="50.43984222">
    <ele>535.59</ele>
    <time>2011-05-29T15:21:14.000Z</time>
   </trkpt>
   <trkpt lon="6.62015009" lat="50.43980408">
    <ele>535.11</ele>
    <time>2011-05-29T15:21:15.000Z</time>
   </trkpt>
   <trkpt lon="6.62010002" lat="50.43976593">
    <ele>535.11</ele>
    <time>2011-05-29T15:21:16.000Z</time>
   </trkpt>
   <trkpt lon="6.62005520" lat="50.43972778">
    <ele>535.59</ele>
    <time>2011-05-29T15:21:17.000Z</time>
   </trkpt>
   <trkpt lon="6.62001610" lat="50.43968582">
    <ele>535.59</ele>
    <time>2011-05-29T15:21:18.000Z</time>
   </trkpt>
   <trkpt lon="6.61998081" lat="50.43964386">
    <ele>535.59</ele>
    <time>2011-05-29T15:21:19.000Z</time>
   </trkpt>
   <trkpt lon="6.61963320" lat="50.43924713">
    <ele>537.51</ele>
    <time>2011-05-29T15:21:33.000Z</time>
   </trkpt>
   <trkpt lon="6.61936378" lat="50.43898010">
    <ele>538.96</ele>
    <time>2011-05-29T15:21:48.000Z</time>
   </trkpt>
   <trkpt lon="6.61904716" lat="50.43870926">
    <ele>541.36</ele>
    <time>2011-05-29T15:22:05.000Z</time>
   </trkpt>
   <trkpt lon="6.61869192" lat="50.43844223">
    <ele>542.32</ele>
    <time>2011-05-29T15:22:21.000Z</time>
   </trkpt>
   <trkpt lon="6.61829185" lat="50.43817520">
    <ele>543.28</ele>
    <time>2011-05-29T15:22:38.000Z</time>
   </trkpt>
   <trkpt lon="6.61786509" lat="50.43793488">
    <ele>545.69</ele>
    <time>2011-05-29T15:22:56.000Z</time>
   </trkpt>
   <trkpt lon="6.61736202" lat="50.43765259">
    <ele>546.65</ele>
    <time>2011-05-29T15:23:17.000Z</time>
   </trkpt>
   <trkpt lon="6.61696196" lat="50.43738937">
    <ele>548.57</ele>
    <time>2011-05-29T15:23:35.000Z</time>
   </trkpt>
   <trkpt lon="6.61655617" lat="50.43714905">
    <ele>550.01</ele>
    <time>2011-05-29T15:23:51.000Z</time>
   </trkpt>
   <trkpt lon="6.61606121" lat="50.43687057">
    <ele>550.97</ele>
    <time>2011-05-29T15:24:11.000Z</time>
   </trkpt>
   <trkpt lon="6.61556482" lat="50.43661118">
    <ele>551.93</ele>
    <time>2011-05-29T15:24:29.000Z</time>
   </trkpt>
   <trkpt lon="6.61499977" lat="50.43641281">
    <ele>552.41</ele>
    <time>2011-05-29T15:24:45.000Z</time>
   </trkpt>
   <trkpt lon="6.61449718" lat="50.43628311">
    <ele>553.38</ele>
    <time>2011-05-29T15:24:58.000Z</time>
   </trkpt>
   <trkpt lon="6.61381483" lat="50.43612289">
    <ele>553.38</ele>
    <time>2011-05-29T15:25:13.000Z</time>
   </trkpt>
   <trkpt lon="6.61266184" lat="50.43575287">
    <ele>552.9</ele>
    <time>2011-05-29T15:25:32.000Z</time>
   </trkpt>
   <trkpt lon="6.61179113" lat="50.43526077">
    <ele>551.45</ele>
    <time>2011-05-29T15:25:49.000Z</time>
   </trkpt>
   <trkpt lon="6.61159086" lat="50.43511200">
    <ele>550.49</ele>
    <time>2011-05-29T15:25:53.000Z</time>
   </trkpt>
   <trkpt lon="6.61088705" lat="50.43451691">
    <ele>547.13</ele>
    <time>2011-05-29T15:26:06.000Z</time>
   </trkpt>
   <trkpt lon="6.61060715" lat="50.43426514">
    <ele>546.65</ele>
    <time>2011-05-29T15:26:11.000Z</time>
   </trkpt>
   <trkpt lon="6.61014700" lat="50.43355179">
    <ele>546.17</ele>
    <time>2011-05-29T15:26:26.000Z</time>
   </trkpt>
   <trkpt lon="6.60996389" lat="50.43315506">
    <ele>545.69</ele>
    <time>2011-05-29T15:26:34.000Z</time>
   </trkpt>
   <trkpt lon="6.60994005" lat="50.43310547">
    <ele>545.69</ele>
    <time>2011-05-29T15:26:35.000Z</time>
   </trkpt>
   <trkpt lon="6.60990715" lat="50.43305969">
    <ele>545.69</ele>
    <time>2011-05-29T15:26:36.000Z</time>
   </trkpt>
   <trkpt lon="6.60986710" lat="50.43302155">
    <ele>545.2</ele>
    <time>2011-05-29T15:26:37.000Z</time>
   </trkpt>
   <trkpt lon="6.60982084" lat="50.43298340">
    <ele>545.69</ele>
    <time>2011-05-29T15:26:38.000Z</time>
   </trkpt>
   <trkpt lon="6.60976601" lat="50.43295288">
    <ele>545.69</ele>
    <time>2011-05-29T15:26:39.000Z</time>
   </trkpt>
   <trkpt lon="6.60970116" lat="50.43292999">
    <ele>545.69</ele>
    <time>2011-05-29T15:26:40.000Z</time>
   </trkpt>
   <trkpt lon="6.60963488" lat="50.43291473">
    <ele>545.69</ele>
    <time>2011-05-29T15:26:41.000Z</time>
   </trkpt>
   <trkpt lon="6.60956383" lat="50.43291092">
    <ele>545.2</ele>
    <time>2011-05-29T15:26:42.000Z</time>
   </trkpt>
   <trkpt lon="6.60948801" lat="50.43291092">
    <ele>545.2</ele>
    <time>2011-05-29T15:26:43.000Z</time>
   </trkpt>
   <trkpt lon="6.60940886" lat="50.43291473">
    <ele>544.72</ele>
    <time>2011-05-29T15:26:44.000Z</time>
   </trkpt>
   <trkpt lon="6.60932589" lat="50.43292618">
    <ele>545.2</ele>
    <time>2011-05-29T15:26:45.000Z</time>
   </trkpt>
   <trkpt lon="6.60907793" lat="50.43296051">
    <ele>544.72</ele>
    <time>2011-05-29T15:26:48.000Z</time>
   </trkpt>
   <trkpt lon="6.60900688" lat="50.43298340">
    <ele>544.72</ele>
    <time>2011-05-29T15:26:49.000Z</time>
   </trkpt>
   <trkpt lon="6.60894299" lat="50.43299103">
    <ele>544.24</ele>
    <time>2011-05-29T15:26:50.000Z</time>
   </trkpt>
   <trkpt lon="6.60888720" lat="50.43298340">
    <ele>544.24</ele>
    <time>2011-05-29T15:26:51.000Z</time>
   </trkpt>
   <trkpt lon="6.60884285" lat="50.43296051">
    <ele>544.24</ele>
    <time>2011-05-29T15:26:52.000Z</time>
   </trkpt>
   <trkpt lon="6.60881090" lat="50.43292618">
    <ele>544.24</ele>
    <time>2011-05-29T15:26:53.000Z</time>
   </trkpt>
   <trkpt lon="6.60879612" lat="50.43289185">
    <ele>544.72</ele>
    <time>2011-05-29T15:26:54.000Z</time>
   </trkpt>
   <trkpt lon="6.60878611" lat="50.43285751">
    <ele>544.72</ele>
    <time>2011-05-29T15:26:55.000Z</time>
   </trkpt>
   <trkpt lon="6.60877991" lat="50.43282318">
    <ele>544.72</ele>
    <time>2011-05-29T15:26:56.000Z</time>
   </trkpt>
   <trkpt lon="6.60863876" lat="50.43247986">
    <ele>547.13</ele>
    <time>2011-05-29T15:27:11.000Z</time>
   </trkpt>
   <trkpt lon="6.60845184" lat="50.43212509">
    <ele>548.57</ele>
    <time>2011-05-29T15:27:28.000Z</time>
   </trkpt>
   <trkpt lon="6.60832596" lat="50.43186188">
    <ele>549.53</ele>
    <time>2011-05-29T15:27:43.000Z</time>
   </trkpt>
   <trkpt lon="6.60832119" lat="50.43185043">
    <ele>550.01</ele>
    <time>2011-05-29T15:27:44.000Z</time>
   </trkpt>
   <trkpt lon="6.60831213" lat="50.43183517">
    <ele>550.01</ele>
    <time>2011-05-29T15:27:45.000Z</time>
   </trkpt>
   <trkpt lon="6.60818481" lat="50.43161392">
    <ele>552.41</ele>
    <time>2011-05-29T15:28:01.000Z</time>
   </trkpt>
   <trkpt lon="6.60801888" lat="50.43135452">
    <ele>553.38</ele>
    <time>2011-05-29T15:28:18.000Z</time>
   </trkpt>
   <trkpt lon="6.60770416" lat="50.43097687">
    <ele>551.93</ele>
    <time>2011-05-29T15:28:34.000Z</time>
   </trkpt>
   <trkpt lon="6.60715914" lat="50.43037033">
    <ele>551.45</ele>
    <time>2011-05-29T15:28:50.000Z</time>
   </trkpt>
   <trkpt lon="6.60677099" lat="50.42993164">
    <ele>552.41</ele>
    <time>2011-05-29T15:29:06.000Z</time>
   </trkpt>
   <trkpt lon="6.60644484" lat="50.42959213">
    <ele>553.38</ele>
    <time>2011-05-29T15:29:23.000Z</time>
   </trkpt>
   <trkpt lon="6.60622501" lat="50.42938995">
    <ele>555.3</ele>
    <time>2011-05-29T15:29:36.000Z</time>
   </trkpt>
   <trkpt lon="6.60595989" lat="50.42912674">
    <ele>557.22</ele>
    <time>2011-05-29T15:29:52.000Z</time>
   </trkpt>
   <trkpt lon="6.60569000" lat="50.42886353">
    <ele>558.18</ele>
    <time>2011-05-29T15:30:08.000Z</time>
   </trkpt>
   <trkpt lon="6.60526180" lat="50.42847061">
    <ele>558.66</ele>
    <time>2011-05-29T15:30:27.000Z</time>
   </trkpt>
   <trkpt lon="6.60477686" lat="50.42806244">
    <ele>559.62</ele>
    <time>2011-05-29T15:30:46.000Z</time>
   </trkpt>
   <trkpt lon="6.60430384" lat="50.42767334">
    <ele>560.59</ele>
    <time>2011-05-29T15:31:05.000Z</time>
   </trkpt>
   <trkpt lon="6.60377407" lat="50.42729950">
    <ele>561.07</ele>
    <time>2011-05-29T15:31:25.000Z</time>
   </trkpt>
   <trkpt lon="6.60310221" lat="50.42686462">
    <ele>561.55</ele>
    <time>2011-05-29T15:31:47.000Z</time>
   </trkpt>
   <trkpt lon="6.60254478" lat="50.42672348">
    <ele>562.03</ele>
    <time>2011-05-29T15:32:00.000Z</time>
   </trkpt>
   <trkpt lon="6.60236216" lat="50.42646027">
    <ele>562.51</ele>
    <time>2011-05-29T15:32:10.000Z</time>
   </trkpt>
   <trkpt lon="6.60148001" lat="50.42592239">
    <ele>562.51</ele>
    <time>2011-05-29T15:32:32.000Z</time>
   </trkpt>
   <trkpt lon="6.60075188" lat="50.42551041">
    <ele>563.47</ele>
    <time>2011-05-29T15:32:52.000Z</time>
   </trkpt>
   <trkpt lon="6.60019302" lat="50.42520905">
    <ele>564.43</ele>
    <time>2011-05-29T15:33:09.000Z</time>
   </trkpt>
   <trkpt lon="6.59952116" lat="50.42481232">
    <ele>563.47</ele>
    <time>2011-05-29T15:33:26.000Z</time>
   </trkpt>
   <trkpt lon="6.59865618" lat="50.42432404">
    <ele>560.59</ele>
    <time>2011-05-29T15:33:38.000Z</time>
   </trkpt>
   <trkpt lon="6.59823704" lat="50.42417526">
    <ele>559.14</ele>
    <time>2011-05-29T15:33:42.000Z</time>
   </trkpt>
   <trkpt lon="6.59813976" lat="50.42412567">
    <ele>558.18</ele>
    <time>2011-05-29T15:33:43.000Z</time>
   </trkpt>
   <trkpt lon="6.59805298" lat="50.42407608">
    <ele>557.7</ele>
    <time>2011-05-29T15:33:44.000Z</time>
   </trkpt>
   <trkpt lon="6.59798193" lat="50.42401886">
    <ele>557.22</ele>
    <time>2011-05-29T15:33:45.000Z</time>
   </trkpt>
   <trkpt lon="6.59792519" lat="50.42395401">
    <ele>557.7</ele>
    <time>2011-05-29T15:33:46.000Z</time>
   </trkpt>
   <trkpt lon="6.59787083" lat="50.42389297">
    <ele>557.7</ele>
    <time>2011-05-29T15:33:47.000Z</time>
   </trkpt>
   <trkpt lon="6.59781122" lat="50.42383194">
    <ele>557.22</ele>
    <time>2011-05-29T15:33:48.000Z</time>
   </trkpt>
   <trkpt lon="6.59773779" lat="50.42378235">
    <ele>556.74</ele>
    <time>2011-05-29T15:33:49.000Z</time>
   </trkpt>
   <trkpt lon="6.59765911" lat="50.42373276">
    <ele>556.74</ele>
    <time>2011-05-29T15:33:50.000Z</time>
   </trkpt>
   <trkpt lon="6.59609509" lat="50.42283630">
    <ele>553.86</ele>
    <time>2011-05-29T15:34:11.000Z</time>
   </trkpt>
   <trkpt lon="6.59509516" lat="50.42227173">
    <ele>554.82</ele>
    <time>2011-05-29T15:34:28.000Z</time>
   </trkpt>
   <trkpt lon="6.59408617" lat="50.42169571">
    <ele>555.3</ele>
    <time>2011-05-29T15:34:48.000Z</time>
   </trkpt>
   <trkpt lon="6.59323215" lat="50.42120361">
    <ele>557.22</ele>
    <time>2011-05-29T15:35:08.000Z</time>
   </trkpt>
   <trkpt lon="6.59263897" lat="50.42085648">
    <ele>559.14</ele>
    <time>2011-05-29T15:35:26.000Z</time>
   </trkpt>
   <trkpt lon="6.59206390" lat="50.42057419">
    <ele>559.62</ele>
    <time>2011-05-29T15:35:43.000Z</time>
   </trkpt>
   <trkpt lon="6.59168005" lat="50.42044449">
    <ele>561.07</ele>
    <time>2011-05-29T15:35:55.000Z</time>
   </trkpt>
   <trkpt lon="6.59153080" lat="50.42042923">
    <ele>561.07</ele>
    <time>2011-05-29T15:36:00.000Z</time>
   </trkpt>
   <trkpt lon="6.59149218" lat="50.42044067">
    <ele>560.59</ele>
    <time>2011-05-29T15:36:01.000Z</time>
   </trkpt>
   <trkpt lon="6.59145594" lat="50.42046356">
    <ele>560.59</ele>
    <time>2011-05-29T15:36:02.000Z</time>
   </trkpt>
   <trkpt lon="6.59098721" lat="50.42082214">
    <ele>557.7</ele>
    <time>2011-05-29T15:36:11.000Z</time>
   </trkpt>
   <trkpt lon="6.59029293" lat="50.42131805">
    <ele>554.34</ele>
    <time>2011-05-29T15:36:20.000Z</time>
   </trkpt>
   <trkpt lon="6.58956003" lat="50.42185593">
    <ele>551.45</ele>
    <time>2011-05-29T15:36:29.000Z</time>
   </trkpt>
   <trkpt lon="6.58923197" lat="50.42210007">
    <ele>548.09</ele>
    <time>2011-05-29T15:36:33.000Z</time>
   </trkpt>
   <trkpt lon="6.58915281" lat="50.42213440">
    <ele>547.61</ele>
    <time>2011-05-29T15:36:34.000Z</time>
   </trkpt>
   <trkpt lon="6.58906412" lat="50.42215347">
    <ele>547.13</ele>
    <time>2011-05-29T15:36:35.000Z</time>
   </trkpt>
   <trkpt lon="6.58897591" lat="50.42214584">
    <ele>547.13</ele>
    <time>2011-05-29T15:36:36.000Z</time>
   </trkpt>
   <trkpt lon="6.58889723" lat="50.42212677">
    <ele>547.61</ele>
    <time>2011-05-29T15:36:37.000Z</time>
   </trkpt>
   <trkpt lon="6.58883095" lat="50.42209625">
    <ele>547.61</ele>
    <time>2011-05-29T15:36:38.000Z</time>
   </trkpt>
   <trkpt lon="6.58877182" lat="50.42206573">
    <ele>548.09</ele>
    <time>2011-05-29T15:36:39.000Z</time>
   </trkpt>
   <trkpt lon="6.58816910" lat="50.42170715">
    <ele>550.49</ele>
    <time>2011-05-29T15:36:53.000Z</time>
   </trkpt>
   <trkpt lon="6.58754683" lat="50.42135620">
    <ele>550.97</ele>
    <time>2011-05-29T15:37:10.000Z</time>
   </trkpt>
   <trkpt lon="6.58719301" lat="50.42116165">
    <ele>551.93</ele>
    <time>2011-05-29T15:37:24.000Z</time>
   </trkpt>
   <trkpt lon="6.58675718" lat="50.42090988">
    <ele>553.86</ele>
    <time>2011-05-29T15:37:40.000Z</time>
   </trkpt>
   <trkpt lon="6.58628178" lat="50.42064667">
    <ele>554.82</ele>
    <time>2011-05-29T15:37:57.000Z</time>
   </trkpt>
   <trkpt lon="6.58584499" lat="50.42039871">
    <ele>555.3</ele>
    <time>2011-05-29T15:38:12.000Z</time>
   </trkpt>
   <trkpt lon="6.58525419" lat="50.42007828">
    <ele>554.34</ele>
    <time>2011-05-29T15:38:29.000Z</time>
   </trkpt>
   <trkpt lon="6.58456516" lat="50.41975403">
    <ele>553.86</ele>
    <time>2011-05-29T15:38:45.000Z</time>
   </trkpt>
   <trkpt lon="6.58363581" lat="50.41933441">
    <ele>552.41</ele>
    <time>2011-05-29T15:39:03.000Z</time>
   </trkpt>
   <trkpt lon="6.58285522" lat="50.41899490">
    <ele>550.49</ele>
    <time>2011-05-29T15:39:15.000Z</time>
   </trkpt>
   <trkpt lon="6.58278322" lat="50.41896439">
    <ele>550.49</ele>
    <time>2011-05-29T15:39:16.000Z</time>
   </trkpt>
   <trkpt lon="6.58185482" lat="50.41854858">
    <ele>550.49</ele>
    <time>2011-05-29T15:39:31.000Z</time>
   </trkpt>
   <trkpt lon="6.58148909" lat="50.41842651">
    <ele>551.45</ele>
    <time>2011-05-29T15:39:43.000Z</time>
   </trkpt>
   <trkpt lon="6.58100414" lat="50.41830444">
    <ele>552.9</ele>
    <time>2011-05-29T15:40:01.000Z</time>
   </trkpt>
   <trkpt lon="6.58053207" lat="50.41816711">
    <ele>553.86</ele>
    <time>2011-05-29T15:40:16.000Z</time>
   </trkpt>
   <trkpt lon="6.58001089" lat="50.41802979">
    <ele>554.82</ele>
    <time>2011-05-29T15:40:31.000Z</time>
   </trkpt>
   <trkpt lon="6.57934284" lat="50.41785049">
    <ele>556.26</ele>
    <time>2011-05-29T15:40:49.000Z</time>
   </trkpt>
   <trkpt lon="6.57889700" lat="50.41772842">
    <ele>556.74</ele>
    <time>2011-05-29T15:41:03.000Z</time>
   </trkpt>
   <trkpt lon="6.57828379" lat="50.41756058">
    <ele>557.22</ele>
    <time>2011-05-29T15:41:21.000Z</time>
   </trkpt>
   <trkpt lon="6.57753706" lat="50.41736603">
    <ele>556.26</ele>
    <time>2011-05-29T15:41:35.000Z</time>
   </trkpt>
   <trkpt lon="6.57688093" lat="50.41720200">
    <ele>556.74</ele>
    <time>2011-05-29T15:41:48.000Z</time>
   </trkpt>
   <trkpt lon="6.57606697" lat="50.41701508">
    <ele>557.22</ele>
    <time>2011-05-29T15:42:05.000Z</time>
   </trkpt>
   <trkpt lon="6.57512712" lat="50.41680527">
    <ele>558.66</ele>
    <time>2011-05-29T15:42:27.000Z</time>
   </trkpt>
   <trkpt lon="6.57449293" lat="50.41663361">
    <ele>560.59</ele>
    <time>2011-05-29T15:42:46.000Z</time>
   </trkpt>
   <trkpt lon="6.57447004" lat="50.41662598">
    <ele>560.59</ele>
    <time>2011-05-29T15:42:47.000Z</time>
   </trkpt>
   <trkpt lon="6.57446480" lat="50.41661072">
    <ele>560.59</ele>
    <time>2011-05-29T15:42:48.000Z</time>
   </trkpt>
   <trkpt lon="6.57446909" lat="50.41659164">
    <ele>561.07</ele>
    <time>2011-05-29T15:42:49.000Z</time>
   </trkpt>
   <trkpt lon="6.57447720" lat="50.41657257">
    <ele>561.07</ele>
    <time>2011-05-29T15:42:50.000Z</time>
   </trkpt>
   <trkpt lon="6.57448721" lat="50.41655350">
    <ele>561.07</ele>
    <time>2011-05-29T15:42:51.000Z</time>
   </trkpt>
   <trkpt lon="6.57477188" lat="50.41625214">
    <ele>562.51</ele>
    <time>2011-05-29T15:43:08.000Z</time>
   </trkpt>
   <trkpt lon="6.57508278" lat="50.41595078">
    <ele>562.99</ele>
    <time>2011-05-29T15:43:24.000Z</time>
   </trkpt>
   <trkpt lon="6.57539701" lat="50.41566849">
    <ele>566.35</ele>
    <time>2011-05-29T15:43:40.000Z</time>
   </trkpt>
   <trkpt lon="6.57562208" lat="50.41543579">
    <ele>566.83</ele>
    <time>2011-05-29T15:43:55.000Z</time>
   </trkpt>
   <trkpt lon="6.57590294" lat="50.41515350">
    <ele>568.28</ele>
    <time>2011-05-29T15:44:16.000Z</time>
   </trkpt>
   <trkpt lon="6.57615805" lat="50.41492081">
    <ele>569.72</ele>
    <time>2011-05-29T15:44:35.000Z</time>
   </trkpt>
   <trkpt lon="6.57616997" lat="50.41490936">
    <ele>570.2</ele>
    <time>2011-05-29T15:44:36.000Z</time>
   </trkpt>
   <trkpt lon="6.57617903" lat="50.41489410">
    <ele>570.2</ele>
    <time>2011-05-29T15:44:37.000Z</time>
   </trkpt>
   <trkpt lon="6.57618809" lat="50.41488266">
    <ele>569.72</ele>
    <time>2011-05-29T15:44:38.000Z</time>
   </trkpt>
   <trkpt lon="6.57619715" lat="50.41487122">
    <ele>569.72</ele>
    <time>2011-05-29T15:44:39.000Z</time>
   </trkpt>
   <trkpt lon="6.57620811" lat="50.41485596">
    <ele>570.2</ele>
    <time>2011-05-29T15:44:40.000Z</time>
   </trkpt>
   <trkpt lon="6.57621622" lat="50.41484451">
    <ele>570.68</ele>
    <time>2011-05-29T15:44:41.000Z</time>
   </trkpt>
   <trkpt lon="6.57625008" lat="50.41466904">
    <ele>571.16</ele>
    <time>2011-05-29T15:44:54.000Z</time>
   </trkpt>
   <trkpt lon="6.57623911" lat="50.41465759">
    <ele>571.64</ele>
    <time>2011-05-29T15:44:55.000Z</time>
   </trkpt>
   <trkpt lon="6.57575321" lat="50.41451263">
    <ele>572.12</ele>
    <time>2011-05-29T15:45:12.000Z</time>
   </trkpt>
   <trkpt lon="6.57533216" lat="50.41440964">
    <ele>568.76</ele>
    <time>2011-05-29T15:45:23.000Z</time>
   </trkpt>
   <trkpt lon="6.57528782" lat="50.41440201">
    <ele>568.76</ele>
    <time>2011-05-29T15:45:24.000Z</time>
   </trkpt>
   <trkpt lon="6.57511091" lat="50.41437149">
    <ele>571.64</ele>
    <time>2011-05-29T15:45:28.000Z</time>
   </trkpt>
   <trkpt lon="6.57441902" lat="50.41421509">
    <ele>572.6</ele>
    <time>2011-05-29T15:45:45.000Z</time>
   </trkpt>
   <trkpt lon="6.57358599" lat="50.41407013">
    <ele>572.12</ele>
    <time>2011-05-29T15:46:02.000Z</time>
   </trkpt>
   <trkpt lon="6.57265997" lat="50.41395569">
    <ele>571.64</ele>
    <time>2011-05-29T15:46:19.000Z</time>
   </trkpt>
   <trkpt lon="6.57157516" lat="50.41378021">
    <ele>572.12</ele>
    <time>2011-05-29T15:46:40.000Z</time>
   </trkpt>
   <trkpt lon="6.57087898" lat="50.41357422">
    <ele>572.6</ele>
    <time>2011-05-29T15:46:56.000Z</time>
   </trkpt>
   <trkpt lon="6.57012177" lat="50.41335678">
    <ele>574.04</ele>
    <time>2011-05-29T15:47:16.000Z</time>
   </trkpt>
   <trkpt lon="6.56947708" lat="50.41319275">
    <ele>574.53</ele>
    <time>2011-05-29T15:47:33.000Z</time>
   </trkpt>
   <trkpt lon="6.56872892" lat="50.41299057">
    <ele>574.53</ele>
    <time>2011-05-29T15:47:51.000Z</time>
   </trkpt>
   <trkpt lon="6.56789398" lat="50.41276932">
    <ele>574.53</ele>
    <time>2011-05-29T15:48:09.000Z</time>
   </trkpt>
   <trkpt lon="6.56707716" lat="50.41257858">
    <ele>573.56</ele>
    <time>2011-05-29T15:48:24.000Z</time>
   </trkpt>
   <trkpt lon="6.56612206" lat="50.41235352">
    <ele>574.04</ele>
    <time>2011-05-29T15:48:42.000Z</time>
   </trkpt>
   <trkpt lon="6.56512785" lat="50.41210938">
    <ele>574.04</ele>
    <time>2011-05-29T15:49:01.000Z</time>
   </trkpt>
   <trkpt lon="6.56408215" lat="50.41182709">
    <ele>573.56</ele>
    <time>2011-05-29T15:49:19.000Z</time>
   </trkpt>
   <trkpt lon="6.56334877" lat="50.41162491">
    <ele>573.08</ele>
    <time>2011-05-29T15:49:33.000Z</time>
   </trkpt>
   <trkpt lon="6.56240416" lat="50.41139221">
    <ele>573.08</ele>
    <time>2011-05-29T15:49:50.000Z</time>
   </trkpt>
   <trkpt lon="6.56185102" lat="50.41127014">
    <ele>574.04</ele>
    <time>2011-05-29T15:50:01.000Z</time>
   </trkpt>
   <trkpt lon="6.56092596" lat="50.41093826">
    <ele>574.53</ele>
    <time>2011-05-29T15:50:21.000Z</time>
   </trkpt>
   <trkpt lon="6.56031895" lat="50.41073608">
    <ele>575.01</ele>
    <time>2011-05-29T15:50:37.000Z</time>
   </trkpt>
   <trkpt lon="6.55954599" lat="50.41054535">
    <ele>575.01</ele>
    <time>2011-05-29T15:50:56.000Z</time>
   </trkpt>
   <trkpt lon="6.55949020" lat="50.41054535">
    <ele>574.04</ele>
    <time>2011-05-29T15:51:07.000Z</time>
   </trkpt>
   <trkpt lon="6.55942392" lat="50.41054535">
    <ele>572.6</ele>
    <time>2011-05-29T15:51:09.000Z</time>
   </trkpt>
   <trkpt lon="6.55885410" lat="50.41057587">
    <ele>572.6</ele>
    <time>2011-05-29T15:51:18.000Z</time>
   </trkpt>
   <trkpt lon="6.55737305" lat="50.41070938">
    <ele>571.16</ele>
    <time>2011-05-29T15:51:36.000Z</time>
   </trkpt>
   <trkpt lon="6.55596924" lat="50.41084290">
    <ele>570.68</ele>
    <time>2011-05-29T15:51:54.000Z</time>
   </trkpt>
   <trkpt lon="6.55459690" lat="50.41094971">
    <ele>569.72</ele>
    <time>2011-05-29T15:52:12.000Z</time>
   </trkpt>
   <trkpt lon="6.55325985" lat="50.41104507">
    <ele>566.83</ele>
    <time>2011-05-29T15:52:28.000Z</time>
   </trkpt>
   <trkpt lon="6.55246782" lat="50.41113281">
    <ele>566.35</ele>
    <time>2011-05-29T15:52:39.000Z</time>
   </trkpt>
   <trkpt lon="6.55223799" lat="50.41112900">
    <ele>565.87</ele>
    <time>2011-05-29T15:52:42.000Z</time>
   </trkpt>
   <trkpt lon="6.55216599" lat="50.41112137">
    <ele>565.87</ele>
    <time>2011-05-29T15:52:43.000Z</time>
   </trkpt>
   <trkpt lon="6.55203199" lat="50.41109848">
    <ele>565.39</ele>
    <time>2011-05-29T15:52:45.000Z</time>
   </trkpt>
   <trkpt lon="6.55197001" lat="50.41110229">
    <ele>566.35</ele>
    <time>2011-05-29T15:52:46.000Z</time>
   </trkpt>
   <trkpt lon="6.55190706" lat="50.41110992">
    <ele>565.87</ele>
    <time>2011-05-29T15:52:47.000Z</time>
   </trkpt>
   <trkpt lon="6.55095577" lat="50.41119385">
    <ele>565.39</ele>
    <time>2011-05-29T15:53:02.000Z</time>
   </trkpt>
   <trkpt lon="6.55025101" lat="50.41130447">
    <ele>565.39</ele>
    <time>2011-05-29T15:53:15.000Z</time>
   </trkpt>
   <trkpt lon="6.54963207" lat="50.41120529">
    <ele>565.39</ele>
    <time>2011-05-29T15:53:27.000Z</time>
   </trkpt>
   <trkpt lon="6.54917622" lat="50.41104507">
    <ele>565.87</ele>
    <time>2011-05-29T15:53:37.000Z</time>
   </trkpt>
   <trkpt lon="6.54837704" lat="50.41073227">
    <ele>565.87</ele>
    <time>2011-05-29T15:53:55.000Z</time>
   </trkpt>
   <trkpt lon="6.54762888" lat="50.41045761">
    <ele>567.32</ele>
    <time>2011-05-29T15:54:13.000Z</time>
   </trkpt>
   <trkpt lon="6.54680681" lat="50.41012955">
    <ele>568.76</ele>
    <time>2011-05-29T15:54:34.000Z</time>
   </trkpt>
   <trkpt lon="6.54680777" lat="50.40980911">
    <ele>568.28</ele>
    <time>2011-05-29T15:54:44.000Z</time>
   </trkpt>
   <trkpt lon="6.54697323" lat="50.40919113">
    <ele>566.35</ele>
    <time>2011-05-29T15:54:58.000Z</time>
   </trkpt>
   <trkpt lon="6.54717398" lat="50.40835953">
    <ele>563.47</ele>
    <time>2011-05-29T15:55:15.000Z</time>
   </trkpt>
   <trkpt lon="6.54736090" lat="50.40760803">
    <ele>560.11</ele>
    <time>2011-05-29T15:55:27.000Z</time>
   </trkpt>
   <trkpt lon="6.54751301" lat="50.40699387">
    <ele>557.22</ele>
    <time>2011-05-29T15:55:36.000Z</time>
   </trkpt>
   <trkpt lon="6.54755402" lat="50.40681839">
    <ele>555.78</ele>
    <time>2011-05-29T15:55:38.000Z</time>
   </trkpt>
   <trkpt lon="6.54766989" lat="50.40635681">
    <ele>552.41</ele>
    <time>2011-05-29T15:55:43.000Z</time>
   </trkpt>
   <trkpt lon="6.54769421" lat="50.40625763">
    <ele>552.41</ele>
    <time>2011-05-29T15:55:44.000Z</time>
   </trkpt>
   <trkpt lon="6.54778624" lat="50.40576553">
    <ele>550.01</ele>
    <time>2011-05-29T15:55:49.000Z</time>
   </trkpt>
   <trkpt lon="6.54776001" lat="50.40567017">
    <ele>550.01</ele>
    <time>2011-05-29T15:55:50.000Z</time>
   </trkpt>
   <trkpt lon="6.54749012" lat="50.40501785">
    <ele>553.38</ele>
    <time>2011-05-29T15:55:59.000Z</time>
   </trkpt>
   <trkpt lon="6.54735994" lat="50.40471649">
    <ele>554.34</ele>
    <time>2011-05-29T15:56:10.000Z</time>
   </trkpt>
   <trkpt lon="6.54723406" lat="50.40447235">
    <ele>557.22</ele>
    <time>2011-05-29T15:56:27.000Z</time>
   </trkpt>
   <trkpt lon="6.54721880" lat="50.40443420">
    <ele>559.14</ele>
    <time>2011-05-29T15:56:30.000Z</time>
   </trkpt>
   <trkpt lon="6.54713202" lat="50.40422440">
    <ele>559.62</ele>
    <time>2011-05-29T15:56:46.000Z</time>
   </trkpt>
   <trkpt lon="6.54698086" lat="50.40394592">
    <ele>561.55</ele>
    <time>2011-05-29T15:57:08.000Z</time>
   </trkpt>
   <trkpt lon="6.54689598" lat="50.40368652">
    <ele>562.51</ele>
    <time>2011-05-29T15:57:25.000Z</time>
   </trkpt>
   <trkpt lon="6.54671001" lat="50.40330124">
    <ele>562.03</ele>
    <time>2011-05-29T15:57:42.000Z</time>
   </trkpt>
   <trkpt lon="6.54649878" lat="50.40280533">
    <ele>562.03</ele>
    <time>2011-05-29T15:58:01.000Z</time>
   </trkpt>
   <trkpt lon="6.54623318" lat="50.40229797">
    <ele>559.62</ele>
    <time>2011-05-29T15:58:19.000Z</time>
   </trkpt>
   <trkpt lon="6.54618311" lat="50.40217209">
    <ele>560.59</ele>
    <time>2011-05-29T15:58:23.000Z</time>
   </trkpt>
   <trkpt lon="6.54589605" lat="50.40172958">
    <ele>557.7</ele>
    <time>2011-05-29T15:58:35.000Z</time>
   </trkpt>
   <trkpt lon="6.54572105" lat="50.40134811">
    <ele>554.34</ele>
    <time>2011-05-29T15:58:41.000Z</time>
   </trkpt>
   <trkpt lon="6.54553699" lat="50.40093231">
    <ele>550.97</ele>
    <time>2011-05-29T15:58:46.000Z</time>
   </trkpt>
   <trkpt lon="6.54534912" lat="50.40048981">
    <ele>548.09</ele>
    <time>2011-05-29T15:58:51.000Z</time>
   </trkpt>
   <trkpt lon="6.54524803" lat="50.40023804">
    <ele>546.17</ele>
    <time>2011-05-29T15:58:54.000Z</time>
   </trkpt>
   <trkpt lon="6.54517317" lat="50.40000534">
    <ele>544.24</ele>
    <time>2011-05-29T15:58:57.000Z</time>
   </trkpt>
   <trkpt lon="6.54516792" lat="50.39993286">
    <ele>544.24</ele>
    <time>2011-05-29T15:58:58.000Z</time>
   </trkpt>
   <trkpt lon="6.54515886" lat="50.39986801">
    <ele>543.76</ele>
    <time>2011-05-29T15:58:59.000Z</time>
   </trkpt>
   <trkpt lon="6.54512787" lat="50.39980698">
    <ele>542.8</ele>
    <time>2011-05-29T15:59:00.000Z</time>
   </trkpt>
   <trkpt lon="6.54506922" lat="50.39975739">
    <ele>542.32</ele>
    <time>2011-05-29T15:59:01.000Z</time>
   </trkpt>
   <trkpt lon="6.54499102" lat="50.39971924">
    <ele>542.32</ele>
    <time>2011-05-29T15:59:02.000Z</time>
   </trkpt>
   <trkpt lon="6.54490423" lat="50.39969254">
    <ele>541.84</ele>
    <time>2011-05-29T15:59:03.000Z</time>
   </trkpt>
   <trkpt lon="6.54481697" lat="50.39966965">
    <ele>541.84</ele>
    <time>2011-05-29T15:59:04.000Z</time>
   </trkpt>
   <trkpt lon="6.54473209" lat="50.39965057">
    <ele>541.36</ele>
    <time>2011-05-29T15:59:05.000Z</time>
   </trkpt>
   <trkpt lon="6.54337788" lat="50.39930725">
    <ele>540.88</ele>
    <time>2011-05-29T15:59:24.000Z</time>
   </trkpt>
   <trkpt lon="6.54218817" lat="50.39900208">
    <ele>537.51</ele>
    <time>2011-05-29T15:59:41.000Z</time>
   </trkpt>
   <trkpt lon="6.54080105" lat="50.39863968">
    <ele>534.63</ele>
    <time>2011-05-29T15:59:56.000Z</time>
   </trkpt>
   <trkpt lon="6.53977299" lat="50.39836502">
    <ele>536.55</ele>
    <time>2011-05-29T16:00:12.000Z</time>
   </trkpt>
   <trkpt lon="6.53885794" lat="50.39811707">
    <ele>536.07</ele>
    <time>2011-05-29T16:00:27.000Z</time>
   </trkpt>
   <trkpt lon="6.53783417" lat="50.39787292">
    <ele>535.11</ele>
    <time>2011-05-29T16:00:43.000Z</time>
   </trkpt>
   <trkpt lon="6.53708792" lat="50.39756775">
    <ele>535.11</ele>
    <time>2011-05-29T16:00:58.000Z</time>
   </trkpt>
   <trkpt lon="6.53634310" lat="50.39723587">
    <ele>535.59</ele>
    <time>2011-05-29T16:01:14.000Z</time>
   </trkpt>
   <trkpt lon="6.53606796" lat="50.39710236">
    <ele>536.55</ele>
    <time>2011-05-29T16:01:26.000Z</time>
   </trkpt>
   <trkpt lon="6.53593302" lat="50.39705276">
    <ele>537.51</ele>
    <time>2011-05-29T16:01:34.000Z</time>
   </trkpt>
   <trkpt lon="6.53591299" lat="50.39704514">
    <ele>537.51</ele>
    <time>2011-05-29T16:01:35.000Z</time>
   </trkpt>
   <trkpt lon="6.53589582" lat="50.39704132">
    <ele>537.51</ele>
    <time>2011-05-29T16:01:36.000Z</time>
   </trkpt>
   <trkpt lon="6.53584814" lat="50.39701080">
    <ele>538.48</ele>
    <time>2011-05-29T16:01:39.000Z</time>
   </trkpt>
   <trkpt lon="6.53583002" lat="50.39700699">
    <ele>538.48</ele>
    <time>2011-05-29T16:01:40.000Z</time>
   </trkpt>
   <trkpt lon="6.53580999" lat="50.39700317">
    <ele>538.48</ele>
    <time>2011-05-29T16:01:41.000Z</time>
   </trkpt>
   <trkpt lon="6.53579092" lat="50.39699936">
    <ele>538.96</ele>
    <time>2011-05-29T16:01:42.000Z</time>
   </trkpt>
   <trkpt lon="6.53577089" lat="50.39699173">
    <ele>538.96</ele>
    <time>2011-05-29T16:01:43.000Z</time>
   </trkpt>
   <trkpt lon="6.53563309" lat="50.39691925">
    <ele>540.4</ele>
    <time>2011-05-29T16:01:52.000Z</time>
   </trkpt>
   <trkpt lon="6.53561783" lat="50.39691544">
    <ele>540.4</ele>
    <time>2011-05-29T16:01:53.000Z</time>
   </trkpt>
   <trkpt lon="6.53560400" lat="50.39690781">
    <ele>539.92</ele>
    <time>2011-05-29T16:01:54.000Z</time>
   </trkpt>
   <trkpt lon="6.53558683" lat="50.39690399">
    <ele>540.88</ele>
    <time>2011-05-29T16:01:55.000Z</time>
   </trkpt>
   <trkpt lon="6.53557110" lat="50.39689636">
    <ele>541.36</ele>
    <time>2011-05-29T16:01:56.000Z</time>
   </trkpt>
   <trkpt lon="6.53546190" lat="50.39686966">
    <ele>540.88</ele>
    <time>2011-05-29T16:02:02.000Z</time>
   </trkpt>
   <trkpt lon="6.53544283" lat="50.39686203">
    <ele>541.36</ele>
    <time>2011-05-29T16:02:03.000Z</time>
   </trkpt>
   <trkpt lon="6.53513718" lat="50.39674759">
    <ele>542.32</ele>
    <time>2011-05-29T16:02:20.000Z</time>
   </trkpt>
   <trkpt lon="6.53484297" lat="50.39664459">
    <ele>543.76</ele>
    <time>2011-05-29T16:02:36.000Z</time>
   </trkpt>
   <trkpt lon="6.53452301" lat="50.39652252">
    <ele>545.69</ele>
    <time>2011-05-29T16:02:53.000Z</time>
   </trkpt>
   <trkpt lon="6.53428316" lat="50.39642715">
    <ele>547.13</ele>
    <time>2011-05-29T16:03:06.000Z</time>
   </trkpt>
   <trkpt lon="6.53399897" lat="50.39631653">
    <ele>547.61</ele>
    <time>2011-05-29T16:03:22.000Z</time>
   </trkpt>
   <trkpt lon="6.53370190" lat="50.39619827">
    <ele>549.05</ele>
    <time>2011-05-29T16:03:36.000Z</time>
   </trkpt>
   <trkpt lon="6.53324795" lat="50.39603043">
    <ele>549.53</ele>
    <time>2011-05-29T16:03:54.000Z</time>
   </trkpt>
   <trkpt lon="6.53281307" lat="50.39586639">
    <ele>550.01</ele>
    <time>2011-05-29T16:04:12.000Z</time>
   </trkpt>
   <trkpt lon="6.53255177" lat="50.39577484">
    <ele>550.49</ele>
    <time>2011-05-29T16:04:24.000Z</time>
   </trkpt>
   <trkpt lon="6.53209686" lat="50.39561081">
    <ele>550.01</ele>
    <time>2011-05-29T16:04:40.000Z</time>
   </trkpt>
   <trkpt lon="6.53171778" lat="50.39542770">
    <ele>550.97</ele>
    <time>2011-05-29T16:04:55.000Z</time>
   </trkpt>
   <trkpt lon="6.53161097" lat="50.39535141">
    <ele>550.97</ele>
    <time>2011-05-29T16:05:00.000Z</time>
   </trkpt>
   <trkpt lon="6.53117990" lat="50.39508057">
    <ele>551.93</ele>
    <time>2011-05-29T16:05:17.000Z</time>
   </trkpt>
   <trkpt lon="6.53081512" lat="50.39484406">
    <ele>553.38</ele>
    <time>2011-05-29T16:05:33.000Z</time>
   </trkpt>
   <trkpt lon="6.53048182" lat="50.39462280">
    <ele>554.34</ele>
    <time>2011-05-29T16:05:48.000Z</time>
   </trkpt>
   <trkpt lon="6.53009319" lat="50.39437485">
    <ele>554.82</ele>
    <time>2011-05-29T16:06:05.000Z</time>
   </trkpt>
   <trkpt lon="6.52974319" lat="50.39414215">
    <ele>554.82</ele>
    <time>2011-05-29T16:06:19.000Z</time>
   </trkpt>
   <trkpt lon="6.52947092" lat="50.39397812">
    <ele>553.38</ele>
    <time>2011-05-29T16:06:27.000Z</time>
   </trkpt>
   <trkpt lon="6.52936602" lat="50.39390945">
    <ele>554.82</ele>
    <time>2011-05-29T16:06:30.000Z</time>
   </trkpt>
   <trkpt lon="6.52925014" lat="50.39384079">
    <ele>552.41</ele>
    <time>2011-05-29T16:06:33.000Z</time>
   </trkpt>
   <trkpt lon="6.52907085" lat="50.39372253">
    <ele>554.34</ele>
    <time>2011-05-29T16:06:38.000Z</time>
   </trkpt>
   <trkpt lon="6.52846289" lat="50.39334488">
    <ele>552.9</ele>
    <time>2011-05-29T16:06:53.000Z</time>
   </trkpt>
   <trkpt lon="6.52782583" lat="50.39294815">
    <ele>553.38</ele>
    <time>2011-05-29T16:07:09.000Z</time>
   </trkpt>
   <trkpt lon="6.52689219" lat="50.39234543">
    <ele>550.97</ele>
    <time>2011-05-29T16:07:28.000Z</time>
   </trkpt>
   <trkpt lon="6.52591991" lat="50.39170074">
    <ele>550.01</ele>
    <time>2011-05-29T16:07:45.000Z</time>
   </trkpt>
   <trkpt lon="6.52580214" lat="50.39163208">
    <ele>550.01</ele>
    <time>2011-05-29T16:07:47.000Z</time>
   </trkpt>
   <trkpt lon="6.52500391" lat="50.39099503">
    <ele>547.13</ele>
    <time>2011-05-29T16:08:03.000Z</time>
   </trkpt>
   <trkpt lon="6.52439022" lat="50.39019775">
    <ele>544.24</ele>
    <time>2011-05-29T16:08:18.000Z</time>
   </trkpt>
   <trkpt lon="6.52392387" lat="50.38963699">
    <ele>541.84</ele>
    <time>2011-05-29T16:08:28.000Z</time>
   </trkpt>
   <trkpt lon="6.52385998" lat="50.38959122">
    <ele>541.36</ele>
    <time>2011-05-29T16:08:29.000Z</time>
   </trkpt>
   <trkpt lon="6.52378607" lat="50.38954926">
    <ele>541.36</ele>
    <time>2011-05-29T16:08:30.000Z</time>
   </trkpt>
   <trkpt lon="6.52264595" lat="50.38891220">
    <ele>539.44</ele>
    <time>2011-05-29T16:08:46.000Z</time>
   </trkpt>
   <trkpt lon="6.52172279" lat="50.38838196">
    <ele>538.96</ele>
    <time>2011-05-29T16:09:01.000Z</time>
   </trkpt>
   <trkpt lon="6.52050781" lat="50.38761139">
    <ele>537.03</ele>
    <time>2011-05-29T16:09:23.000Z</time>
   </trkpt>
   <trkpt lon="6.52035999" lat="50.38749695">
    <ele>537.03</ele>
    <time>2011-05-29T16:09:26.000Z</time>
   </trkpt>
   <trkpt lon="6.52032518" lat="50.38745117">
    <ele>537.03</ele>
    <time>2011-05-29T16:09:27.000Z</time>
   </trkpt>
   <trkpt lon="6.51990080" lat="50.38665009">
    <ele>534.15</ele>
    <time>2011-05-29T16:09:41.000Z</time>
   </trkpt>
   <trkpt lon="6.51946783" lat="50.38616562">
    <ele>530.79</ele>
    <time>2011-05-29T16:09:49.000Z</time>
   </trkpt>
   <trkpt lon="6.51931286" lat="50.38605881">
    <ele>530.3</ele>
    <time>2011-05-29T16:09:51.000Z</time>
   </trkpt>
   <trkpt lon="6.51922894" lat="50.38601303">
    <ele>530.3</ele>
    <time>2011-05-29T16:09:52.000Z</time>
   </trkpt>
   <trkpt lon="6.51823616" lat="50.38544846">
    <ele>526.94</ele>
    <time>2011-05-29T16:10:04.000Z</time>
   </trkpt>
   <trkpt lon="6.51753283" lat="50.38503265">
    <ele>523.58</ele>
    <time>2011-05-29T16:10:13.000Z</time>
   </trkpt>
   <trkpt lon="6.51744890" lat="50.38498688">
    <ele>524.06</ele>
    <time>2011-05-29T16:10:14.000Z</time>
   </trkpt>
   <trkpt lon="6.51690722" lat="50.38470078">
    <ele>520.69</ele>
    <time>2011-05-29T16:10:20.000Z</time>
   </trkpt>
   <trkpt lon="6.51680517" lat="50.38465118">
    <ele>520.21</ele>
    <time>2011-05-29T16:10:21.000Z</time>
   </trkpt>
   <trkpt lon="6.51624584" lat="50.38438034">
    <ele>516.37</ele>
    <time>2011-05-29T16:10:26.000Z</time>
   </trkpt>
   <trkpt lon="6.51600981" lat="50.38426590">
    <ele>515.88</ele>
    <time>2011-05-29T16:10:28.000Z</time>
   </trkpt>
   <trkpt lon="6.51577902" lat="50.38414383">
    <ele>513.96</ele>
    <time>2011-05-29T16:10:30.000Z</time>
   </trkpt>
   <trkpt lon="6.51530790" lat="50.38389587">
    <ele>511.56</ele>
    <time>2011-05-29T16:10:34.000Z</time>
   </trkpt>
   <trkpt lon="6.51482201" lat="50.38362885">
    <ele>508.19</ele>
    <time>2011-05-29T16:10:38.000Z</time>
   </trkpt>
   <trkpt lon="6.51447821" lat="50.38337326">
    <ele>504.83</ele>
    <time>2011-05-29T16:10:41.000Z</time>
   </trkpt>
   <trkpt lon="6.51416492" lat="50.38308334">
    <ele>501.46</ele>
    <time>2011-05-29T16:10:44.000Z</time>
   </trkpt>
   <trkpt lon="6.51386786" lat="50.38277054">
    <ele>498.58</ele>
    <time>2011-05-29T16:10:47.000Z</time>
   </trkpt>
   <trkpt lon="6.51364422" lat="50.38246155">
    <ele>497.14</ele>
    <time>2011-05-29T16:10:50.000Z</time>
   </trkpt>
   <trkpt lon="6.51332998" lat="50.38198853">
    <ele>497.14</ele>
    <time>2011-05-29T16:10:55.000Z</time>
   </trkpt>
   <trkpt lon="6.51324797" lat="50.38190842">
    <ele>496.66</ele>
    <time>2011-05-29T16:10:56.000Z</time>
   </trkpt>
   <trkpt lon="6.51315784" lat="50.38183975">
    <ele>496.66</ele>
    <time>2011-05-29T16:10:57.000Z</time>
   </trkpt>
   <trkpt lon="6.51305914" lat="50.38177490">
    <ele>496.66</ele>
    <time>2011-05-29T16:10:58.000Z</time>
   </trkpt>
   <trkpt lon="6.51295614" lat="50.38171768">
    <ele>496.18</ele>
    <time>2011-05-29T16:10:59.000Z</time>
   </trkpt>
   <trkpt lon="6.51166010" lat="50.38119888">
    <ele>495.22</ele>
    <time>2011-05-29T16:11:11.000Z</time>
   </trkpt>
   <trkpt lon="6.51153612" lat="50.38118362">
    <ele>495.22</ele>
    <time>2011-05-29T16:11:12.000Z</time>
   </trkpt>
   <trkpt lon="6.51016283" lat="50.38082504">
    <ele>491.85</ele>
    <time>2011-05-29T16:11:25.000Z</time>
   </trkpt>
   <trkpt lon="6.50926304" lat="50.38035202">
    <ele>490.41</ele>
    <time>2011-05-29T16:11:37.000Z</time>
   </trkpt>
   <trkpt lon="6.50920486" lat="50.38030243">
    <ele>490.41</ele>
    <time>2011-05-29T16:11:38.000Z</time>
   </trkpt>
   <trkpt lon="6.50858116" lat="50.37950897">
    <ele>488.49</ele>
    <time>2011-05-29T16:11:52.000Z</time>
   </trkpt>
   <trkpt lon="6.50801086" lat="50.37891006">
    <ele>488.01</ele>
    <time>2011-05-29T16:12:04.000Z</time>
   </trkpt>
   <trkpt lon="6.50794983" lat="50.37886810">
    <ele>488.01</ele>
    <time>2011-05-29T16:12:05.000Z</time>
   </trkpt>
   <trkpt lon="6.50788784" lat="50.37883377">
    <ele>488.49</ele>
    <time>2011-05-29T16:12:06.000Z</time>
   </trkpt>
   <trkpt lon="6.50782585" lat="50.37879562">
    <ele>488.49</ele>
    <time>2011-05-29T16:12:07.000Z</time>
   </trkpt>
   <trkpt lon="6.50776577" lat="50.37875748">
    <ele>488.49</ele>
    <time>2011-05-29T16:12:08.000Z</time>
   </trkpt>
   <trkpt lon="6.50693512" lat="50.37831879">
    <ele>487.53</ele>
    <time>2011-05-29T16:12:20.000Z</time>
   </trkpt>
   <trkpt lon="6.50686502" lat="50.37829208">
    <ele>487.53</ele>
    <time>2011-05-29T16:12:21.000Z</time>
   </trkpt>
   <trkpt lon="6.50572777" lat="50.37781906">
    <ele>486.08</ele>
    <time>2011-05-29T16:12:36.000Z</time>
   </trkpt>
   <trkpt lon="6.50553322" lat="50.37769318">
    <ele>485.6</ele>
    <time>2011-05-29T16:12:39.000Z</time>
   </trkpt>
   <trkpt lon="6.50546885" lat="50.37765503">
    <ele>485.6</ele>
    <time>2011-05-29T16:12:40.000Z</time>
   </trkpt>
   <trkpt lon="6.50541401" lat="50.37761307">
    <ele>485.6</ele>
    <time>2011-05-29T16:12:41.000Z</time>
   </trkpt>
   <trkpt lon="6.50536108" lat="50.37756348">
    <ele>485.12</ele>
    <time>2011-05-29T16:12:42.000Z</time>
   </trkpt>
   <trkpt lon="6.50531101" lat="50.37751389">
    <ele>485.12</ele>
    <time>2011-05-29T16:12:43.000Z</time>
   </trkpt>
   <trkpt lon="6.50527000" lat="50.37746048">
    <ele>484.64</ele>
    <time>2011-05-29T16:12:44.000Z</time>
   </trkpt>
   <trkpt lon="6.50522995" lat="50.37740707">
    <ele>484.64</ele>
    <time>2011-05-29T16:12:45.000Z</time>
   </trkpt>
   <trkpt lon="6.50518608" lat="50.37734985">
    <ele>484.64</ele>
    <time>2011-05-29T16:12:46.000Z</time>
   </trkpt>
   <trkpt lon="6.50496817" lat="50.37699509">
    <ele>483.68</ele>
    <time>2011-05-29T16:12:52.000Z</time>
   </trkpt>
   <trkpt lon="6.50494623" lat="50.37693405">
    <ele>483.2</ele>
    <time>2011-05-29T16:12:53.000Z</time>
   </trkpt>
   <trkpt lon="6.50472689" lat="50.37599182">
    <ele>481.28</ele>
    <time>2011-05-29T16:13:08.000Z</time>
   </trkpt>
   <trkpt lon="6.50466681" lat="50.37539291">
    <ele>480.32</ele>
    <time>2011-05-29T16:13:18.000Z</time>
   </trkpt>
   <trkpt lon="6.50462103" lat="50.37493896">
    <ele>479.84</ele>
    <time>2011-05-29T16:13:26.000Z</time>
   </trkpt>
   <trkpt lon="6.50458622" lat="50.37490082">
    <ele>479.84</ele>
    <time>2011-05-29T16:13:27.000Z</time>
   </trkpt>
   <trkpt lon="6.50419998" lat="50.37466049">
    <ele>480.32</ele>
    <time>2011-05-29T16:13:39.000Z</time>
   </trkpt>
   <trkpt lon="6.50413322" lat="50.37459183">
    <ele>480.32</ele>
    <time>2011-05-29T16:13:42.000Z</time>
   </trkpt>
   <trkpt lon="6.50414801" lat="50.37456131">
    <ele>480.32</ele>
    <time>2011-05-29T16:13:43.000Z</time>
   </trkpt>
   <trkpt lon="6.50417995" lat="50.37453079">
    <ele>480.32</ele>
    <time>2011-05-29T16:13:44.000Z</time>
   </trkpt>
   <trkpt lon="6.50422382" lat="50.37450409">
    <ele>480.32</ele>
    <time>2011-05-29T16:13:45.000Z</time>
   </trkpt>
   <trkpt lon="6.50427818" lat="50.37448502">
    <ele>479.84</ele>
    <time>2011-05-29T16:13:46.000Z</time>
   </trkpt>
   <trkpt lon="6.50433683" lat="50.37446594">
    <ele>479.84</ele>
    <time>2011-05-29T16:13:47.000Z</time>
   </trkpt>
   <trkpt lon="6.50543880" lat="50.37415695">
    <ele>478.39</ele>
    <time>2011-05-29T16:14:02.000Z</time>
   </trkpt>
   <trkpt lon="6.50559807" lat="50.37412262">
    <ele>477.91</ele>
    <time>2011-05-29T16:14:04.000Z</time>
   </trkpt>
   <trkpt lon="6.50567293" lat="50.37409592">
    <ele>478.39</ele>
    <time>2011-05-29T16:14:05.000Z</time>
   </trkpt>
   <trkpt lon="6.50573111" lat="50.37406158">
    <ele>478.39</ele>
    <time>2011-05-29T16:14:06.000Z</time>
   </trkpt>
   <trkpt lon="6.50576115" lat="50.37401581">
    <ele>478.39</ele>
    <time>2011-05-29T16:14:07.000Z</time>
   </trkpt>
   <trkpt lon="6.50575686" lat="50.37397003">
    <ele>477.91</ele>
    <time>2011-05-29T16:14:08.000Z</time>
   </trkpt>
   <trkpt lon="6.50572300" lat="50.37393570">
    <ele>478.87</ele>
    <time>2011-05-29T16:14:09.000Z</time>
   </trkpt>
   <trkpt lon="6.50567818" lat="50.37390137">
    <ele>477.91</ele>
    <time>2011-05-29T16:14:10.000Z</time>
   </trkpt>
   <trkpt lon="6.50563097" lat="50.37386703">
    <ele>477.91</ele>
    <time>2011-05-29T16:14:11.000Z</time>
   </trkpt>
   <trkpt lon="6.50493717" lat="50.37341309">
    <ele>478.39</ele>
    <time>2011-05-29T16:14:27.000Z</time>
   </trkpt>
   <trkpt lon="6.50468683" lat="50.37324524">
    <ele>480.8</ele>
    <time>2011-05-29T16:14:38.000Z</time>
   </trkpt>
   <trkpt lon="6.50459623" lat="50.37317276">
    <ele>481.28</ele>
    <time>2011-05-29T16:14:44.000Z</time>
   </trkpt>
   <trkpt lon="6.50457621" lat="50.37316513">
    <ele>481.76</ele>
    <time>2011-05-29T16:14:45.000Z</time>
   </trkpt>
   <trkpt lon="6.50455618" lat="50.37315750">
    <ele>481.76</ele>
    <time>2011-05-29T16:14:46.000Z</time>
   </trkpt>
   <trkpt lon="6.50453806" lat="50.37314987">
    <ele>481.76</ele>
    <time>2011-05-29T16:14:47.000Z</time>
   </trkpt>
   <trkpt lon="6.50452089" lat="50.37313843">
    <ele>481.76</ele>
    <time>2011-05-29T16:14:48.000Z</time>
   </trkpt>
   <trkpt lon="6.50450611" lat="50.37312698">
    <ele>481.76</ele>
    <time>2011-05-29T16:14:49.000Z</time>
   </trkpt>
   <trkpt lon="6.50449419" lat="50.37311935">
    <ele>481.76</ele>
    <time>2011-05-29T16:14:50.000Z</time>
   </trkpt>
   <trkpt lon="6.50448799" lat="50.37310791">
    <ele>482.24</ele>
    <time>2011-05-29T16:14:51.000Z</time>
   </trkpt>
   <trkpt lon="6.50448179" lat="50.37309647">
    <ele>482.72</ele>
    <time>2011-05-29T16:14:52.000Z</time>
   </trkpt>
   <trkpt lon="6.50446892" lat="50.37308502">
    <ele>482.24</ele>
    <time>2011-05-29T16:14:53.000Z</time>
   </trkpt>
   <trkpt lon="6.50445223" lat="50.37307358">
    <ele>482.72</ele>
    <time>2011-05-29T16:14:54.000Z</time>
   </trkpt>
   <trkpt lon="6.50443316" lat="50.37306595">
    <ele>482.72</ele>
    <time>2011-05-29T16:14:55.000Z</time>
   </trkpt>
   <trkpt lon="6.50441504" lat="50.37305832">
    <ele>482.72</ele>
    <time>2011-05-29T16:14:56.000Z</time>
   </trkpt>
   <trkpt lon="6.50440216" lat="50.37305069">
    <ele>483.2</ele>
    <time>2011-05-29T16:14:57.000Z</time>
   </trkpt>
   <trkpt lon="6.50438976" lat="50.37304306">
    <ele>483.2</ele>
    <time>2011-05-29T16:14:58.000Z</time>
   </trkpt>
   <trkpt lon="6.50434685" lat="50.37300110">
    <ele>483.2</ele>
    <time>2011-05-29T16:15:02.000Z</time>
   </trkpt>
   <trkpt lon="6.50433397" lat="50.37298965">
    <ele>483.2</ele>
    <time>2011-05-29T16:15:03.000Z</time>
   </trkpt>
   <trkpt lon="6.50432205" lat="50.37297821">
    <ele>483.68</ele>
    <time>2011-05-29T16:15:04.000Z</time>
   </trkpt>
   <trkpt lon="6.50430918" lat="50.37297058">
    <ele>483.68</ele>
    <time>2011-05-29T16:15:05.000Z</time>
   </trkpt>
   <trkpt lon="6.50429487" lat="50.37295914">
    <ele>484.16</ele>
    <time>2011-05-29T16:15:06.000Z</time>
   </trkpt>
   <trkpt lon="6.50427818" lat="50.37294769">
    <ele>483.68</ele>
    <time>2011-05-29T16:15:07.000Z</time>
   </trkpt>
   <trkpt lon="6.50415993" lat="50.37286758">
    <ele>485.12</ele>
    <time>2011-05-29T16:15:15.000Z</time>
   </trkpt>
   <trkpt lon="6.50414705" lat="50.37285995">
    <ele>485.6</ele>
    <time>2011-05-29T16:15:16.000Z</time>
   </trkpt>
   <trkpt lon="6.50413084" lat="50.37284851">
    <ele>485.6</ele>
    <time>2011-05-29T16:15:17.000Z</time>
   </trkpt>
   <trkpt lon="6.50383806" lat="50.37269211">
    <ele>486.56</ele>
    <time>2011-05-29T16:15:34.000Z</time>
   </trkpt>
   <trkpt lon="6.50369310" lat="50.37258148">
    <ele>488.49</ele>
    <time>2011-05-29T16:15:43.000Z</time>
   </trkpt>
   <trkpt lon="6.50341702" lat="50.37238693">
    <ele>489.93</ele>
    <time>2011-05-29T16:16:00.000Z</time>
   </trkpt>
   <trkpt lon="6.50328922" lat="50.37227249">
    <ele>489.93</ele>
    <time>2011-05-29T16:16:09.000Z</time>
   </trkpt>
   <trkpt lon="6.50326586" lat="50.37226105">
    <ele>490.41</ele>
    <time>2011-05-29T16:16:10.000Z</time>
   </trkpt>
   <trkpt lon="6.50324202" lat="50.37224960">
    <ele>489.93</ele>
    <time>2011-05-29T16:16:11.000Z</time>
   </trkpt>
   <trkpt lon="6.50322199" lat="50.37224197">
    <ele>489.93</ele>
    <time>2011-05-29T16:16:12.000Z</time>
   </trkpt>
   <trkpt lon="6.50320292" lat="50.37223053">
    <ele>490.41</ele>
    <time>2011-05-29T16:16:13.000Z</time>
   </trkpt>
   <trkpt lon="6.50318623" lat="50.37221909">
    <ele>490.41</ele>
    <time>2011-05-29T16:16:14.000Z</time>
   </trkpt>
   <trkpt lon="6.50317287" lat="50.37220764">
    <ele>490.41</ele>
    <time>2011-05-29T16:16:15.000Z</time>
   </trkpt>
   <trkpt lon="6.50284910" lat="50.37204361">
    <ele>490.89</ele>
    <time>2011-05-29T16:16:31.000Z</time>
   </trkpt>
   <trkpt lon="6.50243902" lat="50.37192535">
    <ele>491.85</ele>
    <time>2011-05-29T16:16:48.000Z</time>
   </trkpt>
   <trkpt lon="6.50207520" lat="50.37184525">
    <ele>493.29</ele>
    <time>2011-05-29T16:17:04.000Z</time>
   </trkpt>
   <trkpt lon="6.50184393" lat="50.37180328">
    <ele>493.29</ele>
    <time>2011-05-29T16:17:14.000Z</time>
   </trkpt>
   <trkpt lon="6.50181913" lat="50.37179565">
    <ele>493.77</ele>
    <time>2011-05-29T16:17:15.000Z</time>
   </trkpt>
   <trkpt lon="6.50166082" lat="50.37176514">
    <ele>492.81</ele>
    <time>2011-05-29T16:17:21.000Z</time>
   </trkpt>
   <trkpt lon="6.50156498" lat="50.37174225">
    <ele>494.26</ele>
    <time>2011-05-29T16:17:25.000Z</time>
   </trkpt>
   <trkpt lon="6.50125694" lat="50.37166595">
    <ele>495.22</ele>
    <time>2011-05-29T16:17:39.000Z</time>
   </trkpt>
   <trkpt lon="6.50123787" lat="50.37166977">
    <ele>494.74</ele>
    <time>2011-05-29T16:17:40.000Z</time>
   </trkpt>
   <trkpt lon="6.50122213" lat="50.37167740">
    <ele>494.74</ele>
    <time>2011-05-29T16:17:41.000Z</time>
   </trkpt>
   <trkpt lon="6.50120687" lat="50.37168503">
    <ele>494.74</ele>
    <time>2011-05-29T16:17:54.000Z</time>
   </trkpt>
   <trkpt lon="6.50120592" lat="50.37168503">
    <ele>495.22</ele>
    <time>2011-05-29T16:18:28.000Z</time>
   </trkpt>
   <trkpt lon="6.50121212" lat="50.37168884">
    <ele>495.22</ele>
    <time>2011-05-29T16:19:11.000Z</time>
   </trkpt>
   <trkpt lon="6.50121117" lat="50.37168884">
    <ele>495.22</ele>
    <time>2011-05-29T16:19:50.000Z</time>
   </trkpt>
   <trkpt lon="6.50121498" lat="50.37168884">
    <ele>495.7</ele>
    <time>2011-05-29T16:20:28.000Z</time>
   </trkpt>
   <trkpt lon="6.50121498" lat="50.37168884">
    <ele>495.22</ele>
    <time>2011-05-29T16:20:55.000Z</time>
   </trkpt>
   <trkpt lon="6.50118017" lat="50.37166595">
    <ele>495.7</ele>
    <time>2011-05-29T16:21:10.000Z</time>
   </trkpt>
   <trkpt lon="6.50116014" lat="50.37165451">
    <ele>495.7</ele>
    <time>2011-05-29T16:21:11.000Z</time>
   </trkpt>
   <trkpt lon="6.50113916" lat="50.37164688">
    <ele>495.7</ele>
    <time>2011-05-29T16:21:12.000Z</time>
   </trkpt>
   <trkpt lon="6.50112009" lat="50.37164307">
    <ele>496.18</ele>
    <time>2011-05-29T16:21:13.000Z</time>
   </trkpt>
   <trkpt lon="6.50109577" lat="50.37163925">
    <ele>495.7</ele>
    <time>2011-05-29T16:21:14.000Z</time>
   </trkpt>
   <trkpt lon="6.50107288" lat="50.37163162">
    <ele>496.18</ele>
    <time>2011-05-29T16:21:15.000Z</time>
   </trkpt>
   <trkpt lon="6.50075102" lat="50.37152481">
    <ele>497.62</ele>
    <time>2011-05-29T16:21:31.000Z</time>
   </trkpt>
   <trkpt lon="6.50069189" lat="50.37150574">
    <ele>495.22</ele>
    <time>2011-05-29T16:21:34.000Z</time>
   </trkpt>
   <trkpt lon="6.50058603" lat="50.37148285">
    <ele>497.62</ele>
    <time>2011-05-29T16:21:39.000Z</time>
   </trkpt>
   <trkpt lon="6.50053120" lat="50.37145615">
    <ele>497.62</ele>
    <time>2011-05-29T16:21:42.000Z</time>
   </trkpt>
   <trkpt lon="6.50022984" lat="50.37137604">
    <ele>499.06</ele>
    <time>2011-05-29T16:21:56.000Z</time>
   </trkpt>
   <trkpt lon="6.49992800" lat="50.37127686">
    <ele>500.98</ele>
    <time>2011-05-29T16:22:11.000Z</time>
   </trkpt>
   <trkpt lon="6.49961901" lat="50.37118912">
    <ele>501.95</ele>
    <time>2011-05-29T16:22:26.000Z</time>
   </trkpt>
   <trkpt lon="6.49938679" lat="50.37110138">
    <ele>502.43</ele>
    <time>2011-05-29T16:22:38.000Z</time>
   </trkpt>
   <trkpt lon="6.49900723" lat="50.37099457">
    <ele>503.87</ele>
    <time>2011-05-29T16:22:57.000Z</time>
   </trkpt>
   <trkpt lon="6.49864721" lat="50.37086868">
    <ele>505.31</ele>
    <time>2011-05-29T16:23:15.000Z</time>
   </trkpt>
   <trkpt lon="6.49831390" lat="50.37075043">
    <ele>506.75</ele>
    <time>2011-05-29T16:23:32.000Z</time>
   </trkpt>
   <trkpt lon="6.49791193" lat="50.37062073">
    <ele>507.71</ele>
    <time>2011-05-29T16:23:48.000Z</time>
   </trkpt>
   <trkpt lon="6.49735212" lat="50.37045670">
    <ele>507.23</ele>
    <time>2011-05-29T16:24:05.000Z</time>
   </trkpt>
   <trkpt lon="6.49680614" lat="50.37044144">
    <ele>508.19</ele>
    <time>2011-05-29T16:24:19.000Z</time>
   </trkpt>
   <trkpt lon="6.49627113" lat="50.37049484">
    <ele>508.19</ele>
    <time>2011-05-29T16:24:34.000Z</time>
   </trkpt>
   <trkpt lon="6.49574995" lat="50.37030792">
    <ele>509.64</ele>
    <time>2011-05-29T16:24:49.000Z</time>
   </trkpt>
   <trkpt lon="6.49509096" lat="50.37010193">
    <ele>511.08</ele>
    <time>2011-05-29T16:25:07.000Z</time>
   </trkpt>
   <trkpt lon="6.49453783" lat="50.36993027">
    <ele>511.56</ele>
    <time>2011-05-29T16:25:24.000Z</time>
   </trkpt>
   <trkpt lon="6.49418497" lat="50.36981964">
    <ele>513.48</ele>
    <time>2011-05-29T16:25:40.000Z</time>
   </trkpt>
   <trkpt lon="6.49399424" lat="50.36978149">
    <ele>514.44</ele>
    <time>2011-05-29T16:25:49.000Z</time>
   </trkpt>
   <trkpt lon="6.49397278" lat="50.36978149">
    <ele>514.92</ele>
    <time>2011-05-29T16:25:50.000Z</time>
   </trkpt>
   <trkpt lon="6.49395180" lat="50.36978149">
    <ele>514.92</ele>
    <time>2011-05-29T16:25:51.000Z</time>
   </trkpt>
   <trkpt lon="6.49361515" lat="50.36971283">
    <ele>516.85</ele>
    <time>2011-05-29T16:26:09.000Z</time>
   </trkpt>
   <trkpt lon="6.49337578" lat="50.36958313">
    <ele>519.25</ele>
    <time>2011-05-29T16:26:25.000Z</time>
   </trkpt>
   <trkpt lon="6.49317980" lat="50.36942291">
    <ele>520.21</ele>
    <time>2011-05-29T16:26:41.000Z</time>
   </trkpt>
   <trkpt lon="6.49289799" lat="50.36921692">
    <ele>520.21</ele>
    <time>2011-05-29T16:26:57.000Z</time>
   </trkpt>
   <trkpt lon="6.49250698" lat="50.36878586">
    <ele>519.73</ele>
    <time>2011-05-29T16:27:13.000Z</time>
   </trkpt>
   <trkpt lon="6.49205685" lat="50.36838913">
    <ele>521.17</ele>
    <time>2011-05-29T16:27:30.000Z</time>
   </trkpt>
   <trkpt lon="6.49179697" lat="50.36815262">
    <ele>522.13</ele>
    <time>2011-05-29T16:27:46.000Z</time>
   </trkpt>
   <trkpt lon="6.49162006" lat="50.36804581">
    <ele>523.58</ele>
    <time>2011-05-29T16:27:58.000Z</time>
   </trkpt>
   <trkpt lon="6.49139404" lat="50.36787033">
    <ele>525.5</ele>
    <time>2011-05-29T16:28:16.000Z</time>
   </trkpt>
   <trkpt lon="6.49119616" lat="50.36772537">
    <ele>526.94</ele>
    <time>2011-05-29T16:28:32.000Z</time>
   </trkpt>
   <trkpt lon="6.49105978" lat="50.36757660">
    <ele>528.86</ele>
    <time>2011-05-29T16:28:46.000Z</time>
   </trkpt>
   <trkpt lon="6.49092579" lat="50.36739731">
    <ele>529.82</ele>
    <time>2011-05-29T16:29:01.000Z</time>
   </trkpt>
   <trkpt lon="6.49082088" lat="50.36720276">
    <ele>531.75</ele>
    <time>2011-05-29T16:29:18.000Z</time>
   </trkpt>
   <trkpt lon="6.49076605" lat="50.36697769">
    <ele>533.67</ele>
    <time>2011-05-29T16:29:36.000Z</time>
   </trkpt>
   <trkpt lon="6.49067402" lat="50.36682892">
    <ele>535.59</ele>
    <time>2011-05-29T16:29:49.000Z</time>
   </trkpt>
   <trkpt lon="6.49062395" lat="50.36664200">
    <ele>537.03</ele>
    <time>2011-05-29T16:30:04.000Z</time>
   </trkpt>
   <trkpt lon="6.49061823" lat="50.36662674">
    <ele>536.55</ele>
    <time>2011-05-29T16:30:05.000Z</time>
   </trkpt>
   <trkpt lon="6.49061298" lat="50.36661530">
    <ele>537.51</ele>
    <time>2011-05-29T16:30:06.000Z</time>
   </trkpt>
   <trkpt lon="6.49060917" lat="50.36660385">
    <ele>537.03</ele>
    <time>2011-05-29T16:30:07.000Z</time>
   </trkpt>
   <trkpt lon="6.49060678" lat="50.36659241">
    <ele>536.55</ele>
    <time>2011-05-29T16:30:08.000Z</time>
   </trkpt>
   <trkpt lon="6.49060011" lat="50.36657715">
    <ele>536.55</ele>
    <time>2011-05-29T16:30:09.000Z</time>
   </trkpt>
   <trkpt lon="6.49059105" lat="50.36656570">
    <ele>537.03</ele>
    <time>2011-05-29T16:30:10.000Z</time>
   </trkpt>
   <trkpt lon="6.49058199" lat="50.36655045">
    <ele>537.03</ele>
    <time>2011-05-29T16:30:11.000Z</time>
   </trkpt>
   <trkpt lon="6.49028683" lat="50.36623383">
    <ele>537.51</ele>
    <time>2011-05-29T16:30:28.000Z</time>
   </trkpt>
   <trkpt lon="6.48999786" lat="50.36583710">
    <ele>538.48</ele>
    <time>2011-05-29T16:30:47.000Z</time>
   </trkpt>
   <trkpt lon="6.48999596" lat="50.36582184">
    <ele>537.99</ele>
    <time>2011-05-29T16:30:48.000Z</time>
   </trkpt>
   <trkpt lon="6.48999405" lat="50.36579514">
    <ele>538.48</ele>
    <time>2011-05-29T16:30:50.000Z</time>
   </trkpt>
   <trkpt lon="6.48998594" lat="50.36578369">
    <ele>538.48</ele>
    <time>2011-05-29T16:30:51.000Z</time>
   </trkpt>
   <trkpt lon="6.48998308" lat="50.36576843">
    <ele>538.48</ele>
    <time>2011-05-29T16:30:52.000Z</time>
   </trkpt>
   <trkpt lon="6.48997593" lat="50.36575699">
    <ele>538.48</ele>
    <time>2011-05-29T16:30:53.000Z</time>
   </trkpt>
   <trkpt lon="6.48996305" lat="50.36574554">
    <ele>538.48</ele>
    <time>2011-05-29T16:30:54.000Z</time>
   </trkpt>
   <trkpt lon="6.48995018" lat="50.36573410">
    <ele>538.96</ele>
    <time>2011-05-29T16:30:55.000Z</time>
   </trkpt>
   <trkpt lon="6.48994112" lat="50.36571884">
    <ele>538.96</ele>
    <time>2011-05-29T16:30:56.000Z</time>
   </trkpt>
   <trkpt lon="6.48993683" lat="50.36570740">
    <ele>539.44</ele>
    <time>2011-05-29T16:30:57.000Z</time>
   </trkpt>
   <trkpt lon="6.48993778" lat="50.36569214">
    <ele>538.96</ele>
    <time>2011-05-29T16:30:58.000Z</time>
   </trkpt>
   <trkpt lon="6.48984194" lat="50.36549377">
    <ele>540.88</ele>
    <time>2011-05-29T16:31:15.000Z</time>
   </trkpt>
   <trkpt lon="6.48971415" lat="50.36532593">
    <ele>542.32</ele>
    <time>2011-05-29T16:31:29.000Z</time>
   </trkpt>
   <trkpt lon="6.48968315" lat="50.36528015">
    <ele>542.8</ele>
    <time>2011-05-29T16:31:33.000Z</time>
   </trkpt>
   <trkpt lon="6.48966885" lat="50.36526871">
    <ele>543.28</ele>
    <time>2011-05-29T16:31:34.000Z</time>
   </trkpt>
   <trkpt lon="6.48965883" lat="50.36525726">
    <ele>543.28</ele>
    <time>2011-05-29T16:31:35.000Z</time>
   </trkpt>
   <trkpt lon="6.48964977" lat="50.36524582">
    <ele>543.28</ele>
    <time>2011-05-29T16:31:36.000Z</time>
   </trkpt>
   <trkpt lon="6.48964500" lat="50.36523438">
    <ele>543.28</ele>
    <time>2011-05-29T16:31:37.000Z</time>
   </trkpt>
   <trkpt lon="6.48963881" lat="50.36522293">
    <ele>543.76</ele>
    <time>2011-05-29T16:31:38.000Z</time>
   </trkpt>
   <trkpt lon="6.48942423" lat="50.36503601">
    <ele>545.2</ele>
    <time>2011-05-29T16:31:57.000Z</time>
   </trkpt>
   <trkpt lon="6.48936510" lat="50.36495209">
    <ele>546.65</ele>
    <time>2011-05-29T16:32:04.000Z</time>
   </trkpt>
   <trkpt lon="6.48935223" lat="50.36494446">
    <ele>546.17</ele>
    <time>2011-05-29T16:32:05.000Z</time>
   </trkpt>
   <trkpt lon="6.48934221" lat="50.36493301">
    <ele>546.17</ele>
    <time>2011-05-29T16:32:06.000Z</time>
   </trkpt>
   <trkpt lon="6.48932981" lat="50.36492157">
    <ele>546.17</ele>
    <time>2011-05-29T16:32:07.000Z</time>
   </trkpt>
   <trkpt lon="6.48931599" lat="50.36491394">
    <ele>546.17</ele>
    <time>2011-05-29T16:32:08.000Z</time>
   </trkpt>
   <trkpt lon="6.48908901" lat="50.36484528">
    <ele>547.61</ele>
    <time>2011-05-29T16:32:21.000Z</time>
   </trkpt>
   <trkpt lon="6.48895597" lat="50.36481857">
    <ele>548.57</ele>
    <time>2011-05-29T16:32:28.000Z</time>
   </trkpt>
   <trkpt lon="6.48893881" lat="50.36480713">
    <ele>549.05</ele>
    <time>2011-05-29T16:32:29.000Z</time>
   </trkpt>
   <trkpt lon="6.48862314" lat="50.36474991">
    <ele>551.45</ele>
    <time>2011-05-29T16:32:45.000Z</time>
   </trkpt>
   <trkpt lon="6.48838902" lat="50.36472321">
    <ele>551.93</ele>
    <time>2011-05-29T16:32:56.000Z</time>
   </trkpt>
   <trkpt lon="6.48836803" lat="50.36472321">
    <ele>551.93</ele>
    <time>2011-05-29T16:32:57.000Z</time>
   </trkpt>
   <trkpt lon="6.48834801" lat="50.36471939">
    <ele>551.93</ele>
    <time>2011-05-29T16:32:58.000Z</time>
   </trkpt>
   <trkpt lon="6.48832607" lat="50.36471176">
    <ele>552.41</ele>
    <time>2011-05-29T16:32:59.000Z</time>
   </trkpt>
   <trkpt lon="6.48830509" lat="50.36470795">
    <ele>552.41</ele>
    <time>2011-05-29T16:33:00.000Z</time>
   </trkpt>
   <trkpt lon="6.48828983" lat="50.36470413">
    <ele>552.41</ele>
    <time>2011-05-29T16:33:01.000Z</time>
   </trkpt>
   <trkpt lon="6.48827410" lat="50.36470032">
    <ele>551.93</ele>
    <time>2011-05-29T16:33:02.000Z</time>
   </trkpt>
   <trkpt lon="6.48825312" lat="50.36469650">
    <ele>551.93</ele>
    <time>2011-05-29T16:33:03.000Z</time>
   </trkpt>
   <trkpt lon="6.48823309" lat="50.36469650">
    <ele>552.9</ele>
    <time>2011-05-29T16:33:04.000Z</time>
   </trkpt>
   <trkpt lon="6.48777390" lat="50.36461258">
    <ele>550.01</ele>
    <time>2011-05-29T16:33:21.000Z</time>
   </trkpt>
   <trkpt lon="6.48773479" lat="50.36460114">
    <ele>550.01</ele>
    <time>2011-05-29T16:33:22.000Z</time>
   </trkpt>
   <trkpt lon="6.48715401" lat="50.36449432">
    <ele>550.01</ele>
    <time>2011-05-29T16:33:36.000Z</time>
   </trkpt>
   <trkpt lon="6.48653984" lat="50.36438370">
    <ele>549.05</ele>
    <time>2011-05-29T16:33:47.000Z</time>
   </trkpt>
   <trkpt lon="6.48646307" lat="50.36437225">
    <ele>548.57</ele>
    <time>2011-05-29T16:33:48.000Z</time>
   </trkpt>
   <trkpt lon="6.48638105" lat="50.36436844">
    <ele>548.09</ele>
    <time>2011-05-29T16:33:49.000Z</time>
   </trkpt>
   <trkpt lon="6.48629713" lat="50.36435318">
    <ele>548.09</ele>
    <time>2011-05-29T16:33:50.000Z</time>
   </trkpt>
   <trkpt lon="6.48620987" lat="50.36433029">
    <ele>547.61</ele>
    <time>2011-05-29T16:33:51.000Z</time>
   </trkpt>
   <trkpt lon="6.48611879" lat="50.36429596">
    <ele>546.65</ele>
    <time>2011-05-29T16:33:52.000Z</time>
   </trkpt>
   <trkpt lon="6.48602486" lat="50.36425400">
    <ele>545.2</ele>
    <time>2011-05-29T16:33:53.000Z</time>
   </trkpt>
   <trkpt lon="6.48568678" lat="50.36409378">
    <ele>541.36</ele>
    <time>2011-05-29T16:33:56.000Z</time>
   </trkpt>
   <trkpt lon="6.48541498" lat="50.36396027">
    <ele>537.51</ele>
    <time>2011-05-29T16:33:58.000Z</time>
   </trkpt>
   <trkpt lon="6.48526287" lat="50.36388779">
    <ele>534.15</ele>
    <time>2011-05-29T16:33:59.000Z</time>
   </trkpt>
   <trkpt lon="6.48493290" lat="50.36372757">
    <ele>529.34</ele>
    <time>2011-05-29T16:34:01.000Z</time>
   </trkpt>
   <trkpt lon="6.48457003" lat="50.36356354">
    <ele>524.54</ele>
    <time>2011-05-29T16:34:03.000Z</time>
   </trkpt>
   <trkpt lon="6.48421383" lat="50.36340714">
    <ele>520.69</ele>
    <time>2011-05-29T16:34:05.000Z</time>
   </trkpt>
   <trkpt lon="6.48377895" lat="50.36320496">
    <ele>516.37</ele>
    <time>2011-05-29T16:34:08.000Z</time>
   </trkpt>
   <trkpt lon="6.48341894" lat="50.36304855">
    <ele>513</ele>
    <time>2011-05-29T16:34:11.000Z</time>
   </trkpt>
   <trkpt lon="6.48310709" lat="50.36294174">
    <ele>510.6</ele>
    <time>2011-05-29T16:34:14.000Z</time>
   </trkpt>
   <trkpt lon="6.48270178" lat="50.36286545">
    <ele>506.75</ele>
    <time>2011-05-29T16:34:18.000Z</time>
   </trkpt>
   <trkpt lon="6.48260498" lat="50.36286163">
    <ele>506.27</ele>
    <time>2011-05-29T16:34:19.000Z</time>
   </trkpt>
   <trkpt lon="6.48239279" lat="50.36286926">
    <ele>503.39</ele>
    <time>2011-05-29T16:34:21.000Z</time>
   </trkpt>
   <trkpt lon="6.48208809" lat="50.36291122">
    <ele>499.54</ele>
    <time>2011-05-29T16:34:24.000Z</time>
   </trkpt>
   <trkpt lon="6.48191023" lat="50.36293411">
    <ele>499.06</ele>
    <time>2011-05-29T16:34:26.000Z</time>
   </trkpt>
   <trkpt lon="6.48182392" lat="50.36293411">
    <ele>499.06</ele>
    <time>2011-05-29T16:34:27.000Z</time>
   </trkpt>
   <trkpt lon="6.48174095" lat="50.36291885">
    <ele>499.06</ele>
    <time>2011-05-29T16:34:28.000Z</time>
   </trkpt>
   <trkpt lon="6.48167086" lat="50.36288452">
    <ele>499.06</ele>
    <time>2011-05-29T16:34:29.000Z</time>
   </trkpt>
   <trkpt lon="6.48161602" lat="50.36283875">
    <ele>499.06</ele>
    <time>2011-05-29T16:34:30.000Z</time>
   </trkpt>
   <trkpt lon="6.48157120" lat="50.36278534">
    <ele>499.54</ele>
    <time>2011-05-29T16:34:31.000Z</time>
   </trkpt>
   <trkpt lon="6.48153591" lat="50.36272812">
    <ele>499.06</ele>
    <time>2011-05-29T16:34:32.000Z</time>
   </trkpt>
   <trkpt lon="6.48151588" lat="50.36266327">
    <ele>499.54</ele>
    <time>2011-05-29T16:34:33.000Z</time>
   </trkpt>
   <trkpt lon="6.48151588" lat="50.36260223">
    <ele>498.58</ele>
    <time>2011-05-29T16:34:34.000Z</time>
   </trkpt>
   <trkpt lon="6.48153496" lat="50.36254120">
    <ele>498.1</ele>
    <time>2011-05-29T16:34:35.000Z</time>
   </trkpt>
   <trkpt lon="6.48156404" lat="50.36248398">
    <ele>498.1</ele>
    <time>2011-05-29T16:34:36.000Z</time>
   </trkpt>
   <trkpt lon="6.48158312" lat="50.36243057">
    <ele>499.06</ele>
    <time>2011-05-29T16:34:37.000Z</time>
   </trkpt>
   <trkpt lon="6.48158503" lat="50.36238480">
    <ele>498.58</ele>
    <time>2011-05-29T16:34:38.000Z</time>
   </trkpt>
   <trkpt lon="6.48157406" lat="50.36234283">
    <ele>499.06</ele>
    <time>2011-05-29T16:34:39.000Z</time>
   </trkpt>
   <trkpt lon="6.48155117" lat="50.36231613">
    <ele>499.54</ele>
    <time>2011-05-29T16:34:40.000Z</time>
   </trkpt>
   <trkpt lon="6.48152208" lat="50.36229324">
    <ele>500.02</ele>
    <time>2011-05-29T16:34:41.000Z</time>
   </trkpt>
   <trkpt lon="6.48149300" lat="50.36228180">
    <ele>500.5</ele>
    <time>2011-05-29T16:34:42.000Z</time>
   </trkpt>
   <trkpt lon="6.48147106" lat="50.36227417">
    <ele>500.5</ele>
    <time>2011-05-29T16:34:43.000Z</time>
   </trkpt>
   <trkpt lon="6.48146200" lat="50.36226654">
    <ele>500.02</ele>
    <time>2011-05-29T16:34:56.000Z</time>
   </trkpt>
   <trkpt lon="6.48133183" lat="50.36216736">
    <ele>499.54</ele>
    <time>2011-05-29T16:35:01.000Z</time>
   </trkpt>
   <trkpt lon="6.48127699" lat="50.36214828">
    <ele>499.06</ele>
    <time>2011-05-29T16:35:02.000Z</time>
   </trkpt>
   <trkpt lon="6.48121119" lat="50.36213684">
    <ele>498.58</ele>
    <time>2011-05-29T16:35:03.000Z</time>
   </trkpt>
   <trkpt lon="6.48113394" lat="50.36212921">
    <ele>497.62</ele>
    <time>2011-05-29T16:35:04.000Z</time>
   </trkpt>
   <trkpt lon="6.48105097" lat="50.36211395">
    <ele>497.62</ele>
    <time>2011-05-29T16:35:05.000Z</time>
   </trkpt>
   <trkpt lon="6.48084879" lat="50.36209106">
    <ele>495.7</ele>
    <time>2011-05-29T16:35:07.000Z</time>
   </trkpt>
   <trkpt lon="6.48027611" lat="50.36203384">
    <ele>492.81</ele>
    <time>2011-05-29T16:35:12.000Z</time>
   </trkpt>
   <trkpt lon="6.47988176" lat="50.36198807">
    <ele>490.89</ele>
    <time>2011-05-29T16:35:15.000Z</time>
   </trkpt>
   <trkpt lon="6.47975016" lat="50.36195755">
    <ele>491.37</ele>
    <time>2011-05-29T16:35:16.000Z</time>
   </trkpt>
   <trkpt lon="6.47963095" lat="50.36191177">
    <ele>490.89</ele>
    <time>2011-05-29T16:35:17.000Z</time>
   </trkpt>
   <trkpt lon="6.47950792" lat="50.36186981">
    <ele>490.89</ele>
    <time>2011-05-29T16:35:18.000Z</time>
   </trkpt>
   <trkpt lon="6.47938681" lat="50.36183167">
    <ele>490.89</ele>
    <time>2011-05-29T16:35:19.000Z</time>
   </trkpt>
   <trkpt lon="6.47926903" lat="50.36180496">
    <ele>490.41</ele>
    <time>2011-05-29T16:35:20.000Z</time>
   </trkpt>
   <trkpt lon="6.47915220" lat="50.36177826">
    <ele>490.41</ele>
    <time>2011-05-29T16:35:21.000Z</time>
   </trkpt>
   <trkpt lon="6.47786808" lat="50.36143875">
    <ele>487.53</ele>
    <time>2011-05-29T16:35:33.000Z</time>
   </trkpt>
   <trkpt lon="6.47726583" lat="50.36125565">
    <ele>486.08</ele>
    <time>2011-05-29T16:35:39.000Z</time>
   </trkpt>
   <trkpt lon="6.47717190" lat="50.36121368">
    <ele>485.6</ele>
    <time>2011-05-29T16:35:40.000Z</time>
   </trkpt>
   <trkpt lon="6.47627592" lat="50.36087799">
    <ele>483.2</ele>
    <time>2011-05-29T16:35:51.000Z</time>
   </trkpt>
   <trkpt lon="6.47626019" lat="50.36069870">
    <ele>483.2</ele>
    <time>2011-05-29T16:36:00.000Z</time>
   </trkpt>
   <trkpt lon="6.47651720" lat="50.36051941">
    <ele>480.32</ele>
    <time>2011-05-29T16:36:05.000Z</time>
   </trkpt>
   <trkpt lon="6.47658300" lat="50.36048508">
    <ele>480.32</ele>
    <time>2011-05-29T16:36:06.000Z</time>
   </trkpt>
   <trkpt lon="6.47687101" lat="50.36032867">
    <ele>478.87</ele>
    <time>2011-05-29T16:36:10.000Z</time>
   </trkpt>
   <trkpt lon="6.47741318" lat="50.36006165">
    <ele>479.35</ele>
    <time>2011-05-29T16:36:18.000Z</time>
   </trkpt>
   <trkpt lon="6.47745180" lat="50.36001968">
    <ele>478.87</ele>
    <time>2011-05-29T16:36:19.000Z</time>
   </trkpt>
   <trkpt lon="6.47747183" lat="50.35997391">
    <ele>478.87</ele>
    <time>2011-05-29T16:36:20.000Z</time>
   </trkpt>
   <trkpt lon="6.47747087" lat="50.35992813">
    <ele>479.35</ele>
    <time>2011-05-29T16:36:21.000Z</time>
   </trkpt>
   <trkpt lon="6.47745895" lat="50.35987854">
    <ele>479.35</ele>
    <time>2011-05-29T16:36:22.000Z</time>
   </trkpt>
   <trkpt lon="6.47743177" lat="50.35983658">
    <ele>479.35</ele>
    <time>2011-05-29T16:36:23.000Z</time>
   </trkpt>
   <trkpt lon="6.47739506" lat="50.35980225">
    <ele>479.84</ele>
    <time>2011-05-29T16:36:24.000Z</time>
   </trkpt>
   <trkpt lon="6.47735596" lat="50.35977173">
    <ele>479.84</ele>
    <time>2011-05-29T16:36:25.000Z</time>
   </trkpt>
   <trkpt lon="6.47703886" lat="50.35966873">
    <ele>479.35</ele>
    <time>2011-05-29T16:36:31.000Z</time>
   </trkpt>
   <trkpt lon="6.47679901" lat="50.35955811">
    <ele>479.35</ele>
    <time>2011-05-29T16:36:35.000Z</time>
   </trkpt>
   <trkpt lon="6.47674894" lat="50.35953140">
    <ele>479.35</ele>
    <time>2011-05-29T16:36:36.000Z</time>
   </trkpt>
   <trkpt lon="6.47641516" lat="50.35938644">
    <ele>479.84</ele>
    <time>2011-05-29T16:36:46.000Z</time>
   </trkpt>
   <trkpt lon="6.47613096" lat="50.35919952">
    <ele>481.76</ele>
    <time>2011-05-29T16:36:59.000Z</time>
   </trkpt>
   <trkpt lon="6.47594595" lat="50.35902786">
    <ele>482.24</ele>
    <time>2011-05-29T16:37:12.000Z</time>
   </trkpt>
   <trkpt lon="6.47558689" lat="50.35882950">
    <ele>483.68</ele>
    <time>2011-05-29T16:37:29.000Z</time>
   </trkpt>
   <trkpt lon="6.47526598" lat="50.35867691">
    <ele>484.64</ele>
    <time>2011-05-29T16:37:44.000Z</time>
   </trkpt>
   <trkpt lon="6.47489691" lat="50.35848236">
    <ele>485.12</ele>
    <time>2011-05-29T16:38:01.000Z</time>
   </trkpt>
   <trkpt lon="6.47464085" lat="50.35835648">
    <ele>488.01</ele>
    <time>2011-05-29T16:38:14.000Z</time>
   </trkpt>
   <trkpt lon="6.47445393" lat="50.35824585">
    <ele>488.97</ele>
    <time>2011-05-29T16:38:26.000Z</time>
   </trkpt>
   <trkpt lon="6.47421217" lat="50.35811234">
    <ele>490.41</ele>
    <time>2011-05-29T16:38:39.000Z</time>
   </trkpt>
   <trkpt lon="6.47398520" lat="50.35800171">
    <ele>491.37</ele>
    <time>2011-05-29T16:38:52.000Z</time>
   </trkpt>
   <trkpt lon="6.47385979" lat="50.35794830">
    <ele>491.37</ele>
    <time>2011-05-29T16:38:58.000Z</time>
   </trkpt>
   <trkpt lon="6.47383881" lat="50.35794067">
    <ele>491.37</ele>
    <time>2011-05-29T16:38:59.000Z</time>
   </trkpt>
   <trkpt lon="6.47352600" lat="50.35781860">
    <ele>493.29</ele>
    <time>2011-05-29T16:39:14.000Z</time>
   </trkpt>
   <trkpt lon="6.47350883" lat="50.35781097">
    <ele>493.29</ele>
    <time>2011-05-29T16:39:15.000Z</time>
   </trkpt>
   <trkpt lon="6.47348785" lat="50.35780334">
    <ele>493.29</ele>
    <time>2011-05-29T16:39:16.000Z</time>
   </trkpt>
   <trkpt lon="6.47346115" lat="50.35779190">
    <ele>493.29</ele>
    <time>2011-05-29T16:39:17.000Z</time>
   </trkpt>
   <trkpt lon="6.47344017" lat="50.35778427">
    <ele>493.29</ele>
    <time>2011-05-29T16:39:18.000Z</time>
   </trkpt>
   <trkpt lon="6.47342014" lat="50.35777664">
    <ele>492.81</ele>
    <time>2011-05-29T16:39:19.000Z</time>
   </trkpt>
   <trkpt lon="6.47340202" lat="50.35776901">
    <ele>492.81</ele>
    <time>2011-05-29T16:39:20.000Z</time>
   </trkpt>
   <trkpt lon="6.47338200" lat="50.35776138">
    <ele>492.81</ele>
    <time>2011-05-29T16:39:21.000Z</time>
   </trkpt>
   <trkpt lon="6.47336102" lat="50.35775375">
    <ele>492.81</ele>
    <time>2011-05-29T16:39:22.000Z</time>
   </trkpt>
   <trkpt lon="6.47333813" lat="50.35774994">
    <ele>492.81</ele>
    <time>2011-05-29T16:39:23.000Z</time>
   </trkpt>
   <trkpt lon="6.47331476" lat="50.35774231">
    <ele>492.81</ele>
    <time>2011-05-29T16:39:24.000Z</time>
   </trkpt>
   <trkpt lon="6.47319508" lat="50.35772705">
    <ele>494.26</ele>
    <time>2011-05-29T16:39:29.000Z</time>
   </trkpt>
   <trkpt lon="6.47307014" lat="50.35769653">
    <ele>494.26</ele>
    <time>2011-05-29T16:39:34.000Z</time>
   </trkpt>
   <trkpt lon="6.47304821" lat="50.35768890">
    <ele>494.74</ele>
    <time>2011-05-29T16:39:35.000Z</time>
   </trkpt>
   <trkpt lon="6.47264481" lat="50.35763168">
    <ele>495.22</ele>
    <time>2011-05-29T16:39:50.000Z</time>
   </trkpt>
   <trkpt lon="6.47219801" lat="50.35760498">
    <ele>495.7</ele>
    <time>2011-05-29T16:40:04.000Z</time>
   </trkpt>
   <trkpt lon="6.47157383" lat="50.35761642">
    <ele>496.18</ele>
    <time>2011-05-29T16:40:20.000Z</time>
   </trkpt>
   <trkpt lon="6.47097111" lat="50.35765457">
    <ele>496.18</ele>
    <time>2011-05-29T16:40:35.000Z</time>
   </trkpt>
   <trkpt lon="6.47041178" lat="50.35768509">
    <ele>496.18</ele>
    <time>2011-05-29T16:40:49.000Z</time>
   </trkpt>
   <trkpt lon="6.46983480" lat="50.35776520">
    <ele>496.66</ele>
    <time>2011-05-29T16:41:02.000Z</time>
   </trkpt>
   <trkpt lon="6.46916199" lat="50.35781097">
    <ele>497.14</ele>
    <time>2011-05-29T16:41:16.000Z</time>
   </trkpt>
   <trkpt lon="6.46846104" lat="50.35784531">
    <ele>497.62</ele>
    <time>2011-05-29T16:41:30.000Z</time>
   </trkpt>
   <trkpt lon="6.46810198" lat="50.35788345">
    <ele>497.62</ele>
    <time>2011-05-29T16:41:41.000Z</time>
   </trkpt>
   <trkpt lon="6.46805000" lat="50.35787201">
    <ele>498.1</ele>
    <time>2011-05-29T16:41:43.000Z</time>
   </trkpt>
   <trkpt lon="6.46781778" lat="50.35787582">
    <ele>498.1</ele>
    <time>2011-05-29T16:41:52.000Z</time>
   </trkpt>
   <trkpt lon="6.46776581" lat="50.35786438">
    <ele>497.62</ele>
    <time>2011-05-29T16:42:02.000Z</time>
   </trkpt>
   <trkpt lon="6.46772909" lat="50.35786438">
    <ele>497.62</ele>
    <time>2011-05-29T16:42:03.000Z</time>
   </trkpt>
   <trkpt lon="6.46769094" lat="50.35786819">
    <ele>497.62</ele>
    <time>2011-05-29T16:42:04.000Z</time>
   </trkpt>
   <trkpt lon="6.46764898" lat="50.35787582">
    <ele>497.62</ele>
    <time>2011-05-29T16:42:05.000Z</time>
   </trkpt>
   <trkpt lon="6.46760416" lat="50.35787964">
    <ele>497.62</ele>
    <time>2011-05-29T16:42:06.000Z</time>
   </trkpt>
   <trkpt lon="6.46697378" lat="50.35803986">
    <ele>498.1</ele>
    <time>2011-05-29T16:42:20.000Z</time>
   </trkpt>
   <trkpt lon="6.46634293" lat="50.35823059">
    <ele>498.1</ele>
    <time>2011-05-29T16:42:35.000Z</time>
   </trkpt>
   <trkpt lon="6.46586609" lat="50.35841751">
    <ele>499.54</ele>
    <time>2011-05-29T16:42:47.000Z</time>
   </trkpt>
   <trkpt lon="6.46520901" lat="50.35865402">
    <ele>499.06</ele>
    <time>2011-05-29T16:43:02.000Z</time>
   </trkpt>
   <trkpt lon="6.46466303" lat="50.35891342">
    <ele>499.54</ele>
    <time>2011-05-29T16:43:16.000Z</time>
   </trkpt>
   <trkpt lon="6.46492481" lat="50.35875702">
    <ele>499.54</ele>
    <time>2011-05-29T16:43:28.000Z</time>
   </trkpt>
   <trkpt lon="6.46495199" lat="50.35874939">
    <ele>499.06</ele>
    <time>2011-05-29T16:43:29.000Z</time>
   </trkpt>
   <trkpt lon="6.46500921" lat="50.35878754">
    <ele>499.06</ele>
    <time>2011-05-29T16:43:39.000Z</time>
   </trkpt>
   <trkpt lon="6.46499014" lat="50.35878372">
    <ele>499.06</ele>
    <time>2011-05-29T16:43:40.000Z</time>
   </trkpt>
   <trkpt lon="6.46450281" lat="50.35894775">
    <ele>500.02</ele>
    <time>2011-05-29T16:43:55.000Z</time>
   </trkpt>
   <trkpt lon="6.46400881" lat="50.35921097">
    <ele>500.5</ele>
    <time>2011-05-29T16:44:09.000Z</time>
   </trkpt>
   <trkpt lon="6.46348906" lat="50.35943222">
    <ele>500.98</ele>
    <time>2011-05-29T16:44:22.000Z</time>
   </trkpt>
   <trkpt lon="6.46295786" lat="50.35968781">
    <ele>501.95</ele>
    <time>2011-05-29T16:44:36.000Z</time>
   </trkpt>
   <trkpt lon="6.46240377" lat="50.35992432">
    <ele>502.91</ele>
    <time>2011-05-29T16:44:50.000Z</time>
   </trkpt>
   <trkpt lon="6.46190405" lat="50.36014175">
    <ele>502.91</ele>
    <time>2011-05-29T16:45:03.000Z</time>
   </trkpt>
   <trkpt lon="6.46130705" lat="50.36040115">
    <ele>502.43</ele>
    <time>2011-05-29T16:45:17.000Z</time>
   </trkpt>
   <trkpt lon="6.46059322" lat="50.36070251">
    <ele>500.98</ele>
    <time>2011-05-29T16:45:30.000Z</time>
   </trkpt>
   <trkpt lon="6.46017218" lat="50.36088562">
    <ele>500.5</ele>
    <time>2011-05-29T16:45:37.000Z</time>
   </trkpt>
   <trkpt lon="6.45921278" lat="50.36130905">
    <ele>498.58</ele>
    <time>2011-05-29T16:45:50.000Z</time>
   </trkpt>
   <trkpt lon="6.45859814" lat="50.36152267">
    <ele>499.54</ele>
    <time>2011-05-29T16:46:01.000Z</time>
   </trkpt>
   <trkpt lon="6.45781422" lat="50.36171722">
    <ele>501.46</ele>
    <time>2011-05-29T16:46:19.000Z</time>
   </trkpt>
   <trkpt lon="6.45724487" lat="50.36183167">
    <ele>501.95</ele>
    <time>2011-05-29T16:46:32.000Z</time>
   </trkpt>
   <trkpt lon="6.45663691" lat="50.36192322">
    <ele>502.43</ele>
    <time>2011-05-29T16:46:46.000Z</time>
   </trkpt>
   <trkpt lon="6.45588303" lat="50.36192703">
    <ele>502.91</ele>
    <time>2011-05-29T16:47:02.000Z</time>
   </trkpt>
   <trkpt lon="6.45506620" lat="50.36183548">
    <ele>503.39</ele>
    <time>2011-05-29T16:47:19.000Z</time>
   </trkpt>
   <trkpt lon="6.45481920" lat="50.36177826">
    <ele>503.39</ele>
    <time>2011-05-29T16:47:27.000Z</time>
   </trkpt>
   <trkpt lon="6.45476103" lat="50.36177063">
    <ele>503.87</ele>
    <time>2011-05-29T16:47:40.000Z</time>
   </trkpt>
   <trkpt lon="6.45474386" lat="50.36177444">
    <ele>503.39</ele>
    <time>2011-05-29T16:47:41.000Z</time>
   </trkpt>
   <trkpt lon="6.45470905" lat="50.36177444">
    <ele>503.87</ele>
    <time>2011-05-29T16:47:43.000Z</time>
   </trkpt>
   <trkpt lon="6.45468283" lat="50.36177063">
    <ele>503.87</ele>
    <time>2011-05-29T16:47:44.000Z</time>
   </trkpt>
   <trkpt lon="6.45465517" lat="50.36176682">
    <ele>503.39</ele>
    <time>2011-05-29T16:47:45.000Z</time>
   </trkpt>
   <trkpt lon="6.45462704" lat="50.36175537">
    <ele>503.87</ele>
    <time>2011-05-29T16:47:46.000Z</time>
   </trkpt>
   <trkpt lon="6.45459414" lat="50.36174393">
    <ele>503.87</ele>
    <time>2011-05-29T16:47:47.000Z</time>
   </trkpt>
   <trkpt lon="6.45456219" lat="50.36173248">
    <ele>503.87</ele>
    <time>2011-05-29T16:47:48.000Z</time>
   </trkpt>
   <trkpt lon="6.45453119" lat="50.36172104">
    <ele>503.87</ele>
    <time>2011-05-29T16:47:49.000Z</time>
   </trkpt>
   <trkpt lon="6.45450687" lat="50.36170197">
    <ele>503.87</ele>
    <time>2011-05-29T16:47:50.000Z</time>
   </trkpt>
   <trkpt lon="6.45448399" lat="50.36168289">
    <ele>504.35</ele>
    <time>2011-05-29T16:47:51.000Z</time>
   </trkpt>
   <trkpt lon="6.45445681" lat="50.36166763">
    <ele>504.35</ele>
    <time>2011-05-29T16:47:52.000Z</time>
   </trkpt>
   <trkpt lon="6.45442581" lat="50.36165619">
    <ele>504.35</ele>
    <time>2011-05-29T16:47:53.000Z</time>
   </trkpt>
   <trkpt lon="6.45439100" lat="50.36164856">
    <ele>504.35</ele>
    <time>2011-05-29T16:47:54.000Z</time>
   </trkpt>
   <trkpt lon="6.45435476" lat="50.36163712">
    <ele>504.35</ele>
    <time>2011-05-29T16:47:55.000Z</time>
   </trkpt>
   <trkpt lon="6.45392799" lat="50.36147690">
    <ele>504.83</ele>
    <time>2011-05-29T16:48:09.000Z</time>
   </trkpt>
   <trkpt lon="6.45387697" lat="50.36151505">
    <ele>503.87</ele>
    <time>2011-05-29T16:48:15.000Z</time>
   </trkpt>
   <trkpt lon="6.45396423" lat="50.36162949">
    <ele>502.43</ele>
    <time>2011-05-29T16:48:19.000Z</time>
   </trkpt>
   <trkpt lon="6.45408297" lat="50.36192322">
    <ele>499.06</ele>
    <time>2011-05-29T16:48:31.000Z</time>
   </trkpt>
   <trkpt lon="6.45409489" lat="50.36196136">
    <ele>498.1</ele>
    <time>2011-05-29T16:48:33.000Z</time>
   </trkpt>
   <trkpt lon="6.45422077" lat="50.36199951">
    <ele>498.58</ele>
    <time>2011-05-29T16:48:44.000Z</time>
   </trkpt>
   <trkpt lon="6.45422077" lat="50.36199951">
    <ele>499.06</ele>
    <time>2011-05-29T16:48:58.000Z</time>
   </trkpt>
   
	
  </trkseg>
 </trk>
 <extensions/>
</gpx>
